<?xml version="1.0" encoding="UTF-8" standalone="no" ?>
<gpx xmlns="http://www.topografix.com/GPX/1/1" xmlns:xsi="http://www.w3.org/2001/XMLSchema-instance" creator="Kurviger.de" version="1.1" xmlns:gh="https://kurviger.de/public/schema/gpx/1.1">
<metadata>
<name>TET Belgique 242 km départ dessous Bastogne</name>
<copyright author="OpenStreetMap contributors"/>
<link href="https://kurviger.de">
<text>Kurviger.de GPX</text>
</link>
<time>2025-05-24T13:34:27Z</time>
</metadata>
<trk><name>TET Belgique 242 km départ dessous Bastogne</name><trkseg>
<trkpt lat="49.833638" lon="5.739078"><ele>364.37</ele><time>2025-05-24T13:34:27Z</time></trkpt>
<trkpt lat="49.833803" lon="5.738811"><ele>365.17</ele><time>2025-05-24T13:34:33Z</time></trkpt>
<trkpt lat="49.83396" lon="5.738649"><ele>366.8</ele><time>2025-05-24T13:34:38Z</time></trkpt>
<trkpt lat="49.834179" lon="5.738505"><ele>367.53</ele><time>2025-05-24T13:34:44Z</time></trkpt>
<trkpt lat="49.834371" lon="5.738441"><ele>370.27</ele><time>2025-05-24T13:34:49Z</time></trkpt>
<trkpt lat="49.835638" lon="5.73826"><ele>373.36</ele><time>2025-05-24T13:34:55Z</time></trkpt>
<trkpt lat="49.835867" lon="5.738249"><ele>374.42</ele><time>2025-05-24T13:35:00Z</time></trkpt>
<trkpt lat="49.836085" lon="5.738278"><ele>375.42</ele><time>2025-05-24T13:35:06Z</time></trkpt>
<trkpt lat="49.836435" lon="5.738362"><ele>376.54</ele><time>2025-05-24T13:35:11Z</time></trkpt>
<trkpt lat="49.837125" lon="5.738611"><ele>383.9</ele><time>2025-05-24T13:35:17Z</time></trkpt>
<trkpt lat="49.837805" lon="5.738964"><ele>389.95</ele><time>2025-05-24T13:35:22Z</time></trkpt>
<trkpt lat="49.837865" lon="5.739042"><ele>389.63</ele><time>2025-05-24T13:35:28Z</time></trkpt>
<trkpt lat="49.838192" lon="5.739279"><ele>394.02</ele><time>2025-05-24T13:35:33Z</time></trkpt>
<trkpt lat="49.838428" lon="5.739504"><ele>395.58</ele><time>2025-05-24T13:35:39Z</time></trkpt>
<trkpt lat="49.838716" lon="5.739818"><ele>389.66</ele><time>2025-05-24T13:35:44Z</time></trkpt>
<trkpt lat="49.839883" lon="5.741455"><ele>396.07</ele><time>2025-05-24T13:35:50Z</time></trkpt>
<trkpt lat="49.8399" lon="5.741674"><ele>393.74</ele><time>2025-05-24T13:35:51Z</time></trkpt>
<trkpt lat="49.840036" lon="5.742023"><ele>393.72</ele><time>2025-05-24T13:35:53Z</time></trkpt>
<trkpt lat="49.840257" lon="5.742424"><ele>398.82</ele><time>2025-05-24T13:35:55Z</time></trkpt>
<trkpt lat="49.840352" lon="5.742552"><ele>399.54</ele><time>2025-05-24T13:35:57Z</time></trkpt>
<trkpt lat="49.840435" lon="5.74263"><ele>400.13</ele><time>2025-05-24T13:35:59Z</time></trkpt>
<trkpt lat="49.840548" lon="5.742691"><ele>400.95</ele><time>2025-05-24T13:36:00Z</time></trkpt>
<trkpt lat="49.840478" lon="5.74304"><ele>399.91</ele><time>2025-05-24T13:36:03Z</time></trkpt>
<trkpt lat="49.840475" lon="5.743626"><ele>401.01</ele><time>2025-05-24T13:36:05Z</time></trkpt>
<trkpt lat="49.840426" lon="5.743893"><ele>400.27</ele><time>2025-05-24T13:36:08Z</time></trkpt>
<trkpt lat="49.840322" lon="5.744179"><ele>397.33</ele><time>2025-05-24T13:36:10Z</time></trkpt>
<trkpt lat="49.840083" lon="5.744665"><ele>394.33</ele><time>2025-05-24T13:36:13Z</time></trkpt>
<trkpt lat="49.83999" lon="5.74502"><ele>396.84</ele><time>2025-05-24T13:36:15Z</time></trkpt>
<trkpt lat="49.840003" lon="5.745525"><ele>399.89</ele><time>2025-05-24T13:36:18Z</time></trkpt>
<trkpt lat="49.840101" lon="5.745958"><ele>400.47</ele><time>2025-05-24T13:36:20Z</time></trkpt>
<trkpt lat="49.840249" lon="5.746403"><ele>398.04</ele><time>2025-05-24T13:36:23Z</time></trkpt>
<trkpt lat="49.840387" lon="5.746624"><ele>395.97</ele><time>2025-05-24T13:36:25Z</time></trkpt>
<trkpt lat="49.840584" lon="5.746857"><ele>392.9</ele><time>2025-05-24T13:36:28Z</time></trkpt>
<trkpt lat="49.841019" lon="5.74708"><ele>387.53</ele><time>2025-05-24T13:36:30Z</time></trkpt>
<trkpt lat="49.841412" lon="5.747107"><ele>387.57</ele><time>2025-05-24T13:36:33Z</time></trkpt>
<trkpt lat="49.843599" lon="5.746763"><ele>371.74</ele><time>2025-05-24T13:36:35Z</time></trkpt>
<trkpt lat="49.843793" lon="5.746754"><ele>371.03</ele><time>2025-05-24T13:36:37Z</time></trkpt>
<trkpt lat="49.843994" lon="5.7468"><ele>370.72</ele><time>2025-05-24T13:36:40Z</time></trkpt>
<trkpt lat="49.845108" lon="5.747384"><ele>364.58</ele><time>2025-05-24T13:36:42Z</time></trkpt>
<trkpt lat="49.845368" lon="5.747456"><ele>366.28</ele><time>2025-05-24T13:36:45Z</time></trkpt>
<trkpt lat="49.845865" lon="5.74752"><ele>368.17</ele><time>2025-05-24T13:36:47Z</time></trkpt>
<trkpt lat="49.846235" lon="5.747652"><ele>372.39</ele><time>2025-05-24T13:36:50Z</time></trkpt>
<trkpt lat="49.846524" lon="5.747859"><ele>375.51</ele><time>2025-05-24T13:36:52Z</time></trkpt>
<trkpt lat="49.846826" lon="5.748157"><ele>379.11</ele><time>2025-05-24T13:36:55Z</time></trkpt>
<trkpt lat="49.847053" lon="5.748433"><ele>379.99</ele><time>2025-05-24T13:36:57Z</time></trkpt>
<trkpt lat="49.847358" lon="5.748956"><ele>378.42</ele><time>2025-05-24T13:37:00Z</time></trkpt>
<trkpt lat="49.847527" lon="5.74942"><ele>378.41</ele><time>2025-05-24T13:37:02Z</time></trkpt>
<trkpt lat="49.847657" lon="5.750002"><ele>377.64</ele><time>2025-05-24T13:37:05Z</time></trkpt>
<trkpt lat="49.847703" lon="5.750307"><ele>377.38</ele><time>2025-05-24T13:37:07Z</time></trkpt>
<trkpt lat="49.847724" lon="5.750538"><ele>376.57</ele><time>2025-05-24T13:37:09Z</time></trkpt>
<trkpt lat="49.847716" lon="5.751395"><ele>376.28</ele><time>2025-05-24T13:37:12Z</time></trkpt>
<trkpt lat="49.847707" lon="5.752281"><ele>379.1</ele><time>2025-05-24T13:37:14Z</time></trkpt>
<trkpt lat="49.847771" lon="5.752431"><ele>378.29</ele><time>2025-05-24T13:37:17Z</time></trkpt>
<trkpt lat="49.847857" lon="5.752531"><ele>377.92</ele><time>2025-05-24T13:37:19Z</time></trkpt>
<trkpt lat="49.848" lon="5.75237"><ele>378.47</ele><time>2025-05-24T13:37:25Z</time></trkpt>
<trkpt lat="49.849817" lon="5.749953"><ele>373.48</ele><time>2025-05-24T13:37:30Z</time></trkpt>
<trkpt lat="49.850242" lon="5.749277"><ele>368.39</ele><time>2025-05-24T13:37:35Z</time></trkpt>
<trkpt lat="49.851286" lon="5.747219"><ele>365.87</ele><time>2025-05-24T13:37:40Z</time></trkpt>
<trkpt lat="49.851846" lon="5.746315"><ele>367.8</ele><time>2025-05-24T13:37:46Z</time></trkpt>
<trkpt lat="49.852098" lon="5.746019"><ele>374.61</ele><time>2025-05-24T13:37:51Z</time></trkpt>
<trkpt lat="49.852331" lon="5.745812"><ele>375.98</ele><time>2025-05-24T13:37:56Z</time></trkpt>
<trkpt lat="49.852593" lon="5.745673"><ele>374.63</ele><time>2025-05-24T13:38:01Z</time></trkpt>
<trkpt lat="49.852878" lon="5.745565"><ele>372.32</ele><time>2025-05-24T13:38:07Z</time></trkpt>
<trkpt lat="49.853234" lon="5.745514"><ele>374.42</ele><time>2025-05-24T13:38:12Z</time></trkpt>
<trkpt lat="49.85353" lon="5.745512"><ele>377.2</ele><time>2025-05-24T13:38:17Z</time></trkpt>
<trkpt lat="49.853798" lon="5.745589"><ele>377.35</ele><time>2025-05-24T13:38:22Z</time></trkpt>
<trkpt lat="49.853964" lon="5.745718"><ele>376.47</ele><time>2025-05-24T13:38:27Z</time></trkpt>
<trkpt lat="49.854113" lon="5.745879"><ele>375.58</ele><time>2025-05-24T13:38:33Z</time></trkpt>
<trkpt lat="49.854791" lon="5.747079"><ele>366.52</ele><time>2025-05-24T13:38:38Z</time></trkpt>
<trkpt lat="49.854948" lon="5.747407"><ele>365.87</ele><time>2025-05-24T13:38:43Z</time></trkpt>
<trkpt lat="49.85513" lon="5.747889"><ele>367.91</ele><time>2025-05-24T13:38:48Z</time></trkpt>
<trkpt lat="49.855254" lon="5.748266"><ele>368.8</ele><time>2025-05-24T13:38:54Z</time></trkpt>
<trkpt lat="49.855341" lon="5.74864"><ele>367.56</ele><time>2025-05-24T13:38:59Z</time></trkpt>
<trkpt lat="49.855493" lon="5.74962"><ele>364.85</ele><time>2025-05-24T13:39:04Z</time></trkpt>
<trkpt lat="49.855659" lon="5.750425"><ele>366.24</ele><time>2025-05-24T13:39:09Z</time></trkpt>
<trkpt lat="49.856009" lon="5.75157"><ele>375.0</ele><time>2025-05-24T13:39:15Z</time></trkpt>
<trkpt lat="49.856688" lon="5.753627"><ele>374.63</ele><time>2025-05-24T13:39:20Z</time></trkpt>
<trkpt lat="49.856778" lon="5.754013"><ele>373.12</ele><time>2025-05-24T13:39:25Z</time></trkpt>
<trkpt lat="49.856855" lon="5.754615"><ele>369.64</ele><time>2025-05-24T13:39:30Z</time></trkpt>
<trkpt lat="49.856864" lon="5.755031"><ele>367.46</ele><time>2025-05-24T13:39:36Z</time></trkpt>
<trkpt lat="49.856797" lon="5.756045"><ele>363.82</ele><time>2025-05-24T13:39:41Z</time></trkpt>
<trkpt lat="49.856784" lon="5.756453"><ele>364.24</ele><time>2025-05-24T13:39:46Z</time></trkpt>
<trkpt lat="49.856867" lon="5.756782"><ele>365.58</ele><time>2025-05-24T13:39:51Z</time></trkpt>
<trkpt lat="49.856927" lon="5.756916"><ele>365.91</ele><time>2025-05-24T13:39:57Z</time></trkpt>
<trkpt lat="49.857074" lon="5.757104"><ele>365.05</ele><time>2025-05-24T13:40:02Z</time></trkpt>
<trkpt lat="49.857253" lon="5.757199"><ele>364.49</ele><time>2025-05-24T13:40:07Z</time></trkpt>
<trkpt lat="49.857253" lon="5.757199"><ele>364.49</ele><time>2025-05-24T13:40:07Z</time></trkpt>
<trkpt lat="49.857313" lon="5.75723"><ele>363.93</ele><time>2025-05-24T13:40:10Z</time></trkpt>
<trkpt lat="49.8575" lon="5.757219"><ele>364.01</ele><time>2025-05-24T13:40:13Z</time></trkpt>
<trkpt lat="49.8576" lon="5.757187"><ele>363.41</ele><time>2025-05-24T13:40:17Z</time></trkpt>
<trkpt lat="49.858657" lon="5.75674"><ele>358.45</ele><time>2025-05-24T13:40:20Z</time></trkpt>
<trkpt lat="49.859147" lon="5.756418"><ele>355.21</ele><time>2025-05-24T13:40:23Z</time></trkpt>
<trkpt lat="49.859574" lon="5.755983"><ele>352.95</ele><time>2025-05-24T13:40:26Z</time></trkpt>
<trkpt lat="49.859895" lon="5.755557"><ele>355.49</ele><time>2025-05-24T13:40:29Z</time></trkpt>
<trkpt lat="49.860274" lon="5.755112"><ele>354.27</ele><time>2025-05-24T13:40:33Z</time></trkpt>
<trkpt lat="49.860475" lon="5.754942"><ele>352.35</ele><time>2025-05-24T13:40:36Z</time></trkpt>
<trkpt lat="49.861287" lon="5.754403"><ele>363.32</ele><time>2025-05-24T13:40:39Z</time></trkpt>
<trkpt lat="49.861522" lon="5.75432"><ele>367.45</ele><time>2025-05-24T13:40:42Z</time></trkpt>
<trkpt lat="49.86172" lon="5.754289"><ele>369.97</ele><time>2025-05-24T13:40:45Z</time></trkpt>
<trkpt lat="49.86199" lon="5.754284"><ele>375.31</ele><time>2025-05-24T13:40:48Z</time></trkpt>
<trkpt lat="49.862167" lon="5.754319"><ele>376.97</ele><time>2025-05-24T13:40:52Z</time></trkpt>
<trkpt lat="49.862332" lon="5.75441"><ele>376.7</ele><time>2025-05-24T13:40:55Z</time></trkpt>
<trkpt lat="49.863562" lon="5.755433"><ele>361.91</ele><time>2025-05-24T13:40:58Z</time></trkpt>
<trkpt lat="49.863905" lon="5.755672"><ele>361.06</ele><time>2025-05-24T13:41:01Z</time></trkpt>
<trkpt lat="49.864759" lon="5.756182"><ele>357.68</ele><time>2025-05-24T13:41:04Z</time></trkpt>
<trkpt lat="49.864955" lon="5.756255"><ele>356.69</ele><time>2025-05-24T13:41:08Z</time></trkpt>
<trkpt lat="49.865283" lon="5.756333"><ele>353.82</ele><time>2025-05-24T13:41:11Z</time></trkpt>
<trkpt lat="49.865606" lon="5.75633"><ele>354.12</ele><time>2025-05-24T13:41:14Z</time></trkpt>
<trkpt lat="49.865776" lon="5.756287"><ele>353.07</ele><time>2025-05-24T13:41:17Z</time></trkpt>
<trkpt lat="49.865934" lon="5.756208"><ele>351.52</ele><time>2025-05-24T13:41:20Z</time></trkpt>
<trkpt lat="49.866071" lon="5.756086"><ele>349.52</ele><time>2025-05-24T13:41:24Z</time></trkpt>
<trkpt lat="49.866111" lon="5.756044"><ele>349.25</ele><time>2025-05-24T13:41:27Z</time></trkpt>
<trkpt lat="49.866185" lon="5.755927"><ele>349.84</ele><time>2025-05-24T13:41:30Z</time></trkpt>
<trkpt lat="49.866262" lon="5.755749"><ele>350.27</ele><time>2025-05-24T13:41:33Z</time></trkpt>
<trkpt lat="49.866373" lon="5.755412"><ele>350.14</ele><time>2025-05-24T13:41:36Z</time></trkpt>
<trkpt lat="49.866855" lon="5.754615"><ele>351.68</ele><time>2025-05-24T13:41:39Z</time></trkpt>
<trkpt lat="49.867716" lon="5.753025"><ele>349.13</ele><time>2025-05-24T13:41:43Z</time></trkpt>
<trkpt lat="49.867853" lon="5.752829"><ele>349.14</ele><time>2025-05-24T13:41:46Z</time></trkpt>
<trkpt lat="49.868025" lon="5.752645"><ele>349.71</ele><time>2025-05-24T13:41:49Z</time></trkpt>
<trkpt lat="49.868193" lon="5.752514"><ele>348.94</ele><time>2025-05-24T13:41:52Z</time></trkpt>
<trkpt lat="49.868716" lon="5.75219"><ele>350.08</ele><time>2025-05-24T13:41:55Z</time></trkpt>
<trkpt lat="49.868951" lon="5.752009"><ele>352.39</ele><time>2025-05-24T13:41:59Z</time></trkpt>
<trkpt lat="49.868993" lon="5.751964"><ele>353.14</ele><time>2025-05-24T13:42:02Z</time></trkpt>
<trkpt lat="49.869151" lon="5.751661"><ele>357.14</ele><time>2025-05-24T13:42:05Z</time></trkpt>
<trkpt lat="49.869196" lon="5.751504"><ele>359.5</ele><time>2025-05-24T13:42:08Z</time></trkpt>
<trkpt lat="49.869356" lon="5.75028"><ele>370.73</ele><time>2025-05-24T13:42:11Z</time></trkpt>
<trkpt lat="49.869481" lon="5.749857"><ele>372.39</ele><time>2025-05-24T13:42:15Z</time></trkpt>
<trkpt lat="49.869553" lon="5.749728"><ele>373.76</ele><time>2025-05-24T13:42:18Z</time></trkpt>
<trkpt lat="49.869681" lon="5.749642"><ele>376.68</ele><time>2025-05-24T13:42:21Z</time></trkpt>
<trkpt lat="49.86974" lon="5.749658"><ele>378.28</ele><time>2025-05-24T13:42:24Z</time></trkpt>
<trkpt lat="49.869785" lon="5.749712"><ele>379.77</ele><time>2025-05-24T13:42:27Z</time></trkpt>
<trkpt lat="49.869806" lon="5.749803"><ele>380.61</ele><time>2025-05-24T13:42:30Z</time></trkpt>
<trkpt lat="49.869806" lon="5.7499"><ele>380.85</ele><time>2025-05-24T13:42:34Z</time></trkpt>
<trkpt lat="49.869754" lon="5.750146"><ele>379.8</ele><time>2025-05-24T13:42:37Z</time></trkpt>
<trkpt lat="49.869756" lon="5.750209"><ele>379.86</ele><time>2025-05-24T13:42:40Z</time></trkpt>
<trkpt lat="49.869798" lon="5.75053"><ele>379.84</ele><time>2025-05-24T13:42:43Z</time></trkpt>
<trkpt lat="49.869906" lon="5.750751"><ele>384.07</ele><time>2025-05-24T13:42:46Z</time></trkpt>
<trkpt lat="49.870326" lon="5.751268"><ele>391.81</ele><time>2025-05-24T13:42:50Z</time></trkpt>
<trkpt lat="49.870625" lon="5.751438"><ele>394.95</ele><time>2025-05-24T13:42:53Z</time></trkpt>
<trkpt lat="49.870909" lon="5.751542"><ele>394.28</ele><time>2025-05-24T13:42:56Z</time></trkpt>
<trkpt lat="49.871475" lon="5.751484"><ele>391.9</ele><time>2025-05-24T13:42:59Z</time></trkpt>
<trkpt lat="49.871723" lon="5.751589"><ele>392.61</ele><time>2025-05-24T13:43:02Z</time></trkpt>
<trkpt lat="49.871941" lon="5.751779"><ele>394.3</ele><time>2025-05-24T13:43:06Z</time></trkpt>
<trkpt lat="49.872909" lon="5.75285"><ele>395.98</ele><time>2025-05-24T13:43:09Z</time></trkpt>
<trkpt lat="49.87336" lon="5.75293"><ele>404.73</ele><time>2025-05-24T13:43:12Z</time></trkpt>
<trkpt lat="49.873827" lon="5.752937"><ele>411.84</ele><time>2025-05-24T13:43:15Z</time></trkpt>
<trkpt lat="49.874465" lon="5.752661"><ele>412.76</ele><time>2025-05-24T13:43:18Z</time></trkpt>
<trkpt lat="49.875147" lon="5.752233"><ele>420.21</ele><time>2025-05-24T13:43:21Z</time></trkpt>
<trkpt lat="49.875806" lon="5.752187"><ele>425.35</ele><time>2025-05-24T13:43:25Z</time></trkpt>
<trkpt lat="49.876376" lon="5.752051"><ele>432.77</ele><time>2025-05-24T13:43:28Z</time></trkpt>
<trkpt lat="49.876698" lon="5.751571"><ele>435.85</ele><time>2025-05-24T13:43:31Z</time></trkpt>
<trkpt lat="49.876907" lon="5.751308"><ele>433.98</ele><time>2025-05-24T13:43:34Z</time></trkpt>
<trkpt lat="49.877075" lon="5.751178"><ele>433.13</ele><time>2025-05-24T13:43:37Z</time></trkpt>
<trkpt lat="49.877327" lon="5.751045"><ele>433.0</ele><time>2025-05-24T13:43:41Z</time></trkpt>
<trkpt lat="49.877467" lon="5.751002"><ele>433.0</ele><time>2025-05-24T13:43:44Z</time></trkpt>
<trkpt lat="49.877667" lon="5.751006"><ele>433.37</ele><time>2025-05-24T13:43:47Z</time></trkpt>
<trkpt lat="49.878115" lon="5.750717"><ele>433.74</ele><time>2025-05-24T13:43:50Z</time></trkpt>
<trkpt lat="49.878115" lon="5.750717"><ele>433.74</ele><time>2025-05-24T13:43:50Z</time></trkpt>
<trkpt lat="49.878204" lon="5.75066"><ele>434.11</ele><time>2025-05-24T13:43:51Z</time></trkpt>
<trkpt lat="49.87803" lon="5.750423"><ele>432.91</ele><time>2025-05-24T13:43:55Z</time></trkpt>
<trkpt lat="49.8777" lon="5.74984"><ele>431.68</ele><time>2025-05-24T13:43:59Z</time></trkpt>
<trkpt lat="49.877339" lon="5.749111"><ele>428.01</ele><time>2025-05-24T13:44:03Z</time></trkpt>
<trkpt lat="49.877276" lon="5.74892"><ele>427.72</ele><time>2025-05-24T13:44:07Z</time></trkpt>
<trkpt lat="49.877156" lon="5.748665"><ele>427.81</ele><time>2025-05-24T13:44:11Z</time></trkpt>
<trkpt lat="49.876845" lon="5.748067"><ele>426.34</ele><time>2025-05-24T13:44:15Z</time></trkpt>
<trkpt lat="49.876106" lon="5.746794"><ele>415.98</ele><time>2025-05-24T13:44:19Z</time></trkpt>
<trkpt lat="49.87575" lon="5.746247"><ele>414.7</ele><time>2025-05-24T13:44:23Z</time></trkpt>
<trkpt lat="49.875191" lon="5.745777"><ele>410.62</ele><time>2025-05-24T13:44:27Z</time></trkpt>
<trkpt lat="49.874803" lon="5.745229"><ele>407.05</ele><time>2025-05-24T13:44:31Z</time></trkpt>
<trkpt lat="49.87426" lon="5.743817"><ele>399.14</ele><time>2025-05-24T13:44:35Z</time></trkpt>
<trkpt lat="49.873938" lon="5.743162"><ele>390.78</ele><time>2025-05-24T13:44:39Z</time></trkpt>
<trkpt lat="49.873338" lon="5.742337"><ele>375.85</ele><time>2025-05-24T13:44:43Z</time></trkpt>
<trkpt lat="49.873232" lon="5.742233"><ele>375.79</ele><time>2025-05-24T13:44:46Z</time></trkpt>
<trkpt lat="49.873134" lon="5.742182"><ele>376.65</ele><time>2025-05-24T13:44:50Z</time></trkpt>
<trkpt lat="49.873062" lon="5.742182"><ele>377.23</ele><time>2025-05-24T13:44:54Z</time></trkpt>
<trkpt lat="49.872849" lon="5.742256"><ele>379.74</ele><time>2025-05-24T13:44:58Z</time></trkpt>
<trkpt lat="49.872597" lon="5.742411"><ele>382.85</ele><time>2025-05-24T13:45:02Z</time></trkpt>
<trkpt lat="49.872336" lon="5.742481"><ele>389.82</ele><time>2025-05-24T13:45:06Z</time></trkpt>
<trkpt lat="49.870776" lon="5.742287"><ele>398.84</ele><time>2025-05-24T13:45:10Z</time></trkpt>
<trkpt lat="49.870512" lon="5.742197"><ele>397.18</ele><time>2025-05-24T13:45:14Z</time></trkpt>
<trkpt lat="49.870349" lon="5.742104"><ele>394.07</ele><time>2025-05-24T13:45:18Z</time></trkpt>
<trkpt lat="49.870193" lon="5.741953"><ele>392.69</ele><time>2025-05-24T13:45:22Z</time></trkpt>
<trkpt lat="49.869338" lon="5.740322"><ele>393.55</ele><time>2025-05-24T13:45:26Z</time></trkpt>
<trkpt lat="49.869196" lon="5.740118"><ele>390.98</ele><time>2025-05-24T13:45:30Z</time></trkpt>
<trkpt lat="49.867372" lon="5.738478"><ele>401.21</ele><time>2025-05-24T13:45:34Z</time></trkpt>
<trkpt lat="49.867149" lon="5.73821"><ele>401.62</ele><time>2025-05-24T13:45:38Z</time></trkpt>
<trkpt lat="49.866498" lon="5.737167"><ele>414.66</ele><time>2025-05-24T13:45:42Z</time></trkpt>
<trkpt lat="49.865798" lon="5.736096"><ele>424.14</ele><time>2025-05-24T13:45:46Z</time></trkpt>
<trkpt lat="49.86521" lon="5.735128"><ele>426.5</ele><time>2025-05-24T13:45:50Z</time></trkpt>
<trkpt lat="49.865034" lon="5.734756"><ele>428.64</ele><time>2025-05-24T13:45:54Z</time></trkpt>
<trkpt lat="49.864871" lon="5.734352"><ele>430.83</ele><time>2025-05-24T13:45:58Z</time></trkpt>
<trkpt lat="49.864559" lon="5.733267"><ele>430.3</ele><time>2025-05-24T13:46:02Z</time></trkpt>
<trkpt lat="49.863184" lon="5.728697"><ele>442.05</ele><time>2025-05-24T13:46:05Z</time></trkpt>
<trkpt lat="49.863001" lon="5.727946"><ele>448.07</ele><time>2025-05-24T13:46:09Z</time></trkpt>
<trkpt lat="49.862938" lon="5.727552"><ele>450.5</ele><time>2025-05-24T13:46:13Z</time></trkpt>
<trkpt lat="49.862916" lon="5.727247"><ele>451.92</ele><time>2025-05-24T13:46:17Z</time></trkpt>
<trkpt lat="49.862919" lon="5.726893"><ele>453.85</ele><time>2025-05-24T13:46:21Z</time></trkpt>
<trkpt lat="49.862679" lon="5.726988"><ele>455.55</ele><time>2025-05-24T13:46:37Z</time></trkpt>
<trkpt lat="49.861986" lon="5.727133"><ele>460.02</ele><time>2025-05-24T13:46:53Z</time></trkpt>
<trkpt lat="49.860734" lon="5.728025"><ele>463.93</ele><time>2025-05-24T13:47:09Z</time></trkpt>
<trkpt lat="49.859375" lon="5.728519"><ele>469.75</ele><time>2025-05-24T13:47:25Z</time></trkpt>
<trkpt lat="49.859088" lon="5.727664"><ele>469.17</ele><time>2025-05-24T13:47:27Z</time></trkpt>
<trkpt lat="49.858984" lon="5.727448"><ele>468.88</ele><time>2025-05-24T13:47:28Z</time></trkpt>
<trkpt lat="49.858478" lon="5.726742"><ele>468.1</ele><time>2025-05-24T13:47:30Z</time></trkpt>
<trkpt lat="49.858419" lon="5.726635"><ele>468.39</ele><time>2025-05-24T13:47:32Z</time></trkpt>
<trkpt lat="49.859137" lon="5.725761"><ele>462.98</ele><time>2025-05-24T13:47:33Z</time></trkpt>
<trkpt lat="49.859189" lon="5.725646"><ele>462.24</ele><time>2025-05-24T13:47:35Z</time></trkpt>
<trkpt lat="49.859198" lon="5.725588"><ele>462.01</ele><time>2025-05-24T13:47:37Z</time></trkpt>
<trkpt lat="49.859193" lon="5.725509"><ele>461.9</ele><time>2025-05-24T13:47:38Z</time></trkpt>
<trkpt lat="49.85916" lon="5.725446"><ele>462.05</ele><time>2025-05-24T13:47:40Z</time></trkpt>
<trkpt lat="49.858966" lon="5.725143"><ele>461.89</ele><time>2025-05-24T13:47:41Z</time></trkpt>
<trkpt lat="49.858909" lon="5.725054"><ele>461.38</ele><time>2025-05-24T13:47:43Z</time></trkpt>
<trkpt lat="49.85958" lon="5.723967"><ele>459.26</ele><time>2025-05-24T13:47:47Z</time></trkpt>
<trkpt lat="49.860539" lon="5.722675"><ele>460.82</ele><time>2025-05-24T13:47:52Z</time></trkpt>
<trkpt lat="49.861415" lon="5.721252"><ele>462.81</ele><time>2025-05-24T13:47:56Z</time></trkpt>
<trkpt lat="49.861913" lon="5.720612"><ele>458.61</ele><time>2025-05-24T13:48:00Z</time></trkpt>
<trkpt lat="49.862549" lon="5.719615"><ele>459.25</ele><time>2025-05-24T13:48:05Z</time></trkpt>
<trkpt lat="49.862845" lon="5.719109"><ele>461.43</ele><time>2025-05-24T13:48:09Z</time></trkpt>
<trkpt lat="49.863174" lon="5.718438"><ele>462.42</ele><time>2025-05-24T13:48:13Z</time></trkpt>
<trkpt lat="49.863261" lon="5.718196"><ele>462.74</ele><time>2025-05-24T13:48:18Z</time></trkpt>
<trkpt lat="49.863467" lon="5.717411"><ele>463.17</ele><time>2025-05-24T13:48:22Z</time></trkpt>
<trkpt lat="49.863391" lon="5.717185"><ele>463.95</ele><time>2025-05-24T13:48:25Z</time></trkpt>
<trkpt lat="49.863097" lon="5.715559"><ele>470.68</ele><time>2025-05-24T13:48:29Z</time></trkpt>
<trkpt lat="49.863039" lon="5.715393"><ele>471.59</ele><time>2025-05-24T13:48:32Z</time></trkpt>
<trkpt lat="49.862463" lon="5.714528"><ele>471.86</ele><time>2025-05-24T13:48:35Z</time></trkpt>
<trkpt lat="49.859566" lon="5.710359"><ele>465.44</ele><time>2025-05-24T13:48:39Z</time></trkpt>
<trkpt lat="49.859326" lon="5.709874"><ele>463.38</ele><time>2025-05-24T13:48:42Z</time></trkpt>
<trkpt lat="49.858792" lon="5.708542"><ele>458.35</ele><time>2025-05-24T13:48:45Z</time></trkpt>
<trkpt lat="49.858579" lon="5.708061"><ele>458.89</ele><time>2025-05-24T13:48:49Z</time></trkpt>
<trkpt lat="49.858454" lon="5.707825"><ele>457.13</ele><time>2025-05-24T13:48:52Z</time></trkpt>
<trkpt lat="49.858284" lon="5.707558"><ele>454.24</ele><time>2025-05-24T13:48:55Z</time></trkpt>
<trkpt lat="49.857959" lon="5.707099"><ele>448.13</ele><time>2025-05-24T13:48:59Z</time></trkpt>
<trkpt lat="49.857458" lon="5.706307"><ele>443.76</ele><time>2025-05-24T13:49:02Z</time></trkpt>
<trkpt lat="49.857143" lon="5.705706"><ele>440.26</ele><time>2025-05-24T13:49:05Z</time></trkpt>
<trkpt lat="49.856889" lon="5.705151"><ele>434.19</ele><time>2025-05-24T13:49:09Z</time></trkpt>
<trkpt lat="49.856638" lon="5.704404"><ele>428.37</ele><time>2025-05-24T13:49:12Z</time></trkpt>
<trkpt lat="49.856127" lon="5.702383"><ele>411.33</ele><time>2025-05-24T13:49:16Z</time></trkpt>
<trkpt lat="49.855775" lon="5.701068"><ele>400.2</ele><time>2025-05-24T13:49:19Z</time></trkpt>
<trkpt lat="49.855684" lon="5.700849"><ele>399.12</ele><time>2025-05-24T13:49:22Z</time></trkpt>
<trkpt lat="49.85555" lon="5.700675"><ele>396.75</ele><time>2025-05-24T13:49:26Z</time></trkpt>
<trkpt lat="49.855413" lon="5.700586"><ele>396.01</ele><time>2025-05-24T13:49:29Z</time></trkpt>
<trkpt lat="49.855243" lon="5.700535"><ele>394.85</ele><time>2025-05-24T13:49:32Z</time></trkpt>
<trkpt lat="49.854184" lon="5.7007"><ele>388.31</ele><time>2025-05-24T13:49:36Z</time></trkpt>
<trkpt lat="49.854094" lon="5.700643"><ele>387.05</ele><time>2025-05-24T13:49:39Z</time></trkpt>
<trkpt lat="49.854036" lon="5.700578"><ele>385.56</ele><time>2025-05-24T13:49:42Z</time></trkpt>
<trkpt lat="49.853658" lon="5.699857"><ele>376.43</ele><time>2025-05-24T13:49:46Z</time></trkpt>
<trkpt lat="49.853436" lon="5.699364"><ele>380.69</ele><time>2025-05-24T13:49:49Z</time></trkpt>
<trkpt lat="49.85338" lon="5.699145"><ele>382.27</ele><time>2025-05-24T13:49:52Z</time></trkpt>
<trkpt lat="49.853304" lon="5.698692"><ele>383.63</ele><time>2025-05-24T13:49:56Z</time></trkpt>
<trkpt lat="49.853248" lon="5.698487"><ele>383.69</ele><time>2025-05-24T13:49:59Z</time></trkpt>
<trkpt lat="49.852723" lon="5.697627"><ele>380.13</ele><time>2025-05-24T13:50:02Z</time></trkpt>
<trkpt lat="49.852646" lon="5.697444"><ele>379.58</ele><time>2025-05-24T13:50:06Z</time></trkpt>
<trkpt lat="49.852537" lon="5.697131"><ele>377.71</ele><time>2025-05-24T13:50:09Z</time></trkpt>
<trkpt lat="49.852478" lon="5.696861"><ele>377.12</ele><time>2025-05-24T13:50:12Z</time></trkpt>
<trkpt lat="49.852361" lon="5.696091"><ele>377.61</ele><time>2025-05-24T13:50:16Z</time></trkpt>
<trkpt lat="49.852304" lon="5.695849"><ele>378.49</ele><time>2025-05-24T13:50:19Z</time></trkpt>
<trkpt lat="49.852314" lon="5.695568"><ele>380.89</ele><time>2025-05-24T13:50:22Z</time></trkpt>
<trkpt lat="49.852223" lon="5.693876"><ele>389.06</ele><time>2025-05-24T13:50:26Z</time></trkpt>
<trkpt lat="49.852161" lon="5.693364"><ele>388.97</ele><time>2025-05-24T13:50:29Z</time></trkpt>
<trkpt lat="49.852107" lon="5.693142"><ele>387.68</ele><time>2025-05-24T13:50:32Z</time></trkpt>
<trkpt lat="49.851981" lon="5.692737"><ele>384.98</ele><time>2025-05-24T13:50:35Z</time></trkpt>
<trkpt lat="49.851419" lon="5.691312"><ele>383.82</ele><time>2025-05-24T13:50:38Z</time></trkpt>
<trkpt lat="49.850814" lon="5.689367"><ele>386.61</ele><time>2025-05-24T13:50:42Z</time></trkpt>
<trkpt lat="49.850503" lon="5.688257"><ele>386.08</ele><time>2025-05-24T13:50:45Z</time></trkpt>
<trkpt lat="49.850418" lon="5.68786"><ele>386.16</ele><time>2025-05-24T13:50:48Z</time></trkpt>
<trkpt lat="49.850371" lon="5.687548"><ele>383.69</ele><time>2025-05-24T13:50:51Z</time></trkpt>
<trkpt lat="49.850284" lon="5.685934"><ele>385.27</ele><time>2025-05-24T13:50:54Z</time></trkpt>
<trkpt lat="49.85015" lon="5.684992"><ele>390.97</ele><time>2025-05-24T13:50:57Z</time></trkpt>
<trkpt lat="49.849759" lon="5.683507"><ele>395.53</ele><time>2025-05-24T13:51:01Z</time></trkpt>
<trkpt lat="49.849338" lon="5.682025"><ele>400.28</ele><time>2025-05-24T13:51:04Z</time></trkpt>
<trkpt lat="49.849292" lon="5.681757"><ele>400.49</ele><time>2025-05-24T13:51:07Z</time></trkpt>
<trkpt lat="49.849274" lon="5.681464"><ele>402.28</ele><time>2025-05-24T13:51:10Z</time></trkpt>
<trkpt lat="49.849298" lon="5.680972"><ele>405.1</ele><time>2025-05-24T13:51:13Z</time></trkpt>
<trkpt lat="49.849454" lon="5.680463"><ele>408.77</ele><time>2025-05-24T13:51:17Z</time></trkpt>
<trkpt lat="49.849981" lon="5.679619"><ele>410.63</ele><time>2025-05-24T13:51:20Z</time></trkpt>
<trkpt lat="49.85024" lon="5.679116"><ele>411.29</ele><time>2025-05-24T13:51:23Z</time></trkpt>
<trkpt lat="49.850494" lon="5.678446"><ele>414.65</ele><time>2025-05-24T13:51:26Z</time></trkpt>
<trkpt lat="49.850672" lon="5.67765"><ele>416.86</ele><time>2025-05-24T13:51:29Z</time></trkpt>
<trkpt lat="49.850733" lon="5.677133"><ele>420.37</ele><time>2025-05-24T13:51:33Z</time></trkpt>
<trkpt lat="49.850749" lon="5.676627"><ele>424.12</ele><time>2025-05-24T13:51:36Z</time></trkpt>
<trkpt lat="49.850766" lon="5.676361"><ele>425.99</ele><time>2025-05-24T13:51:39Z</time></trkpt>
<trkpt lat="49.850809" lon="5.676099"><ele>426.39</ele><time>2025-05-24T13:51:42Z</time></trkpt>
<trkpt lat="49.850914" lon="5.675768"><ele>429.77</ele><time>2025-05-24T13:51:45Z</time></trkpt>
<trkpt lat="49.85105" lon="5.675457"><ele>433.96</ele><time>2025-05-24T13:51:49Z</time></trkpt>
<trkpt lat="49.851183" lon="5.6751"><ele>435.66</ele><time>2025-05-24T13:51:52Z</time></trkpt>
<trkpt lat="49.851267" lon="5.674629"><ele>436.92</ele><time>2025-05-24T13:51:55Z</time></trkpt>
<trkpt lat="49.8514" lon="5.674082"><ele>437.86</ele><time>2025-05-24T13:51:58Z</time></trkpt>
<trkpt lat="49.851664" lon="5.673211"><ele>442.37</ele><time>2025-05-24T13:52:01Z</time></trkpt>
<trkpt lat="49.851855" lon="5.672502"><ele>443.09</ele><time>2025-05-24T13:52:05Z</time></trkpt>
<trkpt lat="49.85195" lon="5.672049"><ele>441.88</ele><time>2025-05-24T13:52:08Z</time></trkpt>
<trkpt lat="49.852173" lon="5.670422"><ele>448.59</ele><time>2025-05-24T13:52:11Z</time></trkpt>
<trkpt lat="49.852267" lon="5.670099"><ele>450.76</ele><time>2025-05-24T13:52:14Z</time></trkpt>
<trkpt lat="49.852349" lon="5.669935"><ele>452.29</ele><time>2025-05-24T13:52:17Z</time></trkpt>
<trkpt lat="49.852447" lon="5.669792"><ele>454.05</ele><time>2025-05-24T13:52:21Z</time></trkpt>
<trkpt lat="49.853356" lon="5.668808"><ele>460.02</ele><time>2025-05-24T13:52:24Z</time></trkpt>
<trkpt lat="49.853453" lon="5.668667"><ele>460.34</ele><time>2025-05-24T13:52:27Z</time></trkpt>
<trkpt lat="49.853546" lon="5.66843"><ele>460.92</ele><time>2025-05-24T13:52:30Z</time></trkpt>
<trkpt lat="49.853581" lon="5.668146"><ele>461.07</ele><time>2025-05-24T13:52:33Z</time></trkpt>
<trkpt lat="49.853567" lon="5.667774"><ele>462.16</ele><time>2025-05-24T13:52:36Z</time></trkpt>
<trkpt lat="49.85349" lon="5.667347"><ele>462.67</ele><time>2025-05-24T13:52:40Z</time></trkpt>
<trkpt lat="49.853226" lon="5.666417"><ele>463.45</ele><time>2025-05-24T13:52:43Z</time></trkpt>
<trkpt lat="49.85303" lon="5.665975"><ele>463.14</ele><time>2025-05-24T13:52:46Z</time></trkpt>
<trkpt lat="49.851848" lon="5.663625"><ele>467.0</ele><time>2025-05-24T13:52:49Z</time></trkpt>
<trkpt lat="49.851661" lon="5.663131"><ele>465.98</ele><time>2025-05-24T13:52:52Z</time></trkpt>
<trkpt lat="49.85158" lon="5.662786"><ele>465.69</ele><time>2025-05-24T13:52:56Z</time></trkpt>
<trkpt lat="49.851507" lon="5.662343"><ele>464.43</ele><time>2025-05-24T13:52:59Z</time></trkpt>
<trkpt lat="49.851501" lon="5.662175"><ele>463.93</ele><time>2025-05-24T13:53:02Z</time></trkpt>
<trkpt lat="49.851517" lon="5.661913"><ele>463.59</ele><time>2025-05-24T13:53:05Z</time></trkpt>
<trkpt lat="49.851569" lon="5.661625"><ele>463.9</ele><time>2025-05-24T13:53:08Z</time></trkpt>
<trkpt lat="49.851712" lon="5.66122"><ele>462.26</ele><time>2025-05-24T13:53:12Z</time></trkpt>
<trkpt lat="49.852025" lon="5.660756"><ele>461.7</ele><time>2025-05-24T13:53:15Z</time></trkpt>
<trkpt lat="49.852328" lon="5.660415"><ele>460.74</ele><time>2025-05-24T13:53:18Z</time></trkpt>
<trkpt lat="49.852649" lon="5.660046"><ele>459.37</ele><time>2025-05-24T13:53:21Z</time></trkpt>
<trkpt lat="49.853008" lon="5.659636"><ele>459.0</ele><time>2025-05-24T13:53:24Z</time></trkpt>
<trkpt lat="49.853408" lon="5.659103"><ele>460.5</ele><time>2025-05-24T13:53:28Z</time></trkpt>
<trkpt lat="49.8536" lon="5.658778"><ele>461.96</ele><time>2025-05-24T13:53:31Z</time></trkpt>
<trkpt lat="49.853848" lon="5.658276"><ele>461.0</ele><time>2025-05-24T13:53:34Z</time></trkpt>
<trkpt lat="49.854077" lon="5.657699"><ele>464.31</ele><time>2025-05-24T13:53:37Z</time></trkpt>
<trkpt lat="49.854274" lon="5.657143"><ele>465.6</ele><time>2025-05-24T13:53:40Z</time></trkpt>
<trkpt lat="49.854361" lon="5.656821"><ele>463.99</ele><time>2025-05-24T13:53:44Z</time></trkpt>
<trkpt lat="49.85444" lon="5.656413"><ele>462.13</ele><time>2025-05-24T13:53:47Z</time></trkpt>
<trkpt lat="49.854484" lon="5.655939"><ele>461.1</ele><time>2025-05-24T13:53:50Z</time></trkpt>
<trkpt lat="49.854496" lon="5.655645"><ele>462.06</ele><time>2025-05-24T13:53:53Z</time></trkpt>
<trkpt lat="49.854486" lon="5.655207"><ele>464.63</ele><time>2025-05-24T13:53:56Z</time></trkpt>
<trkpt lat="49.854453" lon="5.654824"><ele>465.23</ele><time>2025-05-24T13:53:59Z</time></trkpt>
<trkpt lat="49.854326" lon="5.654017"><ele>467.24</ele><time>2025-05-24T13:54:03Z</time></trkpt>
<trkpt lat="49.85431" lon="5.653842"><ele>468.1</ele><time>2025-05-24T13:54:06Z</time></trkpt>
<trkpt lat="49.854312" lon="5.653653"><ele>468.75</ele><time>2025-05-24T13:54:09Z</time></trkpt>
<trkpt lat="49.854339" lon="5.653376"><ele>469.04</ele><time>2025-05-24T13:54:12Z</time></trkpt>
<trkpt lat="49.854426" lon="5.652918"><ele>468.57</ele><time>2025-05-24T13:54:15Z</time></trkpt>
<trkpt lat="49.854559" lon="5.65257"><ele>469.05</ele><time>2025-05-24T13:54:19Z</time></trkpt>
<trkpt lat="49.85465" lon="5.652381"><ele>470.6</ele><time>2025-05-24T13:54:22Z</time></trkpt>
<trkpt lat="49.855134" lon="5.651712"><ele>474.2</ele><time>2025-05-24T13:54:25Z</time></trkpt>
<trkpt lat="49.855329" lon="5.651331"><ele>474.45</ele><time>2025-05-24T13:54:28Z</time></trkpt>
<trkpt lat="49.85549" lon="5.650736"><ele>472.05</ele><time>2025-05-24T13:54:31Z</time></trkpt>
<trkpt lat="49.857083" lon="5.643928"><ele>496.65</ele><time>2025-05-24T13:54:35Z</time></trkpt>
<trkpt lat="49.857186" lon="5.643594"><ele>499.57</ele><time>2025-05-24T13:54:38Z</time></trkpt>
<trkpt lat="49.857308" lon="5.643299"><ele>501.98</ele><time>2025-05-24T13:54:41Z</time></trkpt>
<trkpt lat="49.857442" lon="5.643024"><ele>502.76</ele><time>2025-05-24T13:54:44Z</time></trkpt>
<trkpt lat="49.857725" lon="5.642513"><ele>501.85</ele><time>2025-05-24T13:54:47Z</time></trkpt>
<trkpt lat="49.857854" lon="5.642312"><ele>500.58</ele><time>2025-05-24T13:54:51Z</time></trkpt>
<trkpt lat="49.857979" lon="5.64217"><ele>499.29</ele><time>2025-05-24T13:54:54Z</time></trkpt>
<trkpt lat="49.857967" lon="5.641989"><ele>500.11</ele><time>2025-05-24T13:54:57Z</time></trkpt>
<trkpt lat="49.858013" lon="5.641678"><ele>500.28</ele><time>2025-05-24T13:55:00Z</time></trkpt>
<trkpt lat="49.858527" lon="5.63903"><ele>493.87</ele><time>2025-05-24T13:55:03Z</time></trkpt>
<trkpt lat="49.858684" lon="5.638272"><ele>493.54</ele><time>2025-05-24T13:55:06Z</time></trkpt>
<trkpt lat="49.858886" lon="5.63746"><ele>490.78</ele><time>2025-05-24T13:55:09Z</time></trkpt>
<trkpt lat="49.858905" lon="5.63716"><ele>488.4</ele><time>2025-05-24T13:55:12Z</time></trkpt>
<trkpt lat="49.858895" lon="5.636877"><ele>486.5</ele><time>2025-05-24T13:55:15Z</time></trkpt>
<trkpt lat="49.858751" lon="5.635443"><ele>480.81</ele><time>2025-05-24T13:55:18Z</time></trkpt>
<trkpt lat="49.858637" lon="5.634638"><ele>478.65</ele><time>2025-05-24T13:55:22Z</time></trkpt>
<trkpt lat="49.858496" lon="5.634152"><ele>478.75</ele><time>2025-05-24T13:55:25Z</time></trkpt>
<trkpt lat="49.858289" lon="5.633612"><ele>477.0</ele><time>2025-05-24T13:55:28Z</time></trkpt>
<trkpt lat="49.858164" lon="5.633123"><ele>479.21</ele><time>2025-05-24T13:55:31Z</time></trkpt>
<trkpt lat="49.858166" lon="5.632686"><ele>481.02</ele><time>2025-05-24T13:55:34Z</time></trkpt>
<trkpt lat="49.858237" lon="5.6322"><ele>481.64</ele><time>2025-05-24T13:55:37Z</time></trkpt>
<trkpt lat="49.859193" lon="5.628105"><ele>486.92</ele><time>2025-05-24T13:55:40Z</time></trkpt>
<trkpt lat="49.859255" lon="5.627751"><ele>487.61</ele><time>2025-05-24T13:55:43Z</time></trkpt>
<trkpt lat="49.859262" lon="5.627471"><ele>488.99</ele><time>2025-05-24T13:55:46Z</time></trkpt>
<trkpt lat="49.858733" lon="5.625128"><ele>483.98</ele><time>2025-05-24T13:55:49Z</time></trkpt>
<trkpt lat="49.858593" lon="5.624581"><ele>481.62</ele><time>2025-05-24T13:55:52Z</time></trkpt>
<trkpt lat="49.858488" lon="5.624036"><ele>477.81</ele><time>2025-05-24T13:55:55Z</time></trkpt>
<trkpt lat="49.858488" lon="5.623567"><ele>475.98</ele><time>2025-05-24T13:55:58Z</time></trkpt>
<trkpt lat="49.858595" lon="5.62135"><ele>471.86</ele><time>2025-05-24T13:56:02Z</time></trkpt>
<trkpt lat="49.858662" lon="5.620738"><ele>467.97</ele><time>2025-05-24T13:56:05Z</time></trkpt>
<trkpt lat="49.858977" lon="5.618783"><ele>460.09</ele><time>2025-05-24T13:56:08Z</time></trkpt>
<trkpt lat="49.85927" lon="5.616524"><ele>451.95</ele><time>2025-05-24T13:56:11Z</time></trkpt>
<trkpt lat="49.859336" lon="5.616064"><ele>450.72</ele><time>2025-05-24T13:56:14Z</time></trkpt>
<trkpt lat="49.859306" lon="5.615864"><ele>450.55</ele><time>2025-05-24T13:56:17Z</time></trkpt>
<trkpt lat="49.859267" lon="5.615763"><ele>450.04</ele><time>2025-05-24T13:56:20Z</time></trkpt>
<trkpt lat="49.859153" lon="5.615644"><ele>449.65</ele><time>2025-05-24T13:56:23Z</time></trkpt>
<trkpt lat="49.859008" lon="5.615588"><ele>449.3</ele><time>2025-05-24T13:56:26Z</time></trkpt>
<trkpt lat="49.858773" lon="5.615558"><ele>448.61</ele><time>2025-05-24T13:56:29Z</time></trkpt>
<trkpt lat="49.858648" lon="5.615565"><ele>448.26</ele><time>2025-05-24T13:56:32Z</time></trkpt>
<trkpt lat="49.858517" lon="5.615595"><ele>448.17</ele><time>2025-05-24T13:56:35Z</time></trkpt>
<trkpt lat="49.858082" lon="5.615826"><ele>451.7</ele><time>2025-05-24T13:56:38Z</time></trkpt>
<trkpt lat="49.857978" lon="5.615817"><ele>452.07</ele><time>2025-05-24T13:56:42Z</time></trkpt>
<trkpt lat="49.857925" lon="5.61577"><ele>451.77</ele><time>2025-05-24T13:56:45Z</time></trkpt>
<trkpt lat="49.857867" lon="5.615596"><ele>450.42</ele><time>2025-05-24T13:56:48Z</time></trkpt>
<trkpt lat="49.857756" lon="5.614617"><ele>452.19</ele><time>2025-05-24T13:56:51Z</time></trkpt>
<trkpt lat="49.857783" lon="5.61438"><ele>452.42</ele><time>2025-05-24T13:56:54Z</time></trkpt>
<trkpt lat="49.857954" lon="5.61401"><ele>453.58</ele><time>2025-05-24T13:56:57Z</time></trkpt>
<trkpt lat="49.858138" lon="5.613815"><ele>454.66</ele><time>2025-05-24T13:57:00Z</time></trkpt>
<trkpt lat="49.858645" lon="5.613419"><ele>455.9</ele><time>2025-05-24T13:57:03Z</time></trkpt>
<trkpt lat="49.858945" lon="5.613233"><ele>456.2</ele><time>2025-05-24T13:57:06Z</time></trkpt>
<trkpt lat="49.859309" lon="5.613076"><ele>459.27</ele><time>2025-05-24T13:57:09Z</time></trkpt>
<trkpt lat="49.859396" lon="5.612821"><ele>460.17</ele><time>2025-05-24T13:57:12Z</time></trkpt>
<trkpt lat="49.85941" lon="5.612652"><ele>460.3</ele><time>2025-05-24T13:57:15Z</time></trkpt>
<trkpt lat="49.859404" lon="5.612425"><ele>459.93</ele><time>2025-05-24T13:57:17Z</time></trkpt>
<trkpt lat="49.85935" lon="5.611921"><ele>457.85</ele><time>2025-05-24T13:57:20Z</time></trkpt>
<trkpt lat="49.859118" lon="5.610716"><ele>462.65</ele><time>2025-05-24T13:57:23Z</time></trkpt>
<trkpt lat="49.859086" lon="5.609885"><ele>460.29</ele><time>2025-05-24T13:57:25Z</time></trkpt>
<trkpt lat="49.859016" lon="5.609036"><ele>457.14</ele><time>2025-05-24T13:57:28Z</time></trkpt>
<trkpt lat="49.858883" lon="5.607995"><ele>450.85</ele><time>2025-05-24T13:57:31Z</time></trkpt>
<trkpt lat="49.858819" lon="5.607705"><ele>450.43</ele><time>2025-05-24T13:57:33Z</time></trkpt>
<trkpt lat="49.858613" lon="5.606945"><ele>449.98</ele><time>2025-05-24T13:57:36Z</time></trkpt>
<trkpt lat="49.858233" lon="5.605803"><ele>441.14</ele><time>2025-05-24T13:57:39Z</time></trkpt>
<trkpt lat="49.857915" lon="5.604955"><ele>439.18</ele><time>2025-05-24T13:57:41Z</time></trkpt>
<trkpt lat="49.857645" lon="5.604554"><ele>436.13</ele><time>2025-05-24T13:57:44Z</time></trkpt>
<trkpt lat="49.857527" lon="5.60434"><ele>435.02</ele><time>2025-05-24T13:57:47Z</time></trkpt>
<trkpt lat="49.85706" lon="5.603329"><ele>431.16</ele><time>2025-05-24T13:57:49Z</time></trkpt>
<trkpt lat="49.856821" lon="5.602862"><ele>431.63</ele><time>2025-05-24T13:57:52Z</time></trkpt>
<trkpt lat="49.856531" lon="5.602392"><ele>429.49</ele><time>2025-05-24T13:57:55Z</time></trkpt>
<trkpt lat="49.856265" lon="5.601995"><ele>428.18</ele><time>2025-05-24T13:57:57Z</time></trkpt>
<trkpt lat="49.856142" lon="5.601785"><ele>428.51</ele><time>2025-05-24T13:58:00Z</time></trkpt>
<trkpt lat="49.855977" lon="5.601397"><ele>429.45</ele><time>2025-05-24T13:58:03Z</time></trkpt>
<trkpt lat="49.855665" lon="5.600282"><ele>432.98</ele><time>2025-05-24T13:58:05Z</time></trkpt>
<trkpt lat="49.855615" lon="5.599972"><ele>433.0</ele><time>2025-05-24T13:58:08Z</time></trkpt>
<trkpt lat="49.855602" lon="5.599042"><ele>431.24</ele><time>2025-05-24T13:58:11Z</time></trkpt>
<trkpt lat="49.855532" lon="5.597988"><ele>431.14</ele><time>2025-05-24T13:58:13Z</time></trkpt>
<trkpt lat="49.855527" lon="5.597618"><ele>432.37</ele><time>2025-05-24T13:58:16Z</time></trkpt>
<trkpt lat="49.855571" lon="5.597244"><ele>434.14</ele><time>2025-05-24T13:58:19Z</time></trkpt>
<trkpt lat="49.855637" lon="5.59685"><ele>436.41</ele><time>2025-05-24T13:58:22Z</time></trkpt>
<trkpt lat="49.855689" lon="5.596627"><ele>437.52</ele><time>2025-05-24T13:58:24Z</time></trkpt>
<trkpt lat="49.855718" lon="5.596382"><ele>438.19</ele><time>2025-05-24T13:58:27Z</time></trkpt>
<trkpt lat="49.855725" lon="5.595943"><ele>439.22</ele><time>2025-05-24T13:58:30Z</time></trkpt>
<trkpt lat="49.855618" lon="5.595334"><ele>440.25</ele><time>2025-05-24T13:58:32Z</time></trkpt>
<trkpt lat="49.855159" lon="5.593907"><ele>439.94</ele><time>2025-05-24T13:58:35Z</time></trkpt>
<trkpt lat="49.854969" lon="5.59341"><ele>442.72</ele><time>2025-05-24T13:58:38Z</time></trkpt>
<trkpt lat="49.854964" lon="5.592735"><ele>445.93</ele><time>2025-05-24T13:58:40Z</time></trkpt>
<trkpt lat="49.854971" lon="5.592444"><ele>447.99</ele><time>2025-05-24T13:58:43Z</time></trkpt>
<trkpt lat="49.854993" lon="5.5922"><ele>448.95</ele><time>2025-05-24T13:58:46Z</time></trkpt>
<trkpt lat="49.854987" lon="5.592065"><ele>448.93</ele><time>2025-05-24T13:58:48Z</time></trkpt>
<trkpt lat="49.854929" lon="5.591771"><ele>448.28</ele><time>2025-05-24T13:58:51Z</time></trkpt>
<trkpt lat="49.854811" lon="5.591406"><ele>447.06</ele><time>2025-05-24T13:58:54Z</time></trkpt>
<trkpt lat="49.854439" lon="5.590697"><ele>448.44</ele><time>2025-05-24T13:58:56Z</time></trkpt>
<trkpt lat="49.854335" lon="5.590338"><ele>447.82</ele><time>2025-05-24T13:58:59Z</time></trkpt>
<trkpt lat="49.854342" lon="5.590099"><ele>448.54</ele><time>2025-05-24T13:59:02Z</time></trkpt>
<trkpt lat="49.854381" lon="5.589945"><ele>449.71</ele><time>2025-05-24T13:59:04Z</time></trkpt>
<trkpt lat="49.854485" lon="5.589695"><ele>452.23</ele><time>2025-05-24T13:59:07Z</time></trkpt>
<trkpt lat="49.85553" lon="5.58767"><ele>458.85</ele><time>2025-05-24T13:59:10Z</time></trkpt>
<trkpt lat="49.855873" lon="5.587078"><ele>462.29</ele><time>2025-05-24T13:59:12Z</time></trkpt>
<trkpt lat="49.856078" lon="5.58664"><ele>463.99</ele><time>2025-05-24T13:59:15Z</time></trkpt>
<trkpt lat="49.856137" lon="5.586369"><ele>465.23</ele><time>2025-05-24T13:59:18Z</time></trkpt>
<trkpt lat="49.856135" lon="5.586104"><ele>467.05</ele><time>2025-05-24T13:59:20Z</time></trkpt>
<trkpt lat="49.856081" lon="5.585832"><ele>469.01</ele><time>2025-05-24T13:59:23Z</time></trkpt>
<trkpt lat="49.856115" lon="5.584292"><ele>474.09</ele><time>2025-05-24T13:59:26Z</time></trkpt>
<trkpt lat="49.856167" lon="5.583697"><ele>475.73</ele><time>2025-05-24T13:59:29Z</time></trkpt>
<trkpt lat="49.856386" lon="5.582692"><ele>478.32</ele><time>2025-05-24T13:59:32Z</time></trkpt>
<trkpt lat="49.85648" lon="5.582172"><ele>478.85</ele><time>2025-05-24T13:59:35Z</time></trkpt>
<trkpt lat="49.856694" lon="5.580611"><ele>486.82</ele><time>2025-05-24T13:59:38Z</time></trkpt>
<trkpt lat="49.857123" lon="5.578849"><ele>494.07</ele><time>2025-05-24T13:59:41Z</time></trkpt>
<trkpt lat="49.85727" lon="5.577967"><ele>498.9</ele><time>2025-05-24T13:59:44Z</time></trkpt>
<trkpt lat="49.857297" lon="5.577657"><ele>498.77</ele><time>2025-05-24T13:59:48Z</time></trkpt>
<trkpt lat="49.857294" lon="5.577477"><ele>498.84</ele><time>2025-05-24T13:59:51Z</time></trkpt>
<trkpt lat="49.85727" lon="5.577252"><ele>497.83</ele><time>2025-05-24T13:59:54Z</time></trkpt>
<trkpt lat="49.856847" lon="5.574995"><ele>481.61</ele><time>2025-05-24T13:59:57Z</time></trkpt>
<trkpt lat="49.856833" lon="5.574775"><ele>479.98</ele><time>2025-05-24T14:00:00Z</time></trkpt>
<trkpt lat="49.856858" lon="5.574551"><ele>478.46</ele><time>2025-05-24T14:00:03Z</time></trkpt>
<trkpt lat="49.856894" lon="5.5744"><ele>477.37</ele><time>2025-05-24T14:00:06Z</time></trkpt>
<trkpt lat="49.858045" lon="5.570946"><ele>457.46</ele><time>2025-05-24T14:00:09Z</time></trkpt>
<trkpt lat="49.858182" lon="5.570687"><ele>454.58</ele><time>2025-05-24T14:00:12Z</time></trkpt>
<trkpt lat="49.858357" lon="5.570495"><ele>451.81</ele><time>2025-05-24T14:00:15Z</time></trkpt>
<trkpt lat="49.85851" lon="5.570421"><ele>450.42</ele><time>2025-05-24T14:00:18Z</time></trkpt>
<trkpt lat="49.859228" lon="5.57025"><ele>447.1</ele><time>2025-05-24T14:00:21Z</time></trkpt>
<trkpt lat="49.860121" lon="5.570036"><ele>450.12</ele><time>2025-05-24T14:00:24Z</time></trkpt>
<trkpt lat="49.860287" lon="5.569946"><ele>451.36</ele><time>2025-05-24T14:00:27Z</time></trkpt>
<trkpt lat="49.860582" lon="5.569507"><ele>453.66</ele><time>2025-05-24T14:00:30Z</time></trkpt>
<trkpt lat="49.860776" lon="5.569092"><ele>454.21</ele><time>2025-05-24T14:00:33Z</time></trkpt>
<trkpt lat="49.860834" lon="5.568888"><ele>454.0</ele><time>2025-05-24T14:00:36Z</time></trkpt>
<trkpt lat="49.86115" lon="5.566679"><ele>452.76</ele><time>2025-05-24T14:00:39Z</time></trkpt>
<trkpt lat="49.861181" lon="5.566185"><ele>449.2</ele><time>2025-05-24T14:00:43Z</time></trkpt>
<trkpt lat="49.86111" lon="5.565223"><ele>444.8</ele><time>2025-05-24T14:00:46Z</time></trkpt>
<trkpt lat="49.860863" lon="5.563087"><ele>435.44</ele><time>2025-05-24T14:00:49Z</time></trkpt>
<trkpt lat="49.860891" lon="5.562792"><ele>433.51</ele><time>2025-05-24T14:00:52Z</time></trkpt>
<trkpt lat="49.861176" lon="5.561751"><ele>430.47</ele><time>2025-05-24T14:00:55Z</time></trkpt>
<trkpt lat="49.861663" lon="5.561174"><ele>430.68</ele><time>2025-05-24T14:00:58Z</time></trkpt>
<trkpt lat="49.861933" lon="5.560917"><ele>429.59</ele><time>2025-05-24T14:01:01Z</time></trkpt>
<trkpt lat="49.862072" lon="5.560818"><ele>428.45</ele><time>2025-05-24T14:01:04Z</time></trkpt>
<trkpt lat="49.862211" lon="5.560733"><ele>427.67</ele><time>2025-05-24T14:01:07Z</time></trkpt>
<trkpt lat="49.862327" lon="5.560692"><ele>427.68</ele><time>2025-05-24T14:01:10Z</time></trkpt>
<trkpt lat="49.862621" lon="5.560674"><ele>427.92</ele><time>2025-05-24T14:01:13Z</time></trkpt>
<trkpt lat="49.862761" lon="5.56064"><ele>427.98</ele><time>2025-05-24T14:01:16Z</time></trkpt>
<trkpt lat="49.862978" lon="5.560527"><ele>426.45</ele><time>2025-05-24T14:01:19Z</time></trkpt>
<trkpt lat="49.862782" lon="5.559715"><ele>425.98</ele><time>2025-05-24T14:01:22Z</time></trkpt>
<trkpt lat="49.862978" lon="5.559639"><ele>425.06</ele><time>2025-05-24T14:01:23Z</time></trkpt>
<trkpt lat="49.863048" lon="5.559588"><ele>424.56</ele><time>2025-05-24T14:01:24Z</time></trkpt>
<trkpt lat="49.863104" lon="5.559968"><ele>425.17</ele><time>2025-05-24T14:01:27Z</time></trkpt>
<trkpt lat="49.863173" lon="5.560307"><ele>425.44</ele><time>2025-05-24T14:01:29Z</time></trkpt>
<trkpt lat="49.863237" lon="5.56048"><ele>425.43</ele><time>2025-05-24T14:01:32Z</time></trkpt>
<trkpt lat="49.863297" lon="5.560611"><ele>425.15</ele><time>2025-05-24T14:01:34Z</time></trkpt>
<trkpt lat="49.863425" lon="5.56081"><ele>425.36</ele><time>2025-05-24T14:01:37Z</time></trkpt>
<trkpt lat="49.863717" lon="5.561215"><ele>427.38</ele><time>2025-05-24T14:01:39Z</time></trkpt>
<trkpt lat="49.864228" lon="5.561721"><ele>428.87</ele><time>2025-05-24T14:01:42Z</time></trkpt>
<trkpt lat="49.864673" lon="5.562091"><ele>430.65</ele><time>2025-05-24T14:01:44Z</time></trkpt>
<trkpt lat="49.865069" lon="5.562384"><ele>432.25</ele><time>2025-05-24T14:01:47Z</time></trkpt>
<trkpt lat="49.865563" lon="5.562748"><ele>435.05</ele><time>2025-05-24T14:01:49Z</time></trkpt>
<trkpt lat="49.865999" lon="5.562968"><ele>437.38</ele><time>2025-05-24T14:01:52Z</time></trkpt>
<trkpt lat="49.866393" lon="5.563124"><ele>437.52</ele><time>2025-05-24T14:01:54Z</time></trkpt>
<trkpt lat="49.866683" lon="5.563199"><ele>438.57</ele><time>2025-05-24T14:01:57Z</time></trkpt>
<trkpt lat="49.866862" lon="5.563213"><ele>439.44</ele><time>2025-05-24T14:01:59Z</time></trkpt>
<trkpt lat="49.867595" lon="5.563161"><ele>442.49</ele><time>2025-05-24T14:02:02Z</time></trkpt>
<trkpt lat="49.868162" lon="5.562907"><ele>443.53</ele><time>2025-05-24T14:02:04Z</time></trkpt>
<trkpt lat="49.868397" lon="5.562867"><ele>443.75</ele><time>2025-05-24T14:02:07Z</time></trkpt>
<trkpt lat="49.868554" lon="5.562868"><ele>443.93</ele><time>2025-05-24T14:02:09Z</time></trkpt>
<trkpt lat="49.868711" lon="5.56291"><ele>443.83</ele><time>2025-05-24T14:02:12Z</time></trkpt>
<trkpt lat="49.869177" lon="5.563114"><ele>444.86</ele><time>2025-05-24T14:02:14Z</time></trkpt>
<trkpt lat="49.869377" lon="5.563165"><ele>446.12</ele><time>2025-05-24T14:02:17Z</time></trkpt>
<trkpt lat="49.870286" lon="5.563034"><ele>449.08</ele><time>2025-05-24T14:02:19Z</time></trkpt>
<trkpt lat="49.871871" lon="5.562958"><ele>452.83</ele><time>2025-05-24T14:02:22Z</time></trkpt>
<trkpt lat="49.872254" lon="5.562964"><ele>451.69</ele><time>2025-05-24T14:02:25Z</time></trkpt>
<trkpt lat="49.872431" lon="5.563003"><ele>449.88</ele><time>2025-05-24T14:02:27Z</time></trkpt>
<trkpt lat="49.872653" lon="5.56312"><ele>449.42</ele><time>2025-05-24T14:02:30Z</time></trkpt>
<trkpt lat="49.873038" lon="5.563391"><ele>449.74</ele><time>2025-05-24T14:02:32Z</time></trkpt>
<trkpt lat="49.87392" lon="5.564082"><ele>446.19</ele><time>2025-05-24T14:02:35Z</time></trkpt>
<trkpt lat="49.874092" lon="5.564263"><ele>444.74</ele><time>2025-05-24T14:02:37Z</time></trkpt>
<trkpt lat="49.874191" lon="5.564435"><ele>444.21</ele><time>2025-05-24T14:02:40Z</time></trkpt>
<trkpt lat="49.874333" lon="5.564878"><ele>441.81</ele><time>2025-05-24T14:02:42Z</time></trkpt>
<trkpt lat="49.874534" lon="5.565803"><ele>441.68</ele><time>2025-05-24T14:02:45Z</time></trkpt>
<trkpt lat="49.874613" lon="5.565933"><ele>441.64</ele><time>2025-05-24T14:02:47Z</time></trkpt>
<trkpt lat="49.874724" lon="5.566068"><ele>441.31</ele><time>2025-05-24T14:02:50Z</time></trkpt>
<trkpt lat="49.875181" lon="5.566437"><ele>441.42</ele><time>2025-05-24T14:02:52Z</time></trkpt>
<trkpt lat="49.8753" lon="5.566555"><ele>441.45</ele><time>2025-05-24T14:02:55Z</time></trkpt>
<trkpt lat="49.875536" lon="5.566144"><ele>443.64</ele><time>2025-05-24T14:02:58Z</time></trkpt>
<trkpt lat="49.875672" lon="5.565965"><ele>444.94</ele><time>2025-05-24T14:03:00Z</time></trkpt>
<trkpt lat="49.875844" lon="5.566301"><ele>445.09</ele><time>2025-05-24T14:03:05Z</time></trkpt>
<trkpt lat="49.875892" lon="5.566562"><ele>444.93</ele><time>2025-05-24T14:03:10Z</time></trkpt>
<trkpt lat="49.875927" lon="5.566671"><ele>445.01</ele><time>2025-05-24T14:03:15Z</time></trkpt>
<trkpt lat="49.87602" lon="5.566803"><ele>446.35</ele><time>2025-05-24T14:03:20Z</time></trkpt>
<trkpt lat="49.876163" lon="5.566809"><ele>448.45</ele><time>2025-05-24T14:03:25Z</time></trkpt>
<trkpt lat="49.876403" lon="5.56729"><ele>451.0</ele><time>2025-05-24T14:03:30Z</time></trkpt>
<trkpt lat="49.876467" lon="5.567364"><ele>451.74</ele><time>2025-05-24T14:03:35Z</time></trkpt>
<trkpt lat="49.876482" lon="5.567237"><ele>452.23</ele><time>2025-05-24T14:03:36Z</time></trkpt>
<trkpt lat="49.876482" lon="5.567237"><ele>452.23</ele><time>2025-05-24T14:03:36Z</time></trkpt>
<trkpt lat="49.876566" lon="5.567025"><ele>455.35</ele><time>2025-05-24T14:03:41Z</time></trkpt>
<trkpt lat="49.876717" lon="5.56677"><ele>458.09</ele><time>2025-05-24T14:03:45Z</time></trkpt>
<trkpt lat="49.876766" lon="5.566644"><ele>458.43</ele><time>2025-05-24T14:03:50Z</time></trkpt>
<trkpt lat="49.876893" lon="5.566113"><ele>460.07</ele><time>2025-05-24T14:03:54Z</time></trkpt>
<trkpt lat="49.877001" lon="5.565873"><ele>463.15</ele><time>2025-05-24T14:03:59Z</time></trkpt>
<trkpt lat="49.877948" lon="5.564121"><ele>471.16</ele><time>2025-05-24T14:04:03Z</time></trkpt>
<trkpt lat="49.87814" lon="5.563906"><ele>471.71</ele><time>2025-05-24T14:04:08Z</time></trkpt>
<trkpt lat="49.878319" lon="5.563754"><ele>471.03</ele><time>2025-05-24T14:04:12Z</time></trkpt>
<trkpt lat="49.879494" lon="5.563106"><ele>468.19</ele><time>2025-05-24T14:04:17Z</time></trkpt>
<trkpt lat="49.879721" lon="5.562935"><ele>466.13</ele><time>2025-05-24T14:04:22Z</time></trkpt>
<trkpt lat="49.879821" lon="5.5628"><ele>465.49</ele><time>2025-05-24T14:04:26Z</time></trkpt>
<trkpt lat="49.879896" lon="5.562649"><ele>465.16</ele><time>2025-05-24T14:04:31Z</time></trkpt>
<trkpt lat="49.879981" lon="5.562249"><ele>464.09</ele><time>2025-05-24T14:04:35Z</time></trkpt>
<trkpt lat="49.880056" lon="5.561957"><ele>464.96</ele><time>2025-05-24T14:04:38Z</time></trkpt>
<trkpt lat="49.880317" lon="5.560318"><ele>469.99</ele><time>2025-05-24T14:04:41Z</time></trkpt>
<trkpt lat="49.88037" lon="5.559906"><ele>473.01</ele><time>2025-05-24T14:04:44Z</time></trkpt>
<trkpt lat="49.880437" lon="5.559562"><ele>475.39</ele><time>2025-05-24T14:04:47Z</time></trkpt>
<trkpt lat="49.880561" lon="5.559201"><ele>477.76</ele><time>2025-05-24T14:04:50Z</time></trkpt>
<trkpt lat="49.880774" lon="5.558864"><ele>478.79</ele><time>2025-05-24T14:04:53Z</time></trkpt>
<trkpt lat="49.882064" lon="5.557502"><ele>482.0</ele><time>2025-05-24T14:04:56Z</time></trkpt>
<trkpt lat="49.882216" lon="5.557275"><ele>481.19</ele><time>2025-05-24T14:04:59Z</time></trkpt>
<trkpt lat="49.882436" lon="5.557184"><ele>481.42</ele><time>2025-05-24T14:05:00Z</time></trkpt>
<trkpt lat="49.88263" lon="5.557227"><ele>482.51</ele><time>2025-05-24T14:05:02Z</time></trkpt>
<trkpt lat="49.882765" lon="5.557431"><ele>484.49</ele><time>2025-05-24T14:05:05Z</time></trkpt>
<trkpt lat="49.883071" lon="5.55769"><ele>486.04</ele><time>2025-05-24T14:05:08Z</time></trkpt>
<trkpt lat="49.884553" lon="5.558448"><ele>492.0</ele><time>2025-05-24T14:05:12Z</time></trkpt>
<trkpt lat="49.884731" lon="5.558555"><ele>491.99</ele><time>2025-05-24T14:05:15Z</time></trkpt>
<trkpt lat="49.884851" lon="5.558665"><ele>492.0</ele><time>2025-05-24T14:05:18Z</time></trkpt>
<trkpt lat="49.884981" lon="5.558854"><ele>492.0</ele><time>2025-05-24T14:05:22Z</time></trkpt>
<trkpt lat="49.885727" lon="5.560149"><ele>485.67</ele><time>2025-05-24T14:05:25Z</time></trkpt>
<trkpt lat="49.885871" lon="5.560371"><ele>484.62</ele><time>2025-05-24T14:05:29Z</time></trkpt>
<trkpt lat="49.885957" lon="5.56046"><ele>484.05</ele><time>2025-05-24T14:05:32Z</time></trkpt>
<trkpt lat="49.886079" lon="5.560524"><ele>483.33</ele><time>2025-05-24T14:05:35Z</time></trkpt>
<trkpt lat="49.886224" lon="5.560515"><ele>482.89</ele><time>2025-05-24T14:05:39Z</time></trkpt>
<trkpt lat="49.887685" lon="5.56016"><ele>484.18</ele><time>2025-05-24T14:05:42Z</time></trkpt>
<trkpt lat="49.888617" lon="5.560051"><ele>483.79</ele><time>2025-05-24T14:05:46Z</time></trkpt>
<trkpt lat="49.889477" lon="5.559892"><ele>483.17</ele><time>2025-05-24T14:05:49Z</time></trkpt>
<trkpt lat="49.891053" lon="5.559478"><ele>476.14</ele><time>2025-05-24T14:05:52Z</time></trkpt>
<trkpt lat="49.891277" lon="5.559391"><ele>475.92</ele><time>2025-05-24T14:05:56Z</time></trkpt>
<trkpt lat="49.891544" lon="5.559203"><ele>476.56</ele><time>2025-05-24T14:05:59Z</time></trkpt>
<trkpt lat="49.892345" lon="5.558529"><ele>477.56</ele><time>2025-05-24T14:06:03Z</time></trkpt>
<trkpt lat="49.892597" lon="5.558995"><ele>476.75</ele><time>2025-05-24T14:06:06Z</time></trkpt>
<trkpt lat="49.892702" lon="5.559147"><ele>476.75</ele><time>2025-05-24T14:06:09Z</time></trkpt>
<trkpt lat="49.892863" lon="5.559295"><ele>476.38</ele><time>2025-05-24T14:06:12Z</time></trkpt>
<trkpt lat="49.893535" lon="5.559636"><ele>475.81</ele><time>2025-05-24T14:06:15Z</time></trkpt>
<trkpt lat="49.894283" lon="5.560136"><ele>481.49</ele><time>2025-05-24T14:06:18Z</time></trkpt>
<trkpt lat="49.894486" lon="5.560241"><ele>481.74</ele><time>2025-05-24T14:06:21Z</time></trkpt>
<trkpt lat="49.894801" lon="5.560335"><ele>481.43</ele><time>2025-05-24T14:06:24Z</time></trkpt>
<trkpt lat="49.89576" lon="5.560559"><ele>486.77</ele><time>2025-05-24T14:06:27Z</time></trkpt>
<trkpt lat="49.896119" lon="5.560725"><ele>488.8</ele><time>2025-05-24T14:06:30Z</time></trkpt>
<trkpt lat="49.896399" lon="5.560913"><ele>488.81</ele><time>2025-05-24T14:06:33Z</time></trkpt>
<trkpt lat="49.896617" lon="5.561102"><ele>489.29</ele><time>2025-05-24T14:06:36Z</time></trkpt>
<trkpt lat="49.896882" lon="5.561385"><ele>487.1</ele><time>2025-05-24T14:06:40Z</time></trkpt>
<trkpt lat="49.897351" lon="5.561967"><ele>481.22</ele><time>2025-05-24T14:06:43Z</time></trkpt>
<trkpt lat="49.897835" lon="5.562749"><ele>477.7</ele><time>2025-05-24T14:06:46Z</time></trkpt>
<trkpt lat="49.89825" lon="5.563282"><ele>472.43</ele><time>2025-05-24T14:06:49Z</time></trkpt>
<trkpt lat="49.899325" lon="5.564583"><ele>461.16</ele><time>2025-05-24T14:06:52Z</time></trkpt>
<trkpt lat="49.900234" lon="5.565634"><ele>456.89</ele><time>2025-05-24T14:06:55Z</time></trkpt>
<trkpt lat="49.900435" lon="5.565842"><ele>456.98</ele><time>2025-05-24T14:06:58Z</time></trkpt>
<trkpt lat="49.90054" lon="5.565918"><ele>456.71</ele><time>2025-05-24T14:07:01Z</time></trkpt>
<trkpt lat="49.900686" lon="5.565982"><ele>455.99</ele><time>2025-05-24T14:07:04Z</time></trkpt>
<trkpt lat="49.900855" lon="5.566003"><ele>455.36</ele><time>2025-05-24T14:07:07Z</time></trkpt>
<trkpt lat="49.90105" lon="5.56596"><ele>455.12</ele><time>2025-05-24T14:07:10Z</time></trkpt>
<trkpt lat="49.902234" lon="5.565328"><ele>455.03</ele><time>2025-05-24T14:07:13Z</time></trkpt>
<trkpt lat="49.902518" lon="5.565187"><ele>455.96</ele><time>2025-05-24T14:07:16Z</time></trkpt>
<trkpt lat="49.902978" lon="5.565122"><ele>453.72</ele><time>2025-05-24T14:07:20Z</time></trkpt>
<trkpt lat="49.903759" lon="5.565315"><ele>447.93</ele><time>2025-05-24T14:07:23Z</time></trkpt>
<trkpt lat="49.904311" lon="5.565387"><ele>448.92</ele><time>2025-05-24T14:07:26Z</time></trkpt>
<trkpt lat="49.904863" lon="5.565459"><ele>448.52</ele><time>2025-05-24T14:07:29Z</time></trkpt>
<trkpt lat="49.905225" lon="5.565454"><ele>447.55</ele><time>2025-05-24T14:07:32Z</time></trkpt>
<trkpt lat="49.905488" lon="5.565391"><ele>447.14</ele><time>2025-05-24T14:07:35Z</time></trkpt>
<trkpt lat="49.905646" lon="5.565328"><ele>446.67</ele><time>2025-05-24T14:07:38Z</time></trkpt>
<trkpt lat="49.905839" lon="5.565142"><ele>446.45</ele><time>2025-05-24T14:07:41Z</time></trkpt>
<trkpt lat="49.906213" lon="5.564649"><ele>445.63</ele><time>2025-05-24T14:07:44Z</time></trkpt>
<trkpt lat="49.906291" lon="5.56457"><ele>445.35</ele><time>2025-05-24T14:07:47Z</time></trkpt>
<trkpt lat="49.906493" lon="5.564453"><ele>444.64</ele><time>2025-05-24T14:07:50Z</time></trkpt>
<trkpt lat="49.906566" lon="5.564444"><ele>444.36</ele><time>2025-05-24T14:07:53Z</time></trkpt>
<trkpt lat="49.906742" lon="5.564474"><ele>444.62</ele><time>2025-05-24T14:07:56Z</time></trkpt>
<trkpt lat="49.907154" lon="5.564744"><ele>448.28</ele><time>2025-05-24T14:07:59Z</time></trkpt>
<trkpt lat="49.907329" lon="5.56482"><ele>449.77</ele><time>2025-05-24T14:08:03Z</time></trkpt>
<trkpt lat="49.907504" lon="5.564856"><ele>451.02</ele><time>2025-05-24T14:08:06Z</time></trkpt>
<trkpt lat="49.907744" lon="5.564837"><ele>452.39</ele><time>2025-05-24T14:08:09Z</time></trkpt>
<trkpt lat="49.908233" lon="5.564851"><ele>452.64</ele><time>2025-05-24T14:08:12Z</time></trkpt>
<trkpt lat="49.908988" lon="5.565006"><ele>452.91</ele><time>2025-05-24T14:08:15Z</time></trkpt>
<trkpt lat="49.909352" lon="5.56495"><ele>450.45</ele><time>2025-05-24T14:08:18Z</time></trkpt>
<trkpt lat="49.909902" lon="5.564568"><ele>450.91</ele><time>2025-05-24T14:08:21Z</time></trkpt>
<trkpt lat="49.910081" lon="5.565326"><ele>446.06</ele><time>2025-05-24T14:08:29Z</time></trkpt>
<trkpt lat="49.910533" lon="5.56718"><ele>443.15</ele><time>2025-05-24T14:08:37Z</time></trkpt>
<trkpt lat="49.910749" lon="5.567064"><ele>443.1</ele><time>2025-05-24T14:08:39Z</time></trkpt>
<trkpt lat="49.910749" lon="5.567064"><ele>443.1</ele><time>2025-05-24T14:08:39Z</time></trkpt>
<trkpt lat="49.910828" lon="5.567053"><ele>443.01</ele><time>2025-05-24T14:08:40Z</time></trkpt>
<trkpt lat="49.910838" lon="5.566872"><ele>443.24</ele><time>2025-05-24T14:08:43Z</time></trkpt>
<trkpt lat="49.910801" lon="5.565908"><ele>444.91</ele><time>2025-05-24T14:08:47Z</time></trkpt>
<trkpt lat="49.910725" lon="5.565567"><ele>445.98</ele><time>2025-05-24T14:08:50Z</time></trkpt>
<trkpt lat="49.910775" lon="5.565361"><ele>447.26</ele><time>2025-05-24T14:08:54Z</time></trkpt>
<trkpt lat="49.910788" lon="5.565174"><ele>448.58</ele><time>2025-05-24T14:08:57Z</time></trkpt>
<trkpt lat="49.910897" lon="5.564354"><ele>447.99</ele><time>2025-05-24T14:09:00Z</time></trkpt>
<trkpt lat="49.911096" lon="5.563388"><ele>447.11</ele><time>2025-05-24T14:09:04Z</time></trkpt>
<trkpt lat="49.911226" lon="5.563031"><ele>445.58</ele><time>2025-05-24T14:09:07Z</time></trkpt>
<trkpt lat="49.911286" lon="5.562916"><ele>445.37</ele><time>2025-05-24T14:09:11Z</time></trkpt>
<trkpt lat="49.911386" lon="5.562761"><ele>445.01</ele><time>2025-05-24T14:09:14Z</time></trkpt>
<trkpt lat="49.911664" lon="5.562454"><ele>442.02</ele><time>2025-05-24T14:09:18Z</time></trkpt>
<trkpt lat="49.911732" lon="5.562377"><ele>441.9</ele><time>2025-05-24T14:09:21Z</time></trkpt>
<trkpt lat="49.911917" lon="5.562166"><ele>441.08</ele><time>2025-05-24T14:09:24Z</time></trkpt>
<trkpt lat="49.912348" lon="5.561543"><ele>441.25</ele><time>2025-05-24T14:09:28Z</time></trkpt>
<trkpt lat="49.912903" lon="5.560494"><ele>442.57</ele><time>2025-05-24T14:09:31Z</time></trkpt>
<trkpt lat="49.913017" lon="5.560169"><ele>443.0</ele><time>2025-05-24T14:09:35Z</time></trkpt>
<trkpt lat="49.913085" lon="5.559628"><ele>442.1</ele><time>2025-05-24T14:09:38Z</time></trkpt>
<trkpt lat="49.913118" lon="5.559034"><ele>444.95</ele><time>2025-05-24T14:09:41Z</time></trkpt>
<trkpt lat="49.913216" lon="5.558574"><ele>447.5</ele><time>2025-05-24T14:09:45Z</time></trkpt>
<trkpt lat="49.913617" lon="5.557871"><ele>451.33</ele><time>2025-05-24T14:09:48Z</time></trkpt>
<trkpt lat="49.913589" lon="5.557622"><ele>453.55</ele><time>2025-05-24T14:09:53Z</time></trkpt>
<trkpt lat="49.913479" lon="5.557238"><ele>454.99</ele><time>2025-05-24T14:09:59Z</time></trkpt>
<trkpt lat="49.913433" lon="5.556914"><ele>454.64</ele><time>2025-05-24T14:10:04Z</time></trkpt>
<trkpt lat="49.913411" lon="5.556547"><ele>453.72</ele><time>2025-05-24T14:10:09Z</time></trkpt>
<trkpt lat="49.913421" lon="5.556226"><ele>454.22</ele><time>2025-05-24T14:10:14Z</time></trkpt>
<trkpt lat="49.913503" lon="5.555644"><ele>458.51</ele><time>2025-05-24T14:10:19Z</time></trkpt>
<trkpt lat="49.913593" lon="5.555152"><ele>460.83</ele><time>2025-05-24T14:10:24Z</time></trkpt>
<trkpt lat="49.913643" lon="5.554731"><ele>462.94</ele><time>2025-05-24T14:10:30Z</time></trkpt>
<trkpt lat="49.913678" lon="5.553738"><ele>464.78</ele><time>2025-05-24T14:10:35Z</time></trkpt>
<trkpt lat="49.913694" lon="5.553544"><ele>465.54</ele><time>2025-05-24T14:10:40Z</time></trkpt>
<trkpt lat="49.913736" lon="5.553331"><ele>466.46</ele><time>2025-05-24T14:10:45Z</time></trkpt>
<trkpt lat="49.914327" lon="5.551417"><ele>470.94</ele><time>2025-05-24T14:10:50Z</time></trkpt>
<trkpt lat="49.914461" lon="5.551043"><ele>471.14</ele><time>2025-05-24T14:10:55Z</time></trkpt>
<trkpt lat="49.914943" lon="5.549863"><ele>474.09</ele><time>2025-05-24T14:11:00Z</time></trkpt>
<trkpt lat="49.915261" lon="5.548831"><ele>479.21</ele><time>2025-05-24T14:11:06Z</time></trkpt>
<trkpt lat="49.915499" lon="5.547571"><ele>481.95</ele><time>2025-05-24T14:11:11Z</time></trkpt>
<trkpt lat="49.915704" lon="5.54557"><ele>484.05</ele><time>2025-05-24T14:11:16Z</time></trkpt>
<trkpt lat="49.915664" lon="5.543528"><ele>487.23</ele><time>2025-05-24T14:11:21Z</time></trkpt>
<trkpt lat="49.916314" lon="5.539754"><ele>485.68</ele><time>2025-05-24T14:11:26Z</time></trkpt>
<trkpt lat="49.916474" lon="5.538684"><ele>488.74</ele><time>2025-05-24T14:11:31Z</time></trkpt>
<trkpt lat="49.916574" lon="5.537371"><ele>491.54</ele><time>2025-05-24T14:11:36Z</time></trkpt>
<trkpt lat="49.916586" lon="5.536246"><ele>491.18</ele><time>2025-05-24T14:11:42Z</time></trkpt>
<trkpt lat="49.916521" lon="5.531627"><ele>494.55</ele><time>2025-05-24T14:11:47Z</time></trkpt>
<trkpt lat="49.916449" lon="5.527222"><ele>516.44</ele><time>2025-05-24T14:11:52Z</time></trkpt>
<trkpt lat="49.916418" lon="5.526338"><ele>525.38</ele><time>2025-05-24T14:11:57Z</time></trkpt>
<trkpt lat="49.916375" lon="5.525899"><ele>527.79</ele><time>2025-05-24T14:12:02Z</time></trkpt>
<trkpt lat="49.9163" lon="5.525434"><ele>528.64</ele><time>2025-05-24T14:12:07Z</time></trkpt>
<trkpt lat="49.916186" lon="5.52491"><ele>528.67</ele><time>2025-05-24T14:12:13Z</time></trkpt>
<trkpt lat="49.915531" lon="5.522692"><ele>536.5</ele><time>2025-05-24T14:12:18Z</time></trkpt>
<trkpt lat="49.91535" lon="5.521988"><ele>535.16</ele><time>2025-05-24T14:12:23Z</time></trkpt>
<trkpt lat="49.9152" lon="5.521236"><ele>534.99</ele><time>2025-05-24T14:12:28Z</time></trkpt>
<trkpt lat="49.915167" lon="5.520913"><ele>535.39</ele><time>2025-05-24T14:12:33Z</time></trkpt>
<trkpt lat="49.915176" lon="5.51772"><ele>522.27</ele><time>2025-05-24T14:12:38Z</time></trkpt>
<trkpt lat="49.915222" lon="5.512375"><ele>529.94</ele><time>2025-05-24T14:12:43Z</time></trkpt>
<trkpt lat="49.915287" lon="5.510588"><ele>532.07</ele><time>2025-05-24T14:12:49Z</time></trkpt>
<trkpt lat="49.915357" lon="5.509724"><ele>531.28</ele><time>2025-05-24T14:12:54Z</time></trkpt>
<trkpt lat="49.915581" lon="5.507815"><ele>536.94</ele><time>2025-05-24T14:12:59Z</time></trkpt>
<trkpt lat="49.915635" lon="5.507527"><ele>538.35</ele><time>2025-05-24T14:13:04Z</time></trkpt>
<trkpt lat="49.91599" lon="5.507322"><ele>534.51</ele><time>2025-05-24T14:13:09Z</time></trkpt>
<trkpt lat="49.916275" lon="5.507219"><ele>533.41</ele><time>2025-05-24T14:13:15Z</time></trkpt>
<trkpt lat="49.91792" lon="5.506643"><ele>530.45</ele><time>2025-05-24T14:13:20Z</time></trkpt>
<trkpt lat="49.918135" lon="5.506512"><ele>529.55</ele><time>2025-05-24T14:13:26Z</time></trkpt>
<trkpt lat="49.918633" lon="5.506097"><ele>528.03</ele><time>2025-05-24T14:13:31Z</time></trkpt>
<trkpt lat="49.918861" lon="5.505795"><ele>527.62</ele><time>2025-05-24T14:13:37Z</time></trkpt>
<trkpt lat="49.91914" lon="5.505265"><ele>523.91</ele><time>2025-05-24T14:13:42Z</time></trkpt>
<trkpt lat="49.919232" lon="5.505141"><ele>523.13</ele><time>2025-05-24T14:13:47Z</time></trkpt>
<trkpt lat="49.919473" lon="5.504927"><ele>522.63</ele><time>2025-05-24T14:13:53Z</time></trkpt>
<trkpt lat="49.922238" lon="5.502778"><ele>511.06</ele><time>2025-05-24T14:13:58Z</time></trkpt>
<trkpt lat="49.922839" lon="5.502283"><ele>510.0</ele><time>2025-05-24T14:14:04Z</time></trkpt>
<trkpt lat="49.923037" lon="5.502085"><ele>511.39</ele><time>2025-05-24T14:14:09Z</time></trkpt>
<trkpt lat="49.923218" lon="5.50185"><ele>514.34</ele><time>2025-05-24T14:14:15Z</time></trkpt>
<trkpt lat="49.924452" lon="5.499984"><ele>522.05</ele><time>2025-05-24T14:14:20Z</time></trkpt>
<trkpt lat="49.924932" lon="5.498068"><ele>514.53</ele><time>2025-05-24T14:14:25Z</time></trkpt>
<trkpt lat="49.924998" lon="5.497733"><ele>514.01</ele><time>2025-05-24T14:14:31Z</time></trkpt>
<trkpt lat="49.925031" lon="5.497419"><ele>513.48</ele><time>2025-05-24T14:14:36Z</time></trkpt>
<trkpt lat="49.92506" lon="5.49609"><ele>503.83</ele><time>2025-05-24T14:14:42Z</time></trkpt>
<trkpt lat="49.925085" lon="5.495621"><ele>500.45</ele><time>2025-05-24T14:14:47Z</time></trkpt>
<trkpt lat="49.92512" lon="5.495324"><ele>498.87</ele><time>2025-05-24T14:14:52Z</time></trkpt>
<trkpt lat="49.925802" lon="5.490527"><ele>481.48</ele><time>2025-05-24T14:14:58Z</time></trkpt>
<trkpt lat="49.925966" lon="5.489621"><ele>479.94</ele><time>2025-05-24T14:15:03Z</time></trkpt>
<trkpt lat="49.926601" lon="5.486604"><ele>480.23</ele><time>2025-05-24T14:15:09Z</time></trkpt>
<trkpt lat="49.92662" lon="5.486457"><ele>480.37</ele><time>2025-05-24T14:15:14Z</time></trkpt>
<trkpt lat="49.926605" lon="5.486355"><ele>479.99</ele><time>2025-05-24T14:15:20Z</time></trkpt>
<trkpt lat="49.92655" lon="5.486265"><ele>478.87</ele><time>2025-05-24T14:15:25Z</time></trkpt>
<trkpt lat="49.926483" lon="5.486201"><ele>477.68</ele><time>2025-05-24T14:15:30Z</time></trkpt>
<trkpt lat="49.925588" lon="5.485983"><ele>473.48</ele><time>2025-05-24T14:15:36Z</time></trkpt>
<trkpt lat="49.925486" lon="5.485914"><ele>473.72</ele><time>2025-05-24T14:15:41Z</time></trkpt>
<trkpt lat="49.925445" lon="5.485834"><ele>473.8</ele><time>2025-05-24T14:15:47Z</time></trkpt>
<trkpt lat="49.92539" lon="5.485597"><ele>473.68</ele><time>2025-05-24T14:15:52Z</time></trkpt>
<trkpt lat="49.925311" lon="5.481992"><ele>471.76</ele><time>2025-05-24T14:15:58Z</time></trkpt>
<trkpt lat="49.925237" lon="5.481558"><ele>472.85</ele><time>2025-05-24T14:16:03Z</time></trkpt>
<trkpt lat="49.9251" lon="5.481107"><ele>471.34</ele><time>2025-05-24T14:16:08Z</time></trkpt>
<trkpt lat="49.924485" lon="5.479294"><ele>472.69</ele><time>2025-05-24T14:16:14Z</time></trkpt>
<trkpt lat="49.924366" lon="5.478847"><ele>474.04</ele><time>2025-05-24T14:16:19Z</time></trkpt>
<trkpt lat="49.924324" lon="5.47854"><ele>474.54</ele><time>2025-05-24T14:16:25Z</time></trkpt>
<trkpt lat="49.924311" lon="5.478236"><ele>474.96</ele><time>2025-05-24T14:16:30Z</time></trkpt>
<trkpt lat="49.924326" lon="5.477893"><ele>475.44</ele><time>2025-05-24T14:16:35Z</time></trkpt>
<trkpt lat="49.92453" lon="5.475922"><ele>478.86</ele><time>2025-05-24T14:16:41Z</time></trkpt>
<trkpt lat="49.925134" lon="5.469369"><ele>473.42</ele><time>2025-05-24T14:16:46Z</time></trkpt>
<trkpt lat="49.925123" lon="5.468958"><ele>470.38</ele><time>2025-05-24T14:16:52Z</time></trkpt>
<trkpt lat="49.924988" lon="5.46821"><ele>469.92</ele><time>2025-05-24T14:16:57Z</time></trkpt>
<trkpt lat="49.924652" lon="5.467473"><ele>468.05</ele><time>2025-05-24T14:17:03Z</time></trkpt>
<trkpt lat="49.923533" lon="5.46585"><ele>476.18</ele><time>2025-05-24T14:17:08Z</time></trkpt>
<trkpt lat="49.923364" lon="5.465432"><ele>475.55</ele><time>2025-05-24T14:17:13Z</time></trkpt>
<trkpt lat="49.922438" lon="5.462057"><ele>470.89</ele><time>2025-05-24T14:17:19Z</time></trkpt>
<trkpt lat="49.921664" lon="5.459145"><ele>476.94</ele><time>2025-05-24T14:17:24Z</time></trkpt>
<trkpt lat="49.921635" lon="5.458973"><ele>476.45</ele><time>2025-05-24T14:17:30Z</time></trkpt>
<trkpt lat="49.921766" lon="5.458816"><ele>475.11</ele><time>2025-05-24T14:17:34Z</time></trkpt>
<trkpt lat="49.921914" lon="5.458715"><ele>474.15</ele><time>2025-05-24T14:17:37Z</time></trkpt>
<trkpt lat="49.923083" lon="5.45761"><ele>480.06</ele><time>2025-05-24T14:17:41Z</time></trkpt>
<trkpt lat="49.923189" lon="5.457529"><ele>480.43</ele><time>2025-05-24T14:17:45Z</time></trkpt>
<trkpt lat="49.923312" lon="5.457379"><ele>481.33</ele><time>2025-05-24T14:17:49Z</time></trkpt>
<trkpt lat="49.923349" lon="5.457309"><ele>481.8</ele><time>2025-05-24T14:17:53Z</time></trkpt>
<trkpt lat="49.923417" lon="5.456991"><ele>482.6</ele><time>2025-05-24T14:17:57Z</time></trkpt>
<trkpt lat="49.923345" lon="5.456226"><ele>483.63</ele><time>2025-05-24T14:18:00Z</time></trkpt>
<trkpt lat="49.923288" lon="5.455799"><ele>485.02</ele><time>2025-05-24T14:18:04Z</time></trkpt>
<trkpt lat="49.92304" lon="5.455061"><ele>485.25</ele><time>2025-05-24T14:18:08Z</time></trkpt>
<trkpt lat="49.922487" lon="5.453767"><ele>488.0</ele><time>2025-05-24T14:18:12Z</time></trkpt>
<trkpt lat="49.921861" lon="5.452361"><ele>491.65</ele><time>2025-05-24T14:18:16Z</time></trkpt>
<trkpt lat="49.921693" lon="5.451917"><ele>492.09</ele><time>2025-05-24T14:18:19Z</time></trkpt>
<trkpt lat="49.921473" lon="5.451193"><ele>493.7</ele><time>2025-05-24T14:18:23Z</time></trkpt>
<trkpt lat="49.921312" lon="5.450518"><ele>495.0</ele><time>2025-05-24T14:18:27Z</time></trkpt>
<trkpt lat="49.921242" lon="5.450114"><ele>494.96</ele><time>2025-05-24T14:18:31Z</time></trkpt>
<trkpt lat="49.921217" lon="5.449663"><ele>495.3</ele><time>2025-05-24T14:18:35Z</time></trkpt>
<trkpt lat="49.921187" lon="5.44693"><ele>501.04</ele><time>2025-05-24T14:18:39Z</time></trkpt>
<trkpt lat="49.921224" lon="5.446149"><ele>502.11</ele><time>2025-05-24T14:18:42Z</time></trkpt>
<trkpt lat="49.921286" lon="5.445726"><ele>502.76</ele><time>2025-05-24T14:18:46Z</time></trkpt>
<trkpt lat="49.921874" lon="5.442876"><ele>500.44</ele><time>2025-05-24T14:18:50Z</time></trkpt>
<trkpt lat="49.921985" lon="5.442055"><ele>498.0</ele><time>2025-05-24T14:18:54Z</time></trkpt>
<trkpt lat="49.922053" lon="5.441363"><ele>497.91</ele><time>2025-05-24T14:18:58Z</time></trkpt>
<trkpt lat="49.922117" lon="5.439917"><ele>494.81</ele><time>2025-05-24T14:19:02Z</time></trkpt>
<trkpt lat="49.922131" lon="5.439107"><ele>493.58</ele><time>2025-05-24T14:19:05Z</time></trkpt>
<trkpt lat="49.921728" lon="5.4341"><ele>499.44</ele><time>2025-05-24T14:19:09Z</time></trkpt>
<trkpt lat="49.92163" lon="5.433069"><ele>492.89</ele><time>2025-05-24T14:19:13Z</time></trkpt>
<trkpt lat="49.921582" lon="5.432294"><ele>492.33</ele><time>2025-05-24T14:19:17Z</time></trkpt>
<trkpt lat="49.921606" lon="5.431821"><ele>493.44</ele><time>2025-05-24T14:19:21Z</time></trkpt>
<trkpt lat="49.921762" lon="5.431019"><ele>496.59</ele><time>2025-05-24T14:19:25Z</time></trkpt>
<trkpt lat="49.922063" lon="5.429832"><ele>505.89</ele><time>2025-05-24T14:19:28Z</time></trkpt>
<trkpt lat="49.922435" lon="5.428358"><ele>505.93</ele><time>2025-05-24T14:19:32Z</time></trkpt>
<trkpt lat="49.922504" lon="5.427778"><ele>508.94</ele><time>2025-05-24T14:19:36Z</time></trkpt>
<trkpt lat="49.922504" lon="5.427135"><ele>507.96</ele><time>2025-05-24T14:19:40Z</time></trkpt>
<trkpt lat="49.922361" lon="5.425507"><ele>510.1</ele><time>2025-05-24T14:19:44Z</time></trkpt>
<trkpt lat="49.922274" lon="5.424772"><ele>511.6</ele><time>2025-05-24T14:19:48Z</time></trkpt>
<trkpt lat="49.922141" lon="5.42394"><ele>511.29</ele><time>2025-05-24T14:19:51Z</time></trkpt>
<trkpt lat="49.922127" lon="5.423612"><ele>512.34</ele><time>2025-05-24T14:19:55Z</time></trkpt>
<trkpt lat="49.922143" lon="5.423056"><ele>514.28</ele><time>2025-05-24T14:19:59Z</time></trkpt>
<trkpt lat="49.922196" lon="5.422303"><ele>514.19</ele><time>2025-05-24T14:20:03Z</time></trkpt>
<trkpt lat="49.922246" lon="5.422085"><ele>513.78</ele><time>2025-05-24T14:20:07Z</time></trkpt>
<trkpt lat="49.922277" lon="5.421833"><ele>513.49</ele><time>2025-05-24T14:20:11Z</time></trkpt>
<trkpt lat="49.922346" lon="5.421462"><ele>513.52</ele><time>2025-05-24T14:20:14Z</time></trkpt>
<trkpt lat="49.922344" lon="5.42134"><ele>513.77</ele><time>2025-05-24T14:20:18Z</time></trkpt>
<trkpt lat="49.922396" lon="5.421147"><ele>513.67</ele><time>2025-05-24T14:20:22Z</time></trkpt>
<trkpt lat="49.92251" lon="5.420537"><ele>513.93</ele><time>2025-05-24T14:20:26Z</time></trkpt>
<trkpt lat="49.922761" lon="5.419126"><ele>512.17</ele><time>2025-05-24T14:20:30Z</time></trkpt>
<trkpt lat="49.92282" lon="5.418711"><ele>511.79</ele><time>2025-05-24T14:20:34Z</time></trkpt>
<trkpt lat="49.923112" lon="5.41553"><ele>515.0</ele><time>2025-05-24T14:20:37Z</time></trkpt>
<trkpt lat="49.923438" lon="5.413512"><ele>512.97</ele><time>2025-05-24T14:20:41Z</time></trkpt>
<trkpt lat="49.923463" lon="5.413243"><ele>513.79</ele><time>2025-05-24T14:20:45Z</time></trkpt>
<trkpt lat="49.923463" lon="5.412929"><ele>515.37</ele><time>2025-05-24T14:20:49Z</time></trkpt>
<trkpt lat="49.923428" lon="5.41251"><ele>517.63</ele><time>2025-05-24T14:20:53Z</time></trkpt>
<trkpt lat="49.923332" lon="5.411709"><ele>519.84</ele><time>2025-05-24T14:20:57Z</time></trkpt>
<trkpt lat="49.923074" lon="5.409925"><ele>525.61</ele><time>2025-05-24T14:21:00Z</time></trkpt>
<trkpt lat="49.922841" lon="5.408659"><ele>529.72</ele><time>2025-05-24T14:21:04Z</time></trkpt>
<trkpt lat="49.923029" lon="5.40838"><ele>530.88</ele><time>2025-05-24T14:21:15Z</time></trkpt>
<trkpt lat="49.92319" lon="5.408093"><ele>527.88</ele><time>2025-05-24T14:21:25Z</time></trkpt>
<trkpt lat="49.92361" lon="5.408652"><ele>529.45</ele><time>2025-05-24T14:21:32Z</time></trkpt>
<trkpt lat="49.924036" lon="5.409317"><ele>526.35</ele><time>2025-05-24T14:21:40Z</time></trkpt>
<trkpt lat="49.924551" lon="5.410169"><ele>523.39</ele><time>2025-05-24T14:21:47Z</time></trkpt>
<trkpt lat="49.925221" lon="5.408446"><ele>538.57</ele><time>2025-05-24T14:22:20Z</time></trkpt>
<trkpt lat="49.925785" lon="5.407129"><ele>543.97</ele><time>2025-05-24T14:22:53Z</time></trkpt>
<trkpt lat="49.92628" lon="5.405856"><ele>547.37</ele><time>2025-05-24T14:23:26Z</time></trkpt>
<trkpt lat="49.926334" lon="5.405695"><ele>548.71</ele><time>2025-05-24T14:24:00Z</time></trkpt>
<trkpt lat="49.926439" lon="5.405095"><ele>545.55</ele><time>2025-05-24T14:24:33Z</time></trkpt>
<trkpt lat="49.926655" lon="5.404371"><ele>538.41</ele><time>2025-05-24T14:25:06Z</time></trkpt>
<trkpt lat="49.926978" lon="5.404074"><ele>541.23</ele><time>2025-05-24T14:25:37Z</time></trkpt>
<trkpt lat="49.928346" lon="5.402507"><ele>547.88</ele><time>2025-05-24T14:26:08Z</time></trkpt>
<trkpt lat="49.92895" lon="5.401966"><ele>549.56</ele><time>2025-05-24T14:26:39Z</time></trkpt>
<trkpt lat="49.929269" lon="5.401716"><ele>551.16</ele><time>2025-05-24T14:27:10Z</time></trkpt>
<trkpt lat="49.929749" lon="5.401457"><ele>550.41</ele><time>2025-05-24T14:27:41Z</time></trkpt>
<trkpt lat="49.930334" lon="5.401217"><ele>550.83</ele><time>2025-05-24T14:28:12Z</time></trkpt>
<trkpt lat="49.930967" lon="5.401073"><ele>550.24</ele><time>2025-05-24T14:28:43Z</time></trkpt>
<trkpt lat="49.931863" lon="5.400931"><ele>557.66</ele><time>2025-05-24T14:29:14Z</time></trkpt>
<trkpt lat="49.932122" lon="5.400836"><ele>558.66</ele><time>2025-05-24T14:29:45Z</time></trkpt>
<trkpt lat="49.932114" lon="5.400792"><ele>558.33</ele><time>2025-05-24T14:29:46Z</time></trkpt>
<trkpt lat="49.932114" lon="5.400792"><ele>558.33</ele><time>2025-05-24T14:29:46Z</time></trkpt>
<trkpt lat="49.932071" lon="5.400542"><ele>558.0</ele><time>2025-05-24T14:30:03Z</time></trkpt>
<trkpt lat="49.931907" lon="5.399944"><ele>558.04</ele><time>2025-05-24T14:30:19Z</time></trkpt>
<trkpt lat="49.931707" lon="5.399368"><ele>555.87</ele><time>2025-05-24T14:30:36Z</time></trkpt>
<trkpt lat="49.931539" lon="5.398996"><ele>553.93</ele><time>2025-05-24T14:30:53Z</time></trkpt>
<trkpt lat="49.931311" lon="5.398278"><ele>555.68</ele><time>2025-05-24T14:31:10Z</time></trkpt>
<trkpt lat="49.931376" lon="5.398126"><ele>556.54</ele><time>2025-05-24T14:31:23Z</time></trkpt>
<trkpt lat="49.931511" lon="5.397923"><ele>557.95</ele><time>2025-05-24T14:31:36Z</time></trkpt>
<trkpt lat="49.93178" lon="5.397427"><ele>560.42</ele><time>2025-05-24T14:31:49Z</time></trkpt>
<trkpt lat="49.931864" lon="5.397185"><ele>561.42</ele><time>2025-05-24T14:32:02Z</time></trkpt>
<trkpt lat="49.931935" lon="5.396816"><ele>562.5</ele><time>2025-05-24T14:32:15Z</time></trkpt>
<trkpt lat="49.932272" lon="5.395644"><ele>562.91</ele><time>2025-05-24T14:32:28Z</time></trkpt>
<trkpt lat="49.932297" lon="5.395462"><ele>563.51</ele><time>2025-05-24T14:32:41Z</time></trkpt>
<trkpt lat="49.932298" lon="5.395205"><ele>564.71</ele><time>2025-05-24T14:32:54Z</time></trkpt>
<trkpt lat="49.9323" lon="5.394886"><ele>564.77</ele><time>2025-05-24T14:33:06Z</time></trkpt>
<trkpt lat="49.932343" lon="5.394178"><ele>565.95</ele><time>2025-05-24T14:33:18Z</time></trkpt>
<trkpt lat="49.932337" lon="5.393881"><ele>567.42</ele><time>2025-05-24T14:33:31Z</time></trkpt>
<trkpt lat="49.932373" lon="5.393516"><ele>567.74</ele><time>2025-05-24T14:33:43Z</time></trkpt>
<trkpt lat="49.932367" lon="5.393337"><ele>567.05</ele><time>2025-05-24T14:33:55Z</time></trkpt>
<trkpt lat="49.932214" lon="5.39276"><ele>562.94</ele><time>2025-05-24T14:34:08Z</time></trkpt>
<trkpt lat="49.932788" lon="5.391718"><ele>563.96</ele><time>2025-05-24T14:34:34Z</time></trkpt>
<trkpt lat="49.932892" lon="5.39148"><ele>563.59</ele><time>2025-05-24T14:35:00Z</time></trkpt>
<trkpt lat="49.933317" lon="5.390751"><ele>554.27</ele><time>2025-05-24T14:35:26Z</time></trkpt>
<trkpt lat="49.934107" lon="5.392076"><ele>547.41</ele><time>2025-05-24T14:35:44Z</time></trkpt>
<trkpt lat="49.937445" lon="5.397797"><ele>527.74</ele><time>2025-05-24T14:36:02Z</time></trkpt>
<trkpt lat="49.93811" lon="5.398772"><ele>523.97</ele><time>2025-05-24T14:36:19Z</time></trkpt>
<trkpt lat="49.939088" lon="5.399911"><ele>519.82</ele><time>2025-05-24T14:36:37Z</time></trkpt>
<trkpt lat="49.94312" lon="5.404113"><ele>501.0</ele><time>2025-05-24T14:36:54Z</time></trkpt>
<trkpt lat="49.94744" lon="5.408663"><ele>484.81</ele><time>2025-05-24T14:37:12Z</time></trkpt>
<trkpt lat="49.947496" lon="5.408636"><ele>485.21</ele><time>2025-05-24T14:37:28Z</time></trkpt>
<trkpt lat="49.947496" lon="5.408636"><ele>485.21</ele><time>2025-05-24T14:37:28Z</time></trkpt>
<trkpt lat="49.94744" lon="5.408663"><ele>484.81</ele><time>2025-05-24T14:37:28Z</time></trkpt>
<trkpt lat="49.950293" lon="5.41164"><ele>483.05</ele><time>2025-05-24T14:37:40Z</time></trkpt>
<trkpt lat="49.950768" lon="5.412141"><ele>482.46</ele><time>2025-05-24T14:37:52Z</time></trkpt>
<trkpt lat="49.954022" lon="5.415541"><ele>477.04</ele><time>2025-05-24T14:38:03Z</time></trkpt>
<trkpt lat="49.954256" lon="5.415822"><ele>475.33</ele><time>2025-05-24T14:38:15Z</time></trkpt>
<trkpt lat="49.954439" lon="5.416092"><ele>474.02</ele><time>2025-05-24T14:38:27Z</time></trkpt>
<trkpt lat="49.954741" lon="5.415811"><ele>472.86</ele><time>2025-05-24T14:38:29Z</time></trkpt>
<trkpt lat="49.954953" lon="5.415718"><ele>472.1</ele><time>2025-05-24T14:38:32Z</time></trkpt>
<trkpt lat="49.955283" lon="5.415632"><ele>472.3</ele><time>2025-05-24T14:38:35Z</time></trkpt>
<trkpt lat="49.955567" lon="5.41546"><ele>474.05</ele><time>2025-05-24T14:38:38Z</time></trkpt>
<trkpt lat="49.955764" lon="5.415353"><ele>475.3</ele><time>2025-05-24T14:38:41Z</time></trkpt>
<trkpt lat="49.956021" lon="5.415137"><ele>476.34</ele><time>2025-05-24T14:38:44Z</time></trkpt>
<trkpt lat="49.956392" lon="5.414735"><ele>476.96</ele><time>2025-05-24T14:38:47Z</time></trkpt>
<trkpt lat="49.956447" lon="5.414635"><ele>477.46</ele><time>2025-05-24T14:38:50Z</time></trkpt>
<trkpt lat="49.95639" lon="5.414529"><ele>477.7</ele><time>2025-05-24T14:38:54Z</time></trkpt>
<trkpt lat="49.956344" lon="5.414394"><ele>477.84</ele><time>2025-05-24T14:38:59Z</time></trkpt>
<trkpt lat="49.956318" lon="5.414264"><ele>477.74</ele><time>2025-05-24T14:39:03Z</time></trkpt>
<trkpt lat="49.95631" lon="5.414135"><ele>477.72</ele><time>2025-05-24T14:39:08Z</time></trkpt>
<trkpt lat="49.95634" lon="5.414017"><ele>477.82</ele><time>2025-05-24T14:39:12Z</time></trkpt>
<trkpt lat="49.956535" lon="5.413708"><ele>478.18</ele><time>2025-05-24T14:39:17Z</time></trkpt>
<trkpt lat="49.956821" lon="5.413316"><ele>478.58</ele><time>2025-05-24T14:39:21Z</time></trkpt>
<trkpt lat="49.956921" lon="5.41314"><ele>478.97</ele><time>2025-05-24T14:39:26Z</time></trkpt>
<trkpt lat="49.957205" lon="5.412619"><ele>480.97</ele><time>2025-05-24T14:39:30Z</time></trkpt>
<trkpt lat="49.957464" lon="5.412066"><ele>483.32</ele><time>2025-05-24T14:39:35Z</time></trkpt>
<trkpt lat="49.958334" lon="5.410332"><ele>488.0</ele><time>2025-05-24T14:39:39Z</time></trkpt>
<trkpt lat="49.958428" lon="5.41018"><ele>488.22</ele><time>2025-05-24T14:39:44Z</time></trkpt>
<trkpt lat="49.958545" lon="5.410008"><ele>488.02</ele><time>2025-05-24T14:39:48Z</time></trkpt>
<trkpt lat="49.958887" lon="5.40965"><ele>486.48</ele><time>2025-05-24T14:39:53Z</time></trkpt>
<trkpt lat="49.95957" lon="5.409103"><ele>485.42</ele><time>2025-05-24T14:39:57Z</time></trkpt>
<trkpt lat="49.959818" lon="5.408802"><ele>484.11</ele><time>2025-05-24T14:40:02Z</time></trkpt>
<trkpt lat="49.959939" lon="5.408618"><ele>483.22</ele><time>2025-05-24T14:40:06Z</time></trkpt>
<trkpt lat="49.960207" lon="5.408064"><ele>482.01</ele><time>2025-05-24T14:40:11Z</time></trkpt>
<trkpt lat="49.960365" lon="5.407788"><ele>481.68</ele><time>2025-05-24T14:40:15Z</time></trkpt>
<trkpt lat="49.96086" lon="5.407058"><ele>478.81</ele><time>2025-05-24T14:40:20Z</time></trkpt>
<trkpt lat="49.961624" lon="5.405955"><ele>473.9</ele><time>2025-05-24T14:40:24Z</time></trkpt>
<trkpt lat="49.962983" lon="5.403977"><ele>466.58</ele><time>2025-05-24T14:40:29Z</time></trkpt>
<trkpt lat="49.96329" lon="5.403588"><ele>465.23</ele><time>2025-05-24T14:40:33Z</time></trkpt>
<trkpt lat="49.964022" lon="5.402778"><ele>465.04</ele><time>2025-05-24T14:40:38Z</time></trkpt>
<trkpt lat="49.965066" lon="5.401732"><ele>463.58</ele><time>2025-05-24T14:40:42Z</time></trkpt>
<trkpt lat="49.965282" lon="5.401475"><ele>461.98</ele><time>2025-05-24T14:40:47Z</time></trkpt>
<trkpt lat="49.965733" lon="5.401018"><ele>462.64</ele><time>2025-05-24T14:40:52Z</time></trkpt>
<trkpt lat="49.965897" lon="5.400884"><ele>462.54</ele><time>2025-05-24T14:40:56Z</time></trkpt>
<trkpt lat="49.966491" lon="5.400526"><ele>458.89</ele><time>2025-05-24T14:41:01Z</time></trkpt>
<trkpt lat="49.967045" lon="5.400111"><ele>455.14</ele><time>2025-05-24T14:41:05Z</time></trkpt>
<trkpt lat="49.967971" lon="5.399305"><ele>450.15</ele><time>2025-05-24T14:41:10Z</time></trkpt>
<trkpt lat="49.96812" lon="5.39912"><ele>449.77</ele><time>2025-05-24T14:41:14Z</time></trkpt>
<trkpt lat="49.968537" lon="5.398488"><ele>448.67</ele><time>2025-05-24T14:41:19Z</time></trkpt>
<trkpt lat="49.96872" lon="5.398276"><ele>448.0</ele><time>2025-05-24T14:41:23Z</time></trkpt>
<trkpt lat="49.969854" lon="5.397265"><ele>446.89</ele><time>2025-05-24T14:41:28Z</time></trkpt>
<trkpt lat="49.970576" lon="5.396985"><ele>445.5</ele><time>2025-05-24T14:41:32Z</time></trkpt>
<trkpt lat="49.970681" lon="5.396845"><ele>444.65</ele><time>2025-05-24T14:41:37Z</time></trkpt>
<trkpt lat="49.970714" lon="5.396764"><ele>444.33</ele><time>2025-05-24T14:41:41Z</time></trkpt>
<trkpt lat="49.970714" lon="5.396764"><ele>444.33</ele><time>2025-05-24T14:41:41Z</time></trkpt>
<trkpt lat="49.970739" lon="5.396702"><ele>444.02</ele><time>2025-05-24T14:41:47Z</time></trkpt>
<trkpt lat="49.970775" lon="5.396518"><ele>444.06</ele><time>2025-05-24T14:41:53Z</time></trkpt>
<trkpt lat="49.970798" lon="5.395092"><ele>448.87</ele><time>2025-05-24T14:41:59Z</time></trkpt>
<trkpt lat="49.970748" lon="5.394725"><ele>448.69</ele><time>2025-05-24T14:42:05Z</time></trkpt>
<trkpt lat="49.970349" lon="5.392914"><ele>445.1</ele><time>2025-05-24T14:42:11Z</time></trkpt>
<trkpt lat="49.970343" lon="5.392688"><ele>444.2</ele><time>2025-05-24T14:42:17Z</time></trkpt>
<trkpt lat="49.970368" lon="5.392437"><ele>443.2</ele><time>2025-05-24T14:42:23Z</time></trkpt>
<trkpt lat="49.970385" lon="5.392345"><ele>442.89</ele><time>2025-05-24T14:42:29Z</time></trkpt>
<trkpt lat="49.970429" lon="5.392239"><ele>442.48</ele><time>2025-05-24T14:42:35Z</time></trkpt>
<trkpt lat="49.970583" lon="5.392051"><ele>441.94</ele><time>2025-05-24T14:42:41Z</time></trkpt>
<trkpt lat="49.971383" lon="5.391513"><ele>434.5</ele><time>2025-05-24T14:42:47Z</time></trkpt>
<trkpt lat="49.971901" lon="5.391172"><ele>432.84</ele><time>2025-05-24T14:42:53Z</time></trkpt>
<trkpt lat="49.971987" lon="5.391115"><ele>433.15</ele><time>2025-05-24T14:42:59Z</time></trkpt>
<trkpt lat="49.974496" lon="5.389451"><ele>449.35</ele><time>2025-05-24T14:43:05Z</time></trkpt>
<trkpt lat="49.975039" lon="5.389125"><ele>454.14</ele><time>2025-05-24T14:43:11Z</time></trkpt>
<trkpt lat="49.976254" lon="5.388324"><ele>463.01</ele><time>2025-05-24T14:43:17Z</time></trkpt>
<trkpt lat="49.976512" lon="5.388232"><ele>464.44</ele><time>2025-05-24T14:43:23Z</time></trkpt>
<trkpt lat="49.976766" lon="5.388254"><ele>464.89</ele><time>2025-05-24T14:43:29Z</time></trkpt>
<trkpt lat="49.97725" lon="5.388498"><ele>463.53</ele><time>2025-05-24T14:43:35Z</time></trkpt>
<trkpt lat="49.977437" lon="5.388532"><ele>463.16</ele><time>2025-05-24T14:43:41Z</time></trkpt>
<trkpt lat="49.978034" lon="5.388481"><ele>465.37</ele><time>2025-05-24T14:43:47Z</time></trkpt>
<trkpt lat="49.978739" lon="5.388344"><ele>469.94</ele><time>2025-05-24T14:43:53Z</time></trkpt>
<trkpt lat="49.979427" lon="5.388058"><ele>470.88</ele><time>2025-05-24T14:43:59Z</time></trkpt>
<trkpt lat="49.980061" lon="5.387662"><ele>467.62</ele><time>2025-05-24T14:44:05Z</time></trkpt>
<trkpt lat="49.980318" lon="5.387553"><ele>466.52</ele><time>2025-05-24T14:44:11Z</time></trkpt>
<trkpt lat="49.98101" lon="5.387378"><ele>469.64</ele><time>2025-05-24T14:44:17Z</time></trkpt>
<trkpt lat="49.981094" lon="5.387321"><ele>469.94</ele><time>2025-05-24T14:44:23Z</time></trkpt>
<trkpt lat="49.981384" lon="5.387026"><ele>469.99</ele><time>2025-05-24T14:44:29Z</time></trkpt>
<trkpt lat="49.98177" lon="5.386576"><ele>473.29</ele><time>2025-05-24T14:44:35Z</time></trkpt>
<trkpt lat="49.982369" lon="5.38572"><ele>475.93</ele><time>2025-05-24T14:44:41Z</time></trkpt>
<trkpt lat="49.982781" lon="5.385237"><ele>476.87</ele><time>2025-05-24T14:44:47Z</time></trkpt>
<trkpt lat="49.983069" lon="5.384991"><ele>478.1</ele><time>2025-05-24T14:44:53Z</time></trkpt>
<trkpt lat="49.983295" lon="5.38485"><ele>479.72</ele><time>2025-05-24T14:44:59Z</time></trkpt>
<trkpt lat="49.98409" lon="5.384578"><ele>477.41</ele><time>2025-05-24T14:45:05Z</time></trkpt>
<trkpt lat="49.984372" lon="5.384157"><ele>477.02</ele><time>2025-05-24T14:45:11Z</time></trkpt>
<trkpt lat="49.98527" lon="5.382764"><ele>482.9</ele><time>2025-05-24T14:45:17Z</time></trkpt>
<trkpt lat="49.985436" lon="5.382554"><ele>482.65</ele><time>2025-05-24T14:45:23Z</time></trkpt>
<trkpt lat="49.985898" lon="5.382125"><ele>483.38</ele><time>2025-05-24T14:45:29Z</time></trkpt>
<trkpt lat="49.986151" lon="5.3818"><ele>481.67</ele><time>2025-05-24T14:45:35Z</time></trkpt>
<trkpt lat="49.987068" lon="5.3804"><ele>484.01</ele><time>2025-05-24T14:45:41Z</time></trkpt>
<trkpt lat="49.987122" lon="5.380237"><ele>484.93</ele><time>2025-05-24T14:45:47Z</time></trkpt>
<trkpt lat="49.987866" lon="5.380324"><ele>483.98</ele><time>2025-05-24T14:45:51Z</time></trkpt>
<trkpt lat="49.987991" lon="5.380306"><ele>484.56</ele><time>2025-05-24T14:45:55Z</time></trkpt>
<trkpt lat="49.988133" lon="5.380214"><ele>485.44</ele><time>2025-05-24T14:45:59Z</time></trkpt>
<trkpt lat="49.988233" lon="5.380092"><ele>485.88</ele><time>2025-05-24T14:46:04Z</time></trkpt>
<trkpt lat="49.98836" lon="5.379733"><ele>486.0</ele><time>2025-05-24T14:46:08Z</time></trkpt>
<trkpt lat="49.988504" lon="5.379102"><ele>485.38</ele><time>2025-05-24T14:46:12Z</time></trkpt>
<trkpt lat="49.988605" lon="5.37874"><ele>485.03</ele><time>2025-05-24T14:46:16Z</time></trkpt>
<trkpt lat="49.988676" lon="5.378587"><ele>484.74</ele><time>2025-05-24T14:46:21Z</time></trkpt>
<trkpt lat="49.989722" lon="5.376816"><ele>481.54</ele><time>2025-05-24T14:46:25Z</time></trkpt>
<trkpt lat="49.990067" lon="5.37628"><ele>478.76</ele><time>2025-05-24T14:46:29Z</time></trkpt>
<trkpt lat="49.990197" lon="5.376043"><ele>478.46</ele><time>2025-05-24T14:46:33Z</time></trkpt>
<trkpt lat="49.990283" lon="5.375816"><ele>479.0</ele><time>2025-05-24T14:46:38Z</time></trkpt>
<trkpt lat="49.992002" lon="5.370368"><ele>490.75</ele><time>2025-05-24T14:46:42Z</time></trkpt>
<trkpt lat="49.993058" lon="5.367101"><ele>498.67</ele><time>2025-05-24T14:46:46Z</time></trkpt>
<trkpt lat="49.993312" lon="5.366552"><ele>497.41</ele><time>2025-05-24T14:46:50Z</time></trkpt>
<trkpt lat="49.994671" lon="5.363425"><ele>491.54</ele><time>2025-05-24T14:46:55Z</time></trkpt>
<trkpt lat="49.995117" lon="5.36238"><ele>482.06</ele><time>2025-05-24T14:46:59Z</time></trkpt>
<trkpt lat="49.995322" lon="5.361839"><ele>480.16</ele><time>2025-05-24T14:47:03Z</time></trkpt>
<trkpt lat="49.995702" lon="5.360642"><ele>476.31</ele><time>2025-05-24T14:47:07Z</time></trkpt>
<trkpt lat="49.995926" lon="5.360012"><ele>474.36</ele><time>2025-05-24T14:47:12Z</time></trkpt>
<trkpt lat="49.997439" lon="5.35621"><ele>469.58</ele><time>2025-05-24T14:47:16Z</time></trkpt>
<trkpt lat="49.997694" lon="5.355647"><ele>468.4</ele><time>2025-05-24T14:47:20Z</time></trkpt>
<trkpt lat="49.998768" lon="5.353781"><ele>459.2</ele><time>2025-05-24T14:47:24Z</time></trkpt>
<trkpt lat="49.999046" lon="5.353355"><ele>456.3</ele><time>2025-05-24T14:47:28Z</time></trkpt>
<trkpt lat="49.999234" lon="5.353135"><ele>454.01</ele><time>2025-05-24T14:47:33Z</time></trkpt>
<trkpt lat="50.000464" lon="5.352156"><ele>444.39</ele><time>2025-05-24T14:47:37Z</time></trkpt>
<trkpt lat="50.000706" lon="5.351925"><ele>443.98</ele><time>2025-05-24T14:47:41Z</time></trkpt>
<trkpt lat="50.00084" lon="5.351859"><ele>443.29</ele><time>2025-05-24T14:47:45Z</time></trkpt>
<trkpt lat="50.001139" lon="5.351849"><ele>442.58</ele><time>2025-05-24T14:47:50Z</time></trkpt>
<trkpt lat="50.002815" lon="5.352015"><ele>439.23</ele><time>2025-05-24T14:47:54Z</time></trkpt>
<trkpt lat="50.003034" lon="5.351991"><ele>436.63</ele><time>2025-05-24T14:47:58Z</time></trkpt>
<trkpt lat="50.003118" lon="5.35194"><ele>436.39</ele><time>2025-05-24T14:48:02Z</time></trkpt>
<trkpt lat="50.003357" lon="5.351703"><ele>436.2</ele><time>2025-05-24T14:48:07Z</time></trkpt>
<trkpt lat="50.003488" lon="5.351539"><ele>435.34</ele><time>2025-05-24T14:48:11Z</time></trkpt>
<trkpt lat="50.003697" lon="5.351178"><ele>433.42</ele><time>2025-05-24T14:48:15Z</time></trkpt>
<trkpt lat="50.003856" lon="5.350816"><ele>432.95</ele><time>2025-05-24T14:48:19Z</time></trkpt>
<trkpt lat="50.004075" lon="5.350202"><ele>430.98</ele><time>2025-05-24T14:48:24Z</time></trkpt>
<trkpt lat="50.004165" lon="5.350067"><ele>429.03</ele><time>2025-05-24T14:48:28Z</time></trkpt>
<trkpt lat="50.004276" lon="5.34998"><ele>428.21</ele><time>2025-05-24T14:48:32Z</time></trkpt>
<trkpt lat="50.004506" lon="5.349978"><ele>426.13</ele><time>2025-05-24T14:48:36Z</time></trkpt>
<trkpt lat="50.00463" lon="5.349948"><ele>424.46</ele><time>2025-05-24T14:48:41Z</time></trkpt>
<trkpt lat="50.004851" lon="5.349814"><ele>422.89</ele><time>2025-05-24T14:48:45Z</time></trkpt>
<trkpt lat="50.004936" lon="5.349724"><ele>422.46</ele><time>2025-05-24T14:48:49Z</time></trkpt>
<trkpt lat="50.005" lon="5.349618"><ele>422.0</ele><time>2025-05-24T14:48:53Z</time></trkpt>
<trkpt lat="50.005291" lon="5.348984"><ele>423.64</ele><time>2025-05-24T14:48:58Z</time></trkpt>
<trkpt lat="50.005419" lon="5.34882"><ele>424.24</ele><time>2025-05-24T14:49:02Z</time></trkpt>
<trkpt lat="50.005581" lon="5.348651"><ele>423.8</ele><time>2025-05-24T14:49:06Z</time></trkpt>
<trkpt lat="50.005907" lon="5.348378"><ele>421.47</ele><time>2025-05-24T14:49:10Z</time></trkpt>
<trkpt lat="50.005923" lon="5.348159"><ele>421.98</ele><time>2025-05-24T14:49:12Z</time></trkpt>
<trkpt lat="50.005898" lon="5.34805"><ele>422.55</ele><time>2025-05-24T14:49:14Z</time></trkpt>
<trkpt lat="50.006054" lon="5.347917"><ele>421.91</ele><time>2025-05-24T14:49:17Z</time></trkpt>
<trkpt lat="50.007124" lon="5.347232"><ele>421.64</ele><time>2025-05-24T14:49:21Z</time></trkpt>
<trkpt lat="50.007321" lon="5.347086"><ele>422.49</ele><time>2025-05-24T14:49:24Z</time></trkpt>
<trkpt lat="50.007679" lon="5.346776"><ele>423.61</ele><time>2025-05-24T14:49:27Z</time></trkpt>
<trkpt lat="50.008344" lon="5.346265"><ele>422.96</ele><time>2025-05-24T14:49:30Z</time></trkpt>
<trkpt lat="50.008505" lon="5.346107"><ele>422.4</ele><time>2025-05-24T14:49:33Z</time></trkpt>
<trkpt lat="50.008592" lon="5.345984"><ele>422.53</ele><time>2025-05-24T14:49:36Z</time></trkpt>
<trkpt lat="50.008773" lon="5.345598"><ele>423.35</ele><time>2025-05-24T14:49:39Z</time></trkpt>
<trkpt lat="50.008846" lon="5.345382"><ele>422.0</ele><time>2025-05-24T14:49:42Z</time></trkpt>
<trkpt lat="50.008912" lon="5.345091"><ele>419.32</ele><time>2025-05-24T14:49:45Z</time></trkpt>
<trkpt lat="50.008941" lon="5.344743"><ele>417.33</ele><time>2025-05-24T14:49:48Z</time></trkpt>
<trkpt lat="50.008952" lon="5.343758"><ele>415.29</ele><time>2025-05-24T14:49:52Z</time></trkpt>
<trkpt lat="50.008989" lon="5.343537"><ele>415.1</ele><time>2025-05-24T14:49:55Z</time></trkpt>
<trkpt lat="50.009054" lon="5.343355"><ele>415.55</ele><time>2025-05-24T14:49:58Z</time></trkpt>
<trkpt lat="50.009209" lon="5.343235"><ele>417.01</ele><time>2025-05-24T14:50:01Z</time></trkpt>
<trkpt lat="50.010829" lon="5.342685"><ele>432.65</ele><time>2025-05-24T14:50:04Z</time></trkpt>
<trkpt lat="50.011059" lon="5.342666"><ele>432.32</ele><time>2025-05-24T14:50:07Z</time></trkpt>
<trkpt lat="50.01117" lon="5.342701"><ele>431.98</ele><time>2025-05-24T14:50:10Z</time></trkpt>
<trkpt lat="50.011267" lon="5.342768"><ele>431.64</ele><time>2025-05-24T14:50:13Z</time></trkpt>
<trkpt lat="50.012141" lon="5.343865"><ele>434.5</ele><time>2025-05-24T14:50:16Z</time></trkpt>
<trkpt lat="50.012318" lon="5.344004"><ele>434.93</ele><time>2025-05-24T14:50:19Z</time></trkpt>
<trkpt lat="50.012472" lon="5.344072"><ele>435.24</ele><time>2025-05-24T14:50:22Z</time></trkpt>
<trkpt lat="50.012617" lon="5.344093"><ele>436.22</ele><time>2025-05-24T14:50:26Z</time></trkpt>
<trkpt lat="50.012808" lon="5.344075"><ele>438.05</ele><time>2025-05-24T14:50:29Z</time></trkpt>
<trkpt lat="50.012932" lon="5.344039"><ele>439.89</ele><time>2025-05-24T14:50:32Z</time></trkpt>
<trkpt lat="50.013128" lon="5.34394"><ele>442.12</ele><time>2025-05-24T14:50:35Z</time></trkpt>
<trkpt lat="50.013664" lon="5.343528"><ele>440.68</ele><time>2025-05-24T14:50:38Z</time></trkpt>
<trkpt lat="50.01387" lon="5.343314"><ele>440.67</ele><time>2025-05-24T14:50:41Z</time></trkpt>
<trkpt lat="50.013975" lon="5.34317"><ele>440.76</ele><time>2025-05-24T14:50:44Z</time></trkpt>
<trkpt lat="50.013975" lon="5.34317"><ele>440.76</ele><time>2025-05-24T14:50:44Z</time></trkpt>
<trkpt lat="50.014044" lon="5.343077"><ele>440.86</ele><time>2025-05-24T14:50:47Z</time></trkpt>
<trkpt lat="50.014174" lon="5.342809"><ele>439.37</ele><time>2025-05-24T14:50:50Z</time></trkpt>
<trkpt lat="50.014259" lon="5.342576"><ele>436.66</ele><time>2025-05-24T14:50:53Z</time></trkpt>
<trkpt lat="50.014376" lon="5.342075"><ele>431.92</ele><time>2025-05-24T14:50:56Z</time></trkpt>
<trkpt lat="50.014653" lon="5.340723"><ele>420.91</ele><time>2025-05-24T14:50:58Z</time></trkpt>
<trkpt lat="50.014763" lon="5.340325"><ele>417.72</ele><time>2025-05-24T14:51:01Z</time></trkpt>
<trkpt lat="50.015084" lon="5.339518"><ele>418.34</ele><time>2025-05-24T14:51:04Z</time></trkpt>
<trkpt lat="50.015286" lon="5.339048"><ele>421.51</ele><time>2025-05-24T14:51:07Z</time></trkpt>
<trkpt lat="50.015944" lon="5.337785"><ele>412.36</ele><time>2025-05-24T14:51:10Z</time></trkpt>
<trkpt lat="50.016151" lon="5.33729"><ele>410.83</ele><time>2025-05-24T14:51:13Z</time></trkpt>
<trkpt lat="50.016534" lon="5.336124"><ele>408.22</ele><time>2025-05-24T14:51:16Z</time></trkpt>
<trkpt lat="50.016617" lon="5.335939"><ele>406.53</ele><time>2025-05-24T14:51:18Z</time></trkpt>
<trkpt lat="50.017475" lon="5.334808"><ele>397.47</ele><time>2025-05-24T14:51:21Z</time></trkpt>
<trkpt lat="50.01773" lon="5.334428"><ele>397.57</ele><time>2025-05-24T14:51:24Z</time></trkpt>
<trkpt lat="50.01794" lon="5.333845"><ele>397.6</ele><time>2025-05-24T14:51:27Z</time></trkpt>
<trkpt lat="50.01826" lon="5.332781"><ele>386.04</ele><time>2025-05-24T14:51:30Z</time></trkpt>
<trkpt lat="50.018287" lon="5.332432"><ele>383.51</ele><time>2025-05-24T14:51:33Z</time></trkpt>
<trkpt lat="50.018275" lon="5.33227"><ele>382.34</ele><time>2025-05-24T14:51:36Z</time></trkpt>
<trkpt lat="50.017847" lon="5.330293"><ele>370.09</ele><time>2025-05-24T14:51:38Z</time></trkpt>
<trkpt lat="50.017584" lon="5.328886"><ele>364.99</ele><time>2025-05-24T14:51:41Z</time></trkpt>
<trkpt lat="50.017576" lon="5.328762"><ele>364.54</ele><time>2025-05-24T14:51:44Z</time></trkpt>
<trkpt lat="50.017598" lon="5.328518"><ele>363.67</ele><time>2025-05-24T14:51:47Z</time></trkpt>
<trkpt lat="50.017688" lon="5.328325"><ele>362.95</ele><time>2025-05-24T14:51:50Z</time></trkpt>
<trkpt lat="50.017821" lon="5.328141"><ele>361.35</ele><time>2025-05-24T14:51:53Z</time></trkpt>
<trkpt lat="50.01811" lon="5.327825"><ele>356.95</ele><time>2025-05-24T14:51:56Z</time></trkpt>
<trkpt lat="50.018349" lon="5.327525"><ele>354.99</ele><time>2025-05-24T14:51:58Z</time></trkpt>
<trkpt lat="50.018979" lon="5.32666"><ele>355.35</ele><time>2025-05-24T14:52:01Z</time></trkpt>
<trkpt lat="50.01978" lon="5.325445"><ele>350.1</ele><time>2025-05-24T14:52:04Z</time></trkpt>
<trkpt lat="50.019667" lon="5.324623"><ele>348.8</ele><time>2025-05-24T14:52:07Z</time></trkpt>
<trkpt lat="50.019591" lon="5.324251"><ele>349.26</ele><time>2025-05-24T14:52:09Z</time></trkpt>
<trkpt lat="50.019468" lon="5.323803"><ele>349.66</ele><time>2025-05-24T14:52:12Z</time></trkpt>
<trkpt lat="50.018029" lon="5.319752"><ele>350.02</ele><time>2025-05-24T14:52:14Z</time></trkpt>
<trkpt lat="50.017955" lon="5.319434"><ele>349.45</ele><time>2025-05-24T14:52:17Z</time></trkpt>
<trkpt lat="50.017919" lon="5.319106"><ele>348.57</ele><time>2025-05-24T14:52:19Z</time></trkpt>
<trkpt lat="50.017916" lon="5.318777"><ele>347.88</ele><time>2025-05-24T14:52:22Z</time></trkpt>
<trkpt lat="50.018016" lon="5.316762"><ele>341.42</ele><time>2025-05-24T14:52:24Z</time></trkpt>
<trkpt lat="50.018068" lon="5.316457"><ele>339.92</ele><time>2025-05-24T14:52:27Z</time></trkpt>
<trkpt lat="50.018122" lon="5.316282"><ele>339.18</ele><time>2025-05-24T14:52:29Z</time></trkpt>
<trkpt lat="50.018264" lon="5.315995"><ele>338.85</ele><time>2025-05-24T14:52:32Z</time></trkpt>
<trkpt lat="50.018358" lon="5.315875"><ele>338.64</ele><time>2025-05-24T14:52:34Z</time></trkpt>
<trkpt lat="50.019532" lon="5.314868"><ele>345.64</ele><time>2025-05-24T14:52:37Z</time></trkpt>
<trkpt lat="50.019791" lon="5.314579"><ele>347.04</ele><time>2025-05-24T14:52:39Z</time></trkpt>
<trkpt lat="50.020012" lon="5.314242"><ele>345.93</ele><time>2025-05-24T14:52:42Z</time></trkpt>
<trkpt lat="50.020206" lon="5.313803"><ele>343.05</ele><time>2025-05-24T14:52:44Z</time></trkpt>
<trkpt lat="50.020353" lon="5.31333"><ele>339.33</ele><time>2025-05-24T14:52:47Z</time></trkpt>
<trkpt lat="50.021154" lon="5.30923"><ele>337.69</ele><time>2025-05-24T14:52:49Z</time></trkpt>
<trkpt lat="50.021188" lon="5.308743"><ele>335.74</ele><time>2025-05-24T14:52:52Z</time></trkpt>
<trkpt lat="50.021175" lon="5.308472"><ele>333.65</ele><time>2025-05-24T14:52:54Z</time></trkpt>
<trkpt lat="50.021123" lon="5.307984"><ele>330.92</ele><time>2025-05-24T14:52:57Z</time></trkpt>
<trkpt lat="50.020981" lon="5.306887"><ele>331.83</ele><time>2025-05-24T14:52:59Z</time></trkpt>
<trkpt lat="50.02093" lon="5.306069"><ele>339.61</ele><time>2025-05-24T14:53:02Z</time></trkpt>
<trkpt lat="50.020933" lon="5.305785"><ele>341.63</ele><time>2025-05-24T14:53:04Z</time></trkpt>
<trkpt lat="50.021165" lon="5.301062"><ele>330.39</ele><time>2025-05-24T14:53:07Z</time></trkpt>
<trkpt lat="50.021222" lon="5.300555"><ele>327.8</ele><time>2025-05-24T14:53:09Z</time></trkpt>
<trkpt lat="50.021277" lon="5.300213"><ele>328.44</ele><time>2025-05-24T14:53:12Z</time></trkpt>
<trkpt lat="50.021434" lon="5.29964"><ele>329.65</ele><time>2025-05-24T14:53:14Z</time></trkpt>
<trkpt lat="50.021575" lon="5.29925"><ele>329.48</ele><time>2025-05-24T14:53:17Z</time></trkpt>
<trkpt lat="50.021844" lon="5.298693"><ele>329.02</ele><time>2025-05-24T14:53:19Z</time></trkpt>
<trkpt lat="50.022303" lon="5.297949"><ele>329.39</ele><time>2025-05-24T14:53:22Z</time></trkpt>
<trkpt lat="50.02237" lon="5.297794"><ele>328.84</ele><time>2025-05-24T14:53:24Z</time></trkpt>
<trkpt lat="50.022425" lon="5.297605"><ele>328.71</ele><time>2025-05-24T14:53:27Z</time></trkpt>
<trkpt lat="50.022453" lon="5.297411"><ele>328.95</ele><time>2025-05-24T14:53:29Z</time></trkpt>
<trkpt lat="50.022449" lon="5.297183"><ele>329.75</ele><time>2025-05-24T14:53:32Z</time></trkpt>
<trkpt lat="50.022423" lon="5.297046"><ele>330.57</ele><time>2025-05-24T14:53:34Z</time></trkpt>
<trkpt lat="50.022328" lon="5.296762"><ele>331.25</ele><time>2025-05-24T14:53:37Z</time></trkpt>
<trkpt lat="50.022191" lon="5.296544"><ele>330.23</ele><time>2025-05-24T14:53:39Z</time></trkpt>
<trkpt lat="50.02211" lon="5.29645"><ele>329.84</ele><time>2025-05-24T14:53:42Z</time></trkpt>
<trkpt lat="50.021387" lon="5.295813"><ele>327.78</ele><time>2025-05-24T14:53:44Z</time></trkpt>
<trkpt lat="50.021173" lon="5.295587"><ele>326.8</ele><time>2025-05-24T14:53:47Z</time></trkpt>
<trkpt lat="50.021068" lon="5.295434"><ele>326.74</ele><time>2025-05-24T14:53:49Z</time></trkpt>
<trkpt lat="50.020874" lon="5.295046"><ele>326.75</ele><time>2025-05-24T14:53:52Z</time></trkpt>
<trkpt lat="50.020609" lon="5.294226"><ele>325.85</ele><time>2025-05-24T14:53:54Z</time></trkpt>
<trkpt lat="50.020536" lon="5.294072"><ele>325.82</ele><time>2025-05-24T14:53:57Z</time></trkpt>
<trkpt lat="50.020473" lon="5.293984"><ele>325.84</ele><time>2025-05-24T14:53:59Z</time></trkpt>
<trkpt lat="50.020339" lon="5.293869"><ele>325.56</ele><time>2025-05-24T14:54:02Z</time></trkpt>
<trkpt lat="50.020257" lon="5.293829"><ele>325.28</ele><time>2025-05-24T14:54:04Z</time></trkpt>
<trkpt lat="50.020157" lon="5.293815"><ele>324.76</ele><time>2025-05-24T14:54:07Z</time></trkpt>
<trkpt lat="50.019937" lon="5.293867"><ele>323.91</ele><time>2025-05-24T14:54:09Z</time></trkpt>
<trkpt lat="50.019422" lon="5.294124"><ele>323.31</ele><time>2025-05-24T14:54:12Z</time></trkpt>
<trkpt lat="50.01935" lon="5.294142"><ele>323.3</ele><time>2025-05-24T14:54:14Z</time></trkpt>
<trkpt lat="50.019227" lon="5.294089"><ele>322.1</ele><time>2025-05-24T14:54:17Z</time></trkpt>
<trkpt lat="50.019132" lon="5.293913"><ele>319.46</ele><time>2025-05-24T14:54:19Z</time></trkpt>
<trkpt lat="50.018993" lon="5.293508"><ele>319.62</ele><time>2025-05-24T14:54:22Z</time></trkpt>
<trkpt lat="50.019738" lon="5.292799"><ele>321.99</ele><time>2025-05-24T14:54:24Z</time></trkpt>
<trkpt lat="50.019926" lon="5.292694"><ele>321.94</ele><time>2025-05-24T14:54:27Z</time></trkpt>
<trkpt lat="50.020456" lon="5.292204"><ele>317.81</ele><time>2025-05-24T14:54:30Z</time></trkpt>
<trkpt lat="50.020733" lon="5.291802"><ele>315.44</ele><time>2025-05-24T14:54:32Z</time></trkpt>
<trkpt lat="50.021512" lon="5.290497"><ele>316.02</ele><time>2025-05-24T14:54:35Z</time></trkpt>
<trkpt lat="50.021579" lon="5.290311"><ele>315.67</ele><time>2025-05-24T14:54:37Z</time></trkpt>
<trkpt lat="50.021646" lon="5.290003"><ele>314.31</ele><time>2025-05-24T14:54:40Z</time></trkpt>
<trkpt lat="50.021699" lon="5.289543"><ele>315.0</ele><time>2025-05-24T14:54:43Z</time></trkpt>
<trkpt lat="50.021742" lon="5.289308"><ele>314.51</ele><time>2025-05-24T14:54:45Z</time></trkpt>
<trkpt lat="50.021833" lon="5.289004"><ele>313.65</ele><time>2025-05-24T14:54:48Z</time></trkpt>
<trkpt lat="50.022481" lon="5.287136"><ele>314.02</ele><time>2025-05-24T14:54:50Z</time></trkpt>
<trkpt lat="50.022622" lon="5.286615"><ele>314.82</ele><time>2025-05-24T14:54:53Z</time></trkpt>
<trkpt lat="50.022817" lon="5.286144"><ele>314.35</ele><time>2025-05-24T14:54:56Z</time></trkpt>
<trkpt lat="50.023161" lon="5.285486"><ele>312.3</ele><time>2025-05-24T14:54:58Z</time></trkpt>
<trkpt lat="50.0234" lon="5.284924"><ele>308.45</ele><time>2025-05-24T14:55:01Z</time></trkpt>
<trkpt lat="50.023512" lon="5.284585"><ele>307.07</ele><time>2025-05-24T14:55:03Z</time></trkpt>
<trkpt lat="50.023583" lon="5.284243"><ele>305.58</ele><time>2025-05-24T14:55:06Z</time></trkpt>
<trkpt lat="50.023611" lon="5.284028"><ele>305.0</ele><time>2025-05-24T14:55:08Z</time></trkpt>
<trkpt lat="50.023663" lon="5.28276"><ele>306.31</ele><time>2025-05-24T14:55:11Z</time></trkpt>
<trkpt lat="50.02364" lon="5.282575"><ele>307.31</ele><time>2025-05-24T14:55:14Z</time></trkpt>
<trkpt lat="50.02358" lon="5.282342"><ele>308.45</ele><time>2025-05-24T14:55:16Z</time></trkpt>
<trkpt lat="50.023514" lon="5.282185"><ele>309.08</ele><time>2025-05-24T14:55:19Z</time></trkpt>
<trkpt lat="50.023039" lon="5.281351"><ele>306.92</ele><time>2025-05-24T14:55:21Z</time></trkpt>
<trkpt lat="50.02289" lon="5.281206"><ele>306.55</ele><time>2025-05-24T14:55:24Z</time></trkpt>
<trkpt lat="50.022771" lon="5.281145"><ele>306.31</ele><time>2025-05-24T14:55:27Z</time></trkpt>
<trkpt lat="50.022627" lon="5.281121"><ele>307.68</ele><time>2025-05-24T14:55:29Z</time></trkpt>
<trkpt lat="50.022268" lon="5.281049"><ele>310.06</ele><time>2025-05-24T14:55:32Z</time></trkpt>
<trkpt lat="50.022192" lon="5.280956"><ele>311.48</ele><time>2025-05-24T14:55:34Z</time></trkpt>
<trkpt lat="50.022099" lon="5.280724"><ele>315.57</ele><time>2025-05-24T14:55:37Z</time></trkpt>
<trkpt lat="50.021971" lon="5.279698"><ele>318.95</ele><time>2025-05-24T14:55:40Z</time></trkpt>
<trkpt lat="50.021723" lon="5.27836"><ele>327.39</ele><time>2025-05-24T14:55:42Z</time></trkpt>
<trkpt lat="50.021635" lon="5.277755"><ele>337.0</ele><time>2025-05-24T14:55:45Z</time></trkpt>
<trkpt lat="50.021601" lon="5.277265"><ele>342.45</ele><time>2025-05-24T14:55:47Z</time></trkpt>
<trkpt lat="50.021723" lon="5.276092"><ele>348.09</ele><time>2025-05-24T14:55:50Z</time></trkpt>
<trkpt lat="50.021668" lon="5.27563"><ele>348.21</ele><time>2025-05-24T14:55:53Z</time></trkpt>
<trkpt lat="50.021477" lon="5.275122"><ele>347.1</ele><time>2025-05-24T14:55:55Z</time></trkpt>
<trkpt lat="50.021346" lon="5.274704"><ele>348.69</ele><time>2025-05-24T14:55:58Z</time></trkpt>
<trkpt lat="50.021257" lon="5.274261"><ele>353.54</ele><time>2025-05-24T14:56:00Z</time></trkpt>
<trkpt lat="50.021225" lon="5.273799"><ele>357.67</ele><time>2025-05-24T14:56:03Z</time></trkpt>
<trkpt lat="50.021281" lon="5.272932"><ele>362.24</ele><time>2025-05-24T14:56:05Z</time></trkpt>
<trkpt lat="50.021245" lon="5.271674"><ele>368.12</ele><time>2025-05-24T14:56:08Z</time></trkpt>
<trkpt lat="50.021323" lon="5.270796"><ele>368.0</ele><time>2025-05-24T14:56:11Z</time></trkpt>
<trkpt lat="50.021272" lon="5.27013"><ele>368.48</ele><time>2025-05-24T14:56:13Z</time></trkpt>
<trkpt lat="50.021101" lon="5.269535"><ele>374.49</ele><time>2025-05-24T14:56:16Z</time></trkpt>
<trkpt lat="50.020602" lon="5.268249"><ele>377.29</ele><time>2025-05-24T14:56:18Z</time></trkpt>
<trkpt lat="50.020439" lon="5.267963"><ele>377.59</ele><time>2025-05-24T14:56:21Z</time></trkpt>
<trkpt lat="50.020239" lon="5.267776"><ele>378.26</ele><time>2025-05-24T14:56:24Z</time></trkpt>
<trkpt lat="50.019343" lon="5.267395"><ele>382.71</ele><time>2025-05-24T14:56:26Z</time></trkpt>
<trkpt lat="50.01878" lon="5.266826"><ele>385.36</ele><time>2025-05-24T14:56:29Z</time></trkpt>
<trkpt lat="50.018746" lon="5.266759"><ele>385.36</ele><time>2025-05-24T14:56:31Z</time></trkpt>
<trkpt lat="50.018623" lon="5.266164"><ele>387.64</ele><time>2025-05-24T14:56:34Z</time></trkpt>
<trkpt lat="50.018588" lon="5.26587"><ele>389.04</ele><time>2025-05-24T14:56:37Z</time></trkpt>
<trkpt lat="50.018655" lon="5.265871"><ele>388.56</ele><time>2025-05-24T14:56:37Z</time></trkpt>
<trkpt lat="50.018655" lon="5.265871"><ele>388.56</ele><time>2025-05-24T14:56:37Z</time></trkpt>
<trkpt lat="50.018884" lon="5.265758"><ele>386.59</ele><time>2025-05-24T14:56:39Z</time></trkpt>
<trkpt lat="50.019062" lon="5.265702"><ele>385.07</ele><time>2025-05-24T14:56:42Z</time></trkpt>
<trkpt lat="50.019489" lon="5.265629"><ele>380.88</ele><time>2025-05-24T14:56:44Z</time></trkpt>
<trkpt lat="50.01986" lon="5.265535"><ele>377.3</ele><time>2025-05-24T14:56:46Z</time></trkpt>
<trkpt lat="50.020519" lon="5.265327"><ele>380.45</ele><time>2025-05-24T14:56:48Z</time></trkpt>
<trkpt lat="50.021001" lon="5.265286"><ele>375.92</ele><time>2025-05-24T14:56:50Z</time></trkpt>
<trkpt lat="50.021244" lon="5.265237"><ele>373.19</ele><time>2025-05-24T14:56:52Z</time></trkpt>
<trkpt lat="50.021394" lon="5.265121"><ele>372.48</ele><time>2025-05-24T14:56:55Z</time></trkpt>
<trkpt lat="50.022129" lon="5.264164"><ele>365.0</ele><time>2025-05-24T14:56:57Z</time></trkpt>
<trkpt lat="50.022626" lon="5.263338"><ele>364.99</ele><time>2025-05-24T14:56:59Z</time></trkpt>
<trkpt lat="50.022738" lon="5.263212"><ele>365.44</ele><time>2025-05-24T14:57:01Z</time></trkpt>
<trkpt lat="50.022912" lon="5.263143"><ele>365.69</ele><time>2025-05-24T14:57:03Z</time></trkpt>
<trkpt lat="50.023621" lon="5.263022"><ele>373.04</ele><time>2025-05-24T14:57:05Z</time></trkpt>
<trkpt lat="50.024557" lon="5.262713"><ele>378.09</ele><time>2025-05-24T14:57:08Z</time></trkpt>
<trkpt lat="50.025393" lon="5.262445"><ele>377.98</ele><time>2025-05-24T14:57:10Z</time></trkpt>
<trkpt lat="50.025775" lon="5.262279"><ele>378.12</ele><time>2025-05-24T14:57:12Z</time></trkpt>
<trkpt lat="50.026005" lon="5.262138"><ele>376.45</ele><time>2025-05-24T14:57:14Z</time></trkpt>
<trkpt lat="50.026168" lon="5.262002"><ele>375.1</ele><time>2025-05-24T14:57:16Z</time></trkpt>
<trkpt lat="50.026286" lon="5.261844"><ele>374.7</ele><time>2025-05-24T14:57:19Z</time></trkpt>
<trkpt lat="50.026824" lon="5.261002"><ele>375.0</ele><time>2025-05-24T14:57:21Z</time></trkpt>
<trkpt lat="50.026882" lon="5.260852"><ele>375.87</ele><time>2025-05-24T14:57:23Z</time></trkpt>
<trkpt lat="50.026921" lon="5.260544"><ele>379.41</ele><time>2025-05-24T14:57:25Z</time></trkpt>
<trkpt lat="50.026909" lon="5.259934"><ele>387.11</ele><time>2025-05-24T14:57:27Z</time></trkpt>
<trkpt lat="50.026923" lon="5.259544"><ele>387.92</ele><time>2025-05-24T14:57:29Z</time></trkpt>
<trkpt lat="50.027235" lon="5.257771"><ele>387.95</ele><time>2025-05-24T14:57:32Z</time></trkpt>
<trkpt lat="50.027318" lon="5.257476"><ele>389.45</ele><time>2025-05-24T14:57:34Z</time></trkpt>
<trkpt lat="50.027445" lon="5.257164"><ele>389.98</ele><time>2025-05-24T14:57:36Z</time></trkpt>
<trkpt lat="50.027631" lon="5.256788"><ele>388.27</ele><time>2025-05-24T14:57:38Z</time></trkpt>
<trkpt lat="50.028201" lon="5.255873"><ele>372.48</ele><time>2025-05-24T14:57:40Z</time></trkpt>
<trkpt lat="50.028368" lon="5.255516"><ele>367.89</ele><time>2025-05-24T14:57:42Z</time></trkpt>
<trkpt lat="50.028934" lon="5.253945"><ele>376.12</ele><time>2025-05-24T14:57:45Z</time></trkpt>
<trkpt lat="50.029143" lon="5.253587"><ele>380.18</ele><time>2025-05-24T14:57:47Z</time></trkpt>
<trkpt lat="50.02942" lon="5.253207"><ele>381.08</ele><time>2025-05-24T14:57:49Z</time></trkpt>
<trkpt lat="50.02961" lon="5.252889"><ele>382.24</ele><time>2025-05-24T14:57:51Z</time></trkpt>
<trkpt lat="50.029834" lon="5.252346"><ele>382.58</ele><time>2025-05-24T14:57:53Z</time></trkpt>
<trkpt lat="50.02998" lon="5.252085"><ele>383.1</ele><time>2025-05-24T14:57:55Z</time></trkpt>
<trkpt lat="50.030118" lon="5.251923"><ele>382.41</ele><time>2025-05-24T14:57:58Z</time></trkpt>
<trkpt lat="50.030245" lon="5.251823"><ele>381.3</ele><time>2025-05-24T14:58:00Z</time></trkpt>
<trkpt lat="50.030486" lon="5.251719"><ele>380.73</ele><time>2025-05-24T14:58:02Z</time></trkpt>
<trkpt lat="50.030658" lon="5.251667"><ele>381.36</ele><time>2025-05-24T14:58:04Z</time></trkpt>
<trkpt lat="50.030915" lon="5.251631"><ele>382.46</ele><time>2025-05-24T14:58:06Z</time></trkpt>
<trkpt lat="50.031123" lon="5.251627"><ele>383.37</ele><time>2025-05-24T14:58:09Z</time></trkpt>
<trkpt lat="50.031389" lon="5.251682"><ele>384.95</ele><time>2025-05-24T14:58:11Z</time></trkpt>
<trkpt lat="50.031664" lon="5.251774"><ele>384.61</ele><time>2025-05-24T14:58:13Z</time></trkpt>
<trkpt lat="50.032161" lon="5.25203"><ele>386.92</ele><time>2025-05-24T14:58:15Z</time></trkpt>
<trkpt lat="50.032475" lon="5.252148"><ele>385.56</ele><time>2025-05-24T14:58:17Z</time></trkpt>
<trkpt lat="50.032761" lon="5.252175"><ele>386.28</ele><time>2025-05-24T14:58:19Z</time></trkpt>
<trkpt lat="50.033025" lon="5.252142"><ele>387.21</ele><time>2025-05-24T14:58:22Z</time></trkpt>
<trkpt lat="50.033346" lon="5.252014"><ele>387.03</ele><time>2025-05-24T14:58:24Z</time></trkpt>
<trkpt lat="50.033713" lon="5.251796"><ele>388.2</ele><time>2025-05-24T14:58:26Z</time></trkpt>
<trkpt lat="50.033876" lon="5.251724"><ele>388.76</ele><time>2025-05-24T14:58:28Z</time></trkpt>
<trkpt lat="50.034264" lon="5.251657"><ele>388.68</ele><time>2025-05-24T14:58:30Z</time></trkpt>
<trkpt lat="50.034435" lon="5.251664"><ele>388.04</ele><time>2025-05-24T14:58:32Z</time></trkpt>
<trkpt lat="50.034761" lon="5.251737"><ele>388.0</ele><time>2025-05-24T14:58:35Z</time></trkpt>
<trkpt lat="50.034916" lon="5.251825"><ele>388.0</ele><time>2025-05-24T14:58:37Z</time></trkpt>
<trkpt lat="50.035371" lon="5.25223"><ele>386.66</ele><time>2025-05-24T14:58:39Z</time></trkpt>
<trkpt lat="50.035737" lon="5.252442"><ele>386.14</ele><time>2025-05-24T14:58:41Z</time></trkpt>
<trkpt lat="50.035929" lon="5.252506"><ele>385.98</ele><time>2025-05-24T14:58:43Z</time></trkpt>
<trkpt lat="50.036245" lon="5.252566"><ele>386.24</ele><time>2025-05-24T14:58:45Z</time></trkpt>
<trkpt lat="50.036454" lon="5.252568"><ele>387.46</ele><time>2025-05-24T14:58:48Z</time></trkpt>
<trkpt lat="50.036757" lon="5.252519"><ele>390.58</ele><time>2025-05-24T14:58:50Z</time></trkpt>
<trkpt lat="50.036978" lon="5.252451"><ele>392.0</ele><time>2025-05-24T14:58:52Z</time></trkpt>
<trkpt lat="50.037292" lon="5.252261"><ele>392.75</ele><time>2025-05-24T14:58:54Z</time></trkpt>
<trkpt lat="50.037416" lon="5.252222"><ele>394.09</ele><time>2025-05-24T14:58:56Z</time></trkpt>
<trkpt lat="50.037467" lon="5.252231"><ele>394.65</ele><time>2025-05-24T14:58:58Z</time></trkpt>
<trkpt lat="50.037812" lon="5.252504"><ele>396.98</ele><time>2025-05-24T14:59:01Z</time></trkpt>
<trkpt lat="50.037932" lon="5.252548"><ele>396.83</ele><time>2025-05-24T14:59:03Z</time></trkpt>
<trkpt lat="50.038083" lon="5.252575"><ele>397.02</ele><time>2025-05-24T14:59:05Z</time></trkpt>
<trkpt lat="50.038349" lon="5.25255"><ele>400.04</ele><time>2025-05-24T14:59:07Z</time></trkpt>
<trkpt lat="50.038765" lon="5.252564"><ele>405.2</ele><time>2025-05-24T14:59:09Z</time></trkpt>
<trkpt lat="50.03893" lon="5.252671"><ele>406.15</ele><time>2025-05-24T14:59:12Z</time></trkpt>
<trkpt lat="50.039397" lon="5.25274"><ele>410.63</ele><time>2025-05-24T14:59:14Z</time></trkpt>
<trkpt lat="50.039552" lon="5.252819"><ele>411.39</ele><time>2025-05-24T14:59:16Z</time></trkpt>
<trkpt lat="50.039796" lon="5.253001"><ele>412.0</ele><time>2025-05-24T14:59:18Z</time></trkpt>
<trkpt lat="50.039919" lon="5.253117"><ele>412.0</ele><time>2025-05-24T14:59:20Z</time></trkpt>
<trkpt lat="50.040184" lon="5.253427"><ele>411.55</ele><time>2025-05-24T14:59:22Z</time></trkpt>
<trkpt lat="50.040451" lon="5.253825"><ele>410.71</ele><time>2025-05-24T14:59:25Z</time></trkpt>
<trkpt lat="50.040622" lon="5.25402"><ele>409.83</ele><time>2025-05-24T14:59:27Z</time></trkpt>
<trkpt lat="50.040781" lon="5.254159"><ele>408.9</ele><time>2025-05-24T14:59:29Z</time></trkpt>
<trkpt lat="50.040978" lon="5.254283"><ele>406.5</ele><time>2025-05-24T14:59:31Z</time></trkpt>
<trkpt lat="50.041383" lon="5.254423"><ele>401.3</ele><time>2025-05-24T14:59:33Z</time></trkpt>
<trkpt lat="50.041575" lon="5.254427"><ele>400.51</ele><time>2025-05-24T14:59:35Z</time></trkpt>
<trkpt lat="50.041753" lon="5.254395"><ele>400.17</ele><time>2025-05-24T14:59:38Z</time></trkpt>
<trkpt lat="50.0419" lon="5.254329"><ele>400.06</ele><time>2025-05-24T14:59:40Z</time></trkpt>
<trkpt lat="50.042316" lon="5.253977"><ele>399.13</ele><time>2025-05-24T14:59:42Z</time></trkpt>
<trkpt lat="50.042477" lon="5.253896"><ele>399.06</ele><time>2025-05-24T14:59:44Z</time></trkpt>
<trkpt lat="50.042601" lon="5.253892"><ele>398.62</ele><time>2025-05-24T14:59:46Z</time></trkpt>
<trkpt lat="50.042777" lon="5.253939"><ele>397.82</ele><time>2025-05-24T14:59:48Z</time></trkpt>
<trkpt lat="50.04293" lon="5.254015"><ele>397.0</ele><time>2025-05-24T14:59:51Z</time></trkpt>
<trkpt lat="50.043062" lon="5.254128"><ele>396.19</ele><time>2025-05-24T14:59:53Z</time></trkpt>
<trkpt lat="50.04321" lon="5.254293"><ele>396.4</ele><time>2025-05-24T14:59:55Z</time></trkpt>
<trkpt lat="50.043448" lon="5.254724"><ele>398.65</ele><time>2025-05-24T14:59:57Z</time></trkpt>
<trkpt lat="50.043536" lon="5.254951"><ele>399.54</ele><time>2025-05-24T14:59:59Z</time></trkpt>
<trkpt lat="50.043613" lon="5.255205"><ele>399.29</ele><time>2025-05-24T15:00:02Z</time></trkpt>
<trkpt lat="50.043693" lon="5.255553"><ele>398.89</ele><time>2025-05-24T15:00:04Z</time></trkpt>
<trkpt lat="50.043723" lon="5.255809"><ele>398.84</ele><time>2025-05-24T15:00:06Z</time></trkpt>
<trkpt lat="50.043733" lon="5.257269"><ele>395.95</ele><time>2025-05-24T15:00:08Z</time></trkpt>
<trkpt lat="50.043834" lon="5.258053"><ele>392.41</ele><time>2025-05-24T15:00:10Z</time></trkpt>
<trkpt lat="50.043864" lon="5.258515"><ele>389.51</ele><time>2025-05-24T15:00:12Z</time></trkpt>
<trkpt lat="50.043869" lon="5.258952"><ele>384.92</ele><time>2025-05-24T15:00:15Z</time></trkpt>
<trkpt lat="50.04391" lon="5.259206"><ele>381.46</ele><time>2025-05-24T15:00:17Z</time></trkpt>
<trkpt lat="50.043971" lon="5.259346"><ele>379.55</ele><time>2025-05-24T15:00:19Z</time></trkpt>
<trkpt lat="50.044178" lon="5.259628"><ele>378.13</ele><time>2025-05-24T15:00:21Z</time></trkpt>
<trkpt lat="50.044451" lon="5.259947"><ele>378.49</ele><time>2025-05-24T15:00:23Z</time></trkpt>
<trkpt lat="50.044613" lon="5.260064"><ele>380.43</ele><time>2025-05-24T15:00:25Z</time></trkpt>
<trkpt lat="50.044846" lon="5.260148"><ele>380.75</ele><time>2025-05-24T15:00:28Z</time></trkpt>
<trkpt lat="50.045069" lon="5.260186"><ele>380.15</ele><time>2025-05-24T15:00:30Z</time></trkpt>
<trkpt lat="50.045307" lon="5.260176"><ele>382.19</ele><time>2025-05-24T15:00:32Z</time></trkpt>
<trkpt lat="50.045774" lon="5.260045"><ele>386.53</ele><time>2025-05-24T15:00:34Z</time></trkpt>
<trkpt lat="50.046009" lon="5.260045"><ele>386.78</ele><time>2025-05-24T15:00:36Z</time></trkpt>
<trkpt lat="50.046246" lon="5.260085"><ele>387.03</ele><time>2025-05-24T15:00:38Z</time></trkpt>
<trkpt lat="50.046934" lon="5.260275"><ele>388.89</ele><time>2025-05-24T15:00:41Z</time></trkpt>
<trkpt lat="50.047257" lon="5.260421"><ele>389.48</ele><time>2025-05-24T15:00:43Z</time></trkpt>
<trkpt lat="50.047467" lon="5.260553"><ele>389.01</ele><time>2025-05-24T15:00:45Z</time></trkpt>
<trkpt lat="50.047837" lon="5.260898"><ele>386.16</ele><time>2025-05-24T15:00:47Z</time></trkpt>
<trkpt lat="50.048046" lon="5.261162"><ele>383.85</ele><time>2025-05-24T15:00:49Z</time></trkpt>
<trkpt lat="50.048156" lon="5.261249"><ele>383.14</ele><time>2025-05-24T15:00:51Z</time></trkpt>
<trkpt lat="50.048302" lon="5.261304"><ele>382.42</ele><time>2025-05-24T15:00:54Z</time></trkpt>
<trkpt lat="50.048463" lon="5.261284"><ele>381.26</ele><time>2025-05-24T15:00:56Z</time></trkpt>
<trkpt lat="50.048564" lon="5.26121"><ele>380.45</ele><time>2025-05-24T15:00:58Z</time></trkpt>
<trkpt lat="50.048678" lon="5.261035"><ele>378.58</ele><time>2025-05-24T15:01:00Z</time></trkpt>
<trkpt lat="50.048757" lon="5.260807"><ele>377.38</ele><time>2025-05-24T15:01:02Z</time></trkpt>
<trkpt lat="50.048832" lon="5.260449"><ele>375.84</ele><time>2025-05-24T15:01:05Z</time></trkpt>
<trkpt lat="50.048904" lon="5.259967"><ele>373.6</ele><time>2025-05-24T15:01:07Z</time></trkpt>
<trkpt lat="50.048939" lon="5.259084"><ele>369.76</ele><time>2025-05-24T15:01:09Z</time></trkpt>
<trkpt lat="50.049039" lon="5.258129"><ele>363.78</ele><time>2025-05-24T15:01:11Z</time></trkpt>
<trkpt lat="50.049036" lon="5.257719"><ele>360.12</ele><time>2025-05-24T15:01:13Z</time></trkpt>
<trkpt lat="50.04895" lon="5.256595"><ele>354.75</ele><time>2025-05-24T15:01:15Z</time></trkpt>
<trkpt lat="50.048954" lon="5.256152"><ele>353.71</ele><time>2025-05-24T15:01:18Z</time></trkpt>
<trkpt lat="50.048974" lon="5.255819"><ele>351.95</ele><time>2025-05-24T15:01:20Z</time></trkpt>
<trkpt lat="50.049242" lon="5.25408"><ele>335.3</ele><time>2025-05-24T15:01:22Z</time></trkpt>
<trkpt lat="50.049541" lon="5.252734"><ele>325.03</ele><time>2025-05-24T15:01:24Z</time></trkpt>
<trkpt lat="50.049664" lon="5.252311"><ele>318.58</ele><time>2025-05-24T15:01:26Z</time></trkpt>
<trkpt lat="50.049804" lon="5.25196"><ele>315.89</ele><time>2025-05-24T15:01:28Z</time></trkpt>
<trkpt lat="50.049892" lon="5.251673"><ele>315.24</ele><time>2025-05-24T15:01:31Z</time></trkpt>
<trkpt lat="50.049965" lon="5.251511"><ele>311.8</ele><time>2025-05-24T15:01:33Z</time></trkpt>
<trkpt lat="50.050073" lon="5.25138"><ele>307.9</ele><time>2025-05-24T15:01:35Z</time></trkpt>
<trkpt lat="50.050238" lon="5.251354"><ele>303.16</ele><time>2025-05-24T15:01:37Z</time></trkpt>
<trkpt lat="50.05103" lon="5.251471"><ele>288.08</ele><time>2025-05-24T15:01:39Z</time></trkpt>
<trkpt lat="50.051235" lon="5.251462"><ele>286.99</ele><time>2025-05-24T15:01:41Z</time></trkpt>
<trkpt lat="50.051595" lon="5.251393"><ele>282.27</ele><time>2025-05-24T15:01:44Z</time></trkpt>
<trkpt lat="50.0517" lon="5.251416"><ele>280.17</ele><time>2025-05-24T15:01:46Z</time></trkpt>
<trkpt lat="50.052326" lon="5.251674"><ele>269.26</ele><time>2025-05-24T15:01:48Z</time></trkpt>
<trkpt lat="50.05252" lon="5.251729"><ele>268.0</ele><time>2025-05-24T15:01:50Z</time></trkpt>
<trkpt lat="50.053559" lon="5.25188"><ele>262.33</ele><time>2025-05-24T15:01:52Z</time></trkpt>
<trkpt lat="50.053645" lon="5.252461"><ele>261.64</ele><time>2025-05-24T15:01:54Z</time></trkpt>
<trkpt lat="50.053977" lon="5.253192"><ele>259.02</ele><time>2025-05-24T15:01:56Z</time></trkpt>
<trkpt lat="50.05402" lon="5.253328"><ele>259.05</ele><time>2025-05-24T15:01:58Z</time></trkpt>
<trkpt lat="50.054063" lon="5.25374"><ele>260.21</ele><time>2025-05-24T15:02:00Z</time></trkpt>
<trkpt lat="50.054064" lon="5.254213"><ele>264.34</ele><time>2025-05-24T15:02:02Z</time></trkpt>
<trkpt lat="50.054132" lon="5.254464"><ele>267.75</ele><time>2025-05-24T15:02:04Z</time></trkpt>
<trkpt lat="50.054325" lon="5.254914"><ele>276.87</ele><time>2025-05-24T15:02:06Z</time></trkpt>
<trkpt lat="50.054612" lon="5.255357"><ele>279.14</ele><time>2025-05-24T15:02:08Z</time></trkpt>
<trkpt lat="50.054759" lon="5.255552"><ele>279.09</ele><time>2025-05-24T15:02:09Z</time></trkpt>
<trkpt lat="50.055194" lon="5.256026"><ele>283.99</ele><time>2025-05-24T15:02:11Z</time></trkpt>
<trkpt lat="50.05563" lon="5.256752"><ele>297.02</ele><time>2025-05-24T15:02:13Z</time></trkpt>
<trkpt lat="50.05586" lon="5.257107"><ele>300.51</ele><time>2025-05-24T15:02:15Z</time></trkpt>
<trkpt lat="50.056189" lon="5.257567"><ele>303.02</ele><time>2025-05-24T15:02:17Z</time></trkpt>
<trkpt lat="50.056687" lon="5.258085"><ele>304.25</ele><time>2025-05-24T15:02:19Z</time></trkpt>
<trkpt lat="50.056853" lon="5.258305"><ele>306.4</ele><time>2025-05-24T15:02:21Z</time></trkpt>
<trkpt lat="50.056962" lon="5.258508"><ele>306.09</ele><time>2025-05-24T15:02:23Z</time></trkpt>
<trkpt lat="50.056998" lon="5.258748"><ele>305.66</ele><time>2025-05-24T15:02:25Z</time></trkpt>
<trkpt lat="50.056979" lon="5.258823"><ele>306.49</ele><time>2025-05-24T15:02:26Z</time></trkpt>
<trkpt lat="50.056979" lon="5.258823"><ele>306.49</ele><time>2025-05-24T15:02:26Z</time></trkpt>
<trkpt lat="50.056963" lon="5.258889"><ele>307.33</ele><time>2025-05-24T15:02:28Z</time></trkpt>
<trkpt lat="50.056768" lon="5.259283"><ele>306.91</ele><time>2025-05-24T15:02:29Z</time></trkpt>
<trkpt lat="50.056712" lon="5.259632"><ele>305.78</ele><time>2025-05-24T15:02:31Z</time></trkpt>
<trkpt lat="50.056686" lon="5.260061"><ele>304.87</ele><time>2025-05-24T15:02:32Z</time></trkpt>
<trkpt lat="50.056624" lon="5.26037"><ele>305.77</ele><time>2025-05-24T15:02:34Z</time></trkpt>
<trkpt lat="50.056499" lon="5.260775"><ele>309.44</ele><time>2025-05-24T15:02:35Z</time></trkpt>
<trkpt lat="50.056237" lon="5.261319"><ele>316.28</ele><time>2025-05-24T15:02:37Z</time></trkpt>
<trkpt lat="50.056127" lon="5.261455"><ele>318.3</ele><time>2025-05-24T15:02:38Z</time></trkpt>
<trkpt lat="50.055792" lon="5.261679"><ele>319.05</ele><time>2025-05-24T15:02:40Z</time></trkpt>
<trkpt lat="50.056192" lon="5.263512"><ele>322.41</ele><time>2025-05-24T15:02:43Z</time></trkpt>
<trkpt lat="50.057077" lon="5.264404"><ele>321.81</ele><time>2025-05-24T15:02:47Z</time></trkpt>
<trkpt lat="50.057976" lon="5.265262"><ele>320.8</ele><time>2025-05-24T15:02:50Z</time></trkpt>
<trkpt lat="50.058485" lon="5.265859"><ele>320.64</ele><time>2025-05-24T15:02:54Z</time></trkpt>
<trkpt lat="50.059937" lon="5.267873"><ele>323.75</ele><time>2025-05-24T15:02:57Z</time></trkpt>
<trkpt lat="50.060253" lon="5.26837"><ele>321.94</ele><time>2025-05-24T15:03:01Z</time></trkpt>
<trkpt lat="50.060964" lon="5.26979"><ele>320.45</ele><time>2025-05-24T15:03:04Z</time></trkpt>
<trkpt lat="50.061333" lon="5.270809"><ele>325.9</ele><time>2025-05-24T15:03:08Z</time></trkpt>
<trkpt lat="50.061631" lon="5.27191"><ele>334.61</ele><time>2025-05-24T15:03:11Z</time></trkpt>
<trkpt lat="50.061822" lon="5.272775"><ele>332.62</ele><time>2025-05-24T15:03:15Z</time></trkpt>
<trkpt lat="50.061891" lon="5.273405"><ele>335.2</ele><time>2025-05-24T15:03:19Z</time></trkpt>
<trkpt lat="50.061836" lon="5.274371"><ele>342.93</ele><time>2025-05-24T15:03:22Z</time></trkpt>
<trkpt lat="50.061843" lon="5.274709"><ele>346.06</ele><time>2025-05-24T15:03:26Z</time></trkpt>
<trkpt lat="50.06189" lon="5.275158"><ele>347.6</ele><time>2025-05-24T15:03:29Z</time></trkpt>
<trkpt lat="50.062615" lon="5.279456"><ele>348.61</ele><time>2025-05-24T15:03:33Z</time></trkpt>
<trkpt lat="50.062706" lon="5.27981"><ele>348.45</ele><time>2025-05-24T15:03:36Z</time></trkpt>
<trkpt lat="50.06278" lon="5.280003"><ele>347.03</ele><time>2025-05-24T15:03:40Z</time></trkpt>
<trkpt lat="50.063124" lon="5.280744"><ele>351.51</ele><time>2025-05-24T15:03:43Z</time></trkpt>
<trkpt lat="50.063885" lon="5.282256"><ele>361.02</ele><time>2025-05-24T15:03:47Z</time></trkpt>
<trkpt lat="50.064056" lon="5.282466"><ele>361.0</ele><time>2025-05-24T15:03:50Z</time></trkpt>
<trkpt lat="50.064634" lon="5.282891"><ele>361.77</ele><time>2025-05-24T15:03:54Z</time></trkpt>
<trkpt lat="50.065104" lon="5.283148"><ele>364.25</ele><time>2025-05-24T15:03:57Z</time></trkpt>
<trkpt lat="50.065288" lon="5.283218"><ele>364.38</ele><time>2025-05-24T15:04:01Z</time></trkpt>
<trkpt lat="50.065632" lon="5.283279"><ele>362.86</ele><time>2025-05-24T15:04:04Z</time></trkpt>
<trkpt lat="50.066241" lon="5.283249"><ele>360.67</ele><time>2025-05-24T15:04:08Z</time></trkpt>
<trkpt lat="50.066394" lon="5.283288"><ele>360.16</ele><time>2025-05-24T15:04:11Z</time></trkpt>
<trkpt lat="50.06664" lon="5.283421"><ele>360.03</ele><time>2025-05-24T15:04:15Z</time></trkpt>
<trkpt lat="50.066938" lon="5.283715"><ele>358.41</ele><time>2025-05-24T15:04:18Z</time></trkpt>
<trkpt lat="50.067827" lon="5.284825"><ele>354.32</ele><time>2025-05-24T15:04:22Z</time></trkpt>
<trkpt lat="50.067912" lon="5.284977"><ele>354.42</ele><time>2025-05-24T15:04:25Z</time></trkpt>
<trkpt lat="50.067969" lon="5.285121"><ele>354.07</ele><time>2025-05-24T15:04:29Z</time></trkpt>
<trkpt lat="50.068131" lon="5.285792"><ele>353.18</ele><time>2025-05-24T15:04:33Z</time></trkpt>
<trkpt lat="50.068331" lon="5.28628"><ele>353.23</ele><time>2025-05-24T15:04:36Z</time></trkpt>
<trkpt lat="50.068613" lon="5.2868"><ele>352.9</ele><time>2025-05-24T15:04:40Z</time></trkpt>
<trkpt lat="50.069057" lon="5.287546"><ele>344.89</ele><time>2025-05-24T15:04:43Z</time></trkpt>
<trkpt lat="50.069471" lon="5.28835"><ele>338.33</ele><time>2025-05-24T15:04:47Z</time></trkpt>
<trkpt lat="50.06966" lon="5.288887"><ele>330.48</ele><time>2025-05-24T15:04:50Z</time></trkpt>
<trkpt lat="50.06976" lon="5.289386"><ele>323.61</ele><time>2025-05-24T15:04:54Z</time></trkpt>
<trkpt lat="50.069891" lon="5.290437"><ele>326.51</ele><time>2025-05-24T15:04:57Z</time></trkpt>
<trkpt lat="50.070057" lon="5.291277"><ele>325.88</ele><time>2025-05-24T15:05:01Z</time></trkpt>
<trkpt lat="50.070197" lon="5.291919"><ele>317.06</ele><time>2025-05-24T15:05:04Z</time></trkpt>
<trkpt lat="50.070283" lon="5.292395"><ele>312.39</ele><time>2025-05-24T15:05:08Z</time></trkpt>
<trkpt lat="50.070354" lon="5.29301"><ele>309.54</ele><time>2025-05-24T15:05:11Z</time></trkpt>
<trkpt lat="50.071023" lon="5.294303"><ele>302.35</ele><time>2025-05-24T15:05:15Z</time></trkpt>
<trkpt lat="50.071159" lon="5.294607"><ele>301.93</ele><time>2025-05-24T15:05:18Z</time></trkpt>
<trkpt lat="50.071211" lon="5.294785"><ele>302.23</ele><time>2025-05-24T15:05:22Z</time></trkpt>
<trkpt lat="50.07124" lon="5.294933"><ele>302.76</ele><time>2025-05-24T15:05:25Z</time></trkpt>
<trkpt lat="50.071305" lon="5.29609"><ele>306.28</ele><time>2025-05-24T15:05:29Z</time></trkpt>
<trkpt lat="50.07148" lon="5.299131"><ele>323.29</ele><time>2025-05-24T15:05:32Z</time></trkpt>
<trkpt lat="50.071535" lon="5.299605"><ele>325.38</ele><time>2025-05-24T15:05:36Z</time></trkpt>
<trkpt lat="50.07158" lon="5.299851"><ele>326.93</ele><time>2025-05-24T15:05:39Z</time></trkpt>
<trkpt lat="50.07172" lon="5.300295"><ele>329.5</ele><time>2025-05-24T15:05:43Z</time></trkpt>
<trkpt lat="50.07188" lon="5.300717"><ele>332.35</ele><time>2025-05-24T15:05:47Z</time></trkpt>
<trkpt lat="50.072067" lon="5.301092"><ele>333.93</ele><time>2025-05-24T15:05:50Z</time></trkpt>
<trkpt lat="50.072163" lon="5.301233"><ele>334.44</ele><time>2025-05-24T15:05:54Z</time></trkpt>
<trkpt lat="50.072773" lon="5.301858"><ele>334.03</ele><time>2025-05-24T15:05:57Z</time></trkpt>
<trkpt lat="50.073216" lon="5.302382"><ele>331.85</ele><time>2025-05-24T15:06:01Z</time></trkpt>
<trkpt lat="50.073283" lon="5.30252"><ele>331.43</ele><time>2025-05-24T15:06:04Z</time></trkpt>
<trkpt lat="50.073333" lon="5.302728"><ele>331.82</ele><time>2025-05-24T15:06:08Z</time></trkpt>
<trkpt lat="50.073369" lon="5.303041"><ele>332.56</ele><time>2025-05-24T15:06:11Z</time></trkpt>
<trkpt lat="50.073379" lon="5.303315"><ele>334.38</ele><time>2025-05-24T15:06:15Z</time></trkpt>
<trkpt lat="50.073411" lon="5.303455"><ele>334.6</ele><time>2025-05-24T15:06:18Z</time></trkpt>
<trkpt lat="50.073457" lon="5.303572"><ele>334.52</ele><time>2025-05-24T15:06:22Z</time></trkpt>
<trkpt lat="50.073697" lon="5.303939"><ele>335.18</ele><time>2025-05-24T15:06:25Z</time></trkpt>
<trkpt lat="50.073786" lon="5.304139"><ele>335.9</ele><time>2025-05-24T15:06:29Z</time></trkpt>
<trkpt lat="50.073889" lon="5.304574"><ele>337.47</ele><time>2025-05-24T15:06:32Z</time></trkpt>
<trkpt lat="50.074251" lon="5.305866"><ele>344.89</ele><time>2025-05-24T15:06:36Z</time></trkpt>
<trkpt lat="50.074517" lon="5.30655"><ele>344.76</ele><time>2025-05-24T15:06:39Z</time></trkpt>
<trkpt lat="50.074563" lon="5.306646"><ele>343.93</ele><time>2025-05-24T15:06:43Z</time></trkpt>
<trkpt lat="50.074645" lon="5.306917"><ele>344.14</ele><time>2025-05-24T15:06:46Z</time></trkpt>
<trkpt lat="50.074857" lon="5.307776"><ele>348.02</ele><time>2025-05-24T15:06:50Z</time></trkpt>
<trkpt lat="50.074986" lon="5.308401"><ele>349.02</ele><time>2025-05-24T15:06:53Z</time></trkpt>
<trkpt lat="50.074999" lon="5.308639"><ele>349.11</ele><time>2025-05-24T15:06:57Z</time></trkpt>
<trkpt lat="50.074992" lon="5.308894"><ele>350.12</ele><time>2025-05-24T15:07:01Z</time></trkpt>
<trkpt lat="50.074875" lon="5.310836"><ele>358.9</ele><time>2025-05-24T15:07:04Z</time></trkpt>
<trkpt lat="50.074901" lon="5.31103"><ele>358.71</ele><time>2025-05-24T15:07:08Z</time></trkpt>
<trkpt lat="50.07518" lon="5.311953"><ele>355.67</ele><time>2025-05-24T15:07:11Z</time></trkpt>
<trkpt lat="50.075232" lon="5.31219"><ele>354.45</ele><time>2025-05-24T15:07:15Z</time></trkpt>
<trkpt lat="50.075276" lon="5.312696"><ele>350.61</ele><time>2025-05-24T15:07:18Z</time></trkpt>
<trkpt lat="50.075306" lon="5.313455"><ele>346.0</ele><time>2025-05-24T15:07:22Z</time></trkpt>
<trkpt lat="50.075356" lon="5.314035"><ele>345.0</ele><time>2025-05-24T15:07:25Z</time></trkpt>
<trkpt lat="50.075696" lon="5.316073"><ele>350.23</ele><time>2025-05-24T15:07:29Z</time></trkpt>
<trkpt lat="50.075784" lon="5.316477"><ele>353.27</ele><time>2025-05-24T15:07:32Z</time></trkpt>
<trkpt lat="50.07594" lon="5.31705"><ele>357.15</ele><time>2025-05-24T15:07:36Z</time></trkpt>
<trkpt lat="50.076113" lon="5.317544"><ele>360.35</ele><time>2025-05-24T15:07:39Z</time></trkpt>
<trkpt lat="50.076254" lon="5.31782"><ele>364.28</ele><time>2025-05-24T15:07:43Z</time></trkpt>
<trkpt lat="50.076625" lon="5.31842"><ele>371.55</ele><time>2025-05-24T15:07:46Z</time></trkpt>
<trkpt lat="50.077636" lon="5.319534"><ele>381.64</ele><time>2025-05-24T15:07:50Z</time></trkpt>
<trkpt lat="50.078232" lon="5.320069"><ele>385.0</ele><time>2025-05-24T15:07:53Z</time></trkpt>
<trkpt lat="50.078546" lon="5.320434"><ele>383.9</ele><time>2025-05-24T15:07:57Z</time></trkpt>
<trkpt lat="50.078805" lon="5.320794"><ele>383.3</ele><time>2025-05-24T15:08:00Z</time></trkpt>
<trkpt lat="50.079036" lon="5.321186"><ele>383.53</ele><time>2025-05-24T15:08:04Z</time></trkpt>
<trkpt lat="50.079155" lon="5.321444"><ele>383.97</ele><time>2025-05-24T15:08:07Z</time></trkpt>
<trkpt lat="50.079299" lon="5.321825"><ele>382.27</ele><time>2025-05-24T15:08:11Z</time></trkpt>
<trkpt lat="50.080085" lon="5.324007"><ele>371.52</ele><time>2025-05-24T15:08:15Z</time></trkpt>
<trkpt lat="50.080326" lon="5.324539"><ele>371.94</ele><time>2025-05-24T15:08:18Z</time></trkpt>
<trkpt lat="50.080663" lon="5.325182"><ele>368.05</ele><time>2025-05-24T15:08:22Z</time></trkpt>
<trkpt lat="50.080759" lon="5.325307"><ele>366.78</ele><time>2025-05-24T15:08:25Z</time></trkpt>
<trkpt lat="50.080847" lon="5.325387"><ele>365.95</ele><time>2025-05-24T15:08:29Z</time></trkpt>
<trkpt lat="50.081018" lon="5.32547"><ele>365.33</ele><time>2025-05-24T15:08:32Z</time></trkpt>
<trkpt lat="50.081128" lon="5.325492"><ele>364.95</ele><time>2025-05-24T15:08:36Z</time></trkpt>
<trkpt lat="50.0814" lon="5.32546"><ele>364.3</ele><time>2025-05-24T15:08:39Z</time></trkpt>
<trkpt lat="50.082849" lon="5.324929"><ele>362.0</ele><time>2025-05-24T15:08:43Z</time></trkpt>
<trkpt lat="50.083045" lon="5.324902"><ele>362.61</ele><time>2025-05-24T15:08:46Z</time></trkpt>
<trkpt lat="50.083289" lon="5.324991"><ele>363.83</ele><time>2025-05-24T15:08:50Z</time></trkpt>
<trkpt lat="50.083839" lon="5.32529"><ele>367.64</ele><time>2025-05-24T15:08:53Z</time></trkpt>
<trkpt lat="50.084713" lon="5.325889"><ele>369.17</ele><time>2025-05-24T15:08:57Z</time></trkpt>
<trkpt lat="50.085164" lon="5.326061"><ele>369.62</ele><time>2025-05-24T15:09:00Z</time></trkpt>
<trkpt lat="50.087562" lon="5.326862"><ele>376.74</ele><time>2025-05-24T15:09:04Z</time></trkpt>
<trkpt lat="50.087562" lon="5.326862"><ele>376.74</ele><time>2025-05-24T15:09:04Z</time></trkpt>
<trkpt lat="50.087747" lon="5.326878"><ele>377.13</ele><time>2025-05-24T15:09:05Z</time></trkpt>
<trkpt lat="50.088023" lon="5.326831"><ele>377.05</ele><time>2025-05-24T15:09:07Z</time></trkpt>
<trkpt lat="50.088284" lon="5.326749"><ele>375.6</ele><time>2025-05-24T15:09:08Z</time></trkpt>
<trkpt lat="50.088494" lon="5.32659"><ele>373.95</ele><time>2025-05-24T15:09:10Z</time></trkpt>
<trkpt lat="50.088573" lon="5.32648"><ele>373.36</ele><time>2025-05-24T15:09:11Z</time></trkpt>
<trkpt lat="50.088665" lon="5.326263"><ele>372.51</ele><time>2025-05-24T15:09:13Z</time></trkpt>
<trkpt lat="50.088749" lon="5.325926"><ele>373.33</ele><time>2025-05-24T15:09:14Z</time></trkpt>
<trkpt lat="50.088876" lon="5.325043"><ele>376.18</ele><time>2025-05-24T15:09:16Z</time></trkpt>
<trkpt lat="50.088989" lon="5.324256"><ele>376.27</ele><time>2025-05-24T15:09:17Z</time></trkpt>
<trkpt lat="50.089208" lon="5.32358"><ele>376.88</ele><time>2025-05-24T15:09:19Z</time></trkpt>
<trkpt lat="50.089276" lon="5.323483"><ele>377.02</ele><time>2025-05-24T15:09:20Z</time></trkpt>
<trkpt lat="50.089378" lon="5.32341"><ele>376.34</ele><time>2025-05-24T15:09:21Z</time></trkpt>
<trkpt lat="50.0896" lon="5.323384"><ele>374.06</ele><time>2025-05-24T15:09:23Z</time></trkpt>
<trkpt lat="50.089707" lon="5.323418"><ele>372.84</ele><time>2025-05-24T15:09:24Z</time></trkpt>
<trkpt lat="50.089888" lon="5.323584"><ele>373.29</ele><time>2025-05-24T15:09:26Z</time></trkpt>
<trkpt lat="50.090072" lon="5.323911"><ele>370.91</ele><time>2025-05-24T15:09:27Z</time></trkpt>
<trkpt lat="50.090291" lon="5.324448"><ele>359.15</ele><time>2025-05-24T15:09:29Z</time></trkpt>
<trkpt lat="50.090332" lon="5.324613"><ele>357.35</ele><time>2025-05-24T15:09:30Z</time></trkpt>
<trkpt lat="50.090466" lon="5.325399"><ele>348.11</ele><time>2025-05-24T15:09:32Z</time></trkpt>
<trkpt lat="50.090595" lon="5.325814"><ele>345.42</ele><time>2025-05-24T15:09:33Z</time></trkpt>
<trkpt lat="50.090664" lon="5.325941"><ele>344.85</ele><time>2025-05-24T15:09:35Z</time></trkpt>
<trkpt lat="50.090744" lon="5.326039"><ele>344.37</ele><time>2025-05-24T15:09:36Z</time></trkpt>
<trkpt lat="50.090927" lon="5.326196"><ele>344.27</ele><time>2025-05-24T15:09:38Z</time></trkpt>
<trkpt lat="50.091254" lon="5.326122"><ele>345.4</ele><time>2025-05-24T15:09:40Z</time></trkpt>
<trkpt lat="50.091448" lon="5.326103"><ele>344.42</ele><time>2025-05-24T15:09:43Z</time></trkpt>
<trkpt lat="50.091551" lon="5.326024"><ele>343.87</ele><time>2025-05-24T15:09:45Z</time></trkpt>
<trkpt lat="50.091754" lon="5.325736"><ele>343.96</ele><time>2025-05-24T15:09:48Z</time></trkpt>
<trkpt lat="50.091939" lon="5.325386"><ele>344.29</ele><time>2025-05-24T15:09:50Z</time></trkpt>
<trkpt lat="50.092042" lon="5.325064"><ele>343.67</ele><time>2025-05-24T15:09:53Z</time></trkpt>
<trkpt lat="50.092154" lon="5.324632"><ele>342.48</ele><time>2025-05-24T15:09:56Z</time></trkpt>
<trkpt lat="50.092584" lon="5.322479"><ele>355.06</ele><time>2025-05-24T15:09:58Z</time></trkpt>
<trkpt lat="50.092634" lon="5.322391"><ele>355.45</ele><time>2025-05-24T15:10:01Z</time></trkpt>
<trkpt lat="50.092694" lon="5.322331"><ele>355.22</ele><time>2025-05-24T15:10:03Z</time></trkpt>
<trkpt lat="50.092907" lon="5.322226"><ele>354.95</ele><time>2025-05-24T15:10:06Z</time></trkpt>
<trkpt lat="50.093736" lon="5.322037"><ele>364.92</ele><time>2025-05-24T15:10:08Z</time></trkpt>
<trkpt lat="50.09388" lon="5.32207"><ele>367.02</ele><time>2025-05-24T15:10:11Z</time></trkpt>
<trkpt lat="50.094375" lon="5.32227"><ele>369.82</ele><time>2025-05-24T15:10:13Z</time></trkpt>
<trkpt lat="50.094629" lon="5.322261"><ele>371.2</ele><time>2025-05-24T15:10:16Z</time></trkpt>
<trkpt lat="50.094823" lon="5.322178"><ele>371.76</ele><time>2025-05-24T15:10:19Z</time></trkpt>
<trkpt lat="50.095074" lon="5.321923"><ele>373.78</ele><time>2025-05-24T15:10:21Z</time></trkpt>
<trkpt lat="50.095215" lon="5.321717"><ele>374.44</ele><time>2025-05-24T15:10:24Z</time></trkpt>
<trkpt lat="50.095594" lon="5.320794"><ele>378.04</ele><time>2025-05-24T15:10:26Z</time></trkpt>
<trkpt lat="50.096103" lon="5.319338"><ele>377.38</ele><time>2025-05-24T15:10:29Z</time></trkpt>
<trkpt lat="50.096178" lon="5.318976"><ele>379.97</ele><time>2025-05-24T15:10:31Z</time></trkpt>
<trkpt lat="50.096231" lon="5.318623"><ele>382.6</ele><time>2025-05-24T15:10:34Z</time></trkpt>
<trkpt lat="50.096262" lon="5.318203"><ele>384.29</ele><time>2025-05-24T15:10:36Z</time></trkpt>
<trkpt lat="50.096262" lon="5.31705"><ele>384.64</ele><time>2025-05-24T15:10:39Z</time></trkpt>
<trkpt lat="50.096369" lon="5.316044"><ele>388.05</ele><time>2025-05-24T15:10:42Z</time></trkpt>
<trkpt lat="50.096605" lon="5.314798"><ele>394.39</ele><time>2025-05-24T15:10:44Z</time></trkpt>
<trkpt lat="50.09686" lon="5.31381"><ele>390.02</ele><time>2025-05-24T15:10:47Z</time></trkpt>
<trkpt lat="50.096958" lon="5.313517"><ele>389.13</ele><time>2025-05-24T15:10:49Z</time></trkpt>
<trkpt lat="50.09704" lon="5.313396"><ele>388.14</ele><time>2025-05-24T15:10:52Z</time></trkpt>
<trkpt lat="50.097317" lon="5.313305"><ele>384.28</ele><time>2025-05-24T15:10:54Z</time></trkpt>
<trkpt lat="50.098395" lon="5.313252"><ele>382.07</ele><time>2025-05-24T15:10:57Z</time></trkpt>
<trkpt lat="50.099429" lon="5.313583"><ele>386.89</ele><time>2025-05-24T15:11:00Z</time></trkpt>
<trkpt lat="50.100091" lon="5.313762"><ele>391.26</ele><time>2025-05-24T15:11:02Z</time></trkpt>
<trkpt lat="50.100941" lon="5.313896"><ele>394.22</ele><time>2025-05-24T15:11:05Z</time></trkpt>
<trkpt lat="50.101239" lon="5.313962"><ele>392.3</ele><time>2025-05-24T15:11:07Z</time></trkpt>
<trkpt lat="50.101596" lon="5.314147"><ele>388.66</ele><time>2025-05-24T15:11:10Z</time></trkpt>
<trkpt lat="50.101884" lon="5.31436"><ele>384.11</ele><time>2025-05-24T15:11:12Z</time></trkpt>
<trkpt lat="50.102235" lon="5.314786"><ele>383.9</ele><time>2025-05-24T15:11:15Z</time></trkpt>
<trkpt lat="50.102944" lon="5.315893"><ele>374.37</ele><time>2025-05-24T15:11:17Z</time></trkpt>
<trkpt lat="50.103406" lon="5.316841"><ele>369.19</ele><time>2025-05-24T15:11:20Z</time></trkpt>
<trkpt lat="50.103554" lon="5.317044"><ele>369.35</ele><time>2025-05-24T15:11:23Z</time></trkpt>
<trkpt lat="50.103694" lon="5.317189"><ele>369.63</ele><time>2025-05-24T15:11:25Z</time></trkpt>
<trkpt lat="50.103852" lon="5.317331"><ele>370.73</ele><time>2025-05-24T15:11:28Z</time></trkpt>
<trkpt lat="50.103975" lon="5.317408"><ele>371.31</ele><time>2025-05-24T15:11:30Z</time></trkpt>
<trkpt lat="50.104105" lon="5.31745"><ele>371.78</ele><time>2025-05-24T15:11:33Z</time></trkpt>
<trkpt lat="50.104431" lon="5.317451"><ele>368.19</ele><time>2025-05-24T15:11:35Z</time></trkpt>
<trkpt lat="50.104562" lon="5.317386"><ele>364.18</ele><time>2025-05-24T15:11:38Z</time></trkpt>
<trkpt lat="50.104647" lon="5.317296"><ele>361.43</ele><time>2025-05-24T15:11:40Z</time></trkpt>
<trkpt lat="50.104715" lon="5.317207"><ele>359.45</ele><time>2025-05-24T15:11:43Z</time></trkpt>
<trkpt lat="50.104825" lon="5.316997"><ele>359.86</ele><time>2025-05-24T15:11:46Z</time></trkpt>
<trkpt lat="50.105139" lon="5.31578"><ele>358.56</ele><time>2025-05-24T15:11:48Z</time></trkpt>
<trkpt lat="50.10549" lon="5.314967"><ele>355.51</ele><time>2025-05-24T15:11:51Z</time></trkpt>
<trkpt lat="50.106103" lon="5.314123"><ele>348.85</ele><time>2025-05-24T15:11:53Z</time></trkpt>
<trkpt lat="50.107067" lon="5.312915"><ele>334.22</ele><time>2025-05-24T15:11:56Z</time></trkpt>
<trkpt lat="50.107264" lon="5.312323"><ele>333.04</ele><time>2025-05-24T15:11:58Z</time></trkpt>
<trkpt lat="50.107416" lon="5.311206"><ele>326.31</ele><time>2025-05-24T15:12:01Z</time></trkpt>
<trkpt lat="50.107453" lon="5.310722"><ele>325.51</ele><time>2025-05-24T15:12:04Z</time></trkpt>
<trkpt lat="50.107473" lon="5.309891"><ele>323.31</ele><time>2025-05-24T15:12:06Z</time></trkpt>
<trkpt lat="50.107543" lon="5.309723"><ele>321.54</ele><time>2025-05-24T15:12:09Z</time></trkpt>
<trkpt lat="50.107691" lon="5.30958"><ele>318.92</ele><time>2025-05-24T15:12:11Z</time></trkpt>
<trkpt lat="50.107769" lon="5.309556"><ele>317.89</ele><time>2025-05-24T15:12:14Z</time></trkpt>
<trkpt lat="50.10788" lon="5.309551"><ele>316.66</ele><time>2025-05-24T15:12:16Z</time></trkpt>
<trkpt lat="50.108057" lon="5.3096"><ele>315.1</ele><time>2025-05-24T15:12:19Z</time></trkpt>
<trkpt lat="50.109442" lon="5.310425"><ele>285.09</ele><time>2025-05-24T15:12:21Z</time></trkpt>
<trkpt lat="50.109762" lon="5.310667"><ele>283.08</ele><time>2025-05-24T15:12:24Z</time></trkpt>
<trkpt lat="50.110008" lon="5.310894"><ele>280.47</ele><time>2025-05-24T15:12:27Z</time></trkpt>
<trkpt lat="50.110213" lon="5.311121"><ele>276.87</ele><time>2025-05-24T15:12:29Z</time></trkpt>
<trkpt lat="50.110372" lon="5.311409"><ele>272.94</ele><time>2025-05-24T15:12:32Z</time></trkpt>
<trkpt lat="50.110533" lon="5.311796"><ele>269.35</ele><time>2025-05-24T15:12:34Z</time></trkpt>
<trkpt lat="50.110681" lon="5.312063"><ele>265.54</ele><time>2025-05-24T15:12:37Z</time></trkpt>
<trkpt lat="50.110837" lon="5.312254"><ele>262.85</ele><time>2025-05-24T15:12:39Z</time></trkpt>
<trkpt lat="50.111096" lon="5.3124"><ele>259.52</ele><time>2025-05-24T15:12:42Z</time></trkpt>
<trkpt lat="50.111766" lon="5.312566"><ele>255.05</ele><time>2025-05-24T15:12:44Z</time></trkpt>
<trkpt lat="50.111929" lon="5.312543"><ele>253.96</ele><time>2025-05-24T15:12:47Z</time></trkpt>
<trkpt lat="50.111989" lon="5.312509"><ele>253.97</ele><time>2025-05-24T15:12:50Z</time></trkpt>
<trkpt lat="50.112052" lon="5.312433"><ele>254.0</ele><time>2025-05-24T15:12:52Z</time></trkpt>
<trkpt lat="50.112271" lon="5.312129"><ele>253.26</ele><time>2025-05-24T15:12:55Z</time></trkpt>
<trkpt lat="50.112433" lon="5.312022"><ele>251.21</ele><time>2025-05-24T15:12:57Z</time></trkpt>
<trkpt lat="50.112524" lon="5.311986"><ele>249.7</ele><time>2025-05-24T15:13:00Z</time></trkpt>
<trkpt lat="50.112521" lon="5.312018"><ele>250.18</ele><time>2025-05-24T15:13:30Z</time></trkpt>
<trkpt lat="50.112521" lon="5.312018"><ele>250.18</ele><time>2025-05-24T15:13:30Z</time></trkpt>
<trkpt lat="50.112524" lon="5.311986"><ele>249.7</ele><time>2025-05-24T15:13:34Z</time></trkpt>
<trkpt lat="50.112538" lon="5.311524"><ele>246.37</ele><time>2025-05-24T15:13:38Z</time></trkpt>
<trkpt lat="50.112354" lon="5.310216"><ele>246.57</ele><time>2025-05-24T15:13:42Z</time></trkpt>
<trkpt lat="50.112294" lon="5.309589"><ele>246.84</ele><time>2025-05-24T15:13:46Z</time></trkpt>
<trkpt lat="50.112295" lon="5.308451"><ele>246.21</ele><time>2025-05-24T15:13:50Z</time></trkpt>
<trkpt lat="50.112471" lon="5.307578"><ele>243.65</ele><time>2025-05-24T15:13:54Z</time></trkpt>
<trkpt lat="50.112671" lon="5.306455"><ele>244.24</ele><time>2025-05-24T15:13:58Z</time></trkpt>
<trkpt lat="50.112701" lon="5.306187"><ele>244.8</ele><time>2025-05-24T15:14:02Z</time></trkpt>
<trkpt lat="50.112733" lon="5.305538"><ele>242.86</ele><time>2025-05-24T15:14:06Z</time></trkpt>
<trkpt lat="50.112772" lon="5.304469"><ele>242.08</ele><time>2025-05-24T15:14:10Z</time></trkpt>
<trkpt lat="50.112763" lon="5.301762"><ele>235.74</ele><time>2025-05-24T15:14:14Z</time></trkpt>
<trkpt lat="50.112751" lon="5.301519"><ele>235.33</ele><time>2025-05-24T15:14:18Z</time></trkpt>
<trkpt lat="50.112708" lon="5.301336"><ele>236.51</ele><time>2025-05-24T15:14:22Z</time></trkpt>
<trkpt lat="50.112632" lon="5.301128"><ele>239.25</ele><time>2025-05-24T15:14:26Z</time></trkpt>
<trkpt lat="50.112538" lon="5.300799"><ele>246.82</ele><time>2025-05-24T15:14:30Z</time></trkpt>
<trkpt lat="50.112583" lon="5.300403"><ele>249.48</ele><time>2025-05-24T15:14:34Z</time></trkpt>
<trkpt lat="50.112871" lon="5.299305"><ele>246.96</ele><time>2025-05-24T15:14:38Z</time></trkpt>
<trkpt lat="50.113475" lon="5.296661"><ele>247.94</ele><time>2025-05-24T15:14:42Z</time></trkpt>
<trkpt lat="50.113555" lon="5.296146"><ele>241.79</ele><time>2025-05-24T15:14:46Z</time></trkpt>
<trkpt lat="50.113535" lon="5.295968"><ele>236.9</ele><time>2025-05-24T15:14:50Z</time></trkpt>
<trkpt lat="50.113406" lon="5.295898"><ele>233.09</ele><time>2025-05-24T15:14:53Z</time></trkpt>
<trkpt lat="50.113303" lon="5.295925"><ele>232.64</ele><time>2025-05-24T15:14:56Z</time></trkpt>
<trkpt lat="50.111744" lon="5.296032"><ele>220.4</ele><time>2025-05-24T15:14:58Z</time></trkpt>
<trkpt lat="50.111307" lon="5.29614"><ele>220.22</ele><time>2025-05-24T15:15:01Z</time></trkpt>
<trkpt lat="50.111228" lon="5.296121"><ele>219.6</ele><time>2025-05-24T15:15:04Z</time></trkpt>
<trkpt lat="50.111183" lon="5.29599"><ele>219.03</ele><time>2025-05-24T15:15:06Z</time></trkpt>
<trkpt lat="50.111135" lon="5.295473"><ele>219.1</ele><time>2025-05-24T15:15:08Z</time></trkpt>
<trkpt lat="50.111085" lon="5.29501"><ele>220.46</ele><time>2025-05-24T15:15:11Z</time></trkpt>
<trkpt lat="50.110974" lon="5.294616"><ele>224.35</ele><time>2025-05-24T15:15:13Z</time></trkpt>
<trkpt lat="50.11036" lon="5.2932"><ele>236.78</ele><time>2025-05-24T15:15:16Z</time></trkpt>
<trkpt lat="50.110329" lon="5.293056"><ele>237.18</ele><time>2025-05-24T15:15:18Z</time></trkpt>
<trkpt lat="50.110317" lon="5.29291"><ele>237.21</ele><time>2025-05-24T15:15:20Z</time></trkpt>
<trkpt lat="50.110329" lon="5.292768"><ele>237.41</ele><time>2025-05-24T15:15:23Z</time></trkpt>
<trkpt lat="50.110396" lon="5.292406"><ele>239.19</ele><time>2025-05-24T15:15:25Z</time></trkpt>
<trkpt lat="50.110554" lon="5.291061"><ele>244.36</ele><time>2025-05-24T15:15:27Z</time></trkpt>
<trkpt lat="50.110673" lon="5.289283"><ele>262.38</ele><time>2025-05-24T15:15:30Z</time></trkpt>
<trkpt lat="50.110683" lon="5.288862"><ele>259.6</ele><time>2025-05-24T15:15:32Z</time></trkpt>
<trkpt lat="50.110618" lon="5.287711"><ele>256.48</ele><time>2025-05-24T15:15:34Z</time></trkpt>
<trkpt lat="50.110623" lon="5.286865"><ele>258.95</ele><time>2025-05-24T15:15:37Z</time></trkpt>
<trkpt lat="50.110482" lon="5.286269"><ele>260.7</ele><time>2025-05-24T15:15:39Z</time></trkpt>
<trkpt lat="50.110237" lon="5.28546"><ele>266.93</ele><time>2025-05-24T15:15:42Z</time></trkpt>
<trkpt lat="50.110192" lon="5.285227"><ele>268.37</ele><time>2025-05-24T15:15:44Z</time></trkpt>
<trkpt lat="50.110193" lon="5.284928"><ele>269.17</ele><time>2025-05-24T15:15:46Z</time></trkpt>
<trkpt lat="50.110243" lon="5.284586"><ele>269.43</ele><time>2025-05-24T15:15:49Z</time></trkpt>
<trkpt lat="50.110272" lon="5.284564"><ele>269.23</ele><time>2025-05-24T15:15:49Z</time></trkpt>
<trkpt lat="50.110272" lon="5.284564"><ele>269.23</ele><time>2025-05-24T15:15:49Z</time></trkpt>
<trkpt lat="50.11046" lon="5.284422"><ele>269.03</ele><time>2025-05-24T15:15:51Z</time></trkpt>
<trkpt lat="50.111319" lon="5.28353"><ele>270.53</ele><time>2025-05-24T15:15:52Z</time></trkpt>
<trkpt lat="50.11155" lon="5.283339"><ele>270.02</ele><time>2025-05-24T15:15:54Z</time></trkpt>
<trkpt lat="50.111685" lon="5.283294"><ele>269.66</ele><time>2025-05-24T15:15:56Z</time></trkpt>
<trkpt lat="50.111916" lon="5.283286"><ele>268.92</ele><time>2025-05-24T15:15:58Z</time></trkpt>
<trkpt lat="50.112161" lon="5.283332"><ele>270.55</ele><time>2025-05-24T15:16:00Z</time></trkpt>
<trkpt lat="50.112435" lon="5.283315"><ele>271.68</ele><time>2025-05-24T15:16:02Z</time></trkpt>
<trkpt lat="50.112632" lon="5.283206"><ele>271.8</ele><time>2025-05-24T15:16:04Z</time></trkpt>
<trkpt lat="50.112762" lon="5.283084"><ele>271.2</ele><time>2025-05-24T15:16:06Z</time></trkpt>
<trkpt lat="50.112829" lon="5.28298"><ele>270.49</ele><time>2025-05-24T15:16:07Z</time></trkpt>
<trkpt lat="50.112851" lon="5.282856"><ele>269.83</ele><time>2025-05-24T15:16:09Z</time></trkpt>
<trkpt lat="50.112812" lon="5.282705"><ele>269.79</ele><time>2025-05-24T15:16:11Z</time></trkpt>
<trkpt lat="50.112632" lon="5.281659"><ele>268.42</ele><time>2025-05-24T15:16:13Z</time></trkpt>
<trkpt lat="50.112574" lon="5.281439"><ele>265.84</ele><time>2025-05-24T15:16:15Z</time></trkpt>
<trkpt lat="50.11239" lon="5.28116"><ele>263.45</ele><time>2025-05-24T15:16:17Z</time></trkpt>
<trkpt lat="50.111886" lon="5.280597"><ele>256.65</ele><time>2025-05-24T15:16:19Z</time></trkpt>
<trkpt lat="50.111685" lon="5.280284"><ele>255.96</ele><time>2025-05-24T15:16:20Z</time></trkpt>
<trkpt lat="50.11166" lon="5.280185"><ele>255.72</ele><time>2025-05-24T15:16:22Z</time></trkpt>
<trkpt lat="50.111686" lon="5.280028"><ele>255.03</ele><time>2025-05-24T15:16:24Z</time></trkpt>
<trkpt lat="50.111989" lon="5.278888"><ele>255.0</ele><time>2025-05-24T15:16:26Z</time></trkpt>
<trkpt lat="50.113061" lon="5.279297"><ele>251.54</ele><time>2025-05-24T15:16:30Z</time></trkpt>
<trkpt lat="50.113475" lon="5.279515"><ele>246.47</ele><time>2025-05-24T15:16:34Z</time></trkpt>
<trkpt lat="50.113998" lon="5.279955"><ele>245.54</ele><time>2025-05-24T15:16:38Z</time></trkpt>
<trkpt lat="50.114435" lon="5.280245"><ele>243.15</ele><time>2025-05-24T15:16:42Z</time></trkpt>
<trkpt lat="50.115842" lon="5.280985"><ele>241.88</ele><time>2025-05-24T15:16:46Z</time></trkpt>
<trkpt lat="50.116457" lon="5.281173"><ele>238.97</ele><time>2025-05-24T15:16:50Z</time></trkpt>
<trkpt lat="50.11737" lon="5.281394"><ele>243.07</ele><time>2025-05-24T15:16:54Z</time></trkpt>
<trkpt lat="50.117641" lon="5.281405"><ele>244.65</ele><time>2025-05-24T15:16:58Z</time></trkpt>
<trkpt lat="50.117898" lon="5.281362"><ele>244.49</ele><time>2025-05-24T15:17:02Z</time></trkpt>
<trkpt lat="50.118233" lon="5.281177"><ele>243.33</ele><time>2025-05-24T15:17:06Z</time></trkpt>
<trkpt lat="50.11837" lon="5.281029"><ele>243.95</ele><time>2025-05-24T15:17:10Z</time></trkpt>
<trkpt lat="50.118473" lon="5.28088"><ele>244.18</ele><time>2025-05-24T15:17:14Z</time></trkpt>
<trkpt lat="50.118664" lon="5.280486"><ele>242.76</ele><time>2025-05-24T15:17:18Z</time></trkpt>
<trkpt lat="50.118751" lon="5.280341"><ele>242.96</ele><time>2025-05-24T15:17:22Z</time></trkpt>
<trkpt lat="50.118919" lon="5.280128"><ele>241.37</ele><time>2025-05-24T15:17:26Z</time></trkpt>
<trkpt lat="50.119082" lon="5.280038"><ele>239.91</ele><time>2025-05-24T15:17:30Z</time></trkpt>
<trkpt lat="50.119298" lon="5.280014"><ele>240.67</ele><time>2025-05-24T15:17:34Z</time></trkpt>
<trkpt lat="50.120207" lon="5.280159"><ele>246.06</ele><time>2025-05-24T15:17:38Z</time></trkpt>
<trkpt lat="50.120437" lon="5.280277"><ele>241.99</ele><time>2025-05-24T15:17:42Z</time></trkpt>
<trkpt lat="50.121527" lon="5.281151"><ele>236.73</ele><time>2025-05-24T15:17:46Z</time></trkpt>
<trkpt lat="50.122325" lon="5.281645"><ele>232.0</ele><time>2025-05-24T15:17:50Z</time></trkpt>
<trkpt lat="50.122924" lon="5.282042"><ele>229.79</ele><time>2025-05-24T15:17:54Z</time></trkpt>
<trkpt lat="50.123275" lon="5.282342"><ele>228.97</ele><time>2025-05-24T15:17:58Z</time></trkpt>
<trkpt lat="50.123735" lon="5.282868"><ele>229.63</ele><time>2025-05-24T15:18:02Z</time></trkpt>
<trkpt lat="50.124038" lon="5.283083"><ele>229.99</ele><time>2025-05-24T15:18:07Z</time></trkpt>
<trkpt lat="50.124399" lon="5.283222"><ele>227.56</ele><time>2025-05-24T15:18:11Z</time></trkpt>
<trkpt lat="50.124695" lon="5.283276"><ele>224.63</ele><time>2025-05-24T15:18:15Z</time></trkpt>
<trkpt lat="50.12508" lon="5.283189"><ele>217.83</ele><time>2025-05-24T15:18:19Z</time></trkpt>
<trkpt lat="50.125551" lon="5.283017"><ele>212.2</ele><time>2025-05-24T15:18:23Z</time></trkpt>
<trkpt lat="50.125761" lon="5.282847"><ele>212.01</ele><time>2025-05-24T15:18:27Z</time></trkpt>
<trkpt lat="50.125919" lon="5.282659"><ele>212.12</ele><time>2025-05-24T15:18:31Z</time></trkpt>
<trkpt lat="50.12636" lon="5.282006"><ele>211.12</ele><time>2025-05-24T15:18:35Z</time></trkpt>
<trkpt lat="50.127899" lon="5.279736"><ele>208.88</ele><time>2025-05-24T15:18:39Z</time></trkpt>
<trkpt lat="50.128251" lon="5.279144"><ele>212.7</ele><time>2025-05-24T15:18:43Z</time></trkpt>
<trkpt lat="50.128594" lon="5.278472"><ele>213.16</ele><time>2025-05-24T15:18:47Z</time></trkpt>
<trkpt lat="50.128955" lon="5.277877"><ele>214.32</ele><time>2025-05-24T15:18:51Z</time></trkpt>
<trkpt lat="50.129199" lon="5.277567"><ele>213.85</ele><time>2025-05-24T15:18:55Z</time></trkpt>
<trkpt lat="50.129746" lon="5.276933"><ele>212.95</ele><time>2025-05-24T15:18:59Z</time></trkpt>
<trkpt lat="50.130058" lon="5.276505"><ele>212.95</ele><time>2025-05-24T15:19:03Z</time></trkpt>
<trkpt lat="50.130238" lon="5.276365"><ele>213.23</ele><time>2025-05-24T15:19:07Z</time></trkpt>
<trkpt lat="50.13078" lon="5.276057"><ele>215.85</ele><time>2025-05-24T15:19:11Z</time></trkpt>
<trkpt lat="50.130956" lon="5.276026"><ele>215.86</ele><time>2025-05-24T15:19:15Z</time></trkpt>
<trkpt lat="50.131125" lon="5.276072"><ele>215.09</ele><time>2025-05-24T15:19:19Z</time></trkpt>
<trkpt lat="50.131286" lon="5.275807"><ele>215.43</ele><time>2025-05-24T15:19:22Z</time></trkpt>
<trkpt lat="50.131388" lon="5.275602"><ele>215.83</ele><time>2025-05-24T15:19:24Z</time></trkpt>
<trkpt lat="50.131388" lon="5.275602"><ele>215.83</ele><time>2025-05-24T15:19:24Z</time></trkpt>
<trkpt lat="50.131418" lon="5.275382"><ele>217.32</ele><time>2025-05-24T15:19:28Z</time></trkpt>
<trkpt lat="50.131415" lon="5.275299"><ele>217.93</ele><time>2025-05-24T15:19:33Z</time></trkpt>
<trkpt lat="50.131359" lon="5.27482"><ele>221.19</ele><time>2025-05-24T15:19:37Z</time></trkpt>
<trkpt lat="50.131234" lon="5.274265"><ele>223.74</ele><time>2025-05-24T15:19:41Z</time></trkpt>
<trkpt lat="50.131046" lon="5.273549"><ele>228.46</ele><time>2025-05-24T15:19:45Z</time></trkpt>
<trkpt lat="50.131033" lon="5.273407"><ele>229.02</ele><time>2025-05-24T15:19:49Z</time></trkpt>
<trkpt lat="50.131042" lon="5.272973"><ele>229.25</ele><time>2025-05-24T15:19:53Z</time></trkpt>
<trkpt lat="50.131026" lon="5.272729"><ele>229.31</ele><time>2025-05-24T15:19:58Z</time></trkpt>
<trkpt lat="50.130879" lon="5.272373"><ele>229.83</ele><time>2025-05-24T15:20:02Z</time></trkpt>
<trkpt lat="50.130602" lon="5.271827"><ele>230.83</ele><time>2025-05-24T15:20:06Z</time></trkpt>
<trkpt lat="50.12981" lon="5.270074"><ele>231.68</ele><time>2025-05-24T15:20:10Z</time></trkpt>
<trkpt lat="50.12965" lon="5.269647"><ele>231.45</ele><time>2025-05-24T15:20:14Z</time></trkpt>
<trkpt lat="50.129477" lon="5.269023"><ele>231.88</ele><time>2025-05-24T15:20:19Z</time></trkpt>
<trkpt lat="50.129354" lon="5.268721"><ele>231.72</ele><time>2025-05-24T15:20:23Z</time></trkpt>
<trkpt lat="50.129241" lon="5.268522"><ele>231.5</ele><time>2025-05-24T15:20:27Z</time></trkpt>
<trkpt lat="50.128902" lon="5.268042"><ele>228.99</ele><time>2025-05-24T15:20:31Z</time></trkpt>
<trkpt lat="50.128765" lon="5.267802"><ele>229.0</ele><time>2025-05-24T15:20:35Z</time></trkpt>
<trkpt lat="50.126829" lon="5.263749"><ele>237.8</ele><time>2025-05-24T15:20:39Z</time></trkpt>
<trkpt lat="50.125151" lon="5.261158"><ele>253.29</ele><time>2025-05-24T15:20:44Z</time></trkpt>
<trkpt lat="50.124859" lon="5.260675"><ele>256.51</ele><time>2025-05-24T15:20:48Z</time></trkpt>
<trkpt lat="50.123875" lon="5.258865"><ele>260.27</ele><time>2025-05-24T15:20:52Z</time></trkpt>
<trkpt lat="50.123821" lon="5.258743"><ele>261.54</ele><time>2025-05-24T15:20:56Z</time></trkpt>
<trkpt lat="50.12375" lon="5.258469"><ele>263.77</ele><time>2025-05-24T15:21:00Z</time></trkpt>
<trkpt lat="50.123703" lon="5.258083"><ele>267.11</ele><time>2025-05-24T15:21:04Z</time></trkpt>
<trkpt lat="50.123714" lon="5.254751"><ele>267.35</ele><time>2025-05-24T15:21:09Z</time></trkpt>
<trkpt lat="50.123655" lon="5.254361"><ele>263.45</ele><time>2025-05-24T15:21:13Z</time></trkpt>
<trkpt lat="50.123568" lon="5.254141"><ele>261.97</ele><time>2025-05-24T15:21:17Z</time></trkpt>
<trkpt lat="50.123419" lon="5.253719"><ele>260.08</ele><time>2025-05-24T15:21:21Z</time></trkpt>
<trkpt lat="50.123439" lon="5.253596"><ele>259.58</ele><time>2025-05-24T15:21:29Z</time></trkpt>
<trkpt lat="50.123431" lon="5.25352"><ele>259.44</ele><time>2025-05-24T15:21:37Z</time></trkpt>
<trkpt lat="50.12338" lon="5.253416"><ele>259.25</ele><time>2025-05-24T15:21:44Z</time></trkpt>
<trkpt lat="50.123336" lon="5.253383"><ele>259.17</ele><time>2025-05-24T15:21:52Z</time></trkpt>
<trkpt lat="50.123248" lon="5.253388"><ele>259.81</ele><time>2025-05-24T15:21:59Z</time></trkpt>
<trkpt lat="50.123118" lon="5.253218"><ele>260.13</ele><time>2025-05-24T15:22:07Z</time></trkpt>
<trkpt lat="50.122355" lon="5.251722"><ele>256.82</ele><time>2025-05-24T15:22:15Z</time></trkpt>
<trkpt lat="50.121286" lon="5.249531"><ele>254.57</ele><time>2025-05-24T15:22:22Z</time></trkpt>
<trkpt lat="50.121227" lon="5.249332"><ele>254.35</ele><time>2025-05-24T15:22:30Z</time></trkpt>
<trkpt lat="50.121111" lon="5.248719"><ele>253.39</ele><time>2025-05-24T15:22:38Z</time></trkpt>
<trkpt lat="50.121033" lon="5.248485"><ele>252.87</ele><time>2025-05-24T15:22:45Z</time></trkpt>
<trkpt lat="50.120884" lon="5.248237"><ele>252.47</ele><time>2025-05-24T15:22:53Z</time></trkpt>
<trkpt lat="50.120764" lon="5.248128"><ele>252.37</ele><time>2025-05-24T15:23:01Z</time></trkpt>
<trkpt lat="50.120617" lon="5.248048"><ele>251.44</ele><time>2025-05-24T15:23:08Z</time></trkpt>
<trkpt lat="50.120277" lon="5.247984"><ele>250.74</ele><time>2025-05-24T15:23:16Z</time></trkpt>
<trkpt lat="50.119672" lon="5.248011"><ele>254.86</ele><time>2025-05-24T15:23:24Z</time></trkpt>
<trkpt lat="50.119407" lon="5.247928"><ele>255.48</ele><time>2025-05-24T15:23:31Z</time></trkpt>
<trkpt lat="50.116889" lon="5.24594"><ele>256.67</ele><time>2025-05-24T15:23:39Z</time></trkpt>
<trkpt lat="50.116231" lon="5.245385"><ele>258.95</ele><time>2025-05-24T15:23:47Z</time></trkpt>
<trkpt lat="50.115699" lon="5.244835"><ele>257.1</ele><time>2025-05-24T15:23:54Z</time></trkpt>
<trkpt lat="50.110888" lon="5.239377"><ele>245.76</ele><time>2025-05-24T15:24:02Z</time></trkpt>
<trkpt lat="50.109429" lon="5.237719"><ele>239.48</ele><time>2025-05-24T15:24:09Z</time></trkpt>
<trkpt lat="50.10838" lon="5.236535"><ele>247.3</ele><time>2025-05-24T15:24:17Z</time></trkpt>
<trkpt lat="50.10839" lon="5.236511"><ele>246.88</ele><time>2025-05-24T15:24:32Z</time></trkpt>
<trkpt lat="50.10839" lon="5.236511"><ele>246.88</ele><time>2025-05-24T15:24:32Z</time></trkpt>
<trkpt lat="50.10838" lon="5.236535"><ele>247.3</ele><time>2025-05-24T15:24:33Z</time></trkpt>
<trkpt lat="50.106303" lon="5.234204"><ele>257.02</ele><time>2025-05-24T15:24:42Z</time></trkpt>
<trkpt lat="50.105497" lon="5.233575"><ele>260.18</ele><time>2025-05-24T15:24:51Z</time></trkpt>
<trkpt lat="50.099986" lon="5.230964"><ele>278.63</ele><time>2025-05-24T15:25:00Z</time></trkpt>
<trkpt lat="50.099614" lon="5.230882"><ele>283.13</ele><time>2025-05-24T15:25:09Z</time></trkpt>
<trkpt lat="50.099371" lon="5.230872"><ele>284.28</ele><time>2025-05-24T15:25:18Z</time></trkpt>
<trkpt lat="50.099152" lon="5.230894"><ele>284.39</ele><time>2025-05-24T15:25:27Z</time></trkpt>
<trkpt lat="50.09883" lon="5.230971"><ele>283.46</ele><time>2025-05-24T15:25:36Z</time></trkpt>
<trkpt lat="50.095213" lon="5.232037"><ele>271.33</ele><time>2025-05-24T15:25:45Z</time></trkpt>
<trkpt lat="50.095467" lon="5.23138"><ele>268.64</ele><time>2025-05-24T15:25:47Z</time></trkpt>
<trkpt lat="50.09568" lon="5.230935"><ele>267.27</ele><time>2025-05-24T15:25:49Z</time></trkpt>
<trkpt lat="50.096024" lon="5.230388"><ele>263.02</ele><time>2025-05-24T15:25:52Z</time></trkpt>
<trkpt lat="50.096612" lon="5.229685"><ele>260.89</ele><time>2025-05-24T15:25:54Z</time></trkpt>
<trkpt lat="50.096795" lon="5.229395"><ele>260.67</ele><time>2025-05-24T15:25:57Z</time></trkpt>
<trkpt lat="50.096974" lon="5.22887"><ele>257.93</ele><time>2025-05-24T15:25:59Z</time></trkpt>
<trkpt lat="50.097228" lon="5.22835"><ele>256.08</ele><time>2025-05-24T15:26:02Z</time></trkpt>
<trkpt lat="50.097435" lon="5.227995"><ele>255.55</ele><time>2025-05-24T15:26:04Z</time></trkpt>
<trkpt lat="50.097603" lon="5.227609"><ele>255.51</ele><time>2025-05-24T15:26:07Z</time></trkpt>
<trkpt lat="50.097824" lon="5.226869"><ele>254.83</ele><time>2025-05-24T15:26:09Z</time></trkpt>
<trkpt lat="50.098106" lon="5.22556"><ele>251.38</ele><time>2025-05-24T15:26:11Z</time></trkpt>
<trkpt lat="50.098354" lon="5.22497"><ele>248.03</ele><time>2025-05-24T15:26:14Z</time></trkpt>
<trkpt lat="50.098577" lon="5.224493"><ele>247.05</ele><time>2025-05-24T15:26:16Z</time></trkpt>
<trkpt lat="50.098743" lon="5.224192"><ele>246.56</ele><time>2025-05-24T15:26:19Z</time></trkpt>
<trkpt lat="50.099126" lon="5.223606"><ele>243.98</ele><time>2025-05-24T15:26:21Z</time></trkpt>
<trkpt lat="50.099556" lon="5.223161"><ele>243.96</ele><time>2025-05-24T15:26:24Z</time></trkpt>
<trkpt lat="50.099818" lon="5.222973"><ele>245.44</ele><time>2025-05-24T15:26:26Z</time></trkpt>
<trkpt lat="50.100052" lon="5.22285"><ele>247.35</ele><time>2025-05-24T15:26:29Z</time></trkpt>
<trkpt lat="50.100783" lon="5.222205"><ele>249.41</ele><time>2025-05-24T15:26:31Z</time></trkpt>
<trkpt lat="50.101425" lon="5.221817"><ele>245.26</ele><time>2025-05-24T15:26:33Z</time></trkpt>
<trkpt lat="50.101597" lon="5.221627"><ele>246.35</ele><time>2025-05-24T15:26:36Z</time></trkpt>
<trkpt lat="50.101898" lon="5.22106"><ele>247.32</ele><time>2025-05-24T15:26:38Z</time></trkpt>
<trkpt lat="50.101974" lon="5.220977"><ele>247.68</ele><time>2025-05-24T15:26:41Z</time></trkpt>
<trkpt lat="50.102108" lon="5.220927"><ele>248.32</ele><time>2025-05-24T15:26:43Z</time></trkpt>
<trkpt lat="50.102182" lon="5.220946"><ele>248.77</ele><time>2025-05-24T15:26:46Z</time></trkpt>
<trkpt lat="50.102333" lon="5.221035"><ele>248.71</ele><time>2025-05-24T15:26:48Z</time></trkpt>
<trkpt lat="50.102495" lon="5.221184"><ele>248.02</ele><time>2025-05-24T15:26:50Z</time></trkpt>
<trkpt lat="50.102608" lon="5.221224"><ele>246.44</ele><time>2025-05-24T15:26:53Z</time></trkpt>
<trkpt lat="50.102699" lon="5.221186"><ele>245.13</ele><time>2025-05-24T15:26:55Z</time></trkpt>
<trkpt lat="50.102755" lon="5.221103"><ele>244.3</ele><time>2025-05-24T15:26:58Z</time></trkpt>
<trkpt lat="50.102931" lon="5.220608"><ele>235.93</ele><time>2025-05-24T15:27:00Z</time></trkpt>
<trkpt lat="50.102987" lon="5.220355"><ele>232.32</ele><time>2025-05-24T15:27:03Z</time></trkpt>
<trkpt lat="50.10336" lon="5.218141"><ele>219.24</ele><time>2025-05-24T15:27:05Z</time></trkpt>
<trkpt lat="50.103439" lon="5.217444"><ele>215.68</ele><time>2025-05-24T15:27:08Z</time></trkpt>
<trkpt lat="50.10345" lon="5.216419"><ele>210.12</ele><time>2025-05-24T15:27:10Z</time></trkpt>
<trkpt lat="50.103395" lon="5.215609"><ele>207.87</ele><time>2025-05-24T15:27:12Z</time></trkpt>
<trkpt lat="50.10339" lon="5.215176"><ele>205.62</ele><time>2025-05-24T15:27:15Z</time></trkpt>
<trkpt lat="50.103412" lon="5.214536"><ele>201.43</ele><time>2025-05-24T15:27:17Z</time></trkpt>
<trkpt lat="50.103384" lon="5.213104"><ele>194.62</ele><time>2025-05-24T15:27:20Z</time></trkpt>
<trkpt lat="50.103446" lon="5.212691"><ele>192.87</ele><time>2025-05-24T15:27:22Z</time></trkpt>
<trkpt lat="50.103601" lon="5.212294"><ele>191.04</ele><time>2025-05-24T15:27:25Z</time></trkpt>
<trkpt lat="50.10468" lon="5.209734"><ele>184.11</ele><time>2025-05-24T15:27:27Z</time></trkpt>
<trkpt lat="50.10477" lon="5.209342"><ele>184.33</ele><time>2025-05-24T15:27:30Z</time></trkpt>
<trkpt lat="50.104781" lon="5.209102"><ele>185.6</ele><time>2025-05-24T15:27:32Z</time></trkpt>
<trkpt lat="50.104716" lon="5.208501"><ele>188.02</ele><time>2025-05-24T15:27:34Z</time></trkpt>
<trkpt lat="50.10473" lon="5.208163"><ele>188.57</ele><time>2025-05-24T15:27:37Z</time></trkpt>
<trkpt lat="50.105056" lon="5.205795"><ele>193.54</ele><time>2025-05-24T15:27:39Z</time></trkpt>
<trkpt lat="50.105126" lon="5.204978"><ele>194.67</ele><time>2025-05-24T15:27:42Z</time></trkpt>
<trkpt lat="50.105172" lon="5.204697"><ele>194.76</ele><time>2025-05-24T15:27:44Z</time></trkpt>
<trkpt lat="50.105693" lon="5.20267"><ele>186.41</ele><time>2025-05-24T15:27:47Z</time></trkpt>
<trkpt lat="50.105759" lon="5.20235"><ele>186.07</ele><time>2025-05-24T15:27:49Z</time></trkpt>
<trkpt lat="50.105849" lon="5.201632"><ele>181.62</ele><time>2025-05-24T15:27:52Z</time></trkpt>
<trkpt lat="50.10588" lon="5.201308"><ele>179.15</ele><time>2025-05-24T15:27:54Z</time></trkpt>
<trkpt lat="50.105879" lon="5.201155"><ele>178.52</ele><time>2025-05-24T15:27:56Z</time></trkpt>
<trkpt lat="50.105779" lon="5.200546"><ele>176.32</ele><time>2025-05-24T15:27:59Z</time></trkpt>
<trkpt lat="50.105779" lon="5.200398"><ele>175.59</ele><time>2025-05-24T15:28:01Z</time></trkpt>
<trkpt lat="50.105803" lon="5.200208"><ele>174.24</ele><time>2025-05-24T15:28:04Z</time></trkpt>
<trkpt lat="50.10591" lon="5.199875"><ele>172.67</ele><time>2025-05-24T15:28:06Z</time></trkpt>
<trkpt lat="50.106147" lon="5.199473"><ele>172.74</ele><time>2025-05-24T15:28:09Z</time></trkpt>
<trkpt lat="50.106222" lon="5.199284"><ele>171.62</ele><time>2025-05-24T15:28:11Z</time></trkpt>
<trkpt lat="50.10625" lon="5.199039"><ele>170.77</ele><time>2025-05-24T15:28:14Z</time></trkpt>
<trkpt lat="50.106287" lon="5.198077"><ele>171.61</ele><time>2025-05-24T15:28:16Z</time></trkpt>
<trkpt lat="50.106274" lon="5.197302"><ele>170.59</ele><time>2025-05-24T15:28:18Z</time></trkpt>
<trkpt lat="50.106285" lon="5.196912"><ele>170.25</ele><time>2025-05-24T15:28:21Z</time></trkpt>
<trkpt lat="50.106345" lon="5.196602"><ele>170.95</ele><time>2025-05-24T15:28:23Z</time></trkpt>
<trkpt lat="50.106901" lon="5.196899"><ele>172.0</ele><time>2025-05-24T15:28:29Z</time></trkpt>
<trkpt lat="50.107014" lon="5.19629"><ele>171.75</ele><time>2025-05-24T15:28:34Z</time></trkpt>
<trkpt lat="50.107022" lon="5.196141"><ele>171.72</ele><time>2025-05-24T15:28:39Z</time></trkpt>
<trkpt lat="50.106987" lon="5.195707"><ele>171.85</ele><time>2025-05-24T15:28:43Z</time></trkpt>
<trkpt lat="50.106759" lon="5.194284"><ele>171.58</ele><time>2025-05-24T15:28:48Z</time></trkpt>
<trkpt lat="50.106643" lon="5.193958"><ele>172.25</ele><time>2025-05-24T15:28:52Z</time></trkpt>
<trkpt lat="50.106471" lon="5.193665"><ele>173.08</ele><time>2025-05-24T15:28:57Z</time></trkpt>
<trkpt lat="50.106471" lon="5.193665"><ele>173.08</ele><time>2025-05-24T15:28:57Z</time></trkpt>
<trkpt lat="50.106402" lon="5.193547"><ele>173.91</ele><time>2025-05-24T15:28:58Z</time></trkpt>
<trkpt lat="50.106654" lon="5.193152"><ele>172.06</ele><time>2025-05-24T15:29:00Z</time></trkpt>
<trkpt lat="50.106915" lon="5.19279"><ele>173.79</ele><time>2025-05-24T15:29:02Z</time></trkpt>
<trkpt lat="50.107194" lon="5.192318"><ele>177.76</ele><time>2025-05-24T15:29:06Z</time></trkpt>
<trkpt lat="50.107287" lon="5.192047"><ele>177.89</ele><time>2025-05-24T15:29:10Z</time></trkpt>
<trkpt lat="50.107436" lon="5.191397"><ele>179.53</ele><time>2025-05-24T15:29:14Z</time></trkpt>
<trkpt lat="50.107506" lon="5.191177"><ele>180.04</ele><time>2025-05-24T15:29:18Z</time></trkpt>
<trkpt lat="50.107608" lon="5.19094"><ele>181.15</ele><time>2025-05-24T15:29:22Z</time></trkpt>
<trkpt lat="50.107987" lon="5.190214"><ele>182.0</ele><time>2025-05-24T15:29:26Z</time></trkpt>
<trkpt lat="50.108109" lon="5.189933"><ele>182.24</ele><time>2025-05-24T15:29:30Z</time></trkpt>
<trkpt lat="50.108182" lon="5.189688"><ele>183.0</ele><time>2025-05-24T15:29:34Z</time></trkpt>
<trkpt lat="50.108232" lon="5.189451"><ele>183.0</ele><time>2025-05-24T15:29:38Z</time></trkpt>
<trkpt lat="50.10854" lon="5.187589"><ele>185.25</ele><time>2025-05-24T15:29:42Z</time></trkpt>
<trkpt lat="50.10859" lon="5.187237"><ele>185.85</ele><time>2025-05-24T15:29:46Z</time></trkpt>
<trkpt lat="50.108663" lon="5.186318"><ele>189.37</ele><time>2025-05-24T15:29:50Z</time></trkpt>
<trkpt lat="50.108738" lon="5.185723"><ele>189.46</ele><time>2025-05-24T15:29:53Z</time></trkpt>
<trkpt lat="50.108826" lon="5.185233"><ele>188.77</ele><time>2025-05-24T15:29:57Z</time></trkpt>
<trkpt lat="50.108943" lon="5.184725"><ele>188.01</ele><time>2025-05-24T15:30:01Z</time></trkpt>
<trkpt lat="50.109465" lon="5.18288"><ele>186.15</ele><time>2025-05-24T15:30:05Z</time></trkpt>
<trkpt lat="50.109711" lon="5.181792"><ele>186.92</ele><time>2025-05-24T15:30:09Z</time></trkpt>
<trkpt lat="50.109908" lon="5.18103"><ele>186.18</ele><time>2025-05-24T15:30:13Z</time></trkpt>
<trkpt lat="50.110205" lon="5.18008"><ele>183.55</ele><time>2025-05-24T15:30:17Z</time></trkpt>
<trkpt lat="50.11029" lon="5.179765"><ele>183.24</ele><time>2025-05-24T15:30:21Z</time></trkpt>
<trkpt lat="50.110363" lon="5.179387"><ele>182.2</ele><time>2025-05-24T15:30:25Z</time></trkpt>
<trkpt lat="50.110453" lon="5.178807"><ele>179.74</ele><time>2025-05-24T15:30:29Z</time></trkpt>
<trkpt lat="50.110537" lon="5.178165"><ele>179.47</ele><time>2025-05-24T15:30:33Z</time></trkpt>
<trkpt lat="50.110613" lon="5.177299"><ele>180.0</ele><time>2025-05-24T15:30:37Z</time></trkpt>
<trkpt lat="50.110775" lon="5.176117"><ele>177.43</ele><time>2025-05-24T15:30:41Z</time></trkpt>
<trkpt lat="50.110996" lon="5.174798"><ele>177.59</ele><time>2025-05-24T15:30:44Z</time></trkpt>
<trkpt lat="50.111074" lon="5.174245"><ele>177.15</ele><time>2025-05-24T15:30:48Z</time></trkpt>
<trkpt lat="50.111224" lon="5.173357"><ele>174.49</ele><time>2025-05-24T15:30:52Z</time></trkpt>
<trkpt lat="50.111562" lon="5.171724"><ele>173.62</ele><time>2025-05-24T15:30:56Z</time></trkpt>
<trkpt lat="50.111601" lon="5.171344"><ele>173.76</ele><time>2025-05-24T15:31:00Z</time></trkpt>
<trkpt lat="50.111607" lon="5.171051"><ele>173.62</ele><time>2025-05-24T15:31:04Z</time></trkpt>
<trkpt lat="50.111589" lon="5.170819"><ele>173.0</ele><time>2025-05-24T15:31:08Z</time></trkpt>
<trkpt lat="50.111508" lon="5.170278"><ele>172.0</ele><time>2025-05-24T15:31:12Z</time></trkpt>
<trkpt lat="50.111479" lon="5.169147"><ele>169.32</ele><time>2025-05-24T15:31:16Z</time></trkpt>
<trkpt lat="50.111505" lon="5.168928"><ele>169.42</ele><time>2025-05-24T15:31:20Z</time></trkpt>
<trkpt lat="50.111567" lon="5.168548"><ele>171.87</ele><time>2025-05-24T15:31:24Z</time></trkpt>
<trkpt lat="50.111654" lon="5.168318"><ele>173.01</ele><time>2025-05-24T15:31:28Z</time></trkpt>
<trkpt lat="50.111852" lon="5.167954"><ele>174.67</ele><time>2025-05-24T15:31:32Z</time></trkpt>
<trkpt lat="50.11243" lon="5.167023"><ele>178.72</ele><time>2025-05-24T15:31:35Z</time></trkpt>
<trkpt lat="50.112791" lon="5.166013"><ele>180.97</ele><time>2025-05-24T15:31:39Z</time></trkpt>
<trkpt lat="50.113256" lon="5.164914"><ele>182.59</ele><time>2025-05-24T15:31:43Z</time></trkpt>
<trkpt lat="50.113303" lon="5.164768"><ele>182.94</ele><time>2025-05-24T15:31:47Z</time></trkpt>
<trkpt lat="50.113397" lon="5.164211"><ele>184.07</ele><time>2025-05-24T15:31:51Z</time></trkpt>
<trkpt lat="50.113596" lon="5.163304"><ele>188.74</ele><time>2025-05-24T15:31:55Z</time></trkpt>
<trkpt lat="50.113666" lon="5.163123"><ele>188.78</ele><time>2025-05-24T15:31:59Z</time></trkpt>
<trkpt lat="50.113763" lon="5.162955"><ele>189.64</ele><time>2025-05-24T15:32:03Z</time></trkpt>
<trkpt lat="50.114388" lon="5.162062"><ele>194.48</ele><time>2025-05-24T15:32:07Z</time></trkpt>
<trkpt lat="50.114826" lon="5.161291"><ele>197.12</ele><time>2025-05-24T15:32:11Z</time></trkpt>
<trkpt lat="50.115337" lon="5.160214"><ele>203.43</ele><time>2025-05-24T15:32:15Z</time></trkpt>
<trkpt lat="50.115337" lon="5.160214"><ele>203.43</ele><time>2025-05-24T15:32:15Z</time></trkpt>
<trkpt lat="50.115433" lon="5.160011"><ele>204.11</ele><time>2025-05-24T15:32:19Z</time></trkpt>
<trkpt lat="50.115488" lon="5.159809"><ele>204.52</ele><time>2025-05-24T15:32:24Z</time></trkpt>
<trkpt lat="50.115519" lon="5.159585"><ele>204.73</ele><time>2025-05-24T15:32:29Z</time></trkpt>
<trkpt lat="50.115622" lon="5.15833"><ele>208.73</ele><time>2025-05-24T15:32:33Z</time></trkpt>
<trkpt lat="50.115698" lon="5.158022"><ele>210.03</ele><time>2025-05-24T15:32:38Z</time></trkpt>
<trkpt lat="50.115811" lon="5.157839"><ele>210.84</ele><time>2025-05-24T15:32:43Z</time></trkpt>
<trkpt lat="50.1161" lon="5.157494"><ele>210.06</ele><time>2025-05-24T15:32:47Z</time></trkpt>
<trkpt lat="50.116204" lon="5.157277"><ele>210.2</ele><time>2025-05-24T15:32:52Z</time></trkpt>
<trkpt lat="50.116513" lon="5.156393"><ele>214.17</ele><time>2025-05-24T15:32:57Z</time></trkpt>
<trkpt lat="50.116929" lon="5.15543"><ele>217.21</ele><time>2025-05-24T15:33:01Z</time></trkpt>
<trkpt lat="50.11719" lon="5.154438"><ele>213.99</ele><time>2025-05-24T15:33:06Z</time></trkpt>
<trkpt lat="50.117514" lon="5.153635"><ele>213.95</ele><time>2025-05-24T15:33:11Z</time></trkpt>
<trkpt lat="50.117743" lon="5.15345"><ele>212.62</ele><time>2025-05-24T15:33:16Z</time></trkpt>
<trkpt lat="50.11833" lon="5.15289"><ele>207.62</ele><time>2025-05-24T15:33:22Z</time></trkpt>
<trkpt lat="50.118514" lon="5.152654"><ele>206.76</ele><time>2025-05-24T15:33:28Z</time></trkpt>
<trkpt lat="50.118717" lon="5.152297"><ele>204.92</ele><time>2025-05-24T15:33:34Z</time></trkpt>
<trkpt lat="50.118819" lon="5.152066"><ele>204.19</ele><time>2025-05-24T15:33:41Z</time></trkpt>
<trkpt lat="50.119285" lon="5.15078"><ele>199.15</ele><time>2025-05-24T15:33:47Z</time></trkpt>
<trkpt lat="50.119545" lon="5.150191"><ele>197.05</ele><time>2025-05-24T15:33:53Z</time></trkpt>
<trkpt lat="50.119665" lon="5.149822"><ele>196.79</ele><time>2025-05-24T15:34:00Z</time></trkpt>
<trkpt lat="50.119942" lon="5.14883"><ele>196.04</ele><time>2025-05-24T15:34:06Z</time></trkpt>
<trkpt lat="50.120103" lon="5.148372"><ele>195.26</ele><time>2025-05-24T15:34:12Z</time></trkpt>
<trkpt lat="50.120934" lon="5.146907"><ele>198.64</ele><time>2025-05-24T15:34:19Z</time></trkpt>
<trkpt lat="50.121325" lon="5.146103"><ele>199.25</ele><time>2025-05-24T15:34:25Z</time></trkpt>
<trkpt lat="50.121806" lon="5.145267"><ele>196.0</ele><time>2025-05-24T15:34:31Z</time></trkpt>
<trkpt lat="50.122524" lon="5.145486"><ele>193.0</ele><time>2025-05-24T15:34:33Z</time></trkpt>
<trkpt lat="50.123352" lon="5.145996"><ele>191.26</ele><time>2025-05-24T15:34:35Z</time></trkpt>
<trkpt lat="50.123522" lon="5.14605"><ele>189.71</ele><time>2025-05-24T15:34:38Z</time></trkpt>
<trkpt lat="50.123604" lon="5.146043"><ele>189.05</ele><time>2025-05-24T15:34:40Z</time></trkpt>
<trkpt lat="50.123741" lon="5.14599"><ele>187.39</ele><time>2025-05-24T15:34:42Z</time></trkpt>
<trkpt lat="50.123942" lon="5.145825"><ele>184.61</ele><time>2025-05-24T15:34:44Z</time></trkpt>
<trkpt lat="50.123869" lon="5.145631"><ele>184.97</ele><time>2025-05-24T15:34:45Z</time></trkpt>
<trkpt lat="50.123869" lon="5.145631"><ele>184.97</ele><time>2025-05-24T15:34:45Z</time></trkpt>
<trkpt lat="50.12375" lon="5.145152"><ele>187.5</ele><time>2025-05-24T15:34:50Z</time></trkpt>
<trkpt lat="50.12369" lon="5.144613"><ele>188.43</ele><time>2025-05-24T15:34:54Z</time></trkpt>
<trkpt lat="50.123684" lon="5.143601"><ele>187.95</ele><time>2025-05-24T15:34:59Z</time></trkpt>
<trkpt lat="50.123708" lon="5.142059"><ele>186.47</ele><time>2025-05-24T15:35:04Z</time></trkpt>
<trkpt lat="50.123742" lon="5.14128"><ele>187.41</ele><time>2025-05-24T15:35:09Z</time></trkpt>
<trkpt lat="50.123843" lon="5.139978"><ele>181.92</ele><time>2025-05-24T15:35:13Z</time></trkpt>
<trkpt lat="50.12388" lon="5.139"><ele>180.97</ele><time>2025-05-24T15:35:18Z</time></trkpt>
<trkpt lat="50.123897" lon="5.138101"><ele>181.16</ele><time>2025-05-24T15:35:23Z</time></trkpt>
<trkpt lat="50.123832" lon="5.137071"><ele>178.46</ele><time>2025-05-24T15:35:28Z</time></trkpt>
<trkpt lat="50.123732" lon="5.135965"><ele>178.13</ele><time>2025-05-24T15:35:32Z</time></trkpt>
<trkpt lat="50.123579" lon="5.134922"><ele>177.84</ele><time>2025-05-24T15:35:37Z</time></trkpt>
<trkpt lat="50.123004" lon="5.13164"><ele>177.34</ele><time>2025-05-24T15:35:42Z</time></trkpt>
<trkpt lat="50.122962" lon="5.131193"><ele>175.99</ele><time>2025-05-24T15:35:47Z</time></trkpt>
<trkpt lat="50.122813" lon="5.127955"><ele>171.76</ele><time>2025-05-24T15:35:51Z</time></trkpt>
<trkpt lat="50.122816" lon="5.127288"><ele>169.48</ele><time>2025-05-24T15:35:56Z</time></trkpt>
<trkpt lat="50.12292" lon="5.125546"><ele>164.97</ele><time>2025-05-24T15:36:01Z</time></trkpt>
<trkpt lat="50.122924" lon="5.124797"><ele>163.0</ele><time>2025-05-24T15:36:06Z</time></trkpt>
<trkpt lat="50.122888" lon="5.123759"><ele>162.51</ele><time>2025-05-24T15:36:10Z</time></trkpt>
<trkpt lat="50.122737" lon="5.121988"><ele>163.7</ele><time>2025-05-24T15:36:15Z</time></trkpt>
<trkpt lat="50.122706" lon="5.121334"><ele>163.0</ele><time>2025-05-24T15:36:20Z</time></trkpt>
<trkpt lat="50.122725" lon="5.120571"><ele>162.0</ele><time>2025-05-24T15:36:25Z</time></trkpt>
<trkpt lat="50.122753" lon="5.120241"><ele>160.99</ele><time>2025-05-24T15:36:29Z</time></trkpt>
<trkpt lat="50.122811" lon="5.11972"><ele>159.88</ele><time>2025-05-24T15:36:34Z</time></trkpt>
<trkpt lat="50.122999" lon="5.118395"><ele>155.8</ele><time>2025-05-24T15:36:39Z</time></trkpt>
<trkpt lat="50.123026" lon="5.117914"><ele>157.4</ele><time>2025-05-24T15:36:44Z</time></trkpt>
<trkpt lat="50.122988" lon="5.11739"><ele>159.1</ele><time>2025-05-24T15:36:48Z</time></trkpt>
<trkpt lat="50.122889" lon="5.116857"><ele>160.6</ele><time>2025-05-24T15:36:53Z</time></trkpt>
<trkpt lat="50.122726" lon="5.11639"><ele>160.19</ele><time>2025-05-24T15:36:58Z</time></trkpt>
<trkpt lat="50.121453" lon="5.113287"><ele>159.96</ele><time>2025-05-24T15:37:03Z</time></trkpt>
<trkpt lat="50.121008" lon="5.112378"><ele>162.37</ele><time>2025-05-24T15:37:07Z</time></trkpt>
<trkpt lat="50.120752" lon="5.111926"><ele>162.0</ele><time>2025-05-24T15:37:12Z</time></trkpt>
<trkpt lat="50.120483" lon="5.11149"><ele>161.83</ele><time>2025-05-24T15:37:17Z</time></trkpt>
<trkpt lat="50.119904" lon="5.110643"><ele>160.69</ele><time>2025-05-24T15:37:22Z</time></trkpt>
<trkpt lat="50.119582" lon="5.110138"><ele>161.51</ele><time>2025-05-24T15:37:26Z</time></trkpt>
<trkpt lat="50.119085" lon="5.109108"><ele>162.0</ele><time>2025-05-24T15:37:31Z</time></trkpt>
<trkpt lat="50.118612" lon="5.10806"><ele>161.02</ele><time>2025-05-24T15:37:36Z</time></trkpt>
<trkpt lat="50.118396" lon="5.107685"><ele>161.77</ele><time>2025-05-24T15:37:41Z</time></trkpt>
<trkpt lat="50.118051" lon="5.107232"><ele>162.02</ele><time>2025-05-24T15:37:45Z</time></trkpt>
<trkpt lat="50.117802" lon="5.106882"><ele>163.83</ele><time>2025-05-24T15:37:50Z</time></trkpt>
<trkpt lat="50.117496" lon="5.106294"><ele>162.63</ele><time>2025-05-24T15:37:55Z</time></trkpt>
<trkpt lat="50.116849" lon="5.10469"><ele>162.69</ele><time>2025-05-24T15:38:00Z</time></trkpt>
<trkpt lat="50.116726" lon="5.104306"><ele>164.57</ele><time>2025-05-24T15:38:04Z</time></trkpt>
<trkpt lat="50.116503" lon="5.103413"><ele>166.75</ele><time>2025-05-24T15:38:09Z</time></trkpt>
<trkpt lat="50.116361" lon="5.102744"><ele>163.09</ele><time>2025-05-24T15:38:14Z</time></trkpt>
<trkpt lat="50.115782" lon="5.099999"><ele>168.0</ele><time>2025-05-24T15:38:19Z</time></trkpt>
<trkpt lat="50.115437" lon="5.098929"><ele>169.0</ele><time>2025-05-24T15:38:23Z</time></trkpt>
<trkpt lat="50.115337" lon="5.098503"><ele>170.08</ele><time>2025-05-24T15:38:28Z</time></trkpt>
<trkpt lat="50.115156" lon="5.097467"><ele>169.0</ele><time>2025-05-24T15:38:33Z</time></trkpt>
<trkpt lat="50.114866" lon="5.096414"><ele>170.85</ele><time>2025-05-24T15:38:38Z</time></trkpt>
<trkpt lat="50.114866" lon="5.096414"><ele>170.85</ele><time>2025-05-24T15:38:38Z</time></trkpt>
<trkpt lat="50.114857" lon="5.096332"><ele>171.0</ele><time>2025-05-24T15:38:41Z</time></trkpt>
<trkpt lat="50.114867" lon="5.096237"><ele>171.0</ele><time>2025-05-24T15:38:43Z</time></trkpt>
<trkpt lat="50.114904" lon="5.096119"><ele>171.0</ele><time>2025-05-24T15:38:46Z</time></trkpt>
<trkpt lat="50.114937" lon="5.096065"><ele>171.17</ele><time>2025-05-24T15:38:49Z</time></trkpt>
<trkpt lat="50.1154" lon="5.095617"><ele>168.68</ele><time>2025-05-24T15:38:52Z</time></trkpt>
<trkpt lat="50.115452" lon="5.095501"><ele>168.19</ele><time>2025-05-24T15:38:55Z</time></trkpt>
<trkpt lat="50.115457" lon="5.095273"><ele>168.42</ele><time>2025-05-24T15:38:58Z</time></trkpt>
<trkpt lat="50.115433" lon="5.095146"><ele>168.77</ele><time>2025-05-24T15:39:01Z</time></trkpt>
<trkpt lat="50.114961" lon="5.09403"><ele>172.14</ele><time>2025-05-24T15:39:04Z</time></trkpt>
<trkpt lat="50.114856" lon="5.093623"><ele>172.52</ele><time>2025-05-24T15:39:07Z</time></trkpt>
<trkpt lat="50.114998" lon="5.093451"><ele>172.01</ele><time>2025-05-24T15:39:12Z</time></trkpt>
<trkpt lat="50.115464" lon="5.093248"><ele>167.33</ele><time>2025-05-24T15:39:16Z</time></trkpt>
<trkpt lat="50.115718" lon="5.093081"><ele>165.88</ele><time>2025-05-24T15:39:21Z</time></trkpt>
<trkpt lat="50.115793" lon="5.09301"><ele>165.29</ele><time>2025-05-24T15:39:26Z</time></trkpt>
<trkpt lat="50.115983" lon="5.092814"><ele>163.99</ele><time>2025-05-24T15:39:30Z</time></trkpt>
<trkpt lat="50.116047" lon="5.09278"><ele>163.47</ele><time>2025-05-24T15:39:35Z</time></trkpt>
<trkpt lat="50.116101" lon="5.092779"><ele>163.08</ele><time>2025-05-24T15:39:40Z</time></trkpt>
<trkpt lat="50.116183" lon="5.092851"><ele>163.0</ele><time>2025-05-24T15:39:44Z</time></trkpt>
<trkpt lat="50.116334" lon="5.093035"><ele>163.12</ele><time>2025-05-24T15:39:49Z</time></trkpt>
<trkpt lat="50.116423" lon="5.093066"><ele>163.03</ele><time>2025-05-24T15:39:53Z</time></trkpt>
<trkpt lat="50.116475" lon="5.093037"><ele>162.95</ele><time>2025-05-24T15:39:58Z</time></trkpt>
<trkpt lat="50.11703" lon="5.092498"><ele>162.0</ele><time>2025-05-24T15:40:03Z</time></trkpt>
<trkpt lat="50.122928" lon="5.086565"><ele>165.71</ele><time>2025-05-24T15:40:07Z</time></trkpt>
<trkpt lat="50.123322" lon="5.086256"><ele>166.96</ele><time>2025-05-24T15:40:12Z</time></trkpt>
<trkpt lat="50.123612" lon="5.086058"><ele>167.19</ele><time>2025-05-24T15:40:16Z</time></trkpt>
<trkpt lat="50.123843" lon="5.085792"><ele>168.98</ele><time>2025-05-24T15:40:21Z</time></trkpt>
<trkpt lat="50.125315" lon="5.083775"><ele>180.95</ele><time>2025-05-24T15:40:26Z</time></trkpt>
<trkpt lat="50.126918" lon="5.081691"><ele>193.63</ele><time>2025-05-24T15:40:30Z</time></trkpt>
<trkpt lat="50.127044" lon="5.081385"><ele>194.07</ele><time>2025-05-24T15:40:35Z</time></trkpt>
<trkpt lat="50.127067" lon="5.081192"><ele>194.01</ele><time>2025-05-24T15:40:40Z</time></trkpt>
<trkpt lat="50.127047" lon="5.080923"><ele>191.89</ele><time>2025-05-24T15:40:44Z</time></trkpt>
<trkpt lat="50.126823" lon="5.080243"><ele>188.0</ele><time>2025-05-24T15:40:49Z</time></trkpt>
<trkpt lat="50.126607" lon="5.079469"><ele>184.04</ele><time>2025-05-24T15:40:53Z</time></trkpt>
<trkpt lat="50.126412" lon="5.078887"><ele>180.73</ele><time>2025-05-24T15:40:58Z</time></trkpt>
<trkpt lat="50.12626" lon="5.078493"><ele>177.38</ele><time>2025-05-24T15:41:03Z</time></trkpt>
<trkpt lat="50.126081" lon="5.078162"><ele>175.32</ele><time>2025-05-24T15:41:07Z</time></trkpt>
<trkpt lat="50.125867" lon="5.077885"><ele>175.07</ele><time>2025-05-24T15:41:12Z</time></trkpt>
<trkpt lat="50.125565" lon="5.077561"><ele>174.4</ele><time>2025-05-24T15:41:16Z</time></trkpt>
<trkpt lat="50.12549" lon="5.077443"><ele>173.87</ele><time>2025-05-24T15:41:21Z</time></trkpt>
<trkpt lat="50.12548" lon="5.077294"><ele>172.99</ele><time>2025-05-24T15:41:26Z</time></trkpt>
<trkpt lat="50.125508" lon="5.077203"><ele>172.07</ele><time>2025-05-24T15:41:30Z</time></trkpt>
<trkpt lat="50.125579" lon="5.077164"><ele>171.11</ele><time>2025-05-24T15:41:35Z</time></trkpt>
<trkpt lat="50.125682" lon="5.077208"><ele>171.39</ele><time>2025-05-24T15:41:40Z</time></trkpt>
<trkpt lat="50.125874" lon="5.077402"><ele>171.71</ele><time>2025-05-24T15:41:44Z</time></trkpt>
<trkpt lat="50.126051" lon="5.077553"><ele>170.39</ele><time>2025-05-24T15:41:49Z</time></trkpt>
<trkpt lat="50.126179" lon="5.077632"><ele>169.58</ele><time>2025-05-24T15:41:53Z</time></trkpt>
<trkpt lat="50.126319" lon="5.077692"><ele>168.31</ele><time>2025-05-24T15:41:58Z</time></trkpt>
<trkpt lat="50.126607" lon="5.077758"><ele>166.34</ele><time>2025-05-24T15:42:03Z</time></trkpt>
<trkpt lat="50.126886" lon="5.077754"><ele>167.42</ele><time>2025-05-24T15:42:07Z</time></trkpt>
<trkpt lat="50.127099" lon="5.077656"><ele>166.88</ele><time>2025-05-24T15:42:12Z</time></trkpt>
<trkpt lat="50.12733" lon="5.077424"><ele>164.06</ele><time>2025-05-24T15:42:16Z</time></trkpt>
<trkpt lat="50.127594" lon="5.077056"><ele>160.87</ele><time>2025-05-24T15:42:21Z</time></trkpt>
<trkpt lat="50.127773" lon="5.076627"><ele>160.69</ele><time>2025-05-24T15:42:26Z</time></trkpt>
<trkpt lat="50.129548" lon="5.068978"><ele>149.74</ele><time>2025-05-24T15:42:30Z</time></trkpt>
<trkpt lat="50.130191" lon="5.066137"><ele>151.46</ele><time>2025-05-24T15:42:35Z</time></trkpt>
<trkpt lat="50.13049" lon="5.064536"><ele>148.18</ele><time>2025-05-24T15:42:40Z</time></trkpt>
<trkpt lat="50.130728" lon="5.062715"><ele>149.74</ele><time>2025-05-24T15:42:44Z</time></trkpt>
<trkpt lat="50.131721" lon="5.053818"><ele>136.99</ele><time>2025-05-24T15:42:49Z</time></trkpt>
<trkpt lat="50.131804" lon="5.05334"><ele>136.99</ele><time>2025-05-24T15:42:53Z</time></trkpt>
<trkpt lat="50.131888" lon="5.053053"><ele>137.8</ele><time>2025-05-24T15:42:58Z</time></trkpt>
<trkpt lat="50.132088" lon="5.052693"><ele>138.36</ele><time>2025-05-24T15:43:03Z</time></trkpt>
<trkpt lat="50.132218" lon="5.052557"><ele>138.2</ele><time>2025-05-24T15:43:07Z</time></trkpt>
<trkpt lat="50.13597" lon="5.049123"><ele>135.0</ele><time>2025-05-24T15:43:12Z</time></trkpt>
<trkpt lat="50.135294" lon="5.047707"><ele>135.88</ele><time>2025-05-24T15:43:23Z</time></trkpt>
<trkpt lat="50.13363" lon="5.044199"><ele>138.12</ele><time>2025-05-24T15:43:34Z</time></trkpt>
<trkpt lat="50.133412" lon="5.043622"><ele>137.76</ele><time>2025-05-24T15:43:45Z</time></trkpt>
<trkpt lat="50.13258" lon="5.040787"><ele>138.42</ele><time>2025-05-24T15:43:56Z</time></trkpt>
<trkpt lat="50.132182" lon="5.03932"><ele>139.14</ele><time>2025-05-24T15:44:07Z</time></trkpt>
<trkpt lat="50.131878" lon="5.038533"><ele>138.72</ele><time>2025-05-24T15:44:18Z</time></trkpt>
<trkpt lat="50.131733" lon="5.037927"><ele>136.89</ele><time>2025-05-24T15:44:29Z</time></trkpt>
<trkpt lat="50.131497" lon="5.036447"><ele>133.08</ele><time>2025-05-24T15:44:40Z</time></trkpt>
<trkpt lat="50.131478" lon="5.036324"><ele>133.0</ele><time>2025-05-24T15:44:51Z</time></trkpt>
<trkpt lat="50.131473" lon="5.036297"><ele>133.0</ele><time>2025-05-24T15:45:02Z</time></trkpt>
<trkpt lat="50.131359" lon="5.035558"><ele>133.89</ele><time>2025-05-24T15:45:13Z</time></trkpt>
<trkpt lat="50.131845" lon="5.034555"><ele>134.0</ele><time>2025-05-24T15:45:17Z</time></trkpt>
<trkpt lat="50.131889" lon="5.03433"><ele>134.41</ele><time>2025-05-24T15:45:21Z</time></trkpt>
<trkpt lat="50.131954" lon="5.033768"><ele>135.43</ele><time>2025-05-24T15:45:25Z</time></trkpt>
<trkpt lat="50.132008" lon="5.033565"><ele>136.0</ele><time>2025-05-24T15:45:29Z</time></trkpt>
<trkpt lat="50.132071" lon="5.03351"><ele>136.0</ele><time>2025-05-24T15:45:33Z</time></trkpt>
<trkpt lat="50.132036" lon="5.033457"><ele>136.0</ele><time>2025-05-24T15:46:04Z</time></trkpt>
<trkpt lat="50.132036" lon="5.033457"><ele>136.0</ele><time>2025-05-24T15:46:04Z</time></trkpt>
<trkpt lat="50.132071" lon="5.03351"><ele>136.0</ele><time>2025-05-24T15:46:05Z</time></trkpt>
<trkpt lat="50.132284" lon="5.033295"><ele>135.97</ele><time>2025-05-24T15:46:09Z</time></trkpt>
<trkpt lat="50.132864" lon="5.032889"><ele>133.0</ele><time>2025-05-24T15:46:14Z</time></trkpt>
<trkpt lat="50.133058" lon="5.03284"><ele>133.01</ele><time>2025-05-24T15:46:19Z</time></trkpt>
<trkpt lat="50.136165" lon="5.032488"><ele>137.0</ele><time>2025-05-24T15:46:24Z</time></trkpt>
<trkpt lat="50.136631" lon="5.032314"><ele>138.74</ele><time>2025-05-24T15:46:28Z</time></trkpt>
<trkpt lat="50.137544" lon="5.031913"><ele>141.84</ele><time>2025-05-24T15:46:33Z</time></trkpt>
<trkpt lat="50.140109" lon="5.030908"><ele>147.39</ele><time>2025-05-24T15:46:38Z</time></trkpt>
<trkpt lat="50.144612" lon="5.029482"><ele>171.81</ele><time>2025-05-24T15:46:43Z</time></trkpt>
<trkpt lat="50.144925" lon="5.029424"><ele>175.99</ele><time>2025-05-24T15:46:47Z</time></trkpt>
<trkpt lat="50.1451" lon="5.029645"><ele>178.07</ele><time>2025-05-24T15:46:52Z</time></trkpt>
<trkpt lat="50.145184" lon="5.029963"><ele>178.98</ele><time>2025-05-24T15:46:57Z</time></trkpt>
<trkpt lat="50.145274" lon="5.030434"><ele>179.4</ele><time>2025-05-24T15:47:02Z</time></trkpt>
<trkpt lat="50.145353" lon="5.031118"><ele>179.82</ele><time>2025-05-24T15:47:06Z</time></trkpt>
<trkpt lat="50.145383" lon="5.031791"><ele>180.96</ele><time>2025-05-24T15:47:11Z</time></trkpt>
<trkpt lat="50.14545" lon="5.032176"><ele>183.83</ele><time>2025-05-24T15:47:16Z</time></trkpt>
<trkpt lat="50.145565" lon="5.032565"><ele>184.83</ele><time>2025-05-24T15:47:21Z</time></trkpt>
<trkpt lat="50.145973" lon="5.03331"><ele>185.09</ele><time>2025-05-24T15:47:25Z</time></trkpt>
<trkpt lat="50.146124" lon="5.033538"><ele>186.1</ele><time>2025-05-24T15:47:30Z</time></trkpt>
<trkpt lat="50.148799" lon="5.036418"><ele>203.93</ele><time>2025-05-24T15:47:35Z</time></trkpt>
<trkpt lat="50.148921" lon="5.036506"><ele>204.93</ele><time>2025-05-24T15:47:40Z</time></trkpt>
<trkpt lat="50.149013" lon="5.036526"><ele>205.85</ele><time>2025-05-24T15:47:44Z</time></trkpt>
<trkpt lat="50.149169" lon="5.03648"><ele>207.68</ele><time>2025-05-24T15:47:49Z</time></trkpt>
<trkpt lat="50.149264" lon="5.036383"><ele>208.7</ele><time>2025-05-24T15:47:54Z</time></trkpt>
<trkpt lat="50.149414" lon="5.036054"><ele>210.71</ele><time>2025-05-24T15:47:59Z</time></trkpt>
<trkpt lat="50.1499" lon="5.034756"><ele>212.67</ele><time>2025-05-24T15:48:03Z</time></trkpt>
<trkpt lat="50.14998" lon="5.034587"><ele>212.15</ele><time>2025-05-24T15:48:08Z</time></trkpt>
<trkpt lat="50.150256" lon="5.033866"><ele>213.01</ele><time>2025-05-24T15:48:13Z</time></trkpt>
<trkpt lat="50.150445" lon="5.033448"><ele>210.19</ele><time>2025-05-24T15:48:18Z</time></trkpt>
<trkpt lat="50.150643" lon="5.033342"><ele>208.68</ele><time>2025-05-24T15:48:22Z</time></trkpt>
<trkpt lat="50.151817" lon="5.033249"><ele>207.07</ele><time>2025-05-24T15:48:27Z</time></trkpt>
<trkpt lat="50.152455" lon="5.033163"><ele>203.77</ele><time>2025-05-24T15:48:32Z</time></trkpt>
<trkpt lat="50.152774" lon="5.033282"><ele>201.4</ele><time>2025-05-24T15:48:37Z</time></trkpt>
<trkpt lat="50.153044" lon="5.033483"><ele>198.96</ele><time>2025-05-24T15:48:41Z</time></trkpt>
<trkpt lat="50.154706" lon="5.034846"><ele>189.49</ele><time>2025-05-24T15:48:46Z</time></trkpt>
<trkpt lat="50.155629" lon="5.03565"><ele>183.47</ele><time>2025-05-24T15:48:51Z</time></trkpt>
<trkpt lat="50.155873" lon="5.03565"><ele>181.57</ele><time>2025-05-24T15:48:56Z</time></trkpt>
<trkpt lat="50.158048" lon="5.03391"><ele>168.0</ele><time>2025-05-24T15:49:00Z</time></trkpt>
<trkpt lat="50.158895" lon="5.033712"><ele>168.61</ele><time>2025-05-24T15:49:05Z</time></trkpt>
<trkpt lat="50.159004" lon="5.033835"><ele>167.78</ele><time>2025-05-24T15:49:10Z</time></trkpt>
<trkpt lat="50.159453" lon="5.035279"><ele>165.0</ele><time>2025-05-24T15:49:15Z</time></trkpt>
<trkpt lat="50.159664" lon="5.035902"><ele>166.62</ele><time>2025-05-24T15:49:19Z</time></trkpt>
<trkpt lat="50.159915" lon="5.036462"><ele>167.35</ele><time>2025-05-24T15:49:24Z</time></trkpt>
<trkpt lat="50.160482" lon="5.036932"><ele>169.47</ele><time>2025-05-24T15:49:29Z</time></trkpt>
<trkpt lat="50.161355" lon="5.038223"><ele>171.4</ele><time>2025-05-24T15:49:34Z</time></trkpt>
<trkpt lat="50.161782" lon="5.038749"><ele>171.71</ele><time>2025-05-24T15:49:39Z</time></trkpt>
<trkpt lat="50.162157" lon="5.037876"><ele>173.76</ele><time>2025-05-24T15:49:42Z</time></trkpt>
<trkpt lat="50.162372" lon="5.037328"><ele>175.07</ele><time>2025-05-24T15:49:45Z</time></trkpt>
<trkpt lat="50.162751" lon="5.036881"><ele>177.93</ele><time>2025-05-24T15:49:48Z</time></trkpt>
<trkpt lat="50.165597" lon="5.032902"><ele>188.47</ele><time>2025-05-24T15:49:51Z</time></trkpt>
<trkpt lat="50.166691" lon="5.030857"><ele>180.09</ele><time>2025-05-24T15:49:54Z</time></trkpt>
<trkpt lat="50.166973" lon="5.029979"><ele>175.65</ele><time>2025-05-24T15:49:58Z</time></trkpt>
<trkpt lat="50.167211" lon="5.029095"><ele>169.12</ele><time>2025-05-24T15:50:01Z</time></trkpt>
<trkpt lat="50.167499" lon="5.028144"><ele>167.32</ele><time>2025-05-24T15:50:04Z</time></trkpt>
<trkpt lat="50.168165" lon="5.027378"><ele>167.0</ele><time>2025-05-24T15:50:07Z</time></trkpt>
<trkpt lat="50.168238" lon="5.027259"><ele>167.0</ele><time>2025-05-24T15:50:10Z</time></trkpt>
<trkpt lat="50.16826" lon="5.027091"><ele>166.87</ele><time>2025-05-24T15:50:13Z</time></trkpt>
<trkpt lat="50.168234" lon="5.026907"><ele>166.64</ele><time>2025-05-24T15:50:17Z</time></trkpt>
<trkpt lat="50.168037" lon="5.026783"><ele>165.96</ele><time>2025-05-24T15:50:20Z</time></trkpt>
<trkpt lat="50.16791" lon="5.026648"><ele>165.44</ele><time>2025-05-24T15:50:23Z</time></trkpt>
<trkpt lat="50.167794" lon="5.026319"><ele>164.12</ele><time>2025-05-24T15:50:26Z</time></trkpt>
<trkpt lat="50.167338" lon="5.02485"><ele>158.7</ele><time>2025-05-24T15:50:29Z</time></trkpt>
<trkpt lat="50.167104" lon="5.023798"><ele>154.83</ele><time>2025-05-24T15:50:32Z</time></trkpt>
<trkpt lat="50.167043" lon="5.023363"><ele>152.21</ele><time>2025-05-24T15:50:36Z</time></trkpt>
<trkpt lat="50.167032" lon="5.022967"><ele>149.46</ele><time>2025-05-24T15:50:39Z</time></trkpt>
<trkpt lat="50.167076" lon="5.02272"><ele>148.75</ele><time>2025-05-24T15:50:42Z</time></trkpt>
<trkpt lat="50.167338" lon="5.02204"><ele>147.52</ele><time>2025-05-24T15:50:45Z</time></trkpt>
<trkpt lat="50.167791" lon="5.020159"><ele>140.02</ele><time>2025-05-24T15:50:48Z</time></trkpt>
<trkpt lat="50.167816" lon="5.019848"><ele>144.29</ele><time>2025-05-24T15:50:52Z</time></trkpt>
<trkpt lat="50.16768" lon="5.019592"><ele>147.31</ele><time>2025-05-24T15:50:55Z</time></trkpt>
<trkpt lat="50.167225" lon="5.019132"><ele>147.15</ele><time>2025-05-24T15:50:58Z</time></trkpt>
<trkpt lat="50.167026" lon="5.018878"><ele>148.1</ele><time>2025-05-24T15:51:01Z</time></trkpt>
<trkpt lat="50.166999" lon="5.018513"><ele>151.16</ele><time>2025-05-24T15:51:04Z</time></trkpt>
<trkpt lat="50.167002" lon="5.018064"><ele>153.99</ele><time>2025-05-24T15:51:07Z</time></trkpt>
<trkpt lat="50.16695" lon="5.016726"><ele>156.07</ele><time>2025-05-24T15:51:11Z</time></trkpt>
<trkpt lat="50.167022" lon="5.016392"><ele>157.55</ele><time>2025-05-24T15:51:14Z</time></trkpt>
<trkpt lat="50.167137" lon="5.016112"><ele>157.69</ele><time>2025-05-24T15:51:17Z</time></trkpt>
<trkpt lat="50.167286" lon="5.015858"><ele>158.28</ele><time>2025-05-24T15:51:20Z</time></trkpt>
<trkpt lat="50.167686" lon="5.015645"><ele>165.11</ele><time>2025-05-24T15:51:23Z</time></trkpt>
<trkpt lat="50.167878" lon="5.015414"><ele>168.11</ele><time>2025-05-24T15:51:26Z</time></trkpt>
<trkpt lat="50.168169" lon="5.014419"><ele>168.96</ele><time>2025-05-24T15:51:30Z</time></trkpt>
<trkpt lat="50.168257" lon="5.013894"><ele>168.27</ele><time>2025-05-24T15:51:33Z</time></trkpt>
<trkpt lat="50.168297" lon="5.013109"><ele>167.92</ele><time>2025-05-24T15:51:36Z</time></trkpt>
<trkpt lat="50.168382" lon="5.012789"><ele>168.35</ele><time>2025-05-24T15:51:39Z</time></trkpt>
<trkpt lat="50.168584" lon="5.012607"><ele>169.81</ele><time>2025-05-24T15:51:42Z</time></trkpt>
<trkpt lat="50.170297" lon="5.012551"><ele>167.99</ele><time>2025-05-24T15:51:46Z</time></trkpt>
<trkpt lat="50.170707" lon="5.012581"><ele>164.49</ele><time>2025-05-24T15:51:49Z</time></trkpt>
<trkpt lat="50.171405" lon="5.012885"><ele>161.33</ele><time>2025-05-24T15:51:52Z</time></trkpt>
<trkpt lat="50.171579" lon="5.012888"><ele>160.71</ele><time>2025-05-24T15:51:55Z</time></trkpt>
<trkpt lat="50.171689" lon="5.012831"><ele>160.18</ele><time>2025-05-24T15:51:58Z</time></trkpt>
<trkpt lat="50.171994" lon="5.012536"><ele>158.9</ele><time>2025-05-24T15:52:01Z</time></trkpt>
<trkpt lat="50.172318" lon="5.012415"><ele>157.87</ele><time>2025-05-24T15:52:05Z</time></trkpt>
<trkpt lat="50.172495" lon="5.012463"><ele>157.28</ele><time>2025-05-24T15:52:08Z</time></trkpt>
<trkpt lat="50.172889" lon="5.012835"><ele>155.19</ele><time>2025-05-24T15:52:11Z</time></trkpt>
<trkpt lat="50.173293" lon="5.013143"><ele>155.54</ele><time>2025-05-24T15:52:14Z</time></trkpt>
<trkpt lat="50.173611" lon="5.013305"><ele>155.0</ele><time>2025-05-24T15:52:17Z</time></trkpt>
<trkpt lat="50.173981" lon="5.013322"><ele>154.04</ele><time>2025-05-24T15:52:20Z</time></trkpt>
<trkpt lat="50.174924" lon="5.013045"><ele>152.91</ele><time>2025-05-24T15:52:24Z</time></trkpt>
<trkpt lat="50.175409" lon="5.012687"><ele>153.5</ele><time>2025-05-24T15:52:27Z</time></trkpt>
<trkpt lat="50.175652" lon="5.012603"><ele>153.76</ele><time>2025-05-24T15:52:30Z</time></trkpt>
<trkpt lat="50.178423" lon="5.013157"><ele>162.31</ele><time>2025-05-24T15:52:33Z</time></trkpt>
<trkpt lat="50.178616" lon="5.013105"><ele>161.82</ele><time>2025-05-24T15:52:36Z</time></trkpt>
<trkpt lat="50.17928" lon="5.012802"><ele>161.72</ele><time>2025-05-24T15:52:39Z</time></trkpt>
<trkpt lat="50.179789" lon="5.012707"><ele>155.65</ele><time>2025-05-24T15:52:43Z</time></trkpt>
<trkpt lat="50.18024" lon="5.012783"><ele>154.03</ele><time>2025-05-24T15:52:46Z</time></trkpt>
<trkpt lat="50.181265" lon="5.012904"><ele>148.89</ele><time>2025-05-24T15:52:49Z</time></trkpt>
<trkpt lat="50.181652" lon="5.013049"><ele>145.15</ele><time>2025-05-24T15:52:52Z</time></trkpt>
<trkpt lat="50.181928" lon="5.013073"><ele>144.06</ele><time>2025-05-24T15:52:55Z</time></trkpt>
<trkpt lat="50.182717" lon="5.012929"><ele>138.52</ele><time>2025-05-24T15:52:59Z</time></trkpt>
<trkpt lat="50.183075" lon="5.012746"><ele>136.02</ele><time>2025-05-24T15:53:02Z</time></trkpt>
<trkpt lat="50.183323" lon="5.012578"><ele>136.51</ele><time>2025-05-24T15:53:05Z</time></trkpt>
<trkpt lat="50.183615" lon="5.012318"><ele>134.7</ele><time>2025-05-24T15:53:08Z</time></trkpt>
<trkpt lat="50.184085" lon="5.012003"><ele>132.57</ele><time>2025-05-24T15:53:11Z</time></trkpt>
<trkpt lat="50.184731" lon="5.011353"><ele>126.96</ele><time>2025-05-24T15:53:14Z</time></trkpt>
<trkpt lat="50.18478" lon="5.011042"><ele>126.73</ele><time>2025-05-24T15:53:18Z</time></trkpt>
<trkpt lat="50.18487" lon="5.010869"><ele>125.88</ele><time>2025-05-24T15:53:21Z</time></trkpt>
<trkpt lat="50.184944" lon="5.010764"><ele>124.85</ele><time>2025-05-24T15:53:24Z</time></trkpt>
<trkpt lat="50.185185" lon="5.010549"><ele>123.3</ele><time>2025-05-24T15:53:27Z</time></trkpt>
<trkpt lat="50.185829" lon="5.009727"><ele>117.01</ele><time>2025-05-24T15:53:30Z</time></trkpt>
<trkpt lat="50.185924" lon="5.009561"><ele>116.61</ele><time>2025-05-24T15:53:33Z</time></trkpt>
<trkpt lat="50.185975" lon="5.009398"><ele>116.85</ele><time>2025-05-24T15:53:37Z</time></trkpt>
<trkpt lat="50.186005" lon="5.009193"><ele>118.43</ele><time>2025-05-24T15:53:40Z</time></trkpt>
<trkpt lat="50.186018" lon="5.008969"><ele>119.62</ele><time>2025-05-24T15:53:43Z</time></trkpt>
<trkpt lat="50.186024" lon="5.008509"><ele>122.36</ele><time>2025-05-24T15:53:46Z</time></trkpt>
<trkpt lat="50.18599" lon="5.007973"><ele>126.15</ele><time>2025-05-24T15:53:49Z</time></trkpt>
<trkpt lat="50.185993" lon="5.007796"><ele>127.44</ele><time>2025-05-24T15:53:53Z</time></trkpt>
<trkpt lat="50.185953" lon="5.007472"><ele>129.16</ele><time>2025-05-24T15:53:56Z</time></trkpt>
<trkpt lat="50.185985" lon="5.007394"><ele>129.55</ele><time>2025-05-24T15:53:58Z</time></trkpt>
<trkpt lat="50.186132" lon="5.007213"><ele>129.95</ele><time>2025-05-24T15:54:00Z</time></trkpt>
<trkpt lat="50.186353" lon="5.00699"><ele>130.76</ele><time>2025-05-24T15:54:02Z</time></trkpt>
<trkpt lat="50.187224" lon="5.006311"><ele>130.8</ele><time>2025-05-24T15:54:05Z</time></trkpt>
<trkpt lat="50.188339" lon="5.005161"><ele>124.76</ele><time>2025-05-24T15:54:07Z</time></trkpt>
<trkpt lat="50.188419" lon="5.005115"><ele>123.89</ele><time>2025-05-24T15:54:09Z</time></trkpt>
<trkpt lat="50.18849" lon="5.005106"><ele>123.3</ele><time>2025-05-24T15:54:11Z</time></trkpt>
<trkpt lat="50.18849" lon="5.005106"><ele>123.3</ele><time>2025-05-24T15:54:11Z</time></trkpt>
<trkpt lat="50.188499" lon="5.005105"><ele>122.72</ele><time>2025-05-24T15:54:13Z</time></trkpt>
<trkpt lat="50.188578" lon="5.005139"><ele>121.48</ele><time>2025-05-24T15:54:14Z</time></trkpt>
<trkpt lat="50.188638" lon="5.005199"><ele>120.81</ele><time>2025-05-24T15:54:16Z</time></trkpt>
<trkpt lat="50.18869" lon="5.00529"><ele>120.42</ele><time>2025-05-24T15:54:18Z</time></trkpt>
<trkpt lat="50.189091" lon="5.006163"><ele>119.0</ele><time>2025-05-24T15:54:19Z</time></trkpt>
<trkpt lat="50.189501" lon="5.006955"><ele>118.37</ele><time>2025-05-24T15:54:21Z</time></trkpt>
<trkpt lat="50.189714" lon="5.007224"><ele>118.94</ele><time>2025-05-24T15:54:22Z</time></trkpt>
<trkpt lat="50.190429" lon="5.007977"><ele>121.57</ele><time>2025-05-24T15:54:24Z</time></trkpt>
<trkpt lat="50.191055" lon="5.008667"><ele>129.4</ele><time>2025-05-24T15:54:25Z</time></trkpt>
<trkpt lat="50.191247" lon="5.00912"><ele>133.73</ele><time>2025-05-24T15:54:27Z</time></trkpt>
<trkpt lat="50.191358" lon="5.009468"><ele>136.01</ele><time>2025-05-24T15:54:29Z</time></trkpt>
<trkpt lat="50.191447" lon="5.009873"><ele>137.89</ele><time>2025-05-24T15:54:30Z</time></trkpt>
<trkpt lat="50.191495" lon="5.010285"><ele>139.29</ele><time>2025-05-24T15:54:32Z</time></trkpt>
<trkpt lat="50.191545" lon="5.012562"><ele>146.34</ele><time>2025-05-24T15:54:33Z</time></trkpt>
<trkpt lat="50.191623" lon="5.013263"><ele>144.31</ele><time>2025-05-24T15:54:35Z</time></trkpt>
<trkpt lat="50.19168" lon="5.013536"><ele>144.39</ele><time>2025-05-24T15:54:36Z</time></trkpt>
<trkpt lat="50.191808" lon="5.01391"><ele>148.57</ele><time>2025-05-24T15:54:38Z</time></trkpt>
<trkpt lat="50.192179" lon="5.014855"><ele>151.21</ele><time>2025-05-24T15:54:40Z</time></trkpt>
<trkpt lat="50.192286" lon="5.015292"><ele>153.34</ele><time>2025-05-24T15:54:41Z</time></trkpt>
<trkpt lat="50.192473" lon="5.016662"><ele>162.42</ele><time>2025-05-24T15:54:43Z</time></trkpt>
<trkpt lat="50.192592" lon="5.017276"><ele>165.25</ele><time>2025-05-24T15:54:44Z</time></trkpt>
<trkpt lat="50.19268" lon="5.017638"><ele>166.56</ele><time>2025-05-24T15:54:46Z</time></trkpt>
<trkpt lat="50.193004" lon="5.018639"><ele>174.18</ele><time>2025-05-24T15:54:47Z</time></trkpt>
<trkpt lat="50.193281" lon="5.019581"><ele>176.24</ele><time>2025-05-24T15:54:49Z</time></trkpt>
<trkpt lat="50.193415" lon="5.019985"><ele>178.2</ele><time>2025-05-24T15:54:51Z</time></trkpt>
<trkpt lat="50.193456" lon="5.020295"><ele>178.74</ele><time>2025-05-24T15:54:52Z</time></trkpt>
<trkpt lat="50.193466" lon="5.021731"><ele>183.28</ele><time>2025-05-24T15:54:54Z</time></trkpt>
<trkpt lat="50.193425" lon="5.022467"><ele>186.9</ele><time>2025-05-24T15:54:55Z</time></trkpt>
<trkpt lat="50.193427" lon="5.022691"><ele>188.16</ele><time>2025-05-24T15:54:57Z</time></trkpt>
<trkpt lat="50.193468" lon="5.022841"><ele>190.0</ele><time>2025-05-24T15:54:58Z</time></trkpt>
<trkpt lat="50.193614" lon="5.023082"><ele>194.33</ele><time>2025-05-24T15:55:00Z</time></trkpt>
<trkpt lat="50.193639" lon="5.023164"><ele>195.5</ele><time>2025-05-24T15:55:02Z</time></trkpt>
<trkpt lat="50.193619" lon="5.023264"><ele>196.32</ele><time>2025-05-24T15:55:03Z</time></trkpt>
<trkpt lat="50.193531" lon="5.023342"><ele>195.94</ele><time>2025-05-24T15:55:05Z</time></trkpt>
<trkpt lat="50.193373" lon="5.023312"><ele>193.35</ele><time>2025-05-24T15:55:06Z</time></trkpt>
<trkpt lat="50.193282" lon="5.023257"><ele>191.62</ele><time>2025-05-24T15:55:08Z</time></trkpt>
<trkpt lat="50.193042" lon="5.022949"><ele>186.12</ele><time>2025-05-24T15:55:09Z</time></trkpt>
<trkpt lat="50.192948" lon="5.022901"><ele>184.9</ele><time>2025-05-24T15:55:11Z</time></trkpt>
<trkpt lat="50.192861" lon="5.022904"><ele>184.12</ele><time>2025-05-24T15:55:13Z</time></trkpt>
<trkpt lat="50.1928" lon="5.022969"><ele>184.25</ele><time>2025-05-24T15:55:14Z</time></trkpt>
<trkpt lat="50.192768" lon="5.023082"><ele>185.18</ele><time>2025-05-24T15:55:16Z</time></trkpt>
<trkpt lat="50.192768" lon="5.023236"><ele>186.84</ele><time>2025-05-24T15:55:17Z</time></trkpt>
<trkpt lat="50.192801" lon="5.02337"><ele>188.56</ele><time>2025-05-24T15:55:19Z</time></trkpt>
<trkpt lat="50.193033" lon="5.023796"><ele>194.83</ele><time>2025-05-24T15:55:20Z</time></trkpt>
<trkpt lat="50.193097" lon="5.024054"><ele>198.32</ele><time>2025-05-24T15:55:22Z</time></trkpt>
<trkpt lat="50.193088" lon="5.024219"><ele>200.23</ele><time>2025-05-24T15:55:24Z</time></trkpt>
<trkpt lat="50.193043" lon="5.024379"><ele>201.88</ele><time>2025-05-24T15:55:25Z</time></trkpt>
<trkpt lat="50.192981" lon="5.024512"><ele>202.91</ele><time>2025-05-24T15:55:27Z</time></trkpt>
<trkpt lat="50.192711" lon="5.024858"><ele>203.76</ele><time>2025-05-24T15:55:28Z</time></trkpt>
<trkpt lat="50.192521" lon="5.025044"><ele>203.0</ele><time>2025-05-24T15:55:30Z</time></trkpt>
<trkpt lat="50.192416" lon="5.025119"><ele>202.5</ele><time>2025-05-24T15:55:31Z</time></trkpt>
<trkpt lat="50.192163" lon="5.025216"><ele>200.36</ele><time>2025-05-24T15:55:33Z</time></trkpt>
<trkpt lat="50.192099" lon="5.025294"><ele>200.44</ele><time>2025-05-24T15:55:35Z</time></trkpt>
<trkpt lat="50.192021" lon="5.025619"><ele>202.9</ele><time>2025-05-24T15:55:36Z</time></trkpt>
<trkpt lat="50.191962" lon="5.025744"><ele>202.72</ele><time>2025-05-24T15:55:38Z</time></trkpt>
<trkpt lat="50.19179" lon="5.025956"><ele>201.29</ele><time>2025-05-24T15:55:39Z</time></trkpt>
<trkpt lat="50.191754" lon="5.026105"><ele>201.83</ele><time>2025-05-24T15:55:41Z</time></trkpt>
<trkpt lat="50.191771" lon="5.026249"><ele>203.18</ele><time>2025-05-24T15:55:42Z</time></trkpt>
<trkpt lat="50.191825" lon="5.026424"><ele>204.95</ele><time>2025-05-24T15:55:44Z</time></trkpt>
<trkpt lat="50.191903" lon="5.026569"><ele>206.4</ele><time>2025-05-24T15:55:46Z</time></trkpt>
<trkpt lat="50.192013" lon="5.026621"><ele>207.45</ele><time>2025-05-24T15:55:47Z</time></trkpt>
<trkpt lat="50.192252" lon="5.02652"><ele>210.27</ele><time>2025-05-24T15:55:49Z</time></trkpt>
<trkpt lat="50.192375" lon="5.026498"><ele>211.32</ele><time>2025-05-24T15:55:50Z</time></trkpt>
<trkpt lat="50.192618" lon="5.026602"><ele>212.32</ele><time>2025-05-24T15:55:52Z</time></trkpt>
<trkpt lat="50.192915" lon="5.026832"><ele>214.87</ele><time>2025-05-24T15:55:53Z</time></trkpt>
<trkpt lat="50.193213" lon="5.027114"><ele>219.79</ele><time>2025-05-24T15:55:55Z</time></trkpt>
<trkpt lat="50.1935" lon="5.027429"><ele>223.8</ele><time>2025-05-24T15:55:57Z</time></trkpt>
<trkpt lat="50.193809" lon="5.027698"><ele>228.05</ele><time>2025-05-24T15:55:58Z</time></trkpt>
<trkpt lat="50.19406" lon="5.028015"><ele>231.32</ele><time>2025-05-24T15:56:00Z</time></trkpt>
<trkpt lat="50.194288" lon="5.028363"><ele>231.75</ele><time>2025-05-24T15:56:01Z</time></trkpt>
<trkpt lat="50.194471" lon="5.028607"><ele>234.57</ele><time>2025-05-24T15:56:03Z</time></trkpt>
<trkpt lat="50.194546" lon="5.028743"><ele>236.19</ele><time>2025-05-24T15:56:04Z</time></trkpt>
<trkpt lat="50.194582" lon="5.02888"><ele>236.98</ele><time>2025-05-24T15:56:06Z</time></trkpt>
<trkpt lat="50.194585" lon="5.028981"><ele>237.54</ele><time>2025-05-24T15:56:08Z</time></trkpt>
<trkpt lat="50.194558" lon="5.029102"><ele>237.68</ele><time>2025-05-24T15:56:09Z</time></trkpt>
<trkpt lat="50.194497" lon="5.029215"><ele>237.41</ele><time>2025-05-24T15:56:11Z</time></trkpt>
<trkpt lat="50.194399" lon="5.02925"><ele>236.58</ele><time>2025-05-24T15:56:12Z</time></trkpt>
<trkpt lat="50.193839" lon="5.028972"><ele>229.48</ele><time>2025-05-24T15:56:14Z</time></trkpt>
<trkpt lat="50.193674" lon="5.028957"><ele>228.0</ele><time>2025-05-24T15:56:15Z</time></trkpt>
<trkpt lat="50.193575" lon="5.029085"><ele>228.16</ele><time>2025-05-24T15:56:17Z</time></trkpt>
<trkpt lat="50.193564" lon="5.029228"><ele>229.29</ele><time>2025-05-24T15:56:19Z</time></trkpt>
<trkpt lat="50.19361" lon="5.029782"><ele>233.42</ele><time>2025-05-24T15:56:20Z</time></trkpt>
<trkpt lat="50.193628" lon="5.030333"><ele>237.58</ele><time>2025-05-24T15:56:22Z</time></trkpt>
<trkpt lat="50.19363" lon="5.031123"><ele>243.13</ele><time>2025-05-24T15:56:23Z</time></trkpt>
<trkpt lat="50.193495" lon="5.031958"><ele>248.41</ele><time>2025-05-24T15:56:25Z</time></trkpt>
<trkpt lat="50.193459" lon="5.032483"><ele>253.13</ele><time>2025-05-24T15:56:26Z</time></trkpt>
<trkpt lat="50.193461" lon="5.032735"><ele>254.85</ele><time>2025-05-24T15:56:28Z</time></trkpt>
<trkpt lat="50.193528" lon="5.03372"><ele>256.29</ele><time>2025-05-24T15:56:30Z</time></trkpt>
<trkpt lat="50.193595" lon="5.034346"><ele>257.72</ele><time>2025-05-24T15:56:31Z</time></trkpt>
<trkpt lat="50.194159" lon="5.037783"><ele>255.05</ele><time>2025-05-24T15:56:33Z</time></trkpt>
<trkpt lat="50.1943" lon="5.03866"><ele>254.56</ele><time>2025-05-24T15:56:36Z</time></trkpt>
<trkpt lat="50.194304" lon="5.038649"><ele>254.36</ele><time>2025-05-24T15:56:36Z</time></trkpt>
<trkpt lat="50.194304" lon="5.038649"><ele>254.36</ele><time>2025-05-24T15:56:36Z</time></trkpt>
<trkpt lat="50.194847" lon="5.037109"><ele>251.04</ele><time>2025-05-24T15:56:39Z</time></trkpt>
<trkpt lat="50.194987" lon="5.036805"><ele>250.45</ele><time>2025-05-24T15:56:42Z</time></trkpt>
<trkpt lat="50.195146" lon="5.036589"><ele>250.77</ele><time>2025-05-24T15:56:45Z</time></trkpt>
<trkpt lat="50.195826" lon="5.035867"><ele>253.19</ele><time>2025-05-24T15:56:48Z</time></trkpt>
<trkpt lat="50.202737" lon="5.028623"><ele>249.04</ele><time>2025-05-24T15:56:52Z</time></trkpt>
<trkpt lat="50.204031" lon="5.027262"><ele>238.49</ele><time>2025-05-24T15:56:55Z</time></trkpt>
<trkpt lat="50.20415" lon="5.027116"><ele>237.25</ele><time>2025-05-24T15:56:58Z</time></trkpt>
<trkpt lat="50.204351" lon="5.02676"><ele>236.66</ele><time>2025-05-24T15:57:01Z</time></trkpt>
<trkpt lat="50.204453" lon="5.026485"><ele>235.13</ele><time>2025-05-24T15:57:04Z</time></trkpt>
<trkpt lat="50.204556" lon="5.026135"><ele>233.37</ele><time>2025-05-24T15:57:07Z</time></trkpt>
<trkpt lat="50.20473" lon="5.025345"><ele>230.59</ele><time>2025-05-24T15:57:10Z</time></trkpt>
<trkpt lat="50.204847" lon="5.025017"><ele>230.44</ele><time>2025-05-24T15:57:14Z</time></trkpt>
<trkpt lat="50.205064" lon="5.02452"><ele>226.5</ele><time>2025-05-24T15:57:17Z</time></trkpt>
<trkpt lat="50.205517" lon="5.023617"><ele>217.68</ele><time>2025-05-24T15:57:20Z</time></trkpt>
<trkpt lat="50.205683" lon="5.023318"><ele>215.54</ele><time>2025-05-24T15:57:23Z</time></trkpt>
<trkpt lat="50.205786" lon="5.023171"><ele>213.91</ele><time>2025-05-24T15:57:26Z</time></trkpt>
<trkpt lat="50.205913" lon="5.023038"><ele>212.83</ele><time>2025-05-24T15:57:29Z</time></trkpt>
<trkpt lat="50.206154" lon="5.022911"><ele>213.16</ele><time>2025-05-24T15:57:33Z</time></trkpt>
<trkpt lat="50.206295" lon="5.022886"><ele>212.02</ele><time>2025-05-24T15:57:36Z</time></trkpt>
<trkpt lat="50.206426" lon="5.022907"><ele>211.05</ele><time>2025-05-24T15:57:39Z</time></trkpt>
<trkpt lat="50.206656" lon="5.023031"><ele>207.87</ele><time>2025-05-24T15:57:42Z</time></trkpt>
<trkpt lat="50.20676" lon="5.023145"><ele>206.81</ele><time>2025-05-24T15:57:45Z</time></trkpt>
<trkpt lat="50.20684" lon="5.023296"><ele>206.78</ele><time>2025-05-24T15:57:48Z</time></trkpt>
<trkpt lat="50.207009" lon="5.023778"><ele>207.98</ele><time>2025-05-24T15:57:51Z</time></trkpt>
<trkpt lat="50.207712" lon="5.02619"><ele>201.77</ele><time>2025-05-24T15:57:55Z</time></trkpt>
<trkpt lat="50.207808" lon="5.02646"><ele>200.33</ele><time>2025-05-24T15:57:58Z</time></trkpt>
<trkpt lat="50.208056" lon="5.026888"><ele>194.17</ele><time>2025-05-24T15:58:01Z</time></trkpt>
<trkpt lat="50.208207" lon="5.027071"><ele>189.48</ele><time>2025-05-24T15:58:04Z</time></trkpt>
<trkpt lat="50.208463" lon="5.027368"><ele>182.08</ele><time>2025-05-24T15:58:07Z</time></trkpt>
<trkpt lat="50.208641" lon="5.027541"><ele>179.32</ele><time>2025-05-24T15:58:10Z</time></trkpt>
<trkpt lat="50.208864" lon="5.027697"><ele>179.58</ele><time>2025-05-24T15:58:14Z</time></trkpt>
<trkpt lat="50.208986" lon="5.027736"><ele>178.75</ele><time>2025-05-24T15:58:17Z</time></trkpt>
<trkpt lat="50.209435" lon="5.027733"><ele>177.47</ele><time>2025-05-24T15:58:20Z</time></trkpt>
<trkpt lat="50.209925" lon="5.027669"><ele>180.97</ele><time>2025-05-24T15:58:23Z</time></trkpt>
<trkpt lat="50.210107" lon="5.02761"><ele>183.38</ele><time>2025-05-24T15:58:26Z</time></trkpt>
<trkpt lat="50.210472" lon="5.027379"><ele>189.87</ele><time>2025-05-24T15:58:29Z</time></trkpt>
<trkpt lat="50.210603" lon="5.027343"><ele>190.73</ele><time>2025-05-24T15:58:32Z</time></trkpt>
<trkpt lat="50.210788" lon="5.027333"><ele>190.5</ele><time>2025-05-24T15:58:36Z</time></trkpt>
<trkpt lat="50.211038" lon="5.027372"><ele>188.77</ele><time>2025-05-24T15:58:39Z</time></trkpt>
<trkpt lat="50.211431" lon="5.027484"><ele>188.72</ele><time>2025-05-24T15:58:42Z</time></trkpt>
<trkpt lat="50.21185" lon="5.027702"><ele>193.67</ele><time>2025-05-24T15:58:45Z</time></trkpt>
<trkpt lat="50.211955" lon="5.027774"><ele>195.21</ele><time>2025-05-24T15:58:48Z</time></trkpt>
<trkpt lat="50.212286" lon="5.028112"><ele>197.25</ele><time>2025-05-24T15:58:51Z</time></trkpt>
<trkpt lat="50.212687" lon="5.028626"><ele>198.36</ele><time>2025-05-24T15:58:55Z</time></trkpt>
<trkpt lat="50.212772" lon="5.02871"><ele>197.78</ele><time>2025-05-24T15:58:58Z</time></trkpt>
<trkpt lat="50.21294" lon="5.02881"><ele>199.29</ele><time>2025-05-24T15:59:01Z</time></trkpt>
<trkpt lat="50.213021" lon="5.028811"><ele>201.07</ele><time>2025-05-24T15:59:04Z</time></trkpt>
<trkpt lat="50.213103" lon="5.028762"><ele>202.98</ele><time>2025-05-24T15:59:07Z</time></trkpt>
<trkpt lat="50.213177" lon="5.028678"><ele>204.7</ele><time>2025-05-24T15:59:10Z</time></trkpt>
<trkpt lat="50.213247" lon="5.028483"><ele>207.13</ele><time>2025-05-24T15:59:13Z</time></trkpt>
<trkpt lat="50.213251" lon="5.028246"><ele>208.5</ele><time>2025-05-24T15:59:17Z</time></trkpt>
<trkpt lat="50.213209" lon="5.028078"><ele>208.52</ele><time>2025-05-24T15:59:20Z</time></trkpt>
<trkpt lat="50.21265" lon="5.026862"><ele>215.29</ele><time>2025-05-24T15:59:23Z</time></trkpt>
<trkpt lat="50.21259" lon="5.02669"><ele>215.91</ele><time>2025-05-24T15:59:26Z</time></trkpt>
<trkpt lat="50.212545" lon="5.026374"><ele>215.28</ele><time>2025-05-24T15:59:29Z</time></trkpt>
<trkpt lat="50.212583" lon="5.026062"><ele>214.95</ele><time>2025-05-24T15:59:32Z</time></trkpt>
<trkpt lat="50.212636" lon="5.025889"><ele>215.86</ele><time>2025-05-24T15:59:35Z</time></trkpt>
<trkpt lat="50.212771" lon="5.025622"><ele>217.9</ele><time>2025-05-24T15:59:39Z</time></trkpt>
<trkpt lat="50.213025" lon="5.025374"><ele>223.1</ele><time>2025-05-24T15:59:42Z</time></trkpt>
<trkpt lat="50.221576" lon="5.018914"><ele>278.43</ele><time>2025-05-24T15:59:45Z</time></trkpt>
<trkpt lat="50.221576" lon="5.018914"><ele>278.43</ele><time>2025-05-24T15:59:45Z</time></trkpt>
<trkpt lat="50.22159" lon="5.018903"><ele>279.0</ele><time>2025-05-24T15:59:45Z</time></trkpt>
<trkpt lat="50.219896" lon="5.013323"><ele>273.01</ele><time>2025-05-24T15:59:50Z</time></trkpt>
<trkpt lat="50.219821" lon="5.013121"><ele>273.49</ele><time>2025-05-24T15:59:54Z</time></trkpt>
<trkpt lat="50.21976" lon="5.013082"><ele>273.78</ele><time>2025-05-24T15:59:59Z</time></trkpt>
<trkpt lat="50.219695" lon="5.013101"><ele>273.83</ele><time>2025-05-24T16:00:04Z</time></trkpt>
<trkpt lat="50.219412" lon="5.013416"><ele>273.61</ele><time>2025-05-24T16:00:08Z</time></trkpt>
<trkpt lat="50.219178" lon="5.013625"><ele>275.97</ele><time>2025-05-24T16:00:13Z</time></trkpt>
<trkpt lat="50.218938" lon="5.012806"><ele>276.82</ele><time>2025-05-24T16:00:15Z</time></trkpt>
<trkpt lat="50.218504" lon="5.011466"><ele>276.61</ele><time>2025-05-24T16:00:18Z</time></trkpt>
<trkpt lat="50.218063" lon="5.010328"><ele>275.18</ele><time>2025-05-24T16:00:20Z</time></trkpt>
<trkpt lat="50.217624" lon="5.009278"><ele>272.4</ele><time>2025-05-24T16:00:23Z</time></trkpt>
<trkpt lat="50.217438" lon="5.008945"><ele>272.0</ele><time>2025-05-24T16:00:25Z</time></trkpt>
<trkpt lat="50.217238" lon="5.00864"><ele>271.95</ele><time>2025-05-24T16:00:28Z</time></trkpt>
<trkpt lat="50.216909" lon="5.008232"><ele>270.79</ele><time>2025-05-24T16:00:30Z</time></trkpt>
<trkpt lat="50.216584" lon="5.007713"><ele>270.23</ele><time>2025-05-24T16:00:32Z</time></trkpt>
<trkpt lat="50.216475" lon="5.007458"><ele>271.0</ele><time>2025-05-24T16:00:35Z</time></trkpt>
<trkpt lat="50.216387" lon="5.007184"><ele>270.86</ele><time>2025-05-24T16:00:37Z</time></trkpt>
<trkpt lat="50.21633" lon="5.006908"><ele>270.0</ele><time>2025-05-24T16:00:40Z</time></trkpt>
<trkpt lat="50.21633" lon="5.00667"><ele>270.0</ele><time>2025-05-24T16:00:42Z</time></trkpt>
<trkpt lat="50.216415" lon="5.006471"><ele>269.48</ele><time>2025-05-24T16:00:45Z</time></trkpt>
<trkpt lat="50.216875" lon="5.005944"><ele>270.9</ele><time>2025-05-24T16:00:47Z</time></trkpt>
<trkpt lat="50.216957" lon="5.005785"><ele>271.0</ele><time>2025-05-24T16:00:49Z</time></trkpt>
<trkpt lat="50.216986" lon="5.005569"><ele>271.0</ele><time>2025-05-24T16:00:52Z</time></trkpt>
<trkpt lat="50.216887" lon="5.004874"><ele>270.89</ele><time>2025-05-24T16:00:54Z</time></trkpt>
<trkpt lat="50.216885" lon="5.004532"><ele>271.0</ele><time>2025-05-24T16:00:57Z</time></trkpt>
<trkpt lat="50.216838" lon="5.004211"><ele>271.0</ele><time>2025-05-24T16:00:59Z</time></trkpt>
<trkpt lat="50.216673" lon="5.00387"><ele>271.07</ele><time>2025-05-24T16:01:02Z</time></trkpt>
<trkpt lat="50.216457" lon="5.003227"><ele>270.4</ele><time>2025-05-24T16:01:04Z</time></trkpt>
<trkpt lat="50.216414" lon="5.002845"><ele>270.09</ele><time>2025-05-24T16:01:07Z</time></trkpt>
<trkpt lat="50.216338" lon="5.002538"><ele>268.95</ele><time>2025-05-24T16:01:09Z</time></trkpt>
<trkpt lat="50.215913" lon="5.002083"><ele>267.5</ele><time>2025-05-24T16:01:11Z</time></trkpt>
<trkpt lat="50.215455" lon="5.00106"><ele>259.75</ele><time>2025-05-24T16:01:14Z</time></trkpt>
<trkpt lat="50.214681" lon="4.999764"><ele>253.87</ele><time>2025-05-24T16:01:16Z</time></trkpt>
<trkpt lat="50.214424" lon="4.999438"><ele>253.05</ele><time>2025-05-24T16:01:19Z</time></trkpt>
<trkpt lat="50.213505" lon="4.998648"><ele>254.51</ele><time>2025-05-24T16:01:21Z</time></trkpt>
<trkpt lat="50.212988" lon="4.997996"><ele>253.84</ele><time>2025-05-24T16:01:24Z</time></trkpt>
<trkpt lat="50.21246" lon="4.997418"><ele>252.41</ele><time>2025-05-24T16:01:26Z</time></trkpt>
<trkpt lat="50.212137" lon="4.996801"><ele>247.82</ele><time>2025-05-24T16:01:28Z</time></trkpt>
<trkpt lat="50.211314" lon="4.995586"><ele>245.13</ele><time>2025-05-24T16:01:31Z</time></trkpt>
<trkpt lat="50.211198" lon="4.995373"><ele>244.18</ele><time>2025-05-24T16:01:33Z</time></trkpt>
<trkpt lat="50.211122" lon="4.995189"><ele>244.35</ele><time>2025-05-24T16:01:36Z</time></trkpt>
<trkpt lat="50.210678" lon="4.99389"><ele>236.88</ele><time>2025-05-24T16:01:38Z</time></trkpt>
<trkpt lat="50.209823" lon="4.991292"><ele>223.1</ele><time>2025-05-24T16:01:41Z</time></trkpt>
<trkpt lat="50.209728" lon="4.990867"><ele>220.21</ele><time>2025-05-24T16:01:43Z</time></trkpt>
<trkpt lat="50.209675" lon="4.99073"><ele>219.69</ele><time>2025-05-24T16:01:45Z</time></trkpt>
<trkpt lat="50.209463" lon="4.990375"><ele>219.37</ele><time>2025-05-24T16:01:48Z</time></trkpt>
<trkpt lat="50.209168" lon="4.989952"><ele>217.66</ele><time>2025-05-24T16:01:50Z</time></trkpt>
<trkpt lat="50.208901" lon="4.989495"><ele>213.44</ele><time>2025-05-24T16:01:53Z</time></trkpt>
<trkpt lat="50.208773" lon="4.989311"><ele>212.1</ele><time>2025-05-24T16:01:55Z</time></trkpt>
<trkpt lat="50.208688" lon="4.989162"><ele>211.26</ele><time>2025-05-24T16:01:58Z</time></trkpt>
<trkpt lat="50.208509" lon="4.988736"><ele>209.62</ele><time>2025-05-24T16:02:00Z</time></trkpt>
<trkpt lat="50.20845" lon="4.988484"><ele>209.26</ele><time>2025-05-24T16:02:02Z</time></trkpt>
<trkpt lat="50.208389" lon="4.987841"><ele>205.06</ele><time>2025-05-24T16:02:05Z</time></trkpt>
<trkpt lat="50.208408" lon="4.987741"><ele>204.67</ele><time>2025-05-24T16:02:07Z</time></trkpt>
<trkpt lat="50.208535" lon="4.987361"><ele>204.67</ele><time>2025-05-24T16:02:10Z</time></trkpt>
<trkpt lat="50.208527" lon="4.987278"><ele>204.3</ele><time>2025-05-24T16:02:12Z</time></trkpt>
<trkpt lat="50.20849" lon="4.987212"><ele>203.74</ele><time>2025-05-24T16:02:15Z</time></trkpt>
<trkpt lat="50.208249" lon="4.986935"><ele>203.15</ele><time>2025-05-24T16:02:17Z</time></trkpt>
<trkpt lat="50.208179" lon="4.986359"><ele>206.45</ele><time>2025-05-24T16:02:20Z</time></trkpt>
<trkpt lat="50.208178" lon="4.986199"><ele>207.0</ele><time>2025-05-24T16:02:22Z</time></trkpt>
<trkpt lat="50.20822" lon="4.986094"><ele>207.84</ele><time>2025-05-24T16:02:24Z</time></trkpt>
<trkpt lat="50.20867" lon="4.985947"><ele>211.01</ele><time>2025-05-24T16:02:27Z</time></trkpt>
<trkpt lat="50.208753" lon="4.985894"><ele>211.8</ele><time>2025-05-24T16:02:29Z</time></trkpt>
<trkpt lat="50.20884" lon="4.985784"><ele>212.68</ele><time>2025-05-24T16:02:32Z</time></trkpt>
<trkpt lat="50.208483" lon="4.981079"><ele>228.06</ele><time>2025-05-24T16:02:34Z</time></trkpt>
<trkpt lat="50.208467" lon="4.980789"><ele>228.48</ele><time>2025-05-24T16:02:36Z</time></trkpt>
<trkpt lat="50.208473" lon="4.980566"><ele>228.5</ele><time>2025-05-24T16:02:37Z</time></trkpt>
<trkpt lat="50.208515" lon="4.980173"><ele>229.13</ele><time>2025-05-24T16:02:39Z</time></trkpt>
<trkpt lat="50.208569" lon="4.979901"><ele>229.51</ele><time>2025-05-24T16:02:41Z</time></trkpt>
<trkpt lat="50.208694" lon="4.979502"><ele>230.55</ele><time>2025-05-24T16:02:43Z</time></trkpt>
<trkpt lat="50.210203" lon="4.975719"><ele>227.46</ele><time>2025-05-24T16:02:45Z</time></trkpt>
<trkpt lat="50.210309" lon="4.97537"><ele>227.44</ele><time>2025-05-24T16:02:47Z</time></trkpt>
<trkpt lat="50.210369" lon="4.974959"><ele>226.22</ele><time>2025-05-24T16:02:49Z</time></trkpt>
<trkpt lat="50.210379" lon="4.974752"><ele>225.29</ele><time>2025-05-24T16:02:51Z</time></trkpt>
<trkpt lat="50.210369" lon="4.974503"><ele>224.83</ele><time>2025-05-24T16:02:53Z</time></trkpt>
<trkpt lat="50.210277" lon="4.973649"><ele>220.29</ele><time>2025-05-24T16:02:55Z</time></trkpt>
<trkpt lat="50.210143" lon="4.973105"><ele>220.29</ele><time>2025-05-24T16:02:56Z</time></trkpt>
<trkpt lat="50.209967" lon="4.972473"><ele>221.62</ele><time>2025-05-24T16:02:58Z</time></trkpt>
<trkpt lat="50.209906" lon="4.972194"><ele>221.69</ele><time>2025-05-24T16:03:00Z</time></trkpt>
<trkpt lat="50.209874" lon="4.972008"><ele>220.34</ele><time>2025-05-24T16:03:02Z</time></trkpt>
<trkpt lat="50.209775" lon="4.971098"><ele>216.79</ele><time>2025-05-24T16:03:04Z</time></trkpt>
<trkpt lat="50.20963" lon="4.970271"><ele>214.59</ele><time>2025-05-24T16:03:06Z</time></trkpt>
<trkpt lat="50.209624" lon="4.97006"><ele>213.24</ele><time>2025-05-24T16:03:08Z</time></trkpt>
<trkpt lat="50.209647" lon="4.969331"><ele>205.78</ele><time>2025-05-24T16:03:10Z</time></trkpt>
<trkpt lat="50.209523" lon="4.968409"><ele>203.96</ele><time>2025-05-24T16:03:12Z</time></trkpt>
<trkpt lat="50.209505" lon="4.968206"><ele>203.98</ele><time>2025-05-24T16:03:14Z</time></trkpt>
<trkpt lat="50.209486" lon="4.967542"><ele>201.27</ele><time>2025-05-24T16:03:15Z</time></trkpt>
<trkpt lat="50.20947" lon="4.967409"><ele>200.67</ele><time>2025-05-24T16:03:17Z</time></trkpt>
<trkpt lat="50.209435" lon="4.967265"><ele>200.37</ele><time>2025-05-24T16:03:19Z</time></trkpt>
<trkpt lat="50.209382" lon="4.967152"><ele>198.68</ele><time>2025-05-24T16:03:21Z</time></trkpt>
<trkpt lat="50.209304" lon="4.967047"><ele>196.58</ele><time>2025-05-24T16:03:23Z</time></trkpt>
<trkpt lat="50.209173" lon="4.966949"><ele>195.07</ele><time>2025-05-24T16:03:25Z</time></trkpt>
<trkpt lat="50.208458" lon="4.966573"><ele>195.53</ele><time>2025-05-24T16:03:27Z</time></trkpt>
<trkpt lat="50.208405" lon="4.966518"><ele>194.51</ele><time>2025-05-24T16:03:29Z</time></trkpt>
<trkpt lat="50.208402" lon="4.966401"><ele>190.44</ele><time>2025-05-24T16:03:31Z</time></trkpt>
<trkpt lat="50.208423" lon="4.966362"><ele>188.86</ele><time>2025-05-24T16:03:33Z</time></trkpt>
<trkpt lat="50.208518" lon="4.966353"><ele>187.25</ele><time>2025-05-24T16:03:34Z</time></trkpt>
<trkpt lat="50.20883" lon="4.966516"><ele>187.61</ele><time>2025-05-24T16:03:36Z</time></trkpt>
<trkpt lat="50.20942" lon="4.966613"><ele>185.83</ele><time>2025-05-24T16:03:38Z</time></trkpt>
<trkpt lat="50.209554" lon="4.966668"><ele>184.67</ele><time>2025-05-24T16:03:40Z</time></trkpt>
<trkpt lat="50.209624" lon="4.966735"><ele>184.43</ele><time>2025-05-24T16:03:42Z</time></trkpt>
<trkpt lat="50.209694" lon="4.966881"><ele>185.55</ele><time>2025-05-24T16:03:44Z</time></trkpt>
<trkpt lat="50.209719" lon="4.967032"><ele>187.99</ele><time>2025-05-24T16:03:46Z</time></trkpt>
<trkpt lat="50.209735" lon="4.967426"><ele>193.48</ele><time>2025-05-24T16:03:48Z</time></trkpt>
<trkpt lat="50.209817" lon="4.96785"><ele>192.39</ele><time>2025-05-24T16:03:50Z</time></trkpt>
<trkpt lat="50.210109" lon="4.968837"><ele>183.42</ele><time>2025-05-24T16:03:52Z</time></trkpt>
<trkpt lat="50.210259" lon="4.969237"><ele>182.37</ele><time>2025-05-24T16:03:54Z</time></trkpt>
<trkpt lat="50.210391" lon="4.96947"><ele>181.32</ele><time>2025-05-24T16:03:55Z</time></trkpt>
<trkpt lat="50.210485" lon="4.969598"><ele>179.87</ele><time>2025-05-24T16:03:57Z</time></trkpt>
<trkpt lat="50.211174" lon="4.970445"><ele>174.18</ele><time>2025-05-24T16:03:59Z</time></trkpt>
<trkpt lat="50.211543" lon="4.970868"><ele>171.56</ele><time>2025-05-24T16:04:01Z</time></trkpt>
<trkpt lat="50.211732" lon="4.971129"><ele>170.48</ele><time>2025-05-24T16:04:03Z</time></trkpt>
<trkpt lat="50.211835" lon="4.971316"><ele>169.22</ele><time>2025-05-24T16:04:05Z</time></trkpt>
<trkpt lat="50.212129" lon="4.972096"><ele>169.65</ele><time>2025-05-24T16:04:07Z</time></trkpt>
<trkpt lat="50.212171" lon="4.972139"><ele>169.2</ele><time>2025-05-24T16:04:09Z</time></trkpt>
<trkpt lat="50.212211" lon="4.972152"><ele>168.48</ele><time>2025-05-24T16:04:11Z</time></trkpt>
<trkpt lat="50.212244" lon="4.97213"><ele>168.0</ele><time>2025-05-24T16:04:13Z</time></trkpt>
<trkpt lat="50.212272" lon="4.972053"><ele>167.18</ele><time>2025-05-24T16:04:14Z</time></trkpt>
<trkpt lat="50.212259" lon="4.971959"><ele>166.16</ele><time>2025-05-24T16:04:16Z</time></trkpt>
<trkpt lat="50.21206" lon="4.971538"><ele>165.38</ele><time>2025-05-24T16:04:18Z</time></trkpt>
<trkpt lat="50.211983" lon="4.971285"><ele>165.22</ele><time>2025-05-24T16:04:20Z</time></trkpt>
<trkpt lat="50.211893" lon="4.970979"><ele>164.0</ele><time>2025-05-24T16:04:22Z</time></trkpt>
<trkpt lat="50.21179" lon="4.970372"><ele>157.71</ele><time>2025-05-24T16:04:24Z</time></trkpt>
<trkpt lat="50.211745" lon="4.970232"><ele>156.77</ele><time>2025-05-24T16:04:26Z</time></trkpt>
<trkpt lat="50.21168" lon="4.970095"><ele>156.93</ele><time>2025-05-24T16:04:28Z</time></trkpt>
<trkpt lat="50.211309" lon="4.969594"><ele>158.71</ele><time>2025-05-24T16:04:30Z</time></trkpt>
<trkpt lat="50.211221" lon="4.969428"><ele>159.57</ele><time>2025-05-24T16:04:32Z</time></trkpt>
<trkpt lat="50.211043" lon="4.968996"><ele>156.23</ele><time>2025-05-24T16:04:33Z</time></trkpt>
<trkpt lat="50.210495" lon="4.96753"><ele>154.0</ele><time>2025-05-24T16:04:35Z</time></trkpt>
<trkpt lat="50.210404" lon="4.967207"><ele>155.49</ele><time>2025-05-24T16:04:37Z</time></trkpt>
<trkpt lat="50.210313" lon="4.966517"><ele>156.14</ele><time>2025-05-24T16:04:39Z</time></trkpt>
<trkpt lat="50.210332" lon="4.966417"><ele>154.46</ele><time>2025-05-24T16:04:41Z</time></trkpt>
<trkpt lat="50.210363" lon="4.966377"><ele>152.09</ele><time>2025-05-24T16:04:43Z</time></trkpt>
<trkpt lat="50.210434" lon="4.966396"><ele>147.37</ele><time>2025-05-24T16:04:45Z</time></trkpt>
<trkpt lat="50.210475" lon="4.966465"><ele>145.17</ele><time>2025-05-24T16:04:47Z</time></trkpt>
<trkpt lat="50.210541" lon="4.966935"><ele>145.67</ele><time>2025-05-24T16:04:49Z</time></trkpt>
<trkpt lat="50.210579" lon="4.967105"><ele>145.34</ele><time>2025-05-24T16:04:51Z</time></trkpt>
<trkpt lat="50.210639" lon="4.967292"><ele>143.79</ele><time>2025-05-24T16:04:52Z</time></trkpt>
<trkpt lat="50.2108" lon="4.967629"><ele>140.09</ele><time>2025-05-24T16:04:54Z</time></trkpt>
<trkpt lat="50.211914" lon="4.969327"><ele>131.08</ele><time>2025-05-24T16:04:56Z</time></trkpt>
<trkpt lat="50.21208" lon="4.969553"><ele>131.45</ele><time>2025-05-24T16:04:58Z</time></trkpt>
<trkpt lat="50.212141" lon="4.969598"><ele>130.65</ele><time>2025-05-24T16:05:00Z</time></trkpt>
<trkpt lat="50.212203" lon="4.969609"><ele>129.12</ele><time>2025-05-24T16:05:02Z</time></trkpt>
<trkpt lat="50.212261" lon="4.96959"><ele>128.01</ele><time>2025-05-24T16:05:04Z</time></trkpt>
<trkpt lat="50.212332" lon="4.969532"><ele>126.5</ele><time>2025-05-24T16:05:06Z</time></trkpt>
<trkpt lat="50.212463" lon="4.969287"><ele>123.98</ele><time>2025-05-24T16:05:08Z</time></trkpt>
<trkpt lat="50.214718" lon="4.971416"><ele>136.9</ele><time>2025-05-24T16:05:10Z</time></trkpt>
<trkpt lat="50.214958" lon="4.971713"><ele>138.57</ele><time>2025-05-24T16:05:12Z</time></trkpt>
<trkpt lat="50.215348" lon="4.972468"><ele>143.13</ele><time>2025-05-24T16:05:14Z</time></trkpt>
<trkpt lat="50.215457" lon="4.972628"><ele>142.93</ele><time>2025-05-24T16:05:17Z</time></trkpt>
<trkpt lat="50.215576" lon="4.972748"><ele>141.84</ele><time>2025-05-24T16:05:19Z</time></trkpt>
<trkpt lat="50.215674" lon="4.972816"><ele>142.72</ele><time>2025-05-24T16:05:21Z</time></trkpt>
<trkpt lat="50.215846" lon="4.972887"><ele>144.78</ele><time>2025-05-24T16:05:23Z</time></trkpt>
<trkpt lat="50.216974" lon="4.973155"><ele>145.77</ele><time>2025-05-24T16:05:25Z</time></trkpt>
<trkpt lat="50.217229" lon="4.973279"><ele>147.74</ele><time>2025-05-24T16:05:28Z</time></trkpt>
<trkpt lat="50.217551" lon="4.973607"><ele>148.19</ele><time>2025-05-24T16:05:30Z</time></trkpt>
<trkpt lat="50.217995" lon="4.974123"><ele>144.1</ele><time>2025-05-24T16:05:32Z</time></trkpt>
<trkpt lat="50.218262" lon="4.974551"><ele>143.25</ele><time>2025-05-24T16:05:34Z</time></trkpt>
<trkpt lat="50.218388" lon="4.974824"><ele>144.13</ele><time>2025-05-24T16:05:36Z</time></trkpt>
<trkpt lat="50.218491" lon="4.975136"><ele>146.06</ele><time>2025-05-24T16:05:39Z</time></trkpt>
<trkpt lat="50.218574" lon="4.975462"><ele>146.73</ele><time>2025-05-24T16:05:41Z</time></trkpt>
<trkpt lat="50.218862" lon="4.977278"><ele>141.71</ele><time>2025-05-24T16:05:43Z</time></trkpt>
<trkpt lat="50.218911" lon="4.977404"><ele>142.54</ele><time>2025-05-24T16:05:45Z</time></trkpt>
<trkpt lat="50.218989" lon="4.977527"><ele>144.0</ele><time>2025-05-24T16:05:47Z</time></trkpt>
<trkpt lat="50.219574" lon="4.978181"><ele>152.63</ele><time>2025-05-24T16:05:50Z</time></trkpt>
<trkpt lat="50.219707" lon="4.978413"><ele>153.19</ele><time>2025-05-24T16:05:52Z</time></trkpt>
<trkpt lat="50.219788" lon="4.978627"><ele>152.06</ele><time>2025-05-24T16:05:54Z</time></trkpt>
<trkpt lat="50.21999" lon="4.979427"><ele>147.07</ele><time>2025-05-24T16:05:56Z</time></trkpt>
<trkpt lat="50.220069" lon="4.979825"><ele>153.71</ele><time>2025-05-24T16:05:58Z</time></trkpt>
<trkpt lat="50.220125" lon="4.980207"><ele>154.84</ele><time>2025-05-24T16:06:01Z</time></trkpt>
<trkpt lat="50.220152" lon="4.980577"><ele>150.38</ele><time>2025-05-24T16:06:03Z</time></trkpt>
<trkpt lat="50.220149" lon="4.980834"><ele>149.28</ele><time>2025-05-24T16:06:05Z</time></trkpt>
<trkpt lat="50.220126" lon="4.981115"><ele>147.28</ele><time>2025-05-24T16:06:07Z</time></trkpt>
<trkpt lat="50.219997" lon="4.981691"><ele>148.92</ele><time>2025-05-24T16:06:09Z</time></trkpt>
<trkpt lat="50.219992" lon="4.981884"><ele>148.25</ele><time>2025-05-24T16:06:12Z</time></trkpt>
<trkpt lat="50.220007" lon="4.982068"><ele>147.68</ele><time>2025-05-24T16:06:14Z</time></trkpt>
<trkpt lat="50.220083" lon="4.982578"><ele>147.7</ele><time>2025-05-24T16:06:16Z</time></trkpt>
<trkpt lat="50.220198" lon="4.983105"><ele>148.24</ele><time>2025-05-24T16:06:18Z</time></trkpt>
<trkpt lat="50.220696" lon="4.984881"><ele>144.01</ele><time>2025-05-24T16:06:20Z</time></trkpt>
<trkpt lat="50.220814" lon="4.985144"><ele>144.07</ele><time>2025-05-24T16:06:23Z</time></trkpt>
<trkpt lat="50.221206" lon="4.98589"><ele>147.23</ele><time>2025-05-24T16:06:25Z</time></trkpt>
<trkpt lat="50.221537" lon="4.986334"><ele>151.13</ele><time>2025-05-24T16:06:27Z</time></trkpt>
<trkpt lat="50.221624" lon="4.986213"><ele>150.17</ele><time>2025-05-24T16:06:29Z</time></trkpt>
<trkpt lat="50.221708" lon="4.986037"><ele>151.47</ele><time>2025-05-24T16:06:30Z</time></trkpt>
<trkpt lat="50.221831" lon="4.985675"><ele>158.69</ele><time>2025-05-24T16:06:32Z</time></trkpt>
<trkpt lat="50.221861" lon="4.985451"><ele>162.95</ele><time>2025-05-24T16:06:33Z</time></trkpt>
<trkpt lat="50.221842" lon="4.985285"><ele>164.84</ele><time>2025-05-24T16:06:35Z</time></trkpt>
<trkpt lat="50.221767" lon="4.98493"><ele>165.74</ele><time>2025-05-24T16:06:36Z</time></trkpt>
<trkpt lat="50.221753" lon="4.984768"><ele>166.61</ele><time>2025-05-24T16:06:38Z</time></trkpt>
<trkpt lat="50.221751" lon="4.984107"><ele>171.5</ele><time>2025-05-24T16:06:39Z</time></trkpt>
<trkpt lat="50.221902" lon="4.983011"><ele>175.26</ele><time>2025-05-24T16:06:41Z</time></trkpt>
<trkpt lat="50.221955" lon="4.982834"><ele>175.44</ele><time>2025-05-24T16:06:43Z</time></trkpt>
<trkpt lat="50.222039" lon="4.982699"><ele>176.67</ele><time>2025-05-24T16:06:44Z</time></trkpt>
<trkpt lat="50.222177" lon="4.982578"><ele>178.7</ele><time>2025-05-24T16:06:46Z</time></trkpt>
<trkpt lat="50.222596" lon="4.982271"><ele>184.79</ele><time>2025-05-24T16:06:47Z</time></trkpt>
<trkpt lat="50.222741" lon="4.982117"><ele>185.8</ele><time>2025-05-24T16:06:49Z</time></trkpt>
<trkpt lat="50.222862" lon="4.981954"><ele>186.28</ele><time>2025-05-24T16:06:50Z</time></trkpt>
<trkpt lat="50.223061" lon="4.981616"><ele>186.32</ele><time>2025-05-24T16:06:52Z</time></trkpt>
<trkpt lat="50.223358" lon="4.98104"><ele>191.34</ele><time>2025-05-24T16:06:53Z</time></trkpt>
<trkpt lat="50.223845" lon="4.980031"><ele>196.12</ele><time>2025-05-24T16:06:55Z</time></trkpt>
<trkpt lat="50.223978" lon="4.979791"><ele>195.97</ele><time>2025-05-24T16:06:56Z</time></trkpt>
<trkpt lat="50.224046" lon="4.979709"><ele>196.11</ele><time>2025-05-24T16:06:58Z</time></trkpt>
<trkpt lat="50.224046" lon="4.979709"><ele>196.11</ele><time>2025-05-24T16:06:58Z</time></trkpt>
<trkpt lat="50.224124" lon="4.979638"><ele>196.43</ele><time>2025-05-24T16:07:00Z</time></trkpt>
<trkpt lat="50.224209" lon="4.97963"><ele>197.57</ele><time>2025-05-24T16:07:02Z</time></trkpt>
<trkpt lat="50.224309" lon="4.979686"><ele>199.94</ele><time>2025-05-24T16:07:04Z</time></trkpt>
<trkpt lat="50.224591" lon="4.980023"><ele>204.24</ele><time>2025-05-24T16:07:06Z</time></trkpt>
<trkpt lat="50.224752" lon="4.980171"><ele>205.25</ele><time>2025-05-24T16:07:08Z</time></trkpt>
<trkpt lat="50.225266" lon="4.980574"><ele>202.3</ele><time>2025-05-24T16:07:10Z</time></trkpt>
<trkpt lat="50.225413" lon="4.980647"><ele>202.82</ele><time>2025-05-24T16:07:12Z</time></trkpt>
<trkpt lat="50.225763" lon="4.980767"><ele>205.2</ele><time>2025-05-24T16:07:14Z</time></trkpt>
<trkpt lat="50.226431" lon="4.98095"><ele>210.51</ele><time>2025-05-24T16:07:16Z</time></trkpt>
<trkpt lat="50.227328" lon="4.981259"><ele>219.82</ele><time>2025-05-24T16:07:18Z</time></trkpt>
<trkpt lat="50.227562" lon="4.981306"><ele>220.28</ele><time>2025-05-24T16:07:20Z</time></trkpt>
<trkpt lat="50.228539" lon="4.981384"><ele>225.65</ele><time>2025-05-24T16:07:22Z</time></trkpt>
<trkpt lat="50.228812" lon="4.981522"><ele>226.25</ele><time>2025-05-24T16:07:24Z</time></trkpt>
<trkpt lat="50.229006" lon="4.981674"><ele>225.35</ele><time>2025-05-24T16:07:26Z</time></trkpt>
<trkpt lat="50.229125" lon="4.981784"><ele>224.09</ele><time>2025-05-24T16:07:28Z</time></trkpt>
<trkpt lat="50.229654" lon="4.982417"><ele>224.1</ele><time>2025-05-24T16:07:30Z</time></trkpt>
<trkpt lat="50.229765" lon="4.982533"><ele>224.24</ele><time>2025-05-24T16:07:33Z</time></trkpt>
<trkpt lat="50.229936" lon="4.982663"><ele>224.45</ele><time>2025-05-24T16:07:35Z</time></trkpt>
<trkpt lat="50.229968" lon="4.982817"><ele>224.13</ele><time>2025-05-24T16:07:53Z</time></trkpt>
<trkpt lat="50.230189" lon="4.983364"><ele>224.54</ele><time>2025-05-24T16:08:11Z</time></trkpt>
<trkpt lat="50.230335" lon="4.984235"><ele>230.08</ele><time>2025-05-24T16:08:30Z</time></trkpt>
<trkpt lat="50.230347" lon="4.984396"><ele>231.15</ele><time>2025-05-24T16:08:48Z</time></trkpt>
<trkpt lat="50.230342" lon="4.984593"><ele>232.2</ele><time>2025-05-24T16:09:06Z</time></trkpt>
<trkpt lat="50.230274" lon="4.985165"><ele>235.6</ele><time>2025-05-24T16:09:25Z</time></trkpt>
<trkpt lat="50.230577" lon="4.985443"><ele>237.24</ele><time>2025-05-24T16:09:43Z</time></trkpt>
<trkpt lat="50.231055" lon="4.985815"><ele>239.99</ele><time>2025-05-24T16:10:01Z</time></trkpt>
<trkpt lat="50.231391" lon="4.986133"><ele>240.08</ele><time>2025-05-24T16:10:20Z</time></trkpt>
<trkpt lat="50.231596" lon="4.986383"><ele>240.98</ele><time>2025-05-24T16:10:38Z</time></trkpt>
<trkpt lat="50.232547" lon="4.987883"><ele>247.83</ele><time>2025-05-24T16:10:56Z</time></trkpt>
<trkpt lat="50.233864" lon="4.989732"><ele>245.67</ele><time>2025-05-24T16:11:15Z</time></trkpt>
<trkpt lat="50.234336" lon="4.990291"><ele>252.41</ele><time>2025-05-24T16:11:33Z</time></trkpt>
<trkpt lat="50.234426" lon="4.990454"><ele>253.14</ele><time>2025-05-24T16:11:52Z</time></trkpt>
<trkpt lat="50.234546" lon="4.990809"><ele>253.73</ele><time>2025-05-24T16:12:10Z</time></trkpt>
<trkpt lat="50.234702" lon="4.991391"><ele>255.7</ele><time>2025-05-24T16:12:28Z</time></trkpt>
<trkpt lat="50.235097" lon="4.991992"><ele>254.95</ele><time>2025-05-24T16:12:47Z</time></trkpt>
<trkpt lat="50.2352" lon="4.992103"><ele>254.16</ele><time>2025-05-24T16:13:05Z</time></trkpt>
<trkpt lat="50.235291" lon="4.992111"><ele>254.22</ele><time>2025-05-24T16:13:23Z</time></trkpt>
<trkpt lat="50.235291" lon="4.992111"><ele>254.22</ele><time>2025-05-24T16:13:23Z</time></trkpt>
<trkpt lat="50.2352" lon="4.992103"><ele>254.16</ele><time>2025-05-24T16:13:35Z</time></trkpt>
<trkpt lat="50.235097" lon="4.991992"><ele>254.95</ele><time>2025-05-24T16:13:47Z</time></trkpt>
<trkpt lat="50.234702" lon="4.991391"><ele>255.7</ele><time>2025-05-24T16:13:59Z</time></trkpt>
<trkpt lat="50.234651" lon="4.991495"><ele>254.79</ele><time>2025-05-24T16:14:46Z</time></trkpt>
<trkpt lat="50.233509" lon="4.995419"><ele>236.72</ele><time>2025-05-24T16:15:33Z</time></trkpt>
<trkpt lat="50.233148" lon="4.996563"><ele>233.95</ele><time>2025-05-24T16:16:20Z</time></trkpt>
<trkpt lat="50.232659" lon="4.998586"><ele>223.54</ele><time>2025-05-24T16:17:07Z</time></trkpt>
<trkpt lat="50.232612" lon="4.998665"><ele>224.89</ele><time>2025-05-24T16:17:54Z</time></trkpt>
<trkpt lat="50.232564" lon="4.998746"><ele>226.37</ele><time>2025-05-24T16:18:07Z</time></trkpt>
<trkpt lat="50.232326" lon="4.998759"><ele>228.05</ele><time>2025-05-24T16:18:20Z</time></trkpt>
<trkpt lat="50.2322" lon="4.998796"><ele>228.83</ele><time>2025-05-24T16:18:33Z</time></trkpt>
<trkpt lat="50.232112" lon="4.998918"><ele>229.2</ele><time>2025-05-24T16:18:46Z</time></trkpt>
<trkpt lat="50.232012" lon="4.999564"><ele>227.81</ele><time>2025-05-24T16:18:59Z</time></trkpt>
<trkpt lat="50.23186" lon="4.999954"><ele>226.37</ele><time>2025-05-24T16:19:12Z</time></trkpt>
<trkpt lat="50.231554" lon="5.000848"><ele>226.54</ele><time>2025-05-24T16:19:25Z</time></trkpt>
<trkpt lat="50.231375" lon="5.001289"><ele>224.28</ele><time>2025-05-24T16:19:38Z</time></trkpt>
<trkpt lat="50.233091" lon="5.001854"><ele>228.45</ele><time>2025-05-24T16:19:59Z</time></trkpt>
<trkpt lat="50.233138" lon="5.001464"><ele>230.03</ele><time>2025-05-24T16:20:03Z</time></trkpt>
<trkpt lat="50.233231" lon="5.001216"><ele>231.25</ele><time>2025-05-24T16:20:08Z</time></trkpt>
<trkpt lat="50.233296" lon="5.001091"><ele>231.79</ele><time>2025-05-24T16:20:12Z</time></trkpt>
<trkpt lat="50.234443" lon="4.999619"><ele>234.99</ele><time>2025-05-24T16:20:17Z</time></trkpt>
<trkpt lat="50.234692" lon="4.999299"><ele>237.09</ele><time>2025-05-24T16:20:21Z</time></trkpt>
<trkpt lat="50.234826" lon="4.999155"><ele>238.49</ele><time>2025-05-24T16:20:25Z</time></trkpt>
<trkpt lat="50.235016" lon="4.999034"><ele>241.03</ele><time>2025-05-24T16:20:30Z</time></trkpt>
<trkpt lat="50.235153" lon="4.999004"><ele>241.23</ele><time>2025-05-24T16:20:34Z</time></trkpt>
<trkpt lat="50.237469" lon="4.999007"><ele>241.87</ele><time>2025-05-24T16:20:39Z</time></trkpt>
<trkpt lat="50.237584" lon="4.998985"><ele>243.6</ele><time>2025-05-24T16:20:43Z</time></trkpt>
<trkpt lat="50.237762" lon="4.998865"><ele>247.98</ele><time>2025-05-24T16:20:48Z</time></trkpt>
<trkpt lat="50.237873" lon="4.99869"><ele>250.59</ele><time>2025-05-24T16:20:52Z</time></trkpt>
<trkpt lat="50.23791" lon="4.998567"><ele>251.87</ele><time>2025-05-24T16:20:57Z</time></trkpt>
<trkpt lat="50.23795" lon="4.998218"><ele>254.99</ele><time>2025-05-24T16:21:01Z</time></trkpt>
<trkpt lat="50.237983" lon="4.993077"><ele>263.57</ele><time>2025-05-24T16:21:06Z</time></trkpt>
<trkpt lat="50.238015" lon="4.990376"><ele>262.74</ele><time>2025-05-24T16:21:10Z</time></trkpt>
<trkpt lat="50.238086" lon="4.98867"><ele>261.32</ele><time>2025-05-24T16:21:15Z</time></trkpt>
<trkpt lat="50.238241" lon="4.988622"><ele>261.7</ele><time>2025-05-24T16:21:17Z</time></trkpt>
<trkpt lat="50.23899" lon="4.988038"><ele>268.09</ele><time>2025-05-24T16:21:20Z</time></trkpt>
<trkpt lat="50.240172" lon="4.987082"><ele>277.93</ele><time>2025-05-24T16:21:22Z</time></trkpt>
<trkpt lat="50.240515" lon="4.986853"><ele>278.85</ele><time>2025-05-24T16:21:24Z</time></trkpt>
<trkpt lat="50.240665" lon="4.986867"><ele>280.19</ele><time>2025-05-24T16:21:27Z</time></trkpt>
<trkpt lat="50.241485" lon="4.986756"><ele>285.0</ele><time>2025-05-24T16:21:29Z</time></trkpt>
<trkpt lat="50.241789" lon="4.98669"><ele>284.12</ele><time>2025-05-24T16:21:32Z</time></trkpt>
<trkpt lat="50.242588" lon="4.986637"><ele>281.42</ele><time>2025-05-24T16:21:34Z</time></trkpt>
<trkpt lat="50.242979" lon="4.986676"><ele>283.76</ele><time>2025-05-24T16:21:36Z</time></trkpt>
<trkpt lat="50.243905" lon="4.986613"><ele>278.45</ele><time>2025-05-24T16:21:39Z</time></trkpt>
<trkpt lat="50.244098" lon="4.986656"><ele>276.7</ele><time>2025-05-24T16:21:41Z</time></trkpt>
<trkpt lat="50.244293" lon="4.986751"><ele>276.79</ele><time>2025-05-24T16:21:44Z</time></trkpt>
<trkpt lat="50.244617" lon="4.987"><ele>274.72</ele><time>2025-05-24T16:21:46Z</time></trkpt>
<trkpt lat="50.244772" lon="4.9872"><ele>273.34</ele><time>2025-05-24T16:21:48Z</time></trkpt>
<trkpt lat="50.244873" lon="4.987434"><ele>272.72</ele><time>2025-05-24T16:21:51Z</time></trkpt>
<trkpt lat="50.24497" lon="4.987886"><ele>271.58</ele><time>2025-05-24T16:21:53Z</time></trkpt>
<trkpt lat="50.245259" lon="4.989442"><ele>261.41</ele><time>2025-05-24T16:21:56Z</time></trkpt>
<trkpt lat="50.245314" lon="4.989617"><ele>259.89</ele><time>2025-05-24T16:21:58Z</time></trkpt>
<trkpt lat="50.245363" lon="4.989708"><ele>259.1</ele><time>2025-05-24T16:22:00Z</time></trkpt>
<trkpt lat="50.245432" lon="4.989742"><ele>258.34</ele><time>2025-05-24T16:22:03Z</time></trkpt>
<trkpt lat="50.245488" lon="4.989728"><ele>257.74</ele><time>2025-05-24T16:22:05Z</time></trkpt>
<trkpt lat="50.245533" lon="4.989745"><ele>257.32</ele><time>2025-05-24T16:22:08Z</time></trkpt>
<trkpt lat="50.245558" lon="4.989727"><ele>256.98</ele><time>2025-05-24T16:22:10Z</time></trkpt>
<trkpt lat="50.24606" lon="4.989743"><ele>249.72</ele><time>2025-05-24T16:22:12Z</time></trkpt>
<trkpt lat="50.2469" lon="4.989805"><ele>253.98</ele><time>2025-05-24T16:22:15Z</time></trkpt>
<trkpt lat="50.247022" lon="4.989812"><ele>254.32</ele><time>2025-05-24T16:22:17Z</time></trkpt>
<trkpt lat="50.24705" lon="4.989815"><ele>254.33</ele><time>2025-05-24T16:22:20Z</time></trkpt>
<trkpt lat="50.247071" lon="4.989019"><ele>250.72</ele><time>2025-05-24T16:22:23Z</time></trkpt>
<trkpt lat="50.247415" lon="4.989"><ele>250.4</ele><time>2025-05-24T16:22:25Z</time></trkpt>
<trkpt lat="50.247679" lon="4.989034"><ele>251.17</ele><time>2025-05-24T16:22:27Z</time></trkpt>
<trkpt lat="50.248895" lon="4.989307"><ele>246.53</ele><time>2025-05-24T16:22:29Z</time></trkpt>
<trkpt lat="50.249479" lon="4.989308"><ele>248.38</ele><time>2025-05-24T16:22:30Z</time></trkpt>
<trkpt lat="50.249847" lon="4.989273"><ele>246.49</ele><time>2025-05-24T16:22:32Z</time></trkpt>
<trkpt lat="50.250024" lon="4.989209"><ele>245.07</ele><time>2025-05-24T16:22:34Z</time></trkpt>
<trkpt lat="50.250221" lon="4.989058"><ele>243.89</ele><time>2025-05-24T16:22:36Z</time></trkpt>
<trkpt lat="50.250557" lon="4.988665"><ele>239.99</ele><time>2025-05-24T16:22:38Z</time></trkpt>
<trkpt lat="50.250877" lon="4.988158"><ele>237.53</ele><time>2025-05-24T16:22:40Z</time></trkpt>
<trkpt lat="50.25099" lon="4.987925"><ele>237.64</ele><time>2025-05-24T16:22:42Z</time></trkpt>
<trkpt lat="50.251081" lon="4.987618"><ele>237.15</ele><time>2025-05-24T16:22:44Z</time></trkpt>
<trkpt lat="50.251234" lon="4.986792"><ele>236.11</ele><time>2025-05-24T16:22:46Z</time></trkpt>
<trkpt lat="50.251325" lon="4.985454"><ele>231.24</ele><time>2025-05-24T16:22:48Z</time></trkpt>
<trkpt lat="50.251428" lon="4.984554"><ele>227.64</ele><time>2025-05-24T16:22:50Z</time></trkpt>
<trkpt lat="50.2515" lon="4.984417"><ele>225.99</ele><time>2025-05-24T16:22:52Z</time></trkpt>
<trkpt lat="50.251603" lon="4.984342"><ele>224.35</ele><time>2025-05-24T16:22:54Z</time></trkpt>
<trkpt lat="50.251709" lon="4.984299"><ele>222.53</ele><time>2025-05-24T16:22:56Z</time></trkpt>
<trkpt lat="50.251951" lon="4.984281"><ele>217.16</ele><time>2025-05-24T16:22:58Z</time></trkpt>
<trkpt lat="50.252179" lon="4.984338"><ele>216.64</ele><time>2025-05-24T16:23:00Z</time></trkpt>
<trkpt lat="50.252427" lon="4.984282"><ele>218.19</ele><time>2025-05-24T16:23:02Z</time></trkpt>
<trkpt lat="50.252909" lon="4.983911"><ele>224.99</ele><time>2025-05-24T16:23:04Z</time></trkpt>
<trkpt lat="50.253094" lon="4.983835"><ele>228.0</ele><time>2025-05-24T16:23:06Z</time></trkpt>
<trkpt lat="50.25339" lon="4.983753"><ele>229.73</ele><time>2025-05-24T16:23:08Z</time></trkpt>
<trkpt lat="50.253625" lon="4.98372"><ele>230.18</ele><time>2025-05-24T16:23:10Z</time></trkpt>
<trkpt lat="50.253838" lon="4.983829"><ele>231.35</ele><time>2025-05-24T16:23:12Z</time></trkpt>
<trkpt lat="50.254979" lon="4.984894"><ele>237.29</ele><time>2025-05-24T16:23:14Z</time></trkpt>
<trkpt lat="50.255162" lon="4.984986"><ele>239.09</ele><time>2025-05-24T16:23:16Z</time></trkpt>
<trkpt lat="50.255321" lon="4.985014"><ele>239.9</ele><time>2025-05-24T16:23:18Z</time></trkpt>
<trkpt lat="50.255471" lon="4.984989"><ele>239.2</ele><time>2025-05-24T16:23:20Z</time></trkpt>
<trkpt lat="50.2556" lon="4.984934"><ele>238.04</ele><time>2025-05-24T16:23:22Z</time></trkpt>
<trkpt lat="50.255845" lon="4.984644"><ele>235.76</ele><time>2025-05-24T16:23:24Z</time></trkpt>
<trkpt lat="50.255937" lon="4.984473"><ele>235.48</ele><time>2025-05-24T16:23:26Z</time></trkpt>
<trkpt lat="50.256077" lon="4.984006"><ele>235.69</ele><time>2025-05-24T16:23:28Z</time></trkpt>
<trkpt lat="50.256258" lon="4.983718"><ele>238.29</ele><time>2025-05-24T16:23:30Z</time></trkpt>
<trkpt lat="50.256472" lon="4.983456"><ele>241.55</ele><time>2025-05-24T16:23:32Z</time></trkpt>
<trkpt lat="50.256574" lon="4.983291"><ele>242.82</ele><time>2025-05-24T16:23:34Z</time></trkpt>
<trkpt lat="50.256567" lon="4.982566"><ele>246.92</ele><time>2025-05-24T16:23:36Z</time></trkpt>
<trkpt lat="50.256599" lon="4.98212"><ele>251.49</ele><time>2025-05-24T16:23:38Z</time></trkpt>
<trkpt lat="50.256655" lon="4.981668"><ele>253.99</ele><time>2025-05-24T16:23:40Z</time></trkpt>
<trkpt lat="50.256605" lon="4.981257"><ele>255.37</ele><time>2025-05-24T16:23:42Z</time></trkpt>
<trkpt lat="50.256579" lon="4.981144"><ele>255.6</ele><time>2025-05-24T16:23:44Z</time></trkpt>
<trkpt lat="50.256601" lon="4.981069"><ele>255.95</ele><time>2025-05-24T16:23:48Z</time></trkpt>
<trkpt lat="50.256723" lon="4.981013"><ele>256.76</ele><time>2025-05-24T16:23:52Z</time></trkpt>
<trkpt lat="50.256938" lon="4.980996"><ele>258.37</ele><time>2025-05-24T16:23:56Z</time></trkpt>
<trkpt lat="50.257346" lon="4.981087"><ele>259.59</ele><time>2025-05-24T16:24:00Z</time></trkpt>
<trkpt lat="50.257509" lon="4.981173"><ele>258.78</ele><time>2025-05-24T16:24:05Z</time></trkpt>
<trkpt lat="50.258235" lon="4.981693"><ele>261.29</ele><time>2025-05-24T16:24:09Z</time></trkpt>
<trkpt lat="50.258598" lon="4.981879"><ele>263.9</ele><time>2025-05-24T16:24:13Z</time></trkpt>
<trkpt lat="50.258795" lon="4.981885"><ele>264.66</ele><time>2025-05-24T16:24:17Z</time></trkpt>
<trkpt lat="50.258959" lon="4.981823"><ele>265.25</ele><time>2025-05-24T16:24:21Z</time></trkpt>
<trkpt lat="50.259524" lon="4.981435"><ele>266.17</ele><time>2025-05-24T16:24:25Z</time></trkpt>
<trkpt lat="50.259515" lon="4.981282"><ele>266.0</ele><time>2025-05-24T16:24:26Z</time></trkpt>
<trkpt lat="50.260373" lon="4.981419"><ele>265.07</ele><time>2025-05-24T16:24:30Z</time></trkpt>
<trkpt lat="50.260737" lon="4.981418"><ele>265.07</ele><time>2025-05-24T16:24:34Z</time></trkpt>
<trkpt lat="50.260989" lon="4.981337"><ele>265.0</ele><time>2025-05-24T16:24:37Z</time></trkpt>
<trkpt lat="50.261393" lon="4.981081"><ele>265.93</ele><time>2025-05-24T16:24:41Z</time></trkpt>
<trkpt lat="50.262525" lon="4.980692"><ele>273.11</ele><time>2025-05-24T16:24:45Z</time></trkpt>
<trkpt lat="50.262723" lon="4.980649"><ele>274.01</ele><time>2025-05-24T16:24:48Z</time></trkpt>
<trkpt lat="50.263702" lon="4.980563"><ele>269.37</ele><time>2025-05-24T16:24:52Z</time></trkpt>
<trkpt lat="50.264182" lon="4.980602"><ele>265.91</ele><time>2025-05-24T16:24:56Z</time></trkpt>
<trkpt lat="50.264417" lon="4.980735"><ele>260.67</ele><time>2025-05-24T16:25:00Z</time></trkpt>
<trkpt lat="50.264568" lon="4.980851"><ele>259.45</ele><time>2025-05-24T16:25:03Z</time></trkpt>
<trkpt lat="50.264739" lon="4.980878"><ele>257.26</ele><time>2025-05-24T16:25:07Z</time></trkpt>
<trkpt lat="50.267099" lon="4.979996"><ele>241.72</ele><time>2025-05-24T16:25:11Z</time></trkpt>
<trkpt lat="50.267226" lon="4.979912"><ele>244.29</ele><time>2025-05-24T16:25:14Z</time></trkpt>
<trkpt lat="50.268422" lon="4.983215"><ele>228.55</ele><time>2025-05-24T16:25:18Z</time></trkpt>
<trkpt lat="50.269294" lon="4.984427"><ele>226.11</ele><time>2025-05-24T16:25:22Z</time></trkpt>
<trkpt lat="50.269893" lon="4.985218"><ele>221.77</ele><time>2025-05-24T16:25:26Z</time></trkpt>
<trkpt lat="50.270117" lon="4.985594"><ele>218.76</ele><time>2025-05-24T16:25:30Z</time></trkpt>
<trkpt lat="50.270301" lon="4.985848"><ele>214.78</ele><time>2025-05-24T16:25:34Z</time></trkpt>
<trkpt lat="50.271242" lon="4.986359"><ele>205.75</ele><time>2025-05-24T16:25:38Z</time></trkpt>
<trkpt lat="50.271453" lon="4.986571"><ele>202.8</ele><time>2025-05-24T16:25:42Z</time></trkpt>
<trkpt lat="50.271746" lon="4.986918"><ele>200.43</ele><time>2025-05-24T16:25:46Z</time></trkpt>
<trkpt lat="50.271881" lon="4.987044"><ele>199.38</ele><time>2025-05-24T16:25:50Z</time></trkpt>
<trkpt lat="50.272091" lon="4.987158"><ele>199.4</ele><time>2025-05-24T16:25:54Z</time></trkpt>
<trkpt lat="50.272091" lon="4.98719"><ele>199.47</ele><time>2025-05-24T16:25:57Z</time></trkpt>
<trkpt lat="50.272124" lon="4.987225"><ele>199.66</ele><time>2025-05-24T16:26:00Z</time></trkpt>
<trkpt lat="50.272148" lon="4.9872"><ele>199.67</ele><time>2025-05-24T16:26:02Z</time></trkpt>
<trkpt lat="50.27215" lon="4.987157"><ele>199.57</ele><time>2025-05-24T16:26:05Z</time></trkpt>
<trkpt lat="50.272375" lon="4.987062"><ele>200.2</ele><time>2025-05-24T16:26:08Z</time></trkpt>
<trkpt lat="50.272587" lon="4.987019"><ele>202.42</ele><time>2025-05-24T16:26:10Z</time></trkpt>
<trkpt lat="50.27319" lon="4.987026"><ele>214.53</ele><time>2025-05-24T16:26:13Z</time></trkpt>
<trkpt lat="50.274083" lon="4.986887"><ele>215.78</ele><time>2025-05-24T16:26:16Z</time></trkpt>
<trkpt lat="50.274083" lon="4.986887"><ele>215.78</ele><time>2025-05-24T16:26:16Z</time></trkpt>
<trkpt lat="50.274196" lon="4.986869"><ele>217.03</ele><time>2025-05-24T16:26:17Z</time></trkpt>
<trkpt lat="50.273174" lon="4.986245"><ele>214.87</ele><time>2025-05-24T16:26:19Z</time></trkpt>
<trkpt lat="50.272886" lon="4.986047"><ele>210.4</ele><time>2025-05-24T16:26:21Z</time></trkpt>
<trkpt lat="50.272558" lon="4.985763"><ele>207.33</ele><time>2025-05-24T16:26:22Z</time></trkpt>
<trkpt lat="50.272388" lon="4.985526"><ele>206.35</ele><time>2025-05-24T16:26:24Z</time></trkpt>
<trkpt lat="50.271834" lon="4.984474"><ele>211.17</ele><time>2025-05-24T16:26:26Z</time></trkpt>
<trkpt lat="50.271692" lon="4.98411"><ele>210.66</ele><time>2025-05-24T16:26:28Z</time></trkpt>
<trkpt lat="50.271628" lon="4.983675"><ele>210.86</ele><time>2025-05-24T16:26:30Z</time></trkpt>
<trkpt lat="50.271625" lon="4.983438"><ele>210.85</ele><time>2025-05-24T16:26:32Z</time></trkpt>
<trkpt lat="50.271648" lon="4.98304"><ele>208.9</ele><time>2025-05-24T16:26:34Z</time></trkpt>
<trkpt lat="50.271684" lon="4.982746"><ele>207.2</ele><time>2025-05-24T16:26:36Z</time></trkpt>
<trkpt lat="50.271826" lon="4.981921"><ele>206.72</ele><time>2025-05-24T16:26:38Z</time></trkpt>
<trkpt lat="50.271864" lon="4.981587"><ele>207.05</ele><time>2025-05-24T16:26:40Z</time></trkpt>
<trkpt lat="50.271886" lon="4.981221"><ele>207.15</ele><time>2025-05-24T16:26:41Z</time></trkpt>
<trkpt lat="50.271872" lon="4.979916"><ele>205.06</ele><time>2025-05-24T16:26:43Z</time></trkpt>
<trkpt lat="50.271902" lon="4.979441"><ele>204.73</ele><time>2025-05-24T16:26:45Z</time></trkpt>
<trkpt lat="50.271928" lon="4.979274"><ele>203.15</ele><time>2025-05-24T16:26:47Z</time></trkpt>
<trkpt lat="50.271979" lon="4.979096"><ele>202.19</ele><time>2025-05-24T16:26:49Z</time></trkpt>
<trkpt lat="50.272513" lon="4.977888"><ele>202.68</ele><time>2025-05-24T16:26:51Z</time></trkpt>
<trkpt lat="50.272631" lon="4.977449"><ele>201.39</ele><time>2025-05-24T16:26:53Z</time></trkpt>
<trkpt lat="50.272671" lon="4.977176"><ele>200.11</ele><time>2025-05-24T16:26:55Z</time></trkpt>
<trkpt lat="50.272714" lon="4.976694"><ele>201.17</ele><time>2025-05-24T16:26:57Z</time></trkpt>
<trkpt lat="50.27273" lon="4.975936"><ele>197.93</ele><time>2025-05-24T16:26:59Z</time></trkpt>
<trkpt lat="50.272766" lon="4.975325"><ele>195.28</ele><time>2025-05-24T16:27:00Z</time></trkpt>
<trkpt lat="50.272873" lon="4.974457"><ele>191.79</ele><time>2025-05-24T16:27:02Z</time></trkpt>
<trkpt lat="50.272958" lon="4.973232"><ele>196.42</ele><time>2025-05-24T16:27:04Z</time></trkpt>
<trkpt lat="50.272946" lon="4.973075"><ele>196.42</ele><time>2025-05-24T16:27:06Z</time></trkpt>
<trkpt lat="50.272897" lon="4.972876"><ele>195.14</ele><time>2025-05-24T16:27:08Z</time></trkpt>
<trkpt lat="50.272837" lon="4.972734"><ele>193.56</ele><time>2025-05-24T16:27:10Z</time></trkpt>
<trkpt lat="50.272633" lon="4.972452"><ele>191.38</ele><time>2025-05-24T16:27:12Z</time></trkpt>
<trkpt lat="50.272221" lon="4.971995"><ele>189.42</ele><time>2025-05-24T16:27:14Z</time></trkpt>
<trkpt lat="50.272133" lon="4.971854"><ele>188.84</ele><time>2025-05-24T16:27:16Z</time></trkpt>
<trkpt lat="50.27204" lon="4.971651"><ele>187.84</ele><time>2025-05-24T16:27:17Z</time></trkpt>
<trkpt lat="50.271983" lon="4.971477"><ele>187.38</ele><time>2025-05-24T16:27:19Z</time></trkpt>
<trkpt lat="50.271926" lon="4.971101"><ele>187.9</ele><time>2025-05-24T16:27:21Z</time></trkpt>
<trkpt lat="50.271885" lon="4.970393"><ele>189.91</ele><time>2025-05-24T16:27:23Z</time></trkpt>
<trkpt lat="50.271913" lon="4.968718"><ele>188.27</ele><time>2025-05-24T16:27:25Z</time></trkpt>
<trkpt lat="50.27196" lon="4.968301"><ele>188.51</ele><time>2025-05-24T16:27:27Z</time></trkpt>
<trkpt lat="50.272073" lon="4.967727"><ele>190.62</ele><time>2025-05-24T16:27:29Z</time></trkpt>
<trkpt lat="50.272254" lon="4.967049"><ele>189.2</ele><time>2025-05-24T16:27:31Z</time></trkpt>
<trkpt lat="50.272506" lon="4.966266"><ele>185.91</ele><time>2025-05-24T16:27:33Z</time></trkpt>
<trkpt lat="50.27256" lon="4.966018"><ele>185.97</ele><time>2025-05-24T16:27:35Z</time></trkpt>
<trkpt lat="50.27257" lon="4.965891"><ele>185.77</ele><time>2025-05-24T16:27:36Z</time></trkpt>
<trkpt lat="50.272573" lon="4.965707"><ele>185.4</ele><time>2025-05-24T16:27:38Z</time></trkpt>
<trkpt lat="50.272552" lon="4.965377"><ele>186.31</ele><time>2025-05-24T16:27:40Z</time></trkpt>
<trkpt lat="50.272222" lon="4.963319"><ele>183.95</ele><time>2025-05-24T16:27:42Z</time></trkpt>
<trkpt lat="50.272213" lon="4.963027"><ele>182.93</ele><time>2025-05-24T16:27:44Z</time></trkpt>
<trkpt lat="50.272269" lon="4.962693"><ele>182.65</ele><time>2025-05-24T16:27:46Z</time></trkpt>
<trkpt lat="50.27232" lon="4.96254"><ele>183.01</ele><time>2025-05-24T16:27:48Z</time></trkpt>
<trkpt lat="50.272371" lon="4.96245"><ele>182.99</ele><time>2025-05-24T16:27:50Z</time></trkpt>
<trkpt lat="50.272436" lon="4.962377"><ele>182.76</ele><time>2025-05-24T16:27:52Z</time></trkpt>
<trkpt lat="50.272748" lon="4.962225"><ele>182.92</ele><time>2025-05-24T16:27:54Z</time></trkpt>
<trkpt lat="50.273216" lon="4.9621"><ele>185.25</ele><time>2025-05-24T16:27:55Z</time></trkpt>
<trkpt lat="50.273375" lon="4.961957"><ele>184.27</ele><time>2025-05-24T16:27:57Z</time></trkpt>
<trkpt lat="50.273587" lon="4.961695"><ele>180.66</ele><time>2025-05-24T16:27:59Z</time></trkpt>
<trkpt lat="50.273705" lon="4.961491"><ele>180.17</ele><time>2025-05-24T16:28:01Z</time></trkpt>
<trkpt lat="50.273758" lon="4.961358"><ele>179.94</ele><time>2025-05-24T16:28:03Z</time></trkpt>
<trkpt lat="50.273817" lon="4.961098"><ele>179.01</ele><time>2025-05-24T16:28:05Z</time></trkpt>
<trkpt lat="50.273826" lon="4.960723"><ele>179.54</ele><time>2025-05-24T16:28:07Z</time></trkpt>
<trkpt lat="50.273769" lon="4.959611"><ele>175.81</ele><time>2025-05-24T16:28:09Z</time></trkpt>
<trkpt lat="50.273709" lon="4.959157"><ele>176.55</ele><time>2025-05-24T16:28:11Z</time></trkpt>
<trkpt lat="50.273609" lon="4.958882"><ele>176.08</ele><time>2025-05-24T16:28:13Z</time></trkpt>
<trkpt lat="50.273345" lon="4.958486"><ele>174.73</ele><time>2025-05-24T16:28:14Z</time></trkpt>
<trkpt lat="50.272954" lon="4.957803"><ele>172.63</ele><time>2025-05-24T16:28:16Z</time></trkpt>
<trkpt lat="50.272815" lon="4.957235"><ele>170.06</ele><time>2025-05-24T16:28:18Z</time></trkpt>
<trkpt lat="50.272802" lon="4.957072"><ele>169.11</ele><time>2025-05-24T16:28:20Z</time></trkpt>
<trkpt lat="50.272817" lon="4.956759"><ele>168.22</ele><time>2025-05-24T16:28:22Z</time></trkpt>
<trkpt lat="50.272891" lon="4.956382"><ele>169.63</ele><time>2025-05-24T16:28:24Z</time></trkpt>
<trkpt lat="50.273142" lon="4.95566"><ele>171.54</ele><time>2025-05-24T16:28:26Z</time></trkpt>
<trkpt lat="50.273159" lon="4.955521"><ele>171.38</ele><time>2025-05-24T16:28:28Z</time></trkpt>
<trkpt lat="50.27314" lon="4.95532"><ele>171.06</ele><time>2025-05-24T16:28:30Z</time></trkpt>
<trkpt lat="50.273033" lon="4.954747"><ele>168.32</ele><time>2025-05-24T16:28:32Z</time></trkpt>
<trkpt lat="50.273011" lon="4.954525"><ele>168.59</ele><time>2025-05-24T16:28:33Z</time></trkpt>
<trkpt lat="50.27301" lon="4.954361"><ele>168.54</ele><time>2025-05-24T16:28:35Z</time></trkpt>
<trkpt lat="50.273024" lon="4.954264"><ele>168.1</ele><time>2025-05-24T16:28:37Z</time></trkpt>
<trkpt lat="50.273091" lon="4.954062"><ele>166.78</ele><time>2025-05-24T16:28:39Z</time></trkpt>
<trkpt lat="50.273226" lon="4.95381"><ele>166.61</ele><time>2025-05-24T16:28:41Z</time></trkpt>
<trkpt lat="50.273318" lon="4.953714"><ele>166.74</ele><time>2025-05-24T16:28:43Z</time></trkpt>
<trkpt lat="50.273514" lon="4.953609"><ele>168.95</ele><time>2025-05-24T16:28:45Z</time></trkpt>
<trkpt lat="50.273652" lon="4.953585"><ele>170.22</ele><time>2025-05-24T16:28:47Z</time></trkpt>
<trkpt lat="50.273777" lon="4.953611"><ele>171.19</ele><time>2025-05-24T16:28:49Z</time></trkpt>
<trkpt lat="50.27392" lon="4.953681"><ele>171.97</ele><time>2025-05-24T16:28:51Z</time></trkpt>
<trkpt lat="50.2742" lon="4.953973"><ele>171.72</ele><time>2025-05-24T16:28:52Z</time></trkpt>
<trkpt lat="50.274352" lon="4.954094"><ele>171.57</ele><time>2025-05-24T16:28:54Z</time></trkpt>
<trkpt lat="50.274637" lon="4.954248"><ele>171.38</ele><time>2025-05-24T16:28:56Z</time></trkpt>
<trkpt lat="50.274784" lon="4.95427"><ele>171.9</ele><time>2025-05-24T16:28:58Z</time></trkpt>
<trkpt lat="50.275044" lon="4.954255"><ele>174.78</ele><time>2025-05-24T16:29:00Z</time></trkpt>
<trkpt lat="50.275171" lon="4.954162"><ele>177.27</ele><time>2025-05-24T16:29:02Z</time></trkpt>
<trkpt lat="50.275232" lon="4.954053"><ele>178.09</ele><time>2025-05-24T16:29:04Z</time></trkpt>
<trkpt lat="50.275416" lon="4.953523"><ele>179.85</ele><time>2025-05-24T16:29:06Z</time></trkpt>
<trkpt lat="50.275459" lon="4.953325"><ele>179.83</ele><time>2025-05-24T16:29:08Z</time></trkpt>
<trkpt lat="50.275473" lon="4.953164"><ele>179.72</ele><time>2025-05-24T16:29:09Z</time></trkpt>
<trkpt lat="50.275466" lon="4.952894"><ele>178.5</ele><time>2025-05-24T16:29:11Z</time></trkpt>
<trkpt lat="50.275412" lon="4.952647"><ele>177.52</ele><time>2025-05-24T16:29:13Z</time></trkpt>
<trkpt lat="50.275363" lon="4.95251"><ele>176.98</ele><time>2025-05-24T16:29:15Z</time></trkpt>
<trkpt lat="50.275297" lon="4.952381"><ele>175.19</ele><time>2025-05-24T16:29:17Z</time></trkpt>
<trkpt lat="50.275133" lon="4.952143"><ele>171.74</ele><time>2025-05-24T16:29:19Z</time></trkpt>
<trkpt lat="50.274946" lon="4.951919"><ele>169.71</ele><time>2025-05-24T16:29:21Z</time></trkpt>
<trkpt lat="50.274861" lon="4.951775"><ele>169.72</ele><time>2025-05-24T16:29:23Z</time></trkpt>
<trkpt lat="50.274633" lon="4.951231"><ele>163.46</ele><time>2025-05-24T16:29:25Z</time></trkpt>
<trkpt lat="50.274419" lon="4.950582"><ele>163.83</ele><time>2025-05-24T16:29:27Z</time></trkpt>
<trkpt lat="50.274132" lon="4.949849"><ele>169.83</ele><time>2025-05-24T16:29:28Z</time></trkpt>
<trkpt lat="50.274063" lon="4.949567"><ele>169.91</ele><time>2025-05-24T16:29:30Z</time></trkpt>
<trkpt lat="50.27404" lon="4.949235"><ele>168.4</ele><time>2025-05-24T16:29:32Z</time></trkpt>
<trkpt lat="50.274054" lon="4.94901"><ele>167.02</ele><time>2025-05-24T16:29:34Z</time></trkpt>
<trkpt lat="50.2741" lon="4.948668"><ele>164.84</ele><time>2025-05-24T16:29:36Z</time></trkpt>
<trkpt lat="50.274204" lon="4.948251"><ele>162.28</ele><time>2025-05-24T16:29:38Z</time></trkpt>
<trkpt lat="50.27432" lon="4.948003"><ele>161.79</ele><time>2025-05-24T16:29:40Z</time></trkpt>
<trkpt lat="50.274552" lon="4.947654"><ele>161.65</ele><time>2025-05-24T16:29:42Z</time></trkpt>
<trkpt lat="50.274683" lon="4.947401"><ele>162.49</ele><time>2025-05-24T16:29:44Z</time></trkpt>
<trkpt lat="50.274722" lon="4.947173"><ele>161.29</ele><time>2025-05-24T16:29:46Z</time></trkpt>
<trkpt lat="50.274718" lon="4.947032"><ele>159.23</ele><time>2025-05-24T16:29:47Z</time></trkpt>
<trkpt lat="50.274659" lon="4.946686"><ele>155.18</ele><time>2025-05-24T16:29:49Z</time></trkpt>
<trkpt lat="50.274562" lon="4.946298"><ele>154.0</ele><time>2025-05-24T16:29:51Z</time></trkpt>
<trkpt lat="50.274564" lon="4.946184"><ele>154.0</ele><time>2025-05-24T16:29:53Z</time></trkpt>
<trkpt lat="50.274676" lon="4.946133"><ele>154.0</ele><time>2025-05-24T16:29:55Z</time></trkpt>
<trkpt lat="50.274799" lon="4.946125"><ele>154.03</ele><time>2025-05-24T16:29:57Z</time></trkpt>
<trkpt lat="50.275027" lon="4.946152"><ele>154.51</ele><time>2025-05-24T16:29:59Z</time></trkpt>
<trkpt lat="50.275316" lon="4.946125"><ele>156.36</ele><time>2025-05-24T16:30:01Z</time></trkpt>
<trkpt lat="50.275451" lon="4.946055"><ele>156.32</ele><time>2025-05-24T16:30:03Z</time></trkpt>
<trkpt lat="50.27569" lon="4.945791"><ele>156.6</ele><time>2025-05-24T16:30:05Z</time></trkpt>
<trkpt lat="50.275811" lon="4.945607"><ele>157.88</ele><time>2025-05-24T16:30:06Z</time></trkpt>
<trkpt lat="50.275841" lon="4.945523"><ele>158.58</ele><time>2025-05-24T16:30:08Z</time></trkpt>
<trkpt lat="50.275889" lon="4.945344"><ele>162.07</ele><time>2025-05-24T16:30:10Z</time></trkpt>
<trkpt lat="50.275902" lon="4.945199"><ele>163.18</ele><time>2025-05-24T16:30:12Z</time></trkpt>
<trkpt lat="50.275893" lon="4.945142"><ele>162.8</ele><time>2025-05-24T16:30:14Z</time></trkpt>
<trkpt lat="50.275869" lon="4.945071"><ele>161.67</ele><time>2025-05-24T16:30:16Z</time></trkpt>
<trkpt lat="50.275821" lon="4.945014"><ele>159.65</ele><time>2025-05-24T16:30:18Z</time></trkpt>
<trkpt lat="50.275525" lon="4.944812"><ele>155.66</ele><time>2025-05-24T16:30:20Z</time></trkpt>
<trkpt lat="50.275384" lon="4.944694"><ele>159.2</ele><time>2025-05-24T16:30:22Z</time></trkpt>
<trkpt lat="50.275318" lon="4.944603"><ele>160.46</ele><time>2025-05-24T16:30:24Z</time></trkpt>
<trkpt lat="50.275285" lon="4.944454"><ele>160.94</ele><time>2025-05-24T16:30:25Z</time></trkpt>
<trkpt lat="50.275279" lon="4.944266"><ele>160.99</ele><time>2025-05-24T16:30:27Z</time></trkpt>
<trkpt lat="50.275294" lon="4.944084"><ele>160.74</ele><time>2025-05-24T16:30:29Z</time></trkpt>
<trkpt lat="50.275331" lon="4.943904"><ele>160.06</ele><time>2025-05-24T16:30:31Z</time></trkpt>
<trkpt lat="50.275669" lon="4.942747"><ele>154.15</ele><time>2025-05-24T16:30:33Z</time></trkpt>
<trkpt lat="50.275707" lon="4.942409"><ele>155.9</ele><time>2025-05-24T16:30:35Z</time></trkpt>
<trkpt lat="50.275706" lon="4.942218"><ele>156.62</ele><time>2025-05-24T16:30:37Z</time></trkpt>
<trkpt lat="50.275682" lon="4.94204"><ele>155.95</ele><time>2025-05-24T16:30:39Z</time></trkpt>
<trkpt lat="50.275648" lon="4.941876"><ele>154.92</ele><time>2025-05-24T16:30:41Z</time></trkpt>
<trkpt lat="50.275511" lon="4.941613"><ele>153.25</ele><time>2025-05-24T16:30:42Z</time></trkpt>
<trkpt lat="50.275458" lon="4.941539"><ele>154.49</ele><time>2025-05-24T16:30:44Z</time></trkpt>
<trkpt lat="50.275085" lon="4.941156"><ele>159.22</ele><time>2025-05-24T16:30:46Z</time></trkpt>
<trkpt lat="50.275018" lon="4.941062"><ele>159.25</ele><time>2025-05-24T16:30:48Z</time></trkpt>
<trkpt lat="50.274964" lon="4.940937"><ele>159.65</ele><time>2025-05-24T16:30:50Z</time></trkpt>
<trkpt lat="50.27493" lon="4.940767"><ele>159.17</ele><time>2025-05-24T16:30:52Z</time></trkpt>
<trkpt lat="50.274918" lon="4.94057"><ele>157.79</ele><time>2025-05-24T16:30:54Z</time></trkpt>
<trkpt lat="50.27494" lon="4.939506"><ele>153.6</ele><time>2025-05-24T16:30:56Z</time></trkpt>
<trkpt lat="50.274931" lon="4.939262"><ele>154.31</ele><time>2025-05-24T16:30:58Z</time></trkpt>
<trkpt lat="50.274904" lon="4.939109"><ele>155.0</ele><time>2025-05-24T16:31:00Z</time></trkpt>
<trkpt lat="50.274678" lon="4.93849"><ele>152.44</ele><time>2025-05-24T16:31:01Z</time></trkpt>
<trkpt lat="50.274655" lon="4.938309"><ele>151.71</ele><time>2025-05-24T16:31:03Z</time></trkpt>
<trkpt lat="50.274664" lon="4.938042"><ele>151.87</ele><time>2025-05-24T16:31:05Z</time></trkpt>
<trkpt lat="50.27478" lon="4.936982"><ele>149.93</ele><time>2025-05-24T16:31:07Z</time></trkpt>
<trkpt lat="50.274782" lon="4.936692"><ele>151.25</ele><time>2025-05-24T16:31:09Z</time></trkpt>
<trkpt lat="50.274709" lon="4.93587"><ele>151.75</ele><time>2025-05-24T16:31:11Z</time></trkpt>
<trkpt lat="50.274736" lon="4.935479"><ele>150.06</ele><time>2025-05-24T16:31:13Z</time></trkpt>
<trkpt lat="50.274778" lon="4.935205"><ele>150.09</ele><time>2025-05-24T16:31:15Z</time></trkpt>
<trkpt lat="50.274788" lon="4.934946"><ele>149.75</ele><time>2025-05-24T16:31:17Z</time></trkpt>
<trkpt lat="50.274739" lon="4.93462"><ele>148.24</ele><time>2025-05-24T16:31:19Z</time></trkpt>
<trkpt lat="50.27473" lon="4.934413"><ele>147.89</ele><time>2025-05-24T16:31:20Z</time></trkpt>
<trkpt lat="50.274749" lon="4.933841"><ele>145.31</ele><time>2025-05-24T16:31:22Z</time></trkpt>
<trkpt lat="50.274689" lon="4.932897"><ele>137.34</ele><time>2025-05-24T16:31:24Z</time></trkpt>
<trkpt lat="50.274688" lon="4.932707"><ele>135.94</ele><time>2025-05-24T16:31:26Z</time></trkpt>
<trkpt lat="50.274921" lon="4.931105"><ele>131.75</ele><time>2025-05-24T16:31:28Z</time></trkpt>
<trkpt lat="50.274946" lon="4.930521"><ele>134.54</ele><time>2025-05-24T16:31:30Z</time></trkpt>
<trkpt lat="50.274918" lon="4.930312"><ele>134.58</ele><time>2025-05-24T16:31:32Z</time></trkpt>
<trkpt lat="50.274858" lon="4.930051"><ele>132.88</ele><time>2025-05-24T16:31:34Z</time></trkpt>
<trkpt lat="50.274781" lon="4.929809"><ele>132.03</ele><time>2025-05-24T16:31:36Z</time></trkpt>
<trkpt lat="50.274636" lon="4.929571"><ele>129.25</ele><time>2025-05-24T16:31:38Z</time></trkpt>
<trkpt lat="50.274481" lon="4.929371"><ele>128.36</ele><time>2025-05-24T16:31:39Z</time></trkpt>
<trkpt lat="50.274093" lon="4.928983"><ele>144.36</ele><time>2025-05-24T16:31:41Z</time></trkpt>
<trkpt lat="50.273041" lon="4.927831"><ele>127.61</ele><time>2025-05-24T16:31:43Z</time></trkpt>
<trkpt lat="50.27294" lon="4.927666"><ele>126.1</ele><time>2025-05-24T16:31:45Z</time></trkpt>
<trkpt lat="50.272912" lon="4.927518"><ele>124.61</ele><time>2025-05-24T16:31:47Z</time></trkpt>
<trkpt lat="50.2729" lon="4.927328"><ele>123.28</ele><time>2025-05-24T16:31:49Z</time></trkpt>
<trkpt lat="50.272917" lon="4.926361"><ele>121.96</ele><time>2025-05-24T16:31:51Z</time></trkpt>
<trkpt lat="50.272976" lon="4.92592"><ele>123.89</ele><time>2025-05-24T16:31:53Z</time></trkpt>
<trkpt lat="50.273478" lon="4.922923"><ele>126.94</ele><time>2025-05-24T16:31:55Z</time></trkpt>
<trkpt lat="50.273564" lon="4.921808"><ele>124.66</ele><time>2025-05-24T16:31:57Z</time></trkpt>
<trkpt lat="50.273531" lon="4.919621"><ele>120.17</ele><time>2025-05-24T16:31:58Z</time></trkpt>
<trkpt lat="50.273504" lon="4.919367"><ele>119.75</ele><time>2025-05-24T16:32:00Z</time></trkpt>
<trkpt lat="50.273413" lon="4.919107"><ele>118.41</ele><time>2025-05-24T16:32:02Z</time></trkpt>
<trkpt lat="50.273297" lon="4.918939"><ele>115.61</ele><time>2025-05-24T16:32:04Z</time></trkpt>
<trkpt lat="50.273167" lon="4.918818"><ele>115.83</ele><time>2025-05-24T16:32:06Z</time></trkpt>
<trkpt lat="50.27301" lon="4.918725"><ele>116.4</ele><time>2025-05-24T16:32:08Z</time></trkpt>
<trkpt lat="50.272273" lon="4.918455"><ele>118.58</ele><time>2025-05-24T16:32:10Z</time></trkpt>
<trkpt lat="50.271558" lon="4.918069"><ele>112.72</ele><time>2025-05-24T16:32:12Z</time></trkpt>
<trkpt lat="50.27121" lon="4.917818"><ele>110.02</ele><time>2025-05-24T16:32:14Z</time></trkpt>
<trkpt lat="50.270918" lon="4.917569"><ele>112.79</ele><time>2025-05-24T16:32:15Z</time></trkpt>
<trkpt lat="50.270802" lon="4.917516"><ele>112.24</ele><time>2025-05-24T16:32:17Z</time></trkpt>
<trkpt lat="50.270576" lon="4.917487"><ele>109.31</ele><time>2025-05-24T16:32:19Z</time></trkpt>
<trkpt lat="50.270482" lon="4.917439"><ele>108.03</ele><time>2025-05-24T16:32:21Z</time></trkpt>
<trkpt lat="50.270428" lon="4.917343"><ele>106.84</ele><time>2025-05-24T16:32:23Z</time></trkpt>
<trkpt lat="50.2704" lon="4.917254"><ele>105.84</ele><time>2025-05-24T16:32:25Z</time></trkpt>
<trkpt lat="50.270385" lon="4.91712"><ele>106.55</ele><time>2025-05-24T16:32:27Z</time></trkpt>
<trkpt lat="50.270434" lon="4.916249"><ele>114.34</ele><time>2025-05-24T16:32:29Z</time></trkpt>
<trkpt lat="50.270424" lon="4.915803"><ele>114.25</ele><time>2025-05-24T16:32:31Z</time></trkpt>
<trkpt lat="50.270362" lon="4.915261"><ele>113.02</ele><time>2025-05-24T16:32:33Z</time></trkpt>
<trkpt lat="50.270272" lon="4.914986"><ele>109.99</ele><time>2025-05-24T16:32:34Z</time></trkpt>
<trkpt lat="50.270061" lon="4.914584"><ele>107.37</ele><time>2025-05-24T16:32:36Z</time></trkpt>
<trkpt lat="50.269989" lon="4.914378"><ele>106.11</ele><time>2025-05-24T16:32:38Z</time></trkpt>
<trkpt lat="50.269939" lon="4.913538"><ele>107.46</ele><time>2025-05-24T16:32:40Z</time></trkpt>
<trkpt lat="50.269884" lon="4.91319"><ele>106.15</ele><time>2025-05-24T16:32:42Z</time></trkpt>
<trkpt lat="50.269544" lon="4.911701"><ele>104.11</ele><time>2025-05-24T16:32:44Z</time></trkpt>
<trkpt lat="50.269404" lon="4.910584"><ele>104.59</ele><time>2025-05-24T16:32:46Z</time></trkpt>
<trkpt lat="50.269323" lon="4.907606"><ele>100.39</ele><time>2025-05-24T16:32:48Z</time></trkpt>
<trkpt lat="50.269368" lon="4.907167"><ele>99.14</ele><time>2025-05-24T16:32:50Z</time></trkpt>
<trkpt lat="50.269308" lon="4.907152"><ele>99.13</ele><time>2025-05-24T16:32:52Z</time></trkpt>
<trkpt lat="50.269254" lon="4.907087"><ele>99.15</ele><time>2025-05-24T16:32:54Z</time></trkpt>
<trkpt lat="50.269125" lon="4.906911"><ele>98.85</ele><time>2025-05-24T16:32:56Z</time></trkpt>
<trkpt lat="50.268718" lon="4.906436"><ele>95.72</ele><time>2025-05-24T16:32:59Z</time></trkpt>
<trkpt lat="50.268622" lon="4.906118"><ele>94.03</ele><time>2025-05-24T16:33:01Z</time></trkpt>
<trkpt lat="50.268615" lon="4.905712"><ele>92.99</ele><time>2025-05-24T16:33:03Z</time></trkpt>
<trkpt lat="50.268689" lon="4.905451"><ele>92.99</ele><time>2025-05-24T16:33:05Z</time></trkpt>
<trkpt lat="50.269233" lon="4.904939"><ele>91.64</ele><time>2025-05-24T16:33:18Z</time></trkpt>
<trkpt lat="50.271259" lon="4.903203"><ele>94.03</ele><time>2025-05-24T16:33:31Z</time></trkpt>
<trkpt lat="50.272067" lon="4.902486"><ele>94.95</ele><time>2025-05-24T16:33:44Z</time></trkpt>
<trkpt lat="50.272045" lon="4.902786"><ele>96.81</ele><time>2025-05-24T16:33:55Z</time></trkpt>
<trkpt lat="50.271963" lon="4.903045"><ele>98.18</ele><time>2025-05-24T16:34:05Z</time></trkpt>
<trkpt lat="50.271777" lon="4.903295"><ele>98.25</ele><time>2025-05-24T16:34:16Z</time></trkpt>
<trkpt lat="50.270734" lon="4.904435"><ele>94.85</ele><time>2025-05-24T16:34:26Z</time></trkpt>
<trkpt lat="50.270644" lon="4.904592"><ele>96.58</ele><time>2025-05-24T16:34:36Z</time></trkpt>
<trkpt lat="50.270236" lon="4.905184"><ele>98.3</ele><time>2025-05-24T16:34:47Z</time></trkpt>
<trkpt lat="50.26984" lon="4.905732"><ele>99.72</ele><time>2025-05-24T16:34:57Z</time></trkpt>
<trkpt lat="50.26972" lon="4.906047"><ele>101.27</ele><time>2025-05-24T16:35:08Z</time></trkpt>
<trkpt lat="50.269705" lon="4.906203"><ele>101.89</ele><time>2025-05-24T16:35:18Z</time></trkpt>
<trkpt lat="50.269705" lon="4.906203"><ele>101.89</ele><time>2025-05-24T16:35:18Z</time></trkpt>
<trkpt lat="50.269703" lon="4.906226"><ele>102.51</ele><time>2025-05-24T16:35:18Z</time></trkpt>
<trkpt lat="50.26975" lon="4.906219"><ele>103.58</ele><time>2025-05-24T16:35:20Z</time></trkpt>
<trkpt lat="50.269821" lon="4.906261"><ele>106.13</ele><time>2025-05-24T16:35:21Z</time></trkpt>
<trkpt lat="50.269861" lon="4.906313"><ele>108.03</ele><time>2025-05-24T16:35:22Z</time></trkpt>
<trkpt lat="50.269889" lon="4.906458"><ele>111.07</ele><time>2025-05-24T16:35:24Z</time></trkpt>
<trkpt lat="50.269882" lon="4.90656"><ele>112.32</ele><time>2025-05-24T16:35:25Z</time></trkpt>
<trkpt lat="50.269737" lon="4.906989"><ele>108.91</ele><time>2025-05-24T16:35:26Z</time></trkpt>
<trkpt lat="50.269719" lon="4.907157"><ele>108.67</ele><time>2025-05-24T16:35:28Z</time></trkpt>
<trkpt lat="50.269734" lon="4.907808"><ele>114.68</ele><time>2025-05-24T16:35:29Z</time></trkpt>
<trkpt lat="50.269706" lon="4.908259"><ele>114.09</ele><time>2025-05-24T16:35:30Z</time></trkpt>
<trkpt lat="50.269731" lon="4.908761"><ele>113.35</ele><time>2025-05-24T16:35:31Z</time></trkpt>
<trkpt lat="50.269801" lon="4.90951"><ele>117.39</ele><time>2025-05-24T16:35:33Z</time></trkpt>
<trkpt lat="50.269887" lon="4.910156"><ele>121.35</ele><time>2025-05-24T16:35:34Z</time></trkpt>
<trkpt lat="50.270139" lon="4.911305"><ele>131.73</ele><time>2025-05-24T16:35:35Z</time></trkpt>
<trkpt lat="50.270344" lon="4.912365"><ele>133.3</ele><time>2025-05-24T16:35:37Z</time></trkpt>
<trkpt lat="50.270395" lon="4.913029"><ele>132.46</ele><time>2025-05-24T16:35:38Z</time></trkpt>
<trkpt lat="50.270432" lon="4.913308"><ele>132.01</ele><time>2025-05-24T16:35:39Z</time></trkpt>
<trkpt lat="50.270487" lon="4.913539"><ele>133.82</ele><time>2025-05-24T16:35:41Z</time></trkpt>
<trkpt lat="50.270561" lon="4.913752"><ele>136.83</ele><time>2025-05-24T16:35:42Z</time></trkpt>
<trkpt lat="50.270668" lon="4.913979"><ele>141.21</ele><time>2025-05-24T16:35:43Z</time></trkpt>
<trkpt lat="50.270728" lon="4.91415"><ele>142.08</ele><time>2025-05-24T16:35:45Z</time></trkpt>
<trkpt lat="50.27088" lon="4.914732"><ele>143.22</ele><time>2025-05-24T16:35:46Z</time></trkpt>
<trkpt lat="50.27092" lon="4.914976"><ele>142.22</ele><time>2025-05-24T16:35:47Z</time></trkpt>
<trkpt lat="50.271024" lon="4.915941"><ele>144.11</ele><time>2025-05-24T16:35:49Z</time></trkpt>
<trkpt lat="50.271041" lon="4.916581"><ele>142.3</ele><time>2025-05-24T16:35:50Z</time></trkpt>
<trkpt lat="50.271082" lon="4.916716"><ele>142.68</ele><time>2025-05-24T16:35:51Z</time></trkpt>
<trkpt lat="50.271188" lon="4.916825"><ele>142.48</ele><time>2025-05-24T16:35:53Z</time></trkpt>
<trkpt lat="50.271282" lon="4.916839"><ele>143.95</ele><time>2025-05-24T16:35:54Z</time></trkpt>
<trkpt lat="50.271392" lon="4.916811"><ele>147.36</ele><time>2025-05-24T16:35:55Z</time></trkpt>
<trkpt lat="50.271544" lon="4.916682"><ele>155.19</ele><time>2025-05-24T16:35:56Z</time></trkpt>
<trkpt lat="50.271659" lon="4.91664"><ele>158.54</ele><time>2025-05-24T16:35:58Z</time></trkpt>
<trkpt lat="50.271839" lon="4.916641"><ele>160.61</ele><time>2025-05-24T16:35:59Z</time></trkpt>
<trkpt lat="50.272124" lon="4.916727"><ele>158.62</ele><time>2025-05-24T16:36:00Z</time></trkpt>
<trkpt lat="50.272428" lon="4.917049"><ele>155.91</ele><time>2025-05-24T16:36:02Z</time></trkpt>
<trkpt lat="50.272521" lon="4.91713"><ele>156.15</ele><time>2025-05-24T16:36:03Z</time></trkpt>
<trkpt lat="50.272636" lon="4.917178"><ele>157.36</ele><time>2025-05-24T16:36:04Z</time></trkpt>
<trkpt lat="50.273406" lon="4.917187"><ele>172.49</ele><time>2025-05-24T16:36:06Z</time></trkpt>
<trkpt lat="50.273636" lon="4.917275"><ele>171.63</ele><time>2025-05-24T16:36:07Z</time></trkpt>
<trkpt lat="50.273854" lon="4.91729"><ele>172.56</ele><time>2025-05-24T16:36:08Z</time></trkpt>
<trkpt lat="50.273923" lon="4.917318"><ele>173.13</ele><time>2025-05-24T16:36:10Z</time></trkpt>
<trkpt lat="50.274033" lon="4.917424"><ele>174.01</ele><time>2025-05-24T16:36:11Z</time></trkpt>
<trkpt lat="50.274169" lon="4.917656"><ele>173.23</ele><time>2025-05-24T16:36:12Z</time></trkpt>
<trkpt lat="50.274247" lon="4.917898"><ele>172.1</ele><time>2025-05-24T16:36:14Z</time></trkpt>
<trkpt lat="50.274289" lon="4.918347"><ele>170.09</ele><time>2025-05-24T16:36:15Z</time></trkpt>
<trkpt lat="50.274471" lon="4.918925"><ele>173.23</ele><time>2025-05-24T16:36:16Z</time></trkpt>
<trkpt lat="50.274563" lon="4.919116"><ele>173.12</ele><time>2025-05-24T16:36:18Z</time></trkpt>
<trkpt lat="50.274657" lon="4.919216"><ele>174.91</ele><time>2025-05-24T16:36:19Z</time></trkpt>
<trkpt lat="50.274742" lon="4.919253"><ele>177.29</ele><time>2025-05-24T16:36:20Z</time></trkpt>
<trkpt lat="50.274856" lon="4.919243"><ele>180.53</ele><time>2025-05-24T16:36:21Z</time></trkpt>
<trkpt lat="50.275923" lon="4.919041"><ele>190.59</ele><time>2025-05-24T16:36:23Z</time></trkpt>
<trkpt lat="50.276041" lon="4.919043"><ele>192.1</ele><time>2025-05-24T16:36:24Z</time></trkpt>
<trkpt lat="50.276123" lon="4.919128"><ele>193.08</ele><time>2025-05-24T16:36:25Z</time></trkpt>
<trkpt lat="50.276261" lon="4.919135"><ele>194.08</ele><time>2025-05-24T16:36:29Z</time></trkpt>
<trkpt lat="50.276553" lon="4.919259"><ele>196.51</ele><time>2025-05-24T16:36:33Z</time></trkpt>
<trkpt lat="50.276852" lon="4.919264"><ele>197.78</ele><time>2025-05-24T16:36:36Z</time></trkpt>
<trkpt lat="50.277754" lon="4.919031"><ele>205.62</ele><time>2025-05-24T16:36:40Z</time></trkpt>
<trkpt lat="50.278181" lon="4.918991"><ele>207.45</ele><time>2025-05-24T16:36:43Z</time></trkpt>
<trkpt lat="50.279571" lon="4.918944"><ele>215.11</ele><time>2025-05-24T16:36:47Z</time></trkpt>
<trkpt lat="50.279752" lon="4.918969"><ele>216.29</ele><time>2025-05-24T16:36:51Z</time></trkpt>
<trkpt lat="50.28289" lon="4.919811"><ele>232.4</ele><time>2025-05-24T16:36:54Z</time></trkpt>
<trkpt lat="50.283148" lon="4.919783"><ele>233.92</ele><time>2025-05-24T16:36:58Z</time></trkpt>
<trkpt lat="50.284065" lon="4.919268"><ele>238.36</ele><time>2025-05-24T16:37:01Z</time></trkpt>
<trkpt lat="50.284528" lon="4.918832"><ele>237.79</ele><time>2025-05-24T16:37:05Z</time></trkpt>
<trkpt lat="50.284795" lon="4.918654"><ele>237.11</ele><time>2025-05-24T16:37:09Z</time></trkpt>
<trkpt lat="50.284932" lon="4.918635"><ele>237.02</ele><time>2025-05-24T16:37:12Z</time></trkpt>
<trkpt lat="50.285114" lon="4.918651"><ele>236.24</ele><time>2025-05-24T16:37:16Z</time></trkpt>
<trkpt lat="50.285302" lon="4.918703"><ele>235.36</ele><time>2025-05-24T16:37:19Z</time></trkpt>
<trkpt lat="50.286014" lon="4.919048"><ele>236.55</ele><time>2025-05-24T16:37:23Z</time></trkpt>
<trkpt lat="50.286425" lon="4.919326"><ele>234.02</ele><time>2025-05-24T16:37:26Z</time></trkpt>
<trkpt lat="50.287095" lon="4.919717"><ele>233.44</ele><time>2025-05-24T16:37:30Z</time></trkpt>
<trkpt lat="50.289437" lon="4.921188"><ele>223.01</ele><time>2025-05-24T16:37:34Z</time></trkpt>
<trkpt lat="50.290719" lon="4.922054"><ele>223.34</ele><time>2025-05-24T16:37:37Z</time></trkpt>
<trkpt lat="50.290931" lon="4.922284"><ele>220.94</ele><time>2025-05-24T16:37:41Z</time></trkpt>
<trkpt lat="50.291064" lon="4.922472"><ele>219.51</ele><time>2025-05-24T16:37:44Z</time></trkpt>
<trkpt lat="50.29115" lon="4.922634"><ele>218.1</ele><time>2025-05-24T16:37:48Z</time></trkpt>
<trkpt lat="50.291379" lon="4.923546"><ele>212.18</ele><time>2025-05-24T16:37:52Z</time></trkpt>
<trkpt lat="50.291479" lon="4.923872"><ele>212.61</ele><time>2025-05-24T16:37:55Z</time></trkpt>
<trkpt lat="50.291582" lon="4.923948"><ele>212.58</ele><time>2025-05-24T16:37:59Z</time></trkpt>
<trkpt lat="50.29231" lon="4.923851"><ele>207.05</ele><time>2025-05-24T16:38:02Z</time></trkpt>
<trkpt lat="50.292739" lon="4.923678"><ele>200.94</ele><time>2025-05-24T16:38:06Z</time></trkpt>
<trkpt lat="50.293131" lon="4.923436"><ele>197.28</ele><time>2025-05-24T16:38:10Z</time></trkpt>
<trkpt lat="50.293331" lon="4.923344"><ele>197.07</ele><time>2025-05-24T16:38:13Z</time></trkpt>
<trkpt lat="50.293474" lon="4.923337"><ele>196.51</ele><time>2025-05-24T16:38:17Z</time></trkpt>
<trkpt lat="50.293595" lon="4.923403"><ele>196.32</ele><time>2025-05-24T16:38:20Z</time></trkpt>
<trkpt lat="50.29452" lon="4.924203"><ele>199.7</ele><time>2025-05-24T16:38:24Z</time></trkpt>
<trkpt lat="50.295647" lon="4.925117"><ele>208.33</ele><time>2025-05-24T16:38:28Z</time></trkpt>
<trkpt lat="50.295647" lon="4.925117"><ele>208.33</ele><time>2025-05-24T16:38:28Z</time></trkpt>
<trkpt lat="50.295806" lon="4.925201"><ele>208.9</ele><time>2025-05-24T16:38:34Z</time></trkpt>
<trkpt lat="50.297023" lon="4.924904"><ele>219.07</ele><time>2025-05-24T16:38:40Z</time></trkpt>
<trkpt lat="50.29751" lon="4.924822"><ele>225.76</ele><time>2025-05-24T16:38:46Z</time></trkpt>
<trkpt lat="50.297599" lon="4.92485"><ele>227.09</ele><time>2025-05-24T16:38:52Z</time></trkpt>
<trkpt lat="50.297693" lon="4.924938"><ele>227.91</ele><time>2025-05-24T16:38:59Z</time></trkpt>
<trkpt lat="50.297789" lon="4.925123"><ele>229.18</ele><time>2025-05-24T16:39:05Z</time></trkpt>
<trkpt lat="50.299714" lon="4.929841"><ele>244.64</ele><time>2025-05-24T16:39:11Z</time></trkpt>
<trkpt lat="50.300655" lon="4.931197"><ele>242.64</ele><time>2025-05-24T16:39:17Z</time></trkpt>
<trkpt lat="50.300861" lon="4.931538"><ele>241.56</ele><time>2025-05-24T16:39:23Z</time></trkpt>
<trkpt lat="50.301536" lon="4.932779"><ele>243.0</ele><time>2025-05-24T16:39:30Z</time></trkpt>
<trkpt lat="50.30428" lon="4.938011"><ele>249.07</ele><time>2025-05-24T16:39:36Z</time></trkpt>
<trkpt lat="50.304671" lon="4.938721"><ele>247.6</ele><time>2025-05-24T16:39:42Z</time></trkpt>
<trkpt lat="50.305862" lon="4.940494"><ele>252.1</ele><time>2025-05-24T16:39:48Z</time></trkpt>
<trkpt lat="50.306054" lon="4.940727"><ele>252.79</ele><time>2025-05-24T16:39:54Z</time></trkpt>
<trkpt lat="50.306346" lon="4.941002"><ele>253.51</ele><time>2025-05-24T16:40:01Z</time></trkpt>
<trkpt lat="50.308609" lon="4.942902"><ele>250.53</ele><time>2025-05-24T16:40:07Z</time></trkpt>
<trkpt lat="50.308764" lon="4.943064"><ele>250.47</ele><time>2025-05-24T16:40:13Z</time></trkpt>
<trkpt lat="50.308999" lon="4.943017"><ele>250.56</ele><time>2025-05-24T16:40:17Z</time></trkpt>
<trkpt lat="50.309506" lon="4.942895"><ele>246.23</ele><time>2025-05-24T16:40:20Z</time></trkpt>
<trkpt lat="50.309725" lon="4.942877"><ele>244.98</ele><time>2025-05-24T16:40:24Z</time></trkpt>
<trkpt lat="50.309919" lon="4.942955"><ele>243.58</ele><time>2025-05-24T16:40:27Z</time></trkpt>
<trkpt lat="50.310181" lon="4.943153"><ele>240.7</ele><time>2025-05-24T16:40:31Z</time></trkpt>
<trkpt lat="50.311206" lon="4.941021"><ele>241.41</ele><time>2025-05-24T16:40:41Z</time></trkpt>
<trkpt lat="50.311672" lon="4.940128"><ele>242.48</ele><time>2025-05-24T16:40:51Z</time></trkpt>
<trkpt lat="50.313263" lon="4.937263"><ele>250.85</ele><time>2025-05-24T16:41:02Z</time></trkpt>
<trkpt lat="50.314639" lon="4.934734"><ele>259.66</ele><time>2025-05-24T16:41:12Z</time></trkpt>
<trkpt lat="50.314784" lon="4.934271"><ele>260.85</ele><time>2025-05-24T16:41:22Z</time></trkpt>
<trkpt lat="50.316394" lon="4.92582"><ele>258.02</ele><time>2025-05-24T16:41:33Z</time></trkpt>
<trkpt lat="50.316503" lon="4.925095"><ele>258.41</ele><time>2025-05-24T16:41:43Z</time></trkpt>
<trkpt lat="50.316564" lon="4.924552"><ele>260.24</ele><time>2025-05-24T16:41:53Z</time></trkpt>
<trkpt lat="50.316618" lon="4.92385"><ele>262.53</ele><time>2025-05-24T16:42:04Z</time></trkpt>
<trkpt lat="50.316853" lon="4.92376"><ele>263.57</ele><time>2025-05-24T16:42:08Z</time></trkpt>
<trkpt lat="50.316971" lon="4.923673"><ele>263.35</ele><time>2025-05-24T16:42:12Z</time></trkpt>
<trkpt lat="50.317045" lon="4.923511"><ele>262.14</ele><time>2025-05-24T16:42:16Z</time></trkpt>
<trkpt lat="50.318321" lon="4.919567"><ele>258.14</ele><time>2025-05-24T16:42:20Z</time></trkpt>
<trkpt lat="50.318369" lon="4.919365"><ele>259.12</ele><time>2025-05-24T16:42:24Z</time></trkpt>
<trkpt lat="50.318273" lon="4.919256"><ele>259.9</ele><time>2025-05-24T16:42:28Z</time></trkpt>
<trkpt lat="50.318161" lon="4.919037"><ele>261.09</ele><time>2025-05-24T16:42:32Z</time></trkpt>
<trkpt lat="50.317886" lon="4.918379"><ele>257.44</ele><time>2025-05-24T16:42:37Z</time></trkpt>
<trkpt lat="50.317871" lon="4.918156"><ele>255.94</ele><time>2025-05-24T16:42:41Z</time></trkpt>
<trkpt lat="50.317917" lon="4.917876"><ele>255.69</ele><time>2025-05-24T16:42:45Z</time></trkpt>
<trkpt lat="50.318132" lon="4.9174"><ele>254.66</ele><time>2025-05-24T16:42:49Z</time></trkpt>
<trkpt lat="50.318283" lon="4.917047"><ele>252.74</ele><time>2025-05-24T16:42:53Z</time></trkpt>
<trkpt lat="50.318462" lon="4.916471"><ele>248.05</ele><time>2025-05-24T16:42:57Z</time></trkpt>
<trkpt lat="50.31867" lon="4.915182"><ele>243.71</ele><time>2025-05-24T16:43:01Z</time></trkpt>
<trkpt lat="50.318743" lon="4.914459"><ele>242.03</ele><time>2025-05-24T16:43:05Z</time></trkpt>
<trkpt lat="50.318833" lon="4.91386"><ele>239.7</ele><time>2025-05-24T16:43:10Z</time></trkpt>
<trkpt lat="50.318885" lon="4.913653"><ele>239.13</ele><time>2025-05-24T16:43:14Z</time></trkpt>
<trkpt lat="50.318961" lon="4.913477"><ele>238.78</ele><time>2025-05-24T16:43:18Z</time></trkpt>
<trkpt lat="50.319193" lon="4.913086"><ele>238.1</ele><time>2025-05-24T16:43:22Z</time></trkpt>
<trkpt lat="50.319564" lon="4.912237"><ele>238.26</ele><time>2025-05-24T16:43:26Z</time></trkpt>
<trkpt lat="50.31968" lon="4.912008"><ele>240.07</ele><time>2025-05-24T16:43:30Z</time></trkpt>
<trkpt lat="50.320137" lon="4.912144"><ele>245.7</ele><time>2025-05-24T16:43:34Z</time></trkpt>
<trkpt lat="50.320283" lon="4.91211"><ele>246.63</ele><time>2025-05-24T16:43:38Z</time></trkpt>
<trkpt lat="50.320496" lon="4.912014"><ele>247.82</ele><time>2025-05-24T16:43:41Z</time></trkpt>
<trkpt lat="50.320625" lon="4.9113"><ele>248.5</ele><time>2025-05-24T16:43:45Z</time></trkpt>
<trkpt lat="50.320685" lon="4.911041"><ele>249.18</ele><time>2025-05-24T16:43:48Z</time></trkpt>
<trkpt lat="50.320732" lon="4.910961"><ele>249.81</ele><time>2025-05-24T16:43:51Z</time></trkpt>
<trkpt lat="50.32085" lon="4.910874"><ele>251.04</ele><time>2025-05-24T16:43:55Z</time></trkpt>
<trkpt lat="50.32112" lon="4.910735"><ele>254.37</ele><time>2025-05-24T16:43:58Z</time></trkpt>
<trkpt lat="50.321698" lon="4.910525"><ele>255.11</ele><time>2025-05-24T16:44:02Z</time></trkpt>
<trkpt lat="50.321886" lon="4.910481"><ele>255.27</ele><time>2025-05-24T16:44:05Z</time></trkpt>
<trkpt lat="50.322484" lon="4.91032"><ele>254.71</ele><time>2025-05-24T16:44:08Z</time></trkpt>
<trkpt lat="50.322637" lon="4.910364"><ele>254.38</ele><time>2025-05-24T16:44:12Z</time></trkpt>
<trkpt lat="50.322711" lon="4.91044"><ele>253.83</ele><time>2025-05-24T16:44:15Z</time></trkpt>
<trkpt lat="50.323023" lon="4.910522"><ele>252.36</ele><time>2025-05-24T16:44:23Z</time></trkpt>
<trkpt lat="50.323356" lon="4.910645"><ele>249.68</ele><time>2025-05-24T16:44:31Z</time></trkpt>
<trkpt lat="50.323473" lon="4.910639"><ele>249.7</ele><time>2025-05-24T16:44:38Z</time></trkpt>
<trkpt lat="50.323651" lon="4.910592"><ele>249.74</ele><time>2025-05-24T16:44:46Z</time></trkpt>
<trkpt lat="50.324119" lon="4.910406"><ele>247.63</ele><time>2025-05-24T16:44:54Z</time></trkpt>
<trkpt lat="50.325631" lon="4.909605"><ele>243.15</ele><time>2025-05-24T16:45:02Z</time></trkpt>
<trkpt lat="50.325981" lon="4.909461"><ele>243.5</ele><time>2025-05-24T16:45:09Z</time></trkpt>
<trkpt lat="50.326138" lon="4.909405"><ele>244.18</ele><time>2025-05-24T16:45:13Z</time></trkpt>
<trkpt lat="50.326429" lon="4.909354"><ele>245.96</ele><time>2025-05-24T16:45:16Z</time></trkpt>
<trkpt lat="50.32674" lon="4.909363"><ele>248.24</ele><time>2025-05-24T16:45:19Z</time></trkpt>
<trkpt lat="50.328783" lon="4.909577"><ele>256.28</ele><time>2025-05-24T16:45:23Z</time></trkpt>
<trkpt lat="50.328898" lon="4.909539"><ele>255.63</ele><time>2025-05-24T16:45:26Z</time></trkpt>
<trkpt lat="50.329331" lon="4.909282"><ele>255.49</ele><time>2025-05-24T16:45:29Z</time></trkpt>
<trkpt lat="50.329462" lon="4.909244"><ele>255.28</ele><time>2025-05-24T16:45:33Z</time></trkpt>
<trkpt lat="50.329586" lon="4.909251"><ele>255.3</ele><time>2025-05-24T16:45:36Z</time></trkpt>
<trkpt lat="50.329796" lon="4.909301"><ele>255.09</ele><time>2025-05-24T16:45:39Z</time></trkpt>
<trkpt lat="50.330731" lon="4.909608"><ele>242.85</ele><time>2025-05-24T16:45:43Z</time></trkpt>
<trkpt lat="50.330884" lon="4.909636"><ele>239.84</ele><time>2025-05-24T16:45:46Z</time></trkpt>
<trkpt lat="50.331052" lon="4.90964"><ele>236.16</ele><time>2025-05-24T16:45:49Z</time></trkpt>
<trkpt lat="50.331335" lon="4.90958"><ele>229.9</ele><time>2025-05-24T16:45:53Z</time></trkpt>
<trkpt lat="50.331428" lon="4.909502"><ele>228.4</ele><time>2025-05-24T16:45:56Z</time></trkpt>
<trkpt lat="50.331463" lon="4.909446"><ele>228.12</ele><time>2025-05-24T16:45:59Z</time></trkpt>
<trkpt lat="50.331483" lon="4.909362"><ele>228.02</ele><time>2025-05-24T16:46:03Z</time></trkpt>
<trkpt lat="50.331526" lon="4.908328"><ele>226.03</ele><time>2025-05-24T16:46:06Z</time></trkpt>
<trkpt lat="50.331669" lon="4.907641"><ele>218.42</ele><time>2025-05-24T16:46:09Z</time></trkpt>
<trkpt lat="50.33183" lon="4.907129"><ele>210.87</ele><time>2025-05-24T16:46:13Z</time></trkpt>
<trkpt lat="50.331956" lon="4.906945"><ele>204.44</ele><time>2025-05-24T16:46:16Z</time></trkpt>
<trkpt lat="50.333033" lon="4.905169"><ele>173.28</ele><time>2025-05-24T16:46:20Z</time></trkpt>
<trkpt lat="50.333306" lon="4.904506"><ele>167.51</ele><time>2025-05-24T16:46:23Z</time></trkpt>
<trkpt lat="50.333438" lon="4.904262"><ele>166.75</ele><time>2025-05-24T16:46:26Z</time></trkpt>
<trkpt lat="50.333687" lon="4.903895"><ele>165.73</ele><time>2025-05-24T16:46:30Z</time></trkpt>
<trkpt lat="50.333737" lon="4.903764"><ele>164.65</ele><time>2025-05-24T16:46:33Z</time></trkpt>
<trkpt lat="50.333746" lon="4.903626"><ele>163.62</ele><time>2025-05-24T16:46:36Z</time></trkpt>
<trkpt lat="50.333706" lon="4.903458"><ele>163.11</ele><time>2025-05-24T16:46:40Z</time></trkpt>
<trkpt lat="50.333391" lon="4.90268"><ele>156.02</ele><time>2025-05-24T16:46:43Z</time></trkpt>
<trkpt lat="50.333298" lon="4.90249"><ele>154.05</ele><time>2025-05-24T16:46:46Z</time></trkpt>
<trkpt lat="50.333334" lon="4.902377"><ele>153.12</ele><time>2025-05-24T16:46:50Z</time></trkpt>
<trkpt lat="50.333402" lon="4.902248"><ele>152.66</ele><time>2025-05-24T16:46:53Z</time></trkpt>
<trkpt lat="50.333719" lon="4.90199"><ele>152.14</ele><time>2025-05-24T16:46:56Z</time></trkpt>
<trkpt lat="50.333749" lon="4.901888"><ele>151.38</ele><time>2025-05-24T16:47:00Z</time></trkpt>
<trkpt lat="50.333734" lon="4.9018"><ele>150.14</ele><time>2025-05-24T16:47:03Z</time></trkpt>
<trkpt lat="50.333683" lon="4.901745"><ele>148.54</ele><time>2025-05-24T16:47:06Z</time></trkpt>
<trkpt lat="50.333391" lon="4.90161"><ele>144.63</ele><time>2025-05-24T16:47:10Z</time></trkpt>
<trkpt lat="50.333298" lon="4.901527"><ele>143.62</ele><time>2025-05-24T16:47:13Z</time></trkpt>
<trkpt lat="50.332935" lon="4.901144"><ele>138.45</ele><time>2025-05-24T16:47:16Z</time></trkpt>
<trkpt lat="50.332667" lon="4.900798"><ele>135.79</ele><time>2025-05-24T16:47:20Z</time></trkpt>
<trkpt lat="50.332556" lon="4.90069"><ele>135.89</ele><time>2025-05-24T16:47:23Z</time></trkpt>
<trkpt lat="50.332423" lon="4.900601"><ele>136.67</ele><time>2025-05-24T16:47:26Z</time></trkpt>
<trkpt lat="50.332339" lon="4.900508"><ele>136.46</ele><time>2025-05-24T16:47:30Z</time></trkpt>
<trkpt lat="50.332335" lon="4.900396"><ele>134.13</ele><time>2025-05-24T16:47:33Z</time></trkpt>
<trkpt lat="50.332426" lon="4.900265"><ele>129.33</ele><time>2025-05-24T16:47:36Z</time></trkpt>
<trkpt lat="50.332501" lon="4.900235"><ele>127.06</ele><time>2025-05-24T16:47:40Z</time></trkpt>
<trkpt lat="50.332662" lon="4.90022"><ele>125.83</ele><time>2025-05-24T16:47:43Z</time></trkpt>
<trkpt lat="50.332933" lon="4.90029"><ele>126.71</ele><time>2025-05-24T16:47:46Z</time></trkpt>
<trkpt lat="50.333032" lon="4.900282"><ele>126.96</ele><time>2025-05-24T16:47:50Z</time></trkpt>
<trkpt lat="50.333108" lon="4.900205"><ele>126.85</ele><time>2025-05-24T16:47:53Z</time></trkpt>
<trkpt lat="50.333126" lon="4.900116"><ele>126.34</ele><time>2025-05-24T16:47:57Z</time></trkpt>
<trkpt lat="50.333113" lon="4.900041"><ele>125.71</ele><time>2025-05-24T16:48:00Z</time></trkpt>
<trkpt lat="50.333061" lon="4.899944"><ele>124.42</ele><time>2025-05-24T16:48:03Z</time></trkpt>
<trkpt lat="50.332758" lon="4.899743"><ele>118.3</ele><time>2025-05-24T16:48:07Z</time></trkpt>
<trkpt lat="50.332528" lon="4.89952"><ele>115.16</ele><time>2025-05-24T16:48:10Z</time></trkpt>
<trkpt lat="50.331754" lon="4.898591"><ele>105.51</ele><time>2025-05-24T16:48:13Z</time></trkpt>
<trkpt lat="50.331671" lon="4.898435"><ele>103.77</ele><time>2025-05-24T16:48:17Z</time></trkpt>
<trkpt lat="50.331652" lon="4.89836"><ele>103.14</ele><time>2025-05-24T16:48:20Z</time></trkpt>
<trkpt lat="50.331678" lon="4.898189"><ele>102.58</ele><time>2025-05-24T16:48:23Z</time></trkpt>
<trkpt lat="50.33176" lon="4.897989"><ele>102.43</ele><time>2025-05-24T16:48:27Z</time></trkpt>
<trkpt lat="50.331773" lon="4.897846"><ele>102.01</ele><time>2025-05-24T16:48:30Z</time></trkpt>
<trkpt lat="50.331758" lon="4.897714"><ele>101.74</ele><time>2025-05-24T16:48:33Z</time></trkpt>
<trkpt lat="50.331392" lon="4.896883"><ele>102.26</ele><time>2025-05-24T16:48:37Z</time></trkpt>
<trkpt lat="50.331405" lon="4.896773"><ele>102.83</ele><time>2025-05-24T16:48:40Z</time></trkpt>
<trkpt lat="50.331584" lon="4.896414"><ele>111.53</ele><time>2025-05-24T16:48:43Z</time></trkpt>
<trkpt lat="50.331959" lon="4.896504"><ele>109.5</ele><time>2025-05-24T16:48:48Z</time></trkpt>
<trkpt lat="50.331959" lon="4.896504"><ele>109.5</ele><time>2025-05-24T16:48:48Z</time></trkpt>
<trkpt lat="50.332391" lon="4.896729"><ele>104.99</ele><time>2025-05-24T16:48:52Z</time></trkpt>
<trkpt lat="50.332823" lon="4.897206"><ele>102.09</ele><time>2025-05-24T16:48:56Z</time></trkpt>
<trkpt lat="50.333331" lon="4.8977"><ele>103.81</ele><time>2025-05-24T16:48:59Z</time></trkpt>
<trkpt lat="50.333646" lon="4.897914"><ele>107.65</ele><time>2025-05-24T16:49:03Z</time></trkpt>
<trkpt lat="50.334355" lon="4.898311"><ele>113.55</ele><time>2025-05-24T16:49:07Z</time></trkpt>
<trkpt lat="50.335402" lon="4.898941"><ele>118.0</ele><time>2025-05-24T16:49:10Z</time></trkpt>
<trkpt lat="50.335825" lon="4.899225"><ele>125.47</ele><time>2025-05-24T16:49:14Z</time></trkpt>
<trkpt lat="50.33599" lon="4.899399"><ele>126.51</ele><time>2025-05-24T16:49:17Z</time></trkpt>
<trkpt lat="50.336172" lon="4.899671"><ele>125.7</ele><time>2025-05-24T16:49:21Z</time></trkpt>
<trkpt lat="50.336304" lon="4.899961"><ele>122.09</ele><time>2025-05-24T16:49:25Z</time></trkpt>
<trkpt lat="50.336451" lon="4.900381"><ele>119.64</ele><time>2025-05-24T16:49:28Z</time></trkpt>
<trkpt lat="50.336941" lon="4.902022"><ele>115.21</ele><time>2025-05-24T16:49:32Z</time></trkpt>
<trkpt lat="50.337016" lon="4.902589"><ele>119.1</ele><time>2025-05-24T16:49:36Z</time></trkpt>
<trkpt lat="50.33704" lon="4.905094"><ele>113.51</ele><time>2025-05-24T16:49:39Z</time></trkpt>
<trkpt lat="50.337087" lon="4.905518"><ele>112.33</ele><time>2025-05-24T16:49:43Z</time></trkpt>
<trkpt lat="50.337238" lon="4.906419"><ele>114.0</ele><time>2025-05-24T16:49:46Z</time></trkpt>
<trkpt lat="50.337347" lon="4.906666"><ele>113.46</ele><time>2025-05-24T16:49:50Z</time></trkpt>
<trkpt lat="50.337515" lon="4.906961"><ele>114.1</ele><time>2025-05-24T16:49:54Z</time></trkpt>
<trkpt lat="50.337583" lon="4.907052"><ele>114.45</ele><time>2025-05-24T16:49:57Z</time></trkpt>
<trkpt lat="50.33775" lon="4.907178"><ele>114.23</ele><time>2025-05-24T16:50:01Z</time></trkpt>
<trkpt lat="50.337889" lon="4.907181"><ele>113.81</ele><time>2025-05-24T16:50:05Z</time></trkpt>
<trkpt lat="50.338135" lon="4.90711"><ele>113.92</ele><time>2025-05-24T16:50:08Z</time></trkpt>
<trkpt lat="50.338247" lon="4.907116"><ele>114.03</ele><time>2025-05-24T16:50:12Z</time></trkpt>
<trkpt lat="50.338349" lon="4.907206"><ele>113.23</ele><time>2025-05-24T16:50:15Z</time></trkpt>
<trkpt lat="50.338421" lon="4.907348"><ele>113.31</ele><time>2025-05-24T16:50:19Z</time></trkpt>
<trkpt lat="50.338831" lon="4.908872"><ele>118.8</ele><time>2025-05-24T16:50:23Z</time></trkpt>
<trkpt lat="50.338905" lon="4.909196"><ele>118.97</ele><time>2025-05-24T16:50:26Z</time></trkpt>
<trkpt lat="50.338936" lon="4.909548"><ele>119.84</ele><time>2025-05-24T16:50:30Z</time></trkpt>
<trkpt lat="50.338531" lon="4.912472"><ele>117.97</ele><time>2025-05-24T16:50:34Z</time></trkpt>
<trkpt lat="50.33851" lon="4.912564"><ele>118.75</ele><time>2025-05-24T16:50:37Z</time></trkpt>
<trkpt lat="50.338279" lon="4.912785"><ele>123.92</ele><time>2025-05-24T16:50:41Z</time></trkpt>
<trkpt lat="50.338206" lon="4.912906"><ele>125.7</ele><time>2025-05-24T16:50:44Z</time></trkpt>
<trkpt lat="50.338138" lon="4.913343"><ele>123.16</ele><time>2025-05-24T16:50:48Z</time></trkpt>
<trkpt lat="50.33802" lon="4.915544"><ele>125.7</ele><time>2025-05-24T16:50:52Z</time></trkpt>
<trkpt lat="50.337965" lon="4.916169"><ele>124.07</ele><time>2025-05-24T16:50:55Z</time></trkpt>
<trkpt lat="50.33788" lon="4.916763"><ele>124.19</ele><time>2025-05-24T16:50:59Z</time></trkpt>
<trkpt lat="50.337782" lon="4.917149"><ele>124.45</ele><time>2025-05-24T16:51:03Z</time></trkpt>
<trkpt lat="50.337305" lon="4.918377"><ele>128.0</ele><time>2025-05-24T16:51:06Z</time></trkpt>
<trkpt lat="50.337239" lon="4.918582"><ele>127.94</ele><time>2025-05-24T16:51:10Z</time></trkpt>
<trkpt lat="50.337178" lon="4.918912"><ele>126.42</ele><time>2025-05-24T16:51:13Z</time></trkpt>
<trkpt lat="50.337165" lon="4.919661"><ele>131.66</ele><time>2025-05-24T16:51:17Z</time></trkpt>
<trkpt lat="50.337251" lon="4.920203"><ele>130.14</ele><time>2025-05-24T16:51:21Z</time></trkpt>
<trkpt lat="50.337338" lon="4.920502"><ele>129.78</ele><time>2025-05-24T16:51:24Z</time></trkpt>
<trkpt lat="50.337725" lon="4.921433"><ele>123.32</ele><time>2025-05-24T16:51:28Z</time></trkpt>
<trkpt lat="50.337797" lon="4.921755"><ele>121.57</ele><time>2025-05-24T16:51:32Z</time></trkpt>
<trkpt lat="50.337834" lon="4.922004"><ele>120.58</ele><time>2025-05-24T16:51:35Z</time></trkpt>
<trkpt lat="50.337882" lon="4.92391"><ele>116.13</ele><time>2025-05-24T16:51:39Z</time></trkpt>
<trkpt lat="50.338106" lon="4.924681"><ele>118.06</ele><time>2025-05-24T16:51:43Z</time></trkpt>
<trkpt lat="50.338133" lon="4.924975"><ele>118.68</ele><time>2025-05-24T16:51:46Z</time></trkpt>
<trkpt lat="50.338385" lon="4.925148"><ele>119.31</ele><time>2025-05-24T16:51:48Z</time></trkpt>
<trkpt lat="50.338473" lon="4.925235"><ele>119.61</ele><time>2025-05-24T16:51:51Z</time></trkpt>
<trkpt lat="50.338545" lon="4.925371"><ele>120.23</ele><time>2025-05-24T16:51:53Z</time></trkpt>
<trkpt lat="50.338678" lon="4.925768"><ele>122.39</ele><time>2025-05-24T16:51:55Z</time></trkpt>
<trkpt lat="50.338841" lon="4.926632"><ele>129.87</ele><time>2025-05-24T16:51:57Z</time></trkpt>
<trkpt lat="50.338908" lon="4.92678"><ele>131.66</ele><time>2025-05-24T16:52:00Z</time></trkpt>
<trkpt lat="50.339074" lon="4.926988"><ele>135.1</ele><time>2025-05-24T16:52:02Z</time></trkpt>
<trkpt lat="50.339318" lon="4.92715"><ele>135.21</ele><time>2025-05-24T16:52:04Z</time></trkpt>
<trkpt lat="50.339368" lon="4.927176"><ele>134.73</ele><time>2025-05-24T16:52:06Z</time></trkpt>
<trkpt lat="50.339569" lon="4.927239"><ele>132.83</ele><time>2025-05-24T16:52:08Z</time></trkpt>
<trkpt lat="50.340399" lon="4.927409"><ele>128.78</ele><time>2025-05-24T16:52:11Z</time></trkpt>
<trkpt lat="50.341048" lon="4.927584"><ele>130.05</ele><time>2025-05-24T16:52:13Z</time></trkpt>
<trkpt lat="50.342037" lon="4.927664"><ele>134.23</ele><time>2025-05-24T16:52:15Z</time></trkpt>
<trkpt lat="50.342276" lon="4.92776"><ele>134.72</ele><time>2025-05-24T16:52:17Z</time></trkpt>
<trkpt lat="50.342475" lon="4.927968"><ele>134.15</ele><time>2025-05-24T16:52:20Z</time></trkpt>
<trkpt lat="50.342579" lon="4.928138"><ele>134.73</ele><time>2025-05-24T16:52:22Z</time></trkpt>
<trkpt lat="50.343211" lon="4.929343"><ele>143.14</ele><time>2025-05-24T16:52:24Z</time></trkpt>
<trkpt lat="50.343435" lon="4.929903"><ele>142.04</ele><time>2025-05-24T16:52:26Z</time></trkpt>
<trkpt lat="50.343549" lon="4.930315"><ele>143.08</ele><time>2025-05-24T16:52:28Z</time></trkpt>
<trkpt lat="50.34364" lon="4.930544"><ele>141.36</ele><time>2025-05-24T16:52:31Z</time></trkpt>
<trkpt lat="50.343837" lon="4.930865"><ele>141.47</ele><time>2025-05-24T16:52:33Z</time></trkpt>
<trkpt lat="50.344264" lon="4.931487"><ele>142.58</ele><time>2025-05-24T16:52:35Z</time></trkpt>
<trkpt lat="50.344391" lon="4.931612"><ele>142.96</ele><time>2025-05-24T16:52:37Z</time></trkpt>
<trkpt lat="50.344649" lon="4.93169"><ele>143.93</ele><time>2025-05-24T16:52:40Z</time></trkpt>
<trkpt lat="50.345428" lon="4.931685"><ele>144.19</ele><time>2025-05-24T16:52:42Z</time></trkpt>
<trkpt lat="50.345677" lon="4.931804"><ele>143.73</ele><time>2025-05-24T16:52:44Z</time></trkpt>
<trkpt lat="50.345783" lon="4.931904"><ele>144.0</ele><time>2025-05-24T16:52:46Z</time></trkpt>
<trkpt lat="50.346248" lon="4.932691"><ele>145.92</ele><time>2025-05-24T16:52:48Z</time></trkpt>
<trkpt lat="50.346492" lon="4.933363"><ele>149.87</ele><time>2025-05-24T16:52:51Z</time></trkpt>
<trkpt lat="50.347024" lon="4.934644"><ele>152.04</ele><time>2025-05-24T16:52:53Z</time></trkpt>
<trkpt lat="50.347262" lon="4.935407"><ele>152.23</ele><time>2025-05-24T16:52:55Z</time></trkpt>
<trkpt lat="50.347333" lon="4.935872"><ele>153.09</ele><time>2025-05-24T16:52:57Z</time></trkpt>
<trkpt lat="50.34735" lon="4.936233"><ele>152.57</ele><time>2025-05-24T16:53:00Z</time></trkpt>
<trkpt lat="50.347335" lon="4.936387"><ele>151.98</ele><time>2025-05-24T16:53:02Z</time></trkpt>
<trkpt lat="50.347249" lon="4.936605"><ele>151.25</ele><time>2025-05-24T16:53:04Z</time></trkpt>
<trkpt lat="50.347162" lon="4.936724"><ele>151.94</ele><time>2025-05-24T16:53:06Z</time></trkpt>
<trkpt lat="50.347039" lon="4.936805"><ele>153.15</ele><time>2025-05-24T16:53:08Z</time></trkpt>
<trkpt lat="50.346649" lon="4.936854"><ele>157.75</ele><time>2025-05-24T16:53:11Z</time></trkpt>
<trkpt lat="50.346568" lon="4.936894"><ele>159.05</ele><time>2025-05-24T16:53:13Z</time></trkpt>
<trkpt lat="50.346438" lon="4.936984"><ele>160.0</ele><time>2025-05-24T16:53:15Z</time></trkpt>
<trkpt lat="50.346264" lon="4.937202"><ele>159.55</ele><time>2025-05-24T16:53:17Z</time></trkpt>
<trkpt lat="50.346167" lon="4.937397"><ele>160.04</ele><time>2025-05-24T16:53:20Z</time></trkpt>
<trkpt lat="50.346101" lon="4.937601"><ele>158.49</ele><time>2025-05-24T16:53:22Z</time></trkpt>
<trkpt lat="50.345888" lon="4.938515"><ele>159.63</ele><time>2025-05-24T16:53:24Z</time></trkpt>
<trkpt lat="50.345853" lon="4.939054"><ele>162.09</ele><time>2025-05-24T16:53:26Z</time></trkpt>
<trkpt lat="50.345877" lon="4.939627"><ele>164.56</ele><time>2025-05-24T16:53:28Z</time></trkpt>
<trkpt lat="50.346206" lon="4.94185"><ele>166.6</ele><time>2025-05-24T16:53:31Z</time></trkpt>
<trkpt lat="50.346266" lon="4.942517"><ele>164.54</ele><time>2025-05-24T16:53:33Z</time></trkpt>
<trkpt lat="50.346266" lon="4.942809"><ele>164.78</ele><time>2025-05-24T16:53:35Z</time></trkpt>
<trkpt lat="50.346136" lon="4.944293"><ele>166.84</ele><time>2025-05-24T16:53:37Z</time></trkpt>
<trkpt lat="50.346108" lon="4.944858"><ele>167.19</ele><time>2025-05-24T16:53:40Z</time></trkpt>
<trkpt lat="50.346119" lon="4.945617"><ele>169.19</ele><time>2025-05-24T16:53:42Z</time></trkpt>
<trkpt lat="50.346256" lon="4.946974"><ele>171.25</ele><time>2025-05-24T16:53:44Z</time></trkpt>
<trkpt lat="50.346271" lon="4.947339"><ele>170.83</ele><time>2025-05-24T16:53:46Z</time></trkpt>
<trkpt lat="50.346148" lon="4.948243"><ele>173.8</ele><time>2025-05-24T16:53:49Z</time></trkpt>
<trkpt lat="50.346088" lon="4.948573"><ele>174.36</ele><time>2025-05-24T16:53:52Z</time></trkpt>
<trkpt lat="50.345747" lon="4.949708"><ele>185.1</ele><time>2025-05-24T16:53:54Z</time></trkpt>
<trkpt lat="50.345711" lon="4.949996"><ele>185.3</ele><time>2025-05-24T16:53:57Z</time></trkpt>
<trkpt lat="50.345714" lon="4.950935"><ele>185.95</ele><time>2025-05-24T16:54:00Z</time></trkpt>
<trkpt lat="50.345732" lon="4.951286"><ele>185.68</ele><time>2025-05-24T16:54:03Z</time></trkpt>
<trkpt lat="50.345772" lon="4.951537"><ele>184.84</ele><time>2025-05-24T16:54:05Z</time></trkpt>
<trkpt lat="50.346052" lon="4.95274"><ele>187.72</ele><time>2025-05-24T16:54:08Z</time></trkpt>
<trkpt lat="50.346098" lon="4.953001"><ele>186.52</ele><time>2025-05-24T16:54:11Z</time></trkpt>
<trkpt lat="50.346196" lon="4.953975"><ele>190.97</ele><time>2025-05-24T16:54:13Z</time></trkpt>
<trkpt lat="50.346377" lon="4.955265"><ele>195.17</ele><time>2025-05-24T16:54:16Z</time></trkpt>
<trkpt lat="50.346384" lon="4.955421"><ele>194.02</ele><time>2025-05-24T16:54:19Z</time></trkpt>
<trkpt lat="50.34624" lon="4.955699"><ele>193.3</ele><time>2025-05-24T16:54:22Z</time></trkpt>
<trkpt lat="50.346077" lon="4.955899"><ele>192.74</ele><time>2025-05-24T16:54:24Z</time></trkpt>
<trkpt lat="50.346013" lon="4.956024"><ele>191.88</ele><time>2025-05-24T16:54:27Z</time></trkpt>
<trkpt lat="50.34565" lon="4.956993"><ele>189.8</ele><time>2025-05-24T16:54:30Z</time></trkpt>
<trkpt lat="50.345591" lon="4.957268"><ele>190.31</ele><time>2025-05-24T16:54:32Z</time></trkpt>
<trkpt lat="50.345604" lon="4.957351"><ele>191.41</ele><time>2025-05-24T16:54:35Z</time></trkpt>
<trkpt lat="50.345714" lon="4.957495"><ele>192.78</ele><time>2025-05-24T16:54:38Z</time></trkpt>
<trkpt lat="50.346158" lon="4.95756"><ele>190.78</ele><time>2025-05-24T16:54:41Z</time></trkpt>
<trkpt lat="50.34645" lon="4.957564"><ele>191.9</ele><time>2025-05-24T16:54:43Z</time></trkpt>
<trkpt lat="50.346732" lon="4.957523"><ele>193.66</ele><time>2025-05-24T16:54:46Z</time></trkpt>
<trkpt lat="50.347017" lon="4.957532"><ele>195.61</ele><time>2025-05-24T16:54:49Z</time></trkpt>
<trkpt lat="50.347097" lon="4.957681"><ele>197.5</ele><time>2025-05-24T16:54:51Z</time></trkpt>
<trkpt lat="50.347525" lon="4.958658"><ele>203.98</ele><time>2025-05-24T16:54:54Z</time></trkpt>
<trkpt lat="50.347924" lon="4.959696"><ele>202.42</ele><time>2025-05-24T16:54:57Z</time></trkpt>
<trkpt lat="50.348197" lon="4.960289"><ele>201.47</ele><time>2025-05-24T16:55:00Z</time></trkpt>
<trkpt lat="50.348369" lon="4.960471"><ele>199.65</ele><time>2025-05-24T16:55:02Z</time></trkpt>
<trkpt lat="50.348437" lon="4.960599"><ele>198.88</ele><time>2025-05-24T16:55:05Z</time></trkpt>
<trkpt lat="50.348483" lon="4.960788"><ele>198.38</ele><time>2025-05-24T16:55:08Z</time></trkpt>
<trkpt lat="50.348521" lon="4.961106"><ele>198.29</ele><time>2025-05-24T16:55:10Z</time></trkpt>
<trkpt lat="50.348527" lon="4.96173"><ele>196.44</ele><time>2025-05-24T16:55:13Z</time></trkpt>
<trkpt lat="50.348594" lon="4.961856"><ele>195.27</ele><time>2025-05-24T16:55:16Z</time></trkpt>
<trkpt lat="50.348671" lon="4.961905"><ele>194.57</ele><time>2025-05-24T16:55:19Z</time></trkpt>
<trkpt lat="50.348847" lon="4.961838"><ele>193.3</ele><time>2025-05-24T16:55:21Z</time></trkpt>
<trkpt lat="50.349139" lon="4.961671"><ele>190.29</ele><time>2025-05-24T16:55:24Z</time></trkpt>
<trkpt lat="50.34943" lon="4.961348"><ele>185.98</ele><time>2025-05-24T16:55:27Z</time></trkpt>
<trkpt lat="50.349557" lon="4.961277"><ele>183.82</ele><time>2025-05-24T16:55:29Z</time></trkpt>
<trkpt lat="50.349919" lon="4.961192"><ele>178.54</ele><time>2025-05-24T16:55:32Z</time></trkpt>
<trkpt lat="50.350086" lon="4.961184"><ele>176.83</ele><time>2025-05-24T16:55:35Z</time></trkpt>
<trkpt lat="50.350721" lon="4.96149"><ele>174.73</ele><time>2025-05-24T16:55:38Z</time></trkpt>
<trkpt lat="50.351229" lon="4.961383"><ele>181.27</ele><time>2025-05-24T16:55:40Z</time></trkpt>
<trkpt lat="50.351229" lon="4.961383"><ele>181.27</ele><time>2025-05-24T16:55:40Z</time></trkpt>
<trkpt lat="50.352885" lon="4.961393"><ele>182.11</ele><time>2025-05-24T16:55:48Z</time></trkpt>
<trkpt lat="50.353118" lon="4.961501"><ele>184.79</ele><time>2025-05-24T16:55:56Z</time></trkpt>
<trkpt lat="50.353377" lon="4.961681"><ele>189.14</ele><time>2025-05-24T16:56:04Z</time></trkpt>
<trkpt lat="50.353963" lon="4.962213"><ele>189.58</ele><time>2025-05-24T16:56:12Z</time></trkpt>
<trkpt lat="50.354296" lon="4.962528"><ele>189.81</ele><time>2025-05-24T16:56:20Z</time></trkpt>
<trkpt lat="50.354498" lon="4.9626"><ele>186.9</ele><time>2025-05-24T16:56:23Z</time></trkpt>
<trkpt lat="50.354806" lon="4.962855"><ele>184.07</ele><time>2025-05-24T16:56:25Z</time></trkpt>
<trkpt lat="50.355134" lon="4.963191"><ele>181.53</ele><time>2025-05-24T16:56:28Z</time></trkpt>
<trkpt lat="50.355245" lon="4.963373"><ele>180.37</ele><time>2025-05-24T16:56:30Z</time></trkpt>
<trkpt lat="50.355524" lon="4.964231"><ele>180.37</ele><time>2025-05-24T16:56:33Z</time></trkpt>
<trkpt lat="50.355573" lon="4.964314"><ele>180.77</ele><time>2025-05-24T16:56:35Z</time></trkpt>
<trkpt lat="50.355699" lon="4.96443"><ele>182.54</ele><time>2025-05-24T16:56:38Z</time></trkpt>
<trkpt lat="50.356168" lon="4.964646"><ele>187.11</ele><time>2025-05-24T16:56:41Z</time></trkpt>
<trkpt lat="50.35631" lon="4.964675"><ele>188.36</ele><time>2025-05-24T16:56:43Z</time></trkpt>
<trkpt lat="50.356852" lon="4.964607"><ele>196.33</ele><time>2025-05-24T16:56:46Z</time></trkpt>
<trkpt lat="50.357132" lon="4.964619"><ele>200.44</ele><time>2025-05-24T16:56:48Z</time></trkpt>
<trkpt lat="50.357425" lon="4.964716"><ele>201.99</ele><time>2025-05-24T16:56:51Z</time></trkpt>
<trkpt lat="50.357764" lon="4.964971"><ele>200.2</ele><time>2025-05-24T16:56:53Z</time></trkpt>
<trkpt lat="50.358042" lon="4.965276"><ele>197.19</ele><time>2025-05-24T16:56:56Z</time></trkpt>
<trkpt lat="50.358287" lon="4.965452"><ele>200.75</ele><time>2025-05-24T16:56:58Z</time></trkpt>
<trkpt lat="50.358783" lon="4.965521"><ele>199.35</ele><time>2025-05-24T16:57:01Z</time></trkpt>
<trkpt lat="50.359864" lon="4.965934"><ele>211.94</ele><time>2025-05-24T16:57:03Z</time></trkpt>
<trkpt lat="50.360062" lon="4.965953"><ele>214.6</ele><time>2025-05-24T16:57:06Z</time></trkpt>
<trkpt lat="50.360908" lon="4.965857"><ele>218.79</ele><time>2025-05-24T16:57:08Z</time></trkpt>
<trkpt lat="50.361355" lon="4.965893"><ele>217.82</ele><time>2025-05-24T16:57:11Z</time></trkpt>
<trkpt lat="50.361481" lon="4.96597"><ele>217.49</ele><time>2025-05-24T16:57:14Z</time></trkpt>
<trkpt lat="50.36165" lon="4.966119"><ele>217.21</ele><time>2025-05-24T16:57:16Z</time></trkpt>
<trkpt lat="50.362261" lon="4.966763"><ele>217.78</ele><time>2025-05-24T16:57:19Z</time></trkpt>
<trkpt lat="50.362427" lon="4.966861"><ele>218.62</ele><time>2025-05-24T16:57:21Z</time></trkpt>
<trkpt lat="50.362542" lon="4.966887"><ele>218.82</ele><time>2025-05-24T16:57:24Z</time></trkpt>
<trkpt lat="50.362752" lon="4.966893"><ele>218.98</ele><time>2025-05-24T16:57:26Z</time></trkpt>
<trkpt lat="50.364519" lon="4.966791"><ele>232.0</ele><time>2025-05-24T16:57:29Z</time></trkpt>
<trkpt lat="50.364772" lon="4.966818"><ele>232.0</ele><time>2025-05-24T16:57:31Z</time></trkpt>
<trkpt lat="50.365032" lon="4.966883"><ele>232.23</ele><time>2025-05-24T16:57:34Z</time></trkpt>
<trkpt lat="50.366652" lon="4.967413"><ele>240.98</ele><time>2025-05-24T16:57:36Z</time></trkpt>
<trkpt lat="50.366845" lon="4.967508"><ele>241.0</ele><time>2025-05-24T16:57:39Z</time></trkpt>
<trkpt lat="50.367157" lon="4.967767"><ele>242.53</ele><time>2025-05-24T16:57:41Z</time></trkpt>
<trkpt lat="50.367896" lon="4.968614"><ele>247.16</ele><time>2025-05-24T16:57:44Z</time></trkpt>
<trkpt lat="50.368138" lon="4.968743"><ele>246.16</ele><time>2025-05-24T16:57:47Z</time></trkpt>
<trkpt lat="50.36838" lon="4.968746"><ele>246.85</ele><time>2025-05-24T16:57:49Z</time></trkpt>
<trkpt lat="50.36853" lon="4.968659"><ele>248.24</ele><time>2025-05-24T16:57:52Z</time></trkpt>
<trkpt lat="50.368896" lon="4.968271"><ele>250.25</ele><time>2025-05-24T16:57:54Z</time></trkpt>
<trkpt lat="50.369265" lon="4.96793"><ele>252.71</ele><time>2025-05-24T16:57:57Z</time></trkpt>
<trkpt lat="50.369914" lon="4.967415"><ele>255.0</ele><time>2025-05-24T16:57:59Z</time></trkpt>
<trkpt lat="50.370072" lon="4.967324"><ele>255.0</ele><time>2025-05-24T16:58:02Z</time></trkpt>
<trkpt lat="50.370296" lon="4.967238"><ele>254.94</ele><time>2025-05-24T16:58:04Z</time></trkpt>
<trkpt lat="50.371908" lon="4.96695"><ele>253.0</ele><time>2025-05-24T16:58:07Z</time></trkpt>
<trkpt lat="50.372194" lon="4.966965"><ele>253.0</ele><time>2025-05-24T16:58:09Z</time></trkpt>
<trkpt lat="50.372667" lon="4.967062"><ele>255.6</ele><time>2025-05-24T16:58:12Z</time></trkpt>
<trkpt lat="50.372892" lon="4.967079"><ele>256.62</ele><time>2025-05-24T16:58:14Z</time></trkpt>
<trkpt lat="50.373138" lon="4.967053"><ele>258.02</ele><time>2025-05-24T16:58:17Z</time></trkpt>
<trkpt lat="50.373547" lon="4.966935"><ele>260.54</ele><time>2025-05-24T16:58:20Z</time></trkpt>
<trkpt lat="50.373162" lon="4.966144"><ele>259.38</ele><time>2025-05-24T16:58:23Z</time></trkpt>
<trkpt lat="50.372572" lon="4.96483"><ele>260.87</ele><time>2025-05-24T16:58:26Z</time></trkpt>
<trkpt lat="50.372368" lon="4.964438"><ele>260.02</ele><time>2025-05-24T16:58:29Z</time></trkpt>
<trkpt lat="50.371868" lon="4.963684"><ele>257.26</ele><time>2025-05-24T16:58:32Z</time></trkpt>
<trkpt lat="50.371246" lon="4.962461"><ele>256.48</ele><time>2025-05-24T16:58:36Z</time></trkpt>
<trkpt lat="50.370973" lon="4.961811"><ele>256.74</ele><time>2025-05-24T16:58:39Z</time></trkpt>
<trkpt lat="50.370611" lon="4.960678"><ele>258.0</ele><time>2025-05-24T16:58:42Z</time></trkpt>
<trkpt lat="50.370405" lon="4.960097"><ele>256.46</ele><time>2025-05-24T16:58:45Z</time></trkpt>
<trkpt lat="50.3699" lon="4.958876"><ele>252.64</ele><time>2025-05-24T16:58:48Z</time></trkpt>
<trkpt lat="50.369591" lon="4.958233"><ele>251.34</ele><time>2025-05-24T16:58:52Z</time></trkpt>
<trkpt lat="50.369332" lon="4.957801"><ele>250.6</ele><time>2025-05-24T16:58:55Z</time></trkpt>
<trkpt lat="50.368758" lon="4.956978"><ele>248.12</ele><time>2025-05-24T16:58:58Z</time></trkpt>
<trkpt lat="50.368539" lon="4.956699"><ele>246.86</ele><time>2025-05-24T16:59:01Z</time></trkpt>
<trkpt lat="50.368228" lon="4.956353"><ele>245.0</ele><time>2025-05-24T16:59:04Z</time></trkpt>
<trkpt lat="50.367855" lon="4.956026"><ele>244.69</ele><time>2025-05-24T16:59:08Z</time></trkpt>
<trkpt lat="50.36753" lon="4.955691"><ele>241.32</ele><time>2025-05-24T16:59:11Z</time></trkpt>
<trkpt lat="50.366565" lon="4.954629"><ele>236.26</ele><time>2025-05-24T16:59:14Z</time></trkpt>
<trkpt lat="50.366218" lon="4.954288"><ele>234.17</ele><time>2025-05-24T16:59:17Z</time></trkpt>
<trkpt lat="50.365872" lon="4.954016"><ele>234.0</ele><time>2025-05-24T16:59:20Z</time></trkpt>
<trkpt lat="50.364866" lon="4.953438"><ele>238.78</ele><time>2025-05-24T16:59:24Z</time></trkpt>
<trkpt lat="50.3647" lon="4.953272"><ele>237.4</ele><time>2025-05-24T16:59:27Z</time></trkpt>
<trkpt lat="50.364442" lon="4.952914"><ele>233.51</ele><time>2025-05-24T16:59:30Z</time></trkpt>
<trkpt lat="50.363175" lon="4.950503"><ele>216.32</ele><time>2025-05-24T16:59:33Z</time></trkpt>
<trkpt lat="50.363044" lon="4.950195"><ele>215.97</ele><time>2025-05-24T16:59:36Z</time></trkpt>
<trkpt lat="50.362933" lon="4.949715"><ele>215.44</ele><time>2025-05-24T16:59:40Z</time></trkpt>
<trkpt lat="50.362855" lon="4.948968"><ele>217.2</ele><time>2025-05-24T16:59:43Z</time></trkpt>
<trkpt lat="50.36285" lon="4.948611"><ele>219.26</ele><time>2025-05-24T16:59:46Z</time></trkpt>
<trkpt lat="50.362877" lon="4.947773"><ele>223.34</ele><time>2025-05-24T16:59:49Z</time></trkpt>
<trkpt lat="50.362918" lon="4.947456"><ele>222.51</ele><time>2025-05-24T16:59:52Z</time></trkpt>
<trkpt lat="50.363064" lon="4.946863"><ele>224.31</ele><time>2025-05-24T16:59:56Z</time></trkpt>
<trkpt lat="50.363134" lon="4.946483"><ele>226.14</ele><time>2025-05-24T16:59:59Z</time></trkpt>
<trkpt lat="50.363158" lon="4.946033"><ele>226.98</ele><time>2025-05-24T17:00:02Z</time></trkpt>
<trkpt lat="50.36313" lon="4.945522"><ele>225.34</ele><time>2025-05-24T17:00:05Z</time></trkpt>
<trkpt lat="50.362975" lon="4.943725"><ele>225.01</ele><time>2025-05-24T17:00:08Z</time></trkpt>
<trkpt lat="50.362948" lon="4.943203"><ele>227.55</ele><time>2025-05-24T17:00:12Z</time></trkpt>
<trkpt lat="50.362913" lon="4.942958"><ele>229.18</ele><time>2025-05-24T17:00:15Z</time></trkpt>
<trkpt lat="50.362587" lon="4.941603"><ele>237.77</ele><time>2025-05-24T17:00:18Z</time></trkpt>
<trkpt lat="50.36249" lon="4.940984"><ele>240.32</ele><time>2025-05-24T17:00:21Z</time></trkpt>
<trkpt lat="50.362448" lon="4.94045"><ele>241.26</ele><time>2025-05-24T17:00:24Z</time></trkpt>
<trkpt lat="50.363121" lon="4.939006"><ele>252.82</ele><time>2025-05-24T17:00:28Z</time></trkpt>
<trkpt lat="50.363262" lon="4.938609"><ele>254.75</ele><time>2025-05-24T17:00:31Z</time></trkpt>
<trkpt lat="50.363387" lon="4.938047"><ele>255.17</ele><time>2025-05-24T17:00:34Z</time></trkpt>
<trkpt lat="50.363525" lon="4.936844"><ele>256.69</ele><time>2025-05-24T17:00:37Z</time></trkpt>
<trkpt lat="50.363756" lon="4.935519"><ele>256.91</ele><time>2025-05-24T17:00:41Z</time></trkpt>
<trkpt lat="50.363965" lon="4.93415"><ele>256.55</ele><time>2025-05-24T17:00:44Z</time></trkpt>
<trkpt lat="50.36403" lon="4.933862"><ele>257.11</ele><time>2025-05-24T17:00:47Z</time></trkpt>
<trkpt lat="50.364077" lon="4.933731"><ele>257.92</ele><time>2025-05-24T17:00:50Z</time></trkpt>
<trkpt lat="50.364268" lon="4.933362"><ele>259.36</ele><time>2025-05-24T17:00:54Z</time></trkpt>
<trkpt lat="50.364824" lon="4.93244"><ele>263.47</ele><time>2025-05-24T17:00:57Z</time></trkpt>
<trkpt lat="50.365163" lon="4.931933"><ele>267.17</ele><time>2025-05-24T17:01:00Z</time></trkpt>
<trkpt lat="50.365278" lon="4.931717"><ele>268.0</ele><time>2025-05-24T17:01:04Z</time></trkpt>
<trkpt lat="50.365583" lon="4.931003"><ele>269.59</ele><time>2025-05-24T17:01:07Z</time></trkpt>
<trkpt lat="50.3657" lon="4.930801"><ele>271.04</ele><time>2025-05-24T17:01:10Z</time></trkpt>
<trkpt lat="50.366004" lon="4.930402"><ele>273.99</ele><time>2025-05-24T17:01:13Z</time></trkpt>
<trkpt lat="50.366737" lon="4.929533"><ele>276.0</ele><time>2025-05-24T17:01:17Z</time></trkpt>
<trkpt lat="50.366881" lon="4.929327"><ele>275.67</ele><time>2025-05-24T17:01:20Z</time></trkpt>
<trkpt lat="50.366975" lon="4.929124"><ele>275.0</ele><time>2025-05-24T17:01:23Z</time></trkpt>
<trkpt lat="50.367042" lon="4.928831"><ele>275.07</ele><time>2025-05-24T17:01:26Z</time></trkpt>
<trkpt lat="50.367579" lon="4.925924"><ele>278.33</ele><time>2025-05-24T17:01:30Z</time></trkpt>
<trkpt lat="50.367633" lon="4.925759"><ele>277.73</ele><time>2025-05-24T17:01:33Z</time></trkpt>
<trkpt lat="50.367701" lon="4.925691"><ele>277.49</ele><time>2025-05-24T17:01:36Z</time></trkpt>
<trkpt lat="50.367754" lon="4.925677"><ele>277.44</ele><time>2025-05-24T17:01:39Z</time></trkpt>
<trkpt lat="50.368224" lon="4.925668"><ele>276.64</ele><time>2025-05-24T17:01:43Z</time></trkpt>
<trkpt lat="50.368406" lon="4.925631"><ele>275.75</ele><time>2025-05-24T17:01:46Z</time></trkpt>
<trkpt lat="50.37111" lon="4.924946"><ele>258.41</ele><time>2025-05-24T17:01:49Z</time></trkpt>
<trkpt lat="50.371487" lon="4.924868"><ele>257.83</ele><time>2025-05-24T17:01:52Z</time></trkpt>
<trkpt lat="50.372463" lon="4.924842"><ele>262.3</ele><time>2025-05-24T17:01:56Z</time></trkpt>
<trkpt lat="50.372956" lon="4.924869"><ele>265.11</ele><time>2025-05-24T17:01:59Z</time></trkpt>
<trkpt lat="50.373492" lon="4.918823"><ele>268.0</ele><time>2025-05-24T17:02:01Z</time></trkpt>
<trkpt lat="50.373522" lon="4.918666"><ele>268.0</ele><time>2025-05-24T17:02:04Z</time></trkpt>
<trkpt lat="50.373574" lon="4.918497"><ele>268.0</ele><time>2025-05-24T17:02:06Z</time></trkpt>
<trkpt lat="50.37368" lon="4.918311"><ele>267.92</ele><time>2025-05-24T17:02:08Z</time></trkpt>
<trkpt lat="50.374103" lon="4.917689"><ele>265.68</ele><time>2025-05-24T17:02:10Z</time></trkpt>
<trkpt lat="50.374248" lon="4.917421"><ele>265.01</ele><time>2025-05-24T17:02:13Z</time></trkpt>
<trkpt lat="50.37437" lon="4.917136"><ele>265.04</ele><time>2025-05-24T17:02:15Z</time></trkpt>
<trkpt lat="50.374853" lon="4.915774"><ele>263.79</ele><time>2025-05-24T17:02:17Z</time></trkpt>
<trkpt lat="50.374946" lon="4.915612"><ele>263.2</ele><time>2025-05-24T17:02:19Z</time></trkpt>
<trkpt lat="50.37504" lon="4.915501"><ele>262.69</ele><time>2025-05-24T17:02:22Z</time></trkpt>
<trkpt lat="50.375231" lon="4.915349"><ele>262.04</ele><time>2025-05-24T17:02:24Z</time></trkpt>
<trkpt lat="50.375336" lon="4.915222"><ele>262.0</ele><time>2025-05-24T17:02:26Z</time></trkpt>
<trkpt lat="50.375381" lon="4.915031"><ele>262.0</ele><time>2025-05-24T17:02:28Z</time></trkpt>
<trkpt lat="50.37541" lon="4.914613"><ele>262.52</ele><time>2025-05-24T17:02:31Z</time></trkpt>
<trkpt lat="50.375486" lon="4.914182"><ele>262.96</ele><time>2025-05-24T17:02:33Z</time></trkpt>
<trkpt lat="50.375559" lon="4.913885"><ele>263.0</ele><time>2025-05-24T17:02:35Z</time></trkpt>
<trkpt lat="50.375779" lon="4.913263"><ele>263.2</ele><time>2025-05-24T17:02:38Z</time></trkpt>
<trkpt lat="50.375874" lon="4.912904"><ele>264.08</ele><time>2025-05-24T17:02:40Z</time></trkpt>
<trkpt lat="50.375925" lon="4.912641"><ele>264.82</ele><time>2025-05-24T17:02:42Z</time></trkpt>
<trkpt lat="50.376025" lon="4.911896"><ele>267.0</ele><time>2025-05-24T17:02:44Z</time></trkpt>
<trkpt lat="50.376029" lon="4.911663"><ele>266.98</ele><time>2025-05-24T17:02:47Z</time></trkpt>
<trkpt lat="50.376055" lon="4.911625"><ele>266.85</ele><time>2025-05-24T17:02:49Z</time></trkpt>
<trkpt lat="50.376109" lon="4.911631"><ele>266.87</ele><time>2025-05-24T17:02:51Z</time></trkpt>
<trkpt lat="50.376178" lon="4.911629"><ele>266.62</ele><time>2025-05-24T17:02:53Z</time></trkpt>
<trkpt lat="50.376158" lon="4.911234"><ele>265.83</ele><time>2025-05-24T17:02:59Z</time></trkpt>
<trkpt lat="50.376485" lon="4.908517"><ele>260.0</ele><time>2025-05-24T17:03:04Z</time></trkpt>
<trkpt lat="50.376555" lon="4.907223"><ele>260.19</ele><time>2025-05-24T17:03:10Z</time></trkpt>
<trkpt lat="50.376605" lon="4.906664"><ele>262.32</ele><time>2025-05-24T17:03:15Z</time></trkpt>
<trkpt lat="50.376724" lon="4.905786"><ele>261.21</ele><time>2025-05-24T17:03:21Z</time></trkpt>
<trkpt lat="50.377231" lon="4.903193"><ele>259.58</ele><time>2025-05-24T17:03:26Z</time></trkpt>
<trkpt lat="50.377497" lon="4.902233"><ele>258.02</ele><time>2025-05-24T17:03:32Z</time></trkpt>
<trkpt lat="50.377526" lon="4.902084"><ele>257.14</ele><time>2025-05-24T17:03:37Z</time></trkpt>
<trkpt lat="50.377911" lon="4.900804"><ele>254.85</ele><time>2025-05-24T17:03:42Z</time></trkpt>
<trkpt lat="50.378352" lon="4.89966"><ele>251.98</ele><time>2025-05-24T17:03:48Z</time></trkpt>
<trkpt lat="50.378389" lon="4.899379"><ele>251.37</ele><time>2025-05-24T17:03:53Z</time></trkpt>
<trkpt lat="50.37816" lon="4.898204"><ele>244.29</ele><time>2025-05-24T17:03:59Z</time></trkpt>
<trkpt lat="50.378094" lon="4.897593"><ele>242.56</ele><time>2025-05-24T17:04:04Z</time></trkpt>
<trkpt lat="50.378116" lon="4.897256"><ele>242.43</ele><time>2025-05-24T17:04:10Z</time></trkpt>
<trkpt lat="50.378216" lon="4.896441"><ele>237.27</ele><time>2025-05-24T17:04:15Z</time></trkpt>
<trkpt lat="50.378304" lon="4.896293"><ele>238.09</ele><time>2025-05-24T17:04:21Z</time></trkpt>
<trkpt lat="50.378347" lon="4.896258"><ele>239.0</ele><time>2025-05-24T17:04:27Z</time></trkpt>
<trkpt lat="50.378416" lon="4.896256"><ele>241.33</ele><time>2025-05-24T17:04:33Z</time></trkpt>
<trkpt lat="50.378679" lon="4.896336"><ele>248.49</ele><time>2025-05-24T17:04:39Z</time></trkpt>
<trkpt lat="50.379194" lon="4.896942"><ele>252.2</ele><time>2025-05-24T17:04:45Z</time></trkpt>
<trkpt lat="50.379345" lon="4.897096"><ele>253.83</ele><time>2025-05-24T17:04:51Z</time></trkpt>
<trkpt lat="50.379384" lon="4.897006"><ele>253.78</ele><time>2025-05-24T17:04:52Z</time></trkpt>
<trkpt lat="50.379756" lon="4.897161"><ele>255.54</ele><time>2025-05-24T17:04:57Z</time></trkpt>
<trkpt lat="50.380006" lon="4.897177"><ele>253.84</ele><time>2025-05-24T17:05:01Z</time></trkpt>
<trkpt lat="50.380082" lon="4.897159"><ele>253.77</ele><time>2025-05-24T17:05:05Z</time></trkpt>
<trkpt lat="50.380345" lon="4.897028"><ele>253.23</ele><time>2025-05-24T17:05:09Z</time></trkpt>
<trkpt lat="50.38067" lon="4.896784"><ele>251.77</ele><time>2025-05-24T17:05:14Z</time></trkpt>
<trkpt lat="50.380861" lon="4.896549"><ele>249.18</ele><time>2025-05-24T17:05:18Z</time></trkpt>
<trkpt lat="50.381229" lon="4.896164"><ele>243.6</ele><time>2025-05-24T17:05:22Z</time></trkpt>
<trkpt lat="50.381344" lon="4.896069"><ele>243.19</ele><time>2025-05-24T17:05:27Z</time></trkpt>
<trkpt lat="50.381463" lon="4.895929"><ele>242.46</ele><time>2025-05-24T17:05:31Z</time></trkpt>
<trkpt lat="50.381682" lon="4.895593"><ele>240.84</ele><time>2025-05-24T17:05:35Z</time></trkpt>
<trkpt lat="50.381793" lon="4.895374"><ele>237.67</ele><time>2025-05-24T17:05:40Z</time></trkpt>
<trkpt lat="50.381974" lon="4.894862"><ele>230.71</ele><time>2025-05-24T17:05:44Z</time></trkpt>
<trkpt lat="50.382047" lon="4.894708"><ele>226.9</ele><time>2025-05-24T17:05:48Z</time></trkpt>
<trkpt lat="50.382141" lon="4.894606"><ele>223.07</ele><time>2025-05-24T17:05:53Z</time></trkpt>
<trkpt lat="50.382867" lon="4.89448"><ele>207.42</ele><time>2025-05-24T17:05:57Z</time></trkpt>
<trkpt lat="50.383393" lon="4.894444"><ele>207.86</ele><time>2025-05-24T17:06:01Z</time></trkpt>
<trkpt lat="50.383469" lon="4.894428"><ele>208.96</ele><time>2025-05-24T17:06:06Z</time></trkpt>
<trkpt lat="50.383668" lon="4.894319"><ele>211.09</ele><time>2025-05-24T17:06:10Z</time></trkpt>
<trkpt lat="50.383913" lon="4.894081"><ele>209.83</ele><time>2025-05-24T17:06:14Z</time></trkpt>
<trkpt lat="50.384034" lon="4.893937"><ele>207.79</ele><time>2025-05-24T17:06:18Z</time></trkpt>
<trkpt lat="50.384169" lon="4.893723"><ele>208.16</ele><time>2025-05-24T17:06:23Z</time></trkpt>
<trkpt lat="50.384404" lon="4.893436"><ele>206.31</ele><time>2025-05-24T17:06:27Z</time></trkpt>
<trkpt lat="50.384616" lon="4.893274"><ele>204.23</ele><time>2025-05-24T17:06:31Z</time></trkpt>
<trkpt lat="50.384958" lon="4.893188"><ele>199.74</ele><time>2025-05-24T17:06:36Z</time></trkpt>
<trkpt lat="50.385249" lon="4.893159"><ele>193.65</ele><time>2025-05-24T17:06:40Z</time></trkpt>
<trkpt lat="50.385467" lon="4.893156"><ele>189.4</ele><time>2025-05-24T17:06:44Z</time></trkpt>
<trkpt lat="50.385928" lon="4.893201"><ele>183.66</ele><time>2025-05-24T17:06:49Z</time></trkpt>
<trkpt lat="50.386448" lon="4.893189"><ele>179.62</ele><time>2025-05-24T17:06:53Z</time></trkpt>
<trkpt lat="50.386961" lon="4.893239"><ele>175.18</ele><time>2025-05-24T17:06:57Z</time></trkpt>
<trkpt lat="50.387129" lon="4.893231"><ele>173.62</ele><time>2025-05-24T17:07:02Z</time></trkpt>
<trkpt lat="50.387531" lon="4.893076"><ele>171.32</ele><time>2025-05-24T17:07:06Z</time></trkpt>
<trkpt lat="50.387791" lon="4.892874"><ele>166.83</ele><time>2025-05-24T17:07:10Z</time></trkpt>
<trkpt lat="50.388318" lon="4.892365"><ele>157.95</ele><time>2025-05-24T17:07:15Z</time></trkpt>
<trkpt lat="50.388483" lon="4.892243"><ele>152.3</ele><time>2025-05-24T17:07:19Z</time></trkpt>
<trkpt lat="50.389205" lon="4.891846"><ele>133.8</ele><time>2025-05-24T17:07:23Z</time></trkpt>
<trkpt lat="50.389346" lon="4.891642"><ele>129.92</ele><time>2025-05-24T17:07:28Z</time></trkpt>
<trkpt lat="50.389381" lon="4.891406"><ele>128.74</ele><time>2025-05-24T17:07:32Z</time></trkpt>
<trkpt lat="50.389322" lon="4.890735"><ele>128.95</ele><time>2025-05-24T17:07:36Z</time></trkpt>
<trkpt lat="50.38932" lon="4.89038"><ele>126.82</ele><time>2025-05-24T17:07:40Z</time></trkpt>
<trkpt lat="50.389382" lon="4.890025"><ele>122.34</ele><time>2025-05-24T17:07:45Z</time></trkpt>
<trkpt lat="50.389539" lon="4.8893"><ele>110.73</ele><time>2025-05-24T17:07:49Z</time></trkpt>
<trkpt lat="50.389663" lon="4.887827"><ele>97.46</ele><time>2025-05-24T17:07:53Z</time></trkpt>
<trkpt lat="50.389762" lon="4.887054"><ele>101.25</ele><time>2025-05-24T17:07:56Z</time></trkpt>
<trkpt lat="50.390034" lon="4.885482"><ele>100.23</ele><time>2025-05-24T17:08:00Z</time></trkpt>
<trkpt lat="50.390107" lon="4.884317"><ele>102.37</ele><time>2025-05-24T17:08:03Z</time></trkpt>
<trkpt lat="50.390309" lon="4.882221"><ele>88.44</ele><time>2025-05-24T17:08:07Z</time></trkpt>
<trkpt lat="50.390349" lon="4.882038"><ele>87.36</ele><time>2025-05-24T17:08:10Z</time></trkpt>
<trkpt lat="50.390402" lon="4.881903"><ele>86.61</ele><time>2025-05-24T17:08:14Z</time></trkpt>
<trkpt lat="50.390488" lon="4.88175"><ele>85.76</ele><time>2025-05-24T17:08:18Z</time></trkpt>
<trkpt lat="50.390406" lon="4.881712"><ele>85.46</ele><time>2025-05-24T17:08:18Z</time></trkpt>
<trkpt lat="50.390406" lon="4.881712"><ele>85.46</ele><time>2025-05-24T17:08:18Z</time></trkpt>
<trkpt lat="50.390766" lon="4.881867"><ele>88.79</ele><time>2025-05-24T17:08:24Z</time></trkpt>
<trkpt lat="50.391143" lon="4.881964"><ele>93.45</ele><time>2025-05-24T17:08:31Z</time></trkpt>
<trkpt lat="50.391907" lon="4.882011"><ele>95.78</ele><time>2025-05-24T17:08:37Z</time></trkpt>
<trkpt lat="50.392069" lon="4.882033"><ele>97.14</ele><time>2025-05-24T17:08:44Z</time></trkpt>
<trkpt lat="50.396581" lon="4.883072"><ele>88.58</ele><time>2025-05-24T17:08:50Z</time></trkpt>
<trkpt lat="50.39677" lon="4.883305"><ele>89.74</ele><time>2025-05-24T17:08:52Z</time></trkpt>
<trkpt lat="50.397255" lon="4.883642"><ele>93.44</ele><time>2025-05-24T17:08:54Z</time></trkpt>
<trkpt lat="50.397736" lon="4.883928"><ele>99.56</ele><time>2025-05-24T17:08:56Z</time></trkpt>
<trkpt lat="50.397804" lon="4.884024"><ele>101.88</ele><time>2025-05-24T17:08:58Z</time></trkpt>
<trkpt lat="50.397947" lon="4.884096"><ele>103.03</ele><time>2025-05-24T17:08:59Z</time></trkpt>
<trkpt lat="50.398022" lon="4.884102"><ele>102.93</ele><time>2025-05-24T17:09:01Z</time></trkpt>
<trkpt lat="50.3981" lon="4.884077"><ele>101.79</ele><time>2025-05-24T17:09:03Z</time></trkpt>
<trkpt lat="50.398165" lon="4.884012"><ele>99.86</ele><time>2025-05-24T17:09:05Z</time></trkpt>
<trkpt lat="50.398217" lon="4.883917"><ele>97.7</ele><time>2025-05-24T17:09:07Z</time></trkpt>
<trkpt lat="50.398237" lon="4.883787"><ele>95.45</ele><time>2025-05-24T17:09:09Z</time></trkpt>
<trkpt lat="50.398228" lon="4.883618"><ele>92.87</ele><time>2025-05-24T17:09:11Z</time></trkpt>
<trkpt lat="50.398122" lon="4.882875"><ele>90.26</ele><time>2025-05-24T17:09:13Z</time></trkpt>
<trkpt lat="50.398003" lon="4.882035"><ele>87.32</ele><time>2025-05-24T17:09:14Z</time></trkpt>
<trkpt lat="50.397798" lon="4.880821"><ele>83.04</ele><time>2025-05-24T17:09:16Z</time></trkpt>
<trkpt lat="50.397781" lon="4.880142"><ele>85.47</ele><time>2025-05-24T17:09:18Z</time></trkpt>
<trkpt lat="50.397792" lon="4.879857"><ele>87.44</ele><time>2025-05-24T17:09:20Z</time></trkpt>
<trkpt lat="50.397877" lon="4.879472"><ele>90.41</ele><time>2025-05-24T17:09:22Z</time></trkpt>
<trkpt lat="50.397946" lon="4.879299"><ele>91.23</ele><time>2025-05-24T17:09:24Z</time></trkpt>
<trkpt lat="50.39811" lon="4.879037"><ele>92.56</ele><time>2025-05-24T17:09:26Z</time></trkpt>
<trkpt lat="50.398285" lon="4.878882"><ele>93.92</ele><time>2025-05-24T17:09:28Z</time></trkpt>
<trkpt lat="50.398921" lon="4.878603"><ele>93.14</ele><time>2025-05-24T17:09:30Z</time></trkpt>
<trkpt lat="50.399096" lon="4.878573"><ele>93.89</ele><time>2025-05-24T17:09:32Z</time></trkpt>
<trkpt lat="50.399467" lon="4.878561"><ele>95.06</ele><time>2025-05-24T17:09:34Z</time></trkpt>
<trkpt lat="50.399904" lon="4.878678"><ele>92.41</ele><time>2025-05-24T17:09:36Z</time></trkpt>
<trkpt lat="50.399904" lon="4.878678"><ele>92.41</ele><time>2025-05-24T17:09:36Z</time></trkpt>
<trkpt lat="50.399467" lon="4.878561"><ele>95.06</ele><time>2025-05-24T17:09:39Z</time></trkpt>
<trkpt lat="50.399343" lon="4.878484"><ele>96.26</ele><time>2025-05-24T17:09:41Z</time></trkpt>
<trkpt lat="50.399048" lon="4.878406"><ele>97.53</ele><time>2025-05-24T17:09:46Z</time></trkpt>
<trkpt lat="50.398818" lon="4.878376"><ele>97.74</ele><time>2025-05-24T17:09:51Z</time></trkpt>
<trkpt lat="50.394677" lon="4.878366"><ele>103.13</ele><time>2025-05-24T17:09:56Z</time></trkpt>
<trkpt lat="50.394322" lon="4.878326"><ele>101.51</ele><time>2025-05-24T17:10:01Z</time></trkpt>
<trkpt lat="50.393226" lon="4.878084"><ele>102.44</ele><time>2025-05-24T17:10:05Z</time></trkpt>
<trkpt lat="50.392945" lon="4.878077"><ele>101.08</ele><time>2025-05-24T17:10:10Z</time></trkpt>
<trkpt lat="50.391547" lon="4.877796"><ele>96.91</ele><time>2025-05-24T17:10:15Z</time></trkpt>
<trkpt lat="50.390841" lon="4.877737"><ele>94.28</ele><time>2025-05-24T17:10:20Z</time></trkpt>
<trkpt lat="50.39021" lon="4.877746"><ele>90.81</ele><time>2025-05-24T17:10:25Z</time></trkpt>
<trkpt lat="50.3871" lon="4.87784"><ele>90.42</ele><time>2025-05-24T17:10:29Z</time></trkpt>
<trkpt lat="50.386877" lon="4.877787"><ele>89.22</ele><time>2025-05-24T17:10:34Z</time></trkpt>
<trkpt lat="50.386299" lon="4.877535"><ele>88.08</ele><time>2025-05-24T17:10:39Z</time></trkpt>
<trkpt lat="50.385679" lon="4.877181"><ele>87.05</ele><time>2025-05-24T17:10:44Z</time></trkpt>
<trkpt lat="50.385458" lon="4.876978"><ele>87.86</ele><time>2025-05-24T17:10:49Z</time></trkpt>
<trkpt lat="50.385175" lon="4.876567"><ele>90.35</ele><time>2025-05-24T17:10:53Z</time></trkpt>
<trkpt lat="50.384981" lon="4.876104"><ele>92.91</ele><time>2025-05-24T17:10:58Z</time></trkpt>
<trkpt lat="50.384172" lon="4.87336"><ele>103.55</ele><time>2025-05-24T17:11:03Z</time></trkpt>
<trkpt lat="50.384068" lon="4.872906"><ele>105.34</ele><time>2025-05-24T17:11:08Z</time></trkpt>
<trkpt lat="50.383789" lon="4.871547"><ele>104.82</ele><time>2025-05-24T17:11:13Z</time></trkpt>
<trkpt lat="50.383549" lon="4.870327"><ele>98.54</ele><time>2025-05-24T17:11:18Z</time></trkpt>
<trkpt lat="50.383516" lon="4.870102"><ele>94.47</ele><time>2025-05-24T17:11:22Z</time></trkpt>
<trkpt lat="50.383507" lon="4.868975"><ele>108.21</ele><time>2025-05-24T17:11:27Z</time></trkpt>
<trkpt lat="50.383463" lon="4.868657"><ele>106.31</ele><time>2025-05-24T17:11:32Z</time></trkpt>
<trkpt lat="50.383354" lon="4.868174"><ele>98.35</ele><time>2025-05-24T17:11:37Z</time></trkpt>
<trkpt lat="50.383164" lon="4.867714"><ele>89.8</ele><time>2025-05-24T17:11:42Z</time></trkpt>
<trkpt lat="50.383129" lon="4.867622"><ele>89.7</ele><time>2025-05-24T17:11:46Z</time></trkpt>
<trkpt lat="50.38295" lon="4.867347"><ele>89.59</ele><time>2025-05-24T17:11:51Z</time></trkpt>
<trkpt lat="50.382719" lon="4.867137"><ele>90.27</ele><time>2025-05-24T17:11:56Z</time></trkpt>
<trkpt lat="50.382233" lon="4.866829"><ele>86.62</ele><time>2025-05-24T17:12:01Z</time></trkpt>
<trkpt lat="50.381728" lon="4.866565"><ele>85.81</ele><time>2025-05-24T17:12:06Z</time></trkpt>
<trkpt lat="50.381946" lon="4.865839"><ele>89.0</ele><time>2025-05-24T17:12:13Z</time></trkpt>
<trkpt lat="50.382224" lon="4.863114"><ele>90.79</ele><time>2025-05-24T17:12:21Z</time></trkpt>
<trkpt lat="50.382319" lon="4.862666"><ele>90.86</ele><time>2025-05-24T17:12:29Z</time></trkpt>
<trkpt lat="50.383041" lon="4.860601"><ele>95.85</ele><time>2025-05-24T17:12:36Z</time></trkpt>
<trkpt lat="50.383297" lon="4.859945"><ele>97.07</ele><time>2025-05-24T17:12:44Z</time></trkpt>
<trkpt lat="50.384282" lon="4.858693"><ele>98.13</ele><time>2025-05-24T17:12:52Z</time></trkpt>
<trkpt lat="50.384353" lon="4.858571"><ele>98.29</ele><time>2025-05-24T17:13:00Z</time></trkpt>
<trkpt lat="50.384392" lon="4.858454"><ele>98.52</ele><time>2025-05-24T17:13:07Z</time></trkpt>
<trkpt lat="50.384468" lon="4.858475"><ele>99.25</ele><time>2025-05-24T17:13:11Z</time></trkpt>
<trkpt lat="50.384594" lon="4.858462"><ele>100.57</ele><time>2025-05-24T17:13:15Z</time></trkpt>
<trkpt lat="50.384854" lon="4.858371"><ele>103.64</ele><time>2025-05-24T17:13:19Z</time></trkpt>
<trkpt lat="50.385452" lon="4.858221"><ele>113.54</ele><time>2025-05-24T17:13:23Z</time></trkpt>
<trkpt lat="50.386035" lon="4.85795"><ele>121.9</ele><time>2025-05-24T17:13:27Z</time></trkpt>
<trkpt lat="50.386194" lon="4.857827"><ele>122.41</ele><time>2025-05-24T17:13:30Z</time></trkpt>
<trkpt lat="50.386409" lon="4.857582"><ele>126.71</ele><time>2025-05-24T17:13:34Z</time></trkpt>
<trkpt lat="50.386739" lon="4.856873"><ele>139.33</ele><time>2025-05-24T17:13:38Z</time></trkpt>
<trkpt lat="50.38739" lon="4.854818"><ele>145.25</ele><time>2025-05-24T17:13:42Z</time></trkpt>
<trkpt lat="50.387544" lon="4.854378"><ele>145.04</ele><time>2025-05-24T17:13:46Z</time></trkpt>
<trkpt lat="50.388223" lon="4.853212"><ele>153.55</ele><time>2025-05-24T17:13:50Z</time></trkpt>
<trkpt lat="50.388409" lon="4.852647"><ele>156.75</ele><time>2025-05-24T17:13:54Z</time></trkpt>
<trkpt lat="50.389187" lon="4.85011"><ele>160.49</ele><time>2025-05-24T17:13:58Z</time></trkpt>
<trkpt lat="50.389294" lon="4.849668"><ele>164.66</ele><time>2025-05-24T17:14:01Z</time></trkpt>
<trkpt lat="50.389329" lon="4.849263"><ele>167.65</ele><time>2025-05-24T17:14:05Z</time></trkpt>
<trkpt lat="50.389335" lon="4.84877"><ele>170.45</ele><time>2025-05-24T17:14:09Z</time></trkpt>
<trkpt lat="50.389316" lon="4.848643"><ele>171.33</ele><time>2025-05-24T17:14:13Z</time></trkpt>
<trkpt lat="50.389269" lon="4.848555"><ele>171.64</ele><time>2025-05-24T17:14:17Z</time></trkpt>
<trkpt lat="50.389228" lon="4.84852"><ele>171.57</ele><time>2025-05-24T17:14:21Z</time></trkpt>
<trkpt lat="50.38913" lon="4.848504"><ele>171.1</ele><time>2025-05-24T17:14:25Z</time></trkpt>
<trkpt lat="50.389066" lon="4.848554"><ele>170.54</ele><time>2025-05-24T17:14:28Z</time></trkpt>
<trkpt lat="50.389025" lon="4.84864"><ele>169.69</ele><time>2025-05-24T17:14:32Z</time></trkpt>
<trkpt lat="50.389002" lon="4.84877"><ele>168.29</ele><time>2025-05-24T17:14:36Z</time></trkpt>
<trkpt lat="50.389035" lon="4.849214"><ele>165.74</ele><time>2025-05-24T17:14:40Z</time></trkpt>
<trkpt lat="50.38898" lon="4.849726"><ele>164.32</ele><time>2025-05-24T17:14:44Z</time></trkpt>
<trkpt lat="50.388908" lon="4.849893"><ele>164.21</ele><time>2025-05-24T17:14:48Z</time></trkpt>
<trkpt lat="50.388844" lon="4.849929"><ele>165.64</ele><time>2025-05-24T17:14:52Z</time></trkpt>
<trkpt lat="50.388773" lon="4.849933"><ele>167.8</ele><time>2025-05-24T17:14:56Z</time></trkpt>
<trkpt lat="50.388719" lon="4.849881"><ele>169.41</ele><time>2025-05-24T17:14:59Z</time></trkpt>
<trkpt lat="50.388688" lon="4.849789"><ele>170.16</ele><time>2025-05-24T17:15:03Z</time></trkpt>
<trkpt lat="50.388699" lon="4.849615"><ele>169.53</ele><time>2025-05-24T17:15:07Z</time></trkpt>
<trkpt lat="50.388833" lon="4.849321"><ele>166.47</ele><time>2025-05-24T17:15:11Z</time></trkpt>
<trkpt lat="50.388861" lon="4.84922"><ele>166.24</ele><time>2025-05-24T17:15:15Z</time></trkpt>
<trkpt lat="50.388867" lon="4.849101"><ele>166.53</ele><time>2025-05-24T17:15:19Z</time></trkpt>
<trkpt lat="50.38886" lon="4.848966"><ele>167.07</ele><time>2025-05-24T17:15:23Z</time></trkpt>
<trkpt lat="50.388643" lon="4.848149"><ele>174.21</ele><time>2025-05-24T17:15:26Z</time></trkpt>
<trkpt lat="50.388607" lon="4.847884"><ele>176.27</ele><time>2025-05-24T17:15:30Z</time></trkpt>
<trkpt lat="50.388601" lon="4.847635"><ele>177.6</ele><time>2025-05-24T17:15:34Z</time></trkpt>
<trkpt lat="50.388692" lon="4.846696"><ele>181.97</ele><time>2025-05-24T17:15:38Z</time></trkpt>
<trkpt lat="50.388758" lon="4.846452"><ele>182.91</ele><time>2025-05-24T17:15:42Z</time></trkpt>
<trkpt lat="50.388869" lon="4.846296"><ele>181.41</ele><time>2025-05-24T17:15:46Z</time></trkpt>
<trkpt lat="50.38906" lon="4.846159"><ele>179.15</ele><time>2025-05-24T17:15:50Z</time></trkpt>
<trkpt lat="50.389437" lon="4.845988"><ele>176.93</ele><time>2025-05-24T17:15:53Z</time></trkpt>
<trkpt lat="50.389815" lon="4.845782"><ele>178.88</ele><time>2025-05-24T17:15:57Z</time></trkpt>
<trkpt lat="50.389925" lon="4.84563"><ele>179.12</ele><time>2025-05-24T17:16:01Z</time></trkpt>
<trkpt lat="50.390041" lon="4.845406"><ele>179.89</ele><time>2025-05-24T17:16:05Z</time></trkpt>
<trkpt lat="50.390161" lon="4.844867"><ele>180.0</ele><time>2025-05-24T17:16:09Z</time></trkpt>
<trkpt lat="50.390279" lon="4.844104"><ele>181.23</ele><time>2025-05-24T17:16:13Z</time></trkpt>
<trkpt lat="50.390454" lon="4.843553"><ele>182.63</ele><time>2025-05-24T17:16:17Z</time></trkpt>
<trkpt lat="50.390895" lon="4.842606"><ele>185.53</ele><time>2025-05-24T17:16:21Z</time></trkpt>
<trkpt lat="50.391385" lon="4.841554"><ele>188.8</ele><time>2025-05-24T17:16:24Z</time></trkpt>
<trkpt lat="50.391921" lon="4.840169"><ele>191.37</ele><time>2025-05-24T17:16:28Z</time></trkpt>
<trkpt lat="50.392269" lon="4.839085"><ele>198.54</ele><time>2025-05-24T17:16:32Z</time></trkpt>
<trkpt lat="50.393068" lon="4.836469"><ele>199.67</ele><time>2025-05-24T17:16:36Z</time></trkpt>
<trkpt lat="50.393951" lon="4.83392"><ele>207.66</ele><time>2025-05-24T17:16:40Z</time></trkpt>
<trkpt lat="50.394526" lon="4.831828"><ele>202.83</ele><time>2025-05-24T17:16:44Z</time></trkpt>
<trkpt lat="50.394977" lon="4.829736"><ele>208.03</ele><time>2025-05-24T17:16:48Z</time></trkpt>
<trkpt lat="50.395731" lon="4.826734"><ele>221.76</ele><time>2025-05-24T17:16:51Z</time></trkpt>
<trkpt lat="50.395878" lon="4.82646"><ele>223.37</ele><time>2025-05-24T17:16:55Z</time></trkpt>
<trkpt lat="50.395992" lon="4.826314"><ele>223.54</ele><time>2025-05-24T17:16:59Z</time></trkpt>
<trkpt lat="50.396083" lon="4.826261"><ele>223.15</ele><time>2025-05-24T17:17:03Z</time></trkpt>
<trkpt lat="50.396757" lon="4.826036"><ele>220.86</ele><time>2025-05-24T17:17:07Z</time></trkpt>
<trkpt lat="50.39679" lon="4.826123"><ele>220.56</ele><time>2025-05-24T17:17:16Z</time></trkpt>
<trkpt lat="50.396861" lon="4.82614"><ele>220.3</ele><time>2025-05-24T17:17:26Z</time></trkpt>
<trkpt lat="50.396872" lon="4.826244"><ele>220.26</ele><time>2025-05-24T17:17:35Z</time></trkpt>
<trkpt lat="50.397147" lon="4.827111"><ele>220.14</ele><time>2025-05-24T17:17:44Z</time></trkpt>
<trkpt lat="50.398068" lon="4.829653"><ele>232.0</ele><time>2025-05-24T17:17:54Z</time></trkpt>
<trkpt lat="50.398189" lon="4.829868"><ele>232.0</ele><time>2025-05-24T17:18:03Z</time></trkpt>
<trkpt lat="50.400938" lon="4.833364"><ele>234.0</ele><time>2025-05-24T17:18:13Z</time></trkpt>
<trkpt lat="50.401016" lon="4.833297"><ele>233.87</ele><time>2025-05-24T17:18:34Z</time></trkpt>
<trkpt lat="50.402093" lon="4.831882"><ele>231.12</ele><time>2025-05-24T17:18:56Z</time></trkpt>
<trkpt lat="50.402384" lon="4.83155"><ele>231.58</ele><time>2025-05-24T17:19:17Z</time></trkpt>
<trkpt lat="50.402548" lon="4.831413"><ele>231.26</ele><time>2025-05-24T17:19:39Z</time></trkpt>
<trkpt lat="50.402866" lon="4.831224"><ele>232.63</ele><time>2025-05-24T17:20:01Z</time></trkpt>
<trkpt lat="50.405746" lon="4.829721"><ele>239.69</ele><time>2025-05-24T17:20:22Z</time></trkpt>
<trkpt lat="50.405744" lon="4.829717"><ele>239.0</ele><time>2025-05-24T17:20:22Z</time></trkpt>
<trkpt lat="50.405744" lon="4.829717"><ele>239.0</ele><time>2025-05-24T17:20:22Z</time></trkpt>
<trkpt lat="50.405517" lon="4.829295"><ele>238.32</ele><time>2025-05-24T17:20:35Z</time></trkpt>
<trkpt lat="50.405377" lon="4.828995"><ele>236.74</ele><time>2025-05-24T17:20:47Z</time></trkpt>
<trkpt lat="50.404716" lon="4.827331"><ele>230.99</ele><time>2025-05-24T17:20:59Z</time></trkpt>
<trkpt lat="50.404481" lon="4.826481"><ele>226.06</ele><time>2025-05-24T17:21:12Z</time></trkpt>
<trkpt lat="50.404241" lon="4.825489"><ele>221.56</ele><time>2025-05-24T17:21:24Z</time></trkpt>
<trkpt lat="50.404093" lon="4.823296"><ele>210.54</ele><time>2025-05-24T17:21:36Z</time></trkpt>
<trkpt lat="50.403934" lon="4.822763"><ele>203.37</ele><time>2025-05-24T17:21:48Z</time></trkpt>
<trkpt lat="50.403812" lon="4.822093"><ele>198.54</ele><time>2025-05-24T17:22:01Z</time></trkpt>
<trkpt lat="50.404622" lon="4.81977"><ele>189.99</ele><time>2025-05-24T17:22:06Z</time></trkpt>
<trkpt lat="50.404727" lon="4.819563"><ele>189.48</ele><time>2025-05-24T17:22:12Z</time></trkpt>
<trkpt lat="50.404846" lon="4.819388"><ele>190.36</ele><time>2025-05-24T17:22:17Z</time></trkpt>
<trkpt lat="50.405332" lon="4.818943"><ele>190.19</ele><time>2025-05-24T17:22:22Z</time></trkpt>
<trkpt lat="50.405483" lon="4.818804"><ele>189.7</ele><time>2025-05-24T17:22:28Z</time></trkpt>
<trkpt lat="50.406028" lon="4.817617"><ele>192.99</ele><time>2025-05-24T17:22:33Z</time></trkpt>
<trkpt lat="50.406187" lon="4.81715"><ele>192.47</ele><time>2025-05-24T17:22:39Z</time></trkpt>
<trkpt lat="50.407055" lon="4.812655"><ele>183.6</ele><time>2025-05-24T17:22:44Z</time></trkpt>
<trkpt lat="50.407118" lon="4.812424"><ele>183.38</ele><time>2025-05-24T17:22:49Z</time></trkpt>
<trkpt lat="50.407212" lon="4.812241"><ele>183.04</ele><time>2025-05-24T17:22:55Z</time></trkpt>
<trkpt lat="50.408485" lon="4.810588"><ele>184.87</ele><time>2025-05-24T17:23:00Z</time></trkpt>
<trkpt lat="50.40969" lon="4.809741"><ele>190.03</ele><time>2025-05-24T17:23:06Z</time></trkpt>
<trkpt lat="50.410646" lon="4.809403"><ele>189.05</ele><time>2025-05-24T17:23:11Z</time></trkpt>
<trkpt lat="50.411448" lon="4.809164"><ele>187.64</ele><time>2025-05-24T17:23:17Z</time></trkpt>
<trkpt lat="50.41234" lon="4.809407"><ele>188.4</ele><time>2025-05-24T17:23:22Z</time></trkpt>
<trkpt lat="50.412639" lon="4.809488"><ele>185.92</ele><time>2025-05-24T17:23:27Z</time></trkpt>
<trkpt lat="50.412912" lon="4.809449"><ele>184.01</ele><time>2025-05-24T17:23:33Z</time></trkpt>
<trkpt lat="50.41392" lon="4.808409"><ele>170.04</ele><time>2025-05-24T17:23:38Z</time></trkpt>
<trkpt lat="50.414053" lon="4.808367"><ele>168.46</ele><time>2025-05-24T17:23:44Z</time></trkpt>
<trkpt lat="50.414172" lon="4.808351"><ele>166.9</ele><time>2025-05-24T17:23:49Z</time></trkpt>
<trkpt lat="50.415958" lon="4.80894"><ele>160.92</ele><time>2025-05-24T17:23:54Z</time></trkpt>
<trkpt lat="50.416749" lon="4.809195"><ele>158.87</ele><time>2025-05-24T17:24:00Z</time></trkpt>
<trkpt lat="50.418073" lon="4.809657"><ele>158.94</ele><time>2025-05-24T17:24:05Z</time></trkpt>
<trkpt lat="50.418214" lon="4.809776"><ele>158.35</ele><time>2025-05-24T17:24:11Z</time></trkpt>
<trkpt lat="50.41899" lon="4.810714"><ele>158.43</ele><time>2025-05-24T17:24:16Z</time></trkpt>
<trkpt lat="50.419147" lon="4.810821"><ele>158.04</ele><time>2025-05-24T17:24:21Z</time></trkpt>
<trkpt lat="50.419505" lon="4.811008"><ele>159.03</ele><time>2025-05-24T17:24:27Z</time></trkpt>
<trkpt lat="50.4204" lon="4.811854"><ele>157.32</ele><time>2025-05-24T17:24:32Z</time></trkpt>
<trkpt lat="50.420572" lon="4.811982"><ele>156.86</ele><time>2025-05-24T17:24:38Z</time></trkpt>
<trkpt lat="50.420769" lon="4.812098"><ele>156.02</ele><time>2025-05-24T17:24:43Z</time></trkpt>
<trkpt lat="50.422121" lon="4.812453"><ele>150.59</ele><time>2025-05-24T17:24:48Z</time></trkpt>
<trkpt lat="50.422636" lon="4.812547"><ele>149.34</ele><time>2025-05-24T17:24:54Z</time></trkpt>
<trkpt lat="50.422922" lon="4.812566"><ele>147.85</ele><time>2025-05-24T17:24:59Z</time></trkpt>
<trkpt lat="50.423507" lon="4.812522"><ele>146.05</ele><time>2025-05-24T17:25:05Z</time></trkpt>
<trkpt lat="50.42375" lon="4.812382"><ele>146.5</ele><time>2025-05-24T17:25:10Z</time></trkpt>
<trkpt lat="50.424579" lon="4.811573"><ele>145.97</ele><time>2025-05-24T17:25:15Z</time></trkpt>
<trkpt lat="50.424817" lon="4.811309"><ele>145.81</ele><time>2025-05-24T17:25:21Z</time></trkpt>
<trkpt lat="50.424948" lon="4.811036"><ele>145.76</ele><time>2025-05-24T17:25:26Z</time></trkpt>
<trkpt lat="50.42503" lon="4.810663"><ele>146.32</ele><time>2025-05-24T17:25:32Z</time></trkpt>
<trkpt lat="50.425108" lon="4.810197"><ele>146.37</ele><time>2025-05-24T17:25:37Z</time></trkpt>
<trkpt lat="50.425208" lon="4.809832"><ele>146.53</ele><time>2025-05-24T17:25:43Z</time></trkpt>
<trkpt lat="50.42528" lon="4.809658"><ele>146.79</ele><time>2025-05-24T17:25:48Z</time></trkpt>
<trkpt lat="50.42538" lon="4.80949"><ele>147.64</ele><time>2025-05-24T17:25:53Z</time></trkpt>
<trkpt lat="50.425487" lon="4.809391"><ele>148.82</ele><time>2025-05-24T17:25:59Z</time></trkpt>
<trkpt lat="50.42557" lon="4.809372"><ele>149.95</ele><time>2025-05-24T17:26:04Z</time></trkpt>
<trkpt lat="50.425663" lon="4.8094"><ele>151.38</ele><time>2025-05-24T17:26:10Z</time></trkpt>
<trkpt lat="50.425732" lon="4.80945"><ele>152.57</ele><time>2025-05-24T17:26:15Z</time></trkpt>
<trkpt lat="50.425803" lon="4.809543"><ele>153.92</ele><time>2025-05-24T17:26:20Z</time></trkpt>
<trkpt lat="50.425867" lon="4.809778"><ele>155.73</ele><time>2025-05-24T17:26:26Z</time></trkpt>
<trkpt lat="50.426179" lon="4.811805"><ele>161.23</ele><time>2025-05-24T17:26:31Z</time></trkpt>
<trkpt lat="50.426276" lon="4.812331"><ele>163.9</ele><time>2025-05-24T17:26:37Z</time></trkpt>
<trkpt lat="50.426455" lon="4.812825"><ele>164.0</ele><time>2025-05-24T17:26:42Z</time></trkpt>
<trkpt lat="50.426981" lon="4.813802"><ele>169.47</ele><time>2025-05-24T17:26:47Z</time></trkpt>
<trkpt lat="50.427156" lon="4.814191"><ele>171.35</ele><time>2025-05-24T17:26:53Z</time></trkpt>
<trkpt lat="50.427312" lon="4.814454"><ele>173.62</ele><time>2025-05-24T17:26:58Z</time></trkpt>
<trkpt lat="50.427459" lon="4.814745"><ele>174.47</ele><time>2025-05-24T17:27:04Z</time></trkpt>
<trkpt lat="50.427667" lon="4.815266"><ele>176.79</ele><time>2025-05-24T17:27:09Z</time></trkpt>
<trkpt lat="50.427772" lon="4.815466"><ele>178.62</ele><time>2025-05-24T17:27:14Z</time></trkpt>
<trkpt lat="50.427926" lon="4.815532"><ele>179.5</ele><time>2025-05-24T17:27:20Z</time></trkpt>
<trkpt lat="50.428476" lon="4.815521"><ele>179.76</ele><time>2025-05-24T17:27:25Z</time></trkpt>
<trkpt lat="50.428628" lon="4.815493"><ele>180.62</ele><time>2025-05-24T17:27:31Z</time></trkpt>
<trkpt lat="50.428771" lon="4.815418"><ele>182.43</ele><time>2025-05-24T17:27:36Z</time></trkpt>
<trkpt lat="50.428868" lon="4.81531"><ele>183.73</ele><time>2025-05-24T17:27:41Z</time></trkpt>
<trkpt lat="50.428927" lon="4.815182"><ele>184.14</ele><time>2025-05-24T17:27:47Z</time></trkpt>
<trkpt lat="50.42928" lon="4.814222"><ele>189.94</ele><time>2025-05-24T17:27:52Z</time></trkpt>
<trkpt lat="50.429364" lon="4.814116"><ele>191.31</ele><time>2025-05-24T17:27:58Z</time></trkpt>
<trkpt lat="50.429459" lon="4.814085"><ele>192.4</ele><time>2025-05-24T17:28:03Z</time></trkpt>
<trkpt lat="50.429567" lon="4.81413"><ele>193.01</ele><time>2025-05-24T17:28:09Z</time></trkpt>
<trkpt lat="50.429683" lon="4.814282"><ele>193.24</ele><time>2025-05-24T17:28:14Z</time></trkpt>
<trkpt lat="50.432133" lon="4.818782"><ele>207.06</ele><time>2025-05-24T17:28:19Z</time></trkpt>
<trkpt lat="50.432375" lon="4.819348"><ele>208.46</ele><time>2025-05-24T17:28:25Z</time></trkpt>
<trkpt lat="50.433306" lon="4.821878"><ele>208.88</ele><time>2025-05-24T17:28:30Z</time></trkpt>
<trkpt lat="50.433982" lon="4.823908"><ele>207.73</ele><time>2025-05-24T17:28:36Z</time></trkpt>
<trkpt lat="50.434585" lon="4.82563"><ele>206.76</ele><time>2025-05-24T17:28:41Z</time></trkpt>
<trkpt lat="50.434767" lon="4.82596"><ele>207.14</ele><time>2025-05-24T17:28:46Z</time></trkpt>
<trkpt lat="50.43528" lon="4.826617"><ele>205.81</ele><time>2025-05-24T17:28:52Z</time></trkpt>
<trkpt lat="50.435409" lon="4.826909"><ele>205.52</ele><time>2025-05-24T17:28:57Z</time></trkpt>
<trkpt lat="50.43594" lon="4.828549"><ele>204.54</ele><time>2025-05-24T17:29:03Z</time></trkpt>
<trkpt lat="50.436128" lon="4.829048"><ele>208.18</ele><time>2025-05-24T17:29:08Z</time></trkpt>
<trkpt lat="50.436263" lon="4.829188"><ele>209.63</ele><time>2025-05-24T17:29:13Z</time></trkpt>
<trkpt lat="50.436434" lon="4.829326"><ele>210.59</ele><time>2025-05-24T17:29:19Z</time></trkpt>
<trkpt lat="50.438901" lon="4.830707"><ele>200.41</ele><time>2025-05-24T17:29:24Z</time></trkpt>
<trkpt lat="50.439163" lon="4.830892"><ele>197.4</ele><time>2025-05-24T17:29:30Z</time></trkpt>
<trkpt lat="50.43926" lon="4.83101"><ele>196.76</ele><time>2025-05-24T17:29:35Z</time></trkpt>
<trkpt lat="50.439227" lon="4.829681"><ele>203.72</ele><time>2025-05-24T17:29:40Z</time></trkpt>
<trkpt lat="50.439227" lon="4.829681"><ele>203.72</ele><time>2025-05-24T17:29:40Z</time></trkpt>
<trkpt lat="50.439049" lon="4.822484"><ele>192.57</ele><time>2025-05-24T17:29:48Z</time></trkpt>
<trkpt lat="50.43848" lon="4.820156"><ele>188.53</ele><time>2025-05-24T17:29:56Z</time></trkpt>
<trkpt lat="50.43806" lon="4.818533"><ele>185.01</ele><time>2025-05-24T17:30:03Z</time></trkpt>
<trkpt lat="50.437774" lon="4.817324"><ele>180.37</ele><time>2025-05-24T17:30:11Z</time></trkpt>
<trkpt lat="50.437753" lon="4.817092"><ele>179.96</ele><time>2025-05-24T17:30:19Z</time></trkpt>
<trkpt lat="50.43801" lon="4.813267"><ele>177.59</ele><time>2025-05-24T17:30:26Z</time></trkpt>
<trkpt lat="50.437875" lon="4.812652"><ele>176.96</ele><time>2025-05-24T17:30:34Z</time></trkpt>
<trkpt lat="50.437097" lon="4.810071"><ele>171.16</ele><time>2025-05-24T17:30:42Z</time></trkpt>
<trkpt lat="50.436633" lon="4.808675"><ele>167.53</ele><time>2025-05-24T17:30:50Z</time></trkpt>
<trkpt lat="50.43636" lon="4.808114"><ele>166.58</ele><time>2025-05-24T17:30:57Z</time></trkpt>
<trkpt lat="50.435664" lon="4.8071"><ele>170.66</ele><time>2025-05-24T17:31:05Z</time></trkpt>
<trkpt lat="50.435471" lon="4.806799"><ele>171.59</ele><time>2025-05-24T17:31:13Z</time></trkpt>
<trkpt lat="50.435303" lon="4.806483"><ele>172.5</ele><time>2025-05-24T17:31:21Z</time></trkpt>
<trkpt lat="50.435141" lon="4.806107"><ele>173.05</ele><time>2025-05-24T17:31:28Z</time></trkpt>
<trkpt lat="50.435011" lon="4.805754"><ele>172.21</ele><time>2025-05-24T17:31:36Z</time></trkpt>
<trkpt lat="50.434708" lon="4.80476"><ele>166.95</ele><time>2025-05-24T17:31:44Z</time></trkpt>
<trkpt lat="50.434647" lon="4.804347"><ele>166.31</ele><time>2025-05-24T17:31:52Z</time></trkpt>
<trkpt lat="50.434646" lon="4.804115"><ele>165.41</ele><time>2025-05-24T17:31:59Z</time></trkpt>
<trkpt lat="50.434794" lon="4.80236"><ele>161.53</ele><time>2025-05-24T17:32:07Z</time></trkpt>
<trkpt lat="50.4348" lon="4.80188"><ele>158.99</ele><time>2025-05-24T17:32:15Z</time></trkpt>
<trkpt lat="50.434764" lon="4.80148"><ele>155.85</ele><time>2025-05-24T17:32:23Z</time></trkpt>
<trkpt lat="50.434569" lon="4.800754"><ele>152.19</ele><time>2025-05-24T17:32:30Z</time></trkpt>
<trkpt lat="50.434514" lon="4.800337"><ele>150.21</ele><time>2025-05-24T17:32:38Z</time></trkpt>
<trkpt lat="50.434483" lon="4.799324"><ele>145.99</ele><time>2025-05-24T17:32:46Z</time></trkpt>
<trkpt lat="50.434494" lon="4.798805"><ele>145.12</ele><time>2025-05-24T17:32:54Z</time></trkpt>
<trkpt lat="50.434562" lon="4.798266"><ele>142.41</ele><time>2025-05-24T17:33:01Z</time></trkpt>
<trkpt lat="50.43459" lon="4.797906"><ele>139.38</ele><time>2025-05-24T17:33:09Z</time></trkpt>
<trkpt lat="50.434599" lon="4.797462"><ele>133.72</ele><time>2025-05-24T17:33:17Z</time></trkpt>
<trkpt lat="50.434429" lon="4.795599"><ele>115.01</ele><time>2025-05-24T17:33:25Z</time></trkpt>
<trkpt lat="50.434592" lon="4.795545"><ele>113.69</ele><time>2025-05-24T17:33:29Z</time></trkpt>
<trkpt lat="50.434778" lon="4.795451"><ele>113.61</ele><time>2025-05-24T17:33:34Z</time></trkpt>
<trkpt lat="50.435807" lon="4.7949"><ele>107.83</ele><time>2025-05-24T17:33:38Z</time></trkpt>
<trkpt lat="50.436186" lon="4.79477"><ele>106.28</ele><time>2025-05-24T17:33:43Z</time></trkpt>
<trkpt lat="50.436369" lon="4.794801"><ele>103.41</ele><time>2025-05-24T17:33:47Z</time></trkpt>
<trkpt lat="50.436832" lon="4.795003"><ele>99.83</ele><time>2025-05-24T17:33:52Z</time></trkpt>
<trkpt lat="50.436924" lon="4.795067"><ele>99.42</ele><time>2025-05-24T17:33:56Z</time></trkpt>
<trkpt lat="50.437595" lon="4.795723"><ele>93.97</ele><time>2025-05-24T17:34:01Z</time></trkpt>
<trkpt lat="50.437963" lon="4.795973"><ele>91.83</ele><time>2025-05-24T17:34:05Z</time></trkpt>
<trkpt lat="50.438094" lon="4.796096"><ele>91.82</ele><time>2025-05-24T17:34:10Z</time></trkpt>
<trkpt lat="50.43821" lon="4.796151"><ele>91.8</ele><time>2025-05-24T17:34:15Z</time></trkpt>
<trkpt lat="50.438299" lon="4.796144"><ele>91.37</ele><time>2025-05-24T17:34:19Z</time></trkpt>
<trkpt lat="50.438448" lon="4.79604"><ele>90.84</ele><time>2025-05-24T17:34:24Z</time></trkpt>
<trkpt lat="50.438701" lon="4.795734"><ele>90.92</ele><time>2025-05-24T17:34:28Z</time></trkpt>
<trkpt lat="50.438846" lon="4.795711"><ele>90.22</ele><time>2025-05-24T17:34:33Z</time></trkpt>
<trkpt lat="50.439791" lon="4.795691"><ele>88.49</ele><time>2025-05-24T17:34:37Z</time></trkpt>
<trkpt lat="50.440002" lon="4.795644"><ele>88.32</ele><time>2025-05-24T17:34:42Z</time></trkpt>
<trkpt lat="50.440378" lon="4.795454"><ele>87.5</ele><time>2025-05-24T17:34:46Z</time></trkpt>
<trkpt lat="50.440487" lon="4.795368"><ele>86.82</ele><time>2025-05-24T17:34:51Z</time></trkpt>
<trkpt lat="50.440602" lon="4.79519"><ele>85.85</ele><time>2025-05-24T17:34:55Z</time></trkpt>
<trkpt lat="50.440751" lon="4.794864"><ele>85.5</ele><time>2025-05-24T17:35:00Z</time></trkpt>
<trkpt lat="50.44091" lon="4.794663"><ele>85.22</ele><time>2025-05-24T17:35:04Z</time></trkpt>
<trkpt lat="50.441207" lon="4.794451"><ele>84.33</ele><time>2025-05-24T17:35:09Z</time></trkpt>
<trkpt lat="50.441335" lon="4.794411"><ele>83.48</ele><time>2025-05-24T17:35:13Z</time></trkpt>
<trkpt lat="50.441451" lon="4.794404"><ele>83.31</ele><time>2025-05-24T17:35:18Z</time></trkpt>
<trkpt lat="50.44179" lon="4.79442"><ele>84.8</ele><time>2025-05-24T17:35:23Z</time></trkpt>
<trkpt lat="50.443325" lon="4.794057"><ele>84.61</ele><time>2025-05-24T17:35:27Z</time></trkpt>
<trkpt lat="50.443605" lon="4.793934"><ele>83.34</ele><time>2025-05-24T17:35:32Z</time></trkpt>
<trkpt lat="50.443667" lon="4.793924"><ele>83.23</ele><time>2025-05-24T17:35:35Z</time></trkpt>
<trkpt lat="50.443723" lon="4.793882"><ele>82.99</ele><time>2025-05-24T17:35:38Z</time></trkpt>
<trkpt lat="50.443783" lon="4.793762"><ele>82.72</ele><time>2025-05-24T17:35:41Z</time></trkpt>
<trkpt lat="50.443794" lon="4.79361"><ele>82.34</ele><time>2025-05-24T17:35:44Z</time></trkpt>
<trkpt lat="50.443745" lon="4.793461"><ele>82.51</ele><time>2025-05-24T17:35:47Z</time></trkpt>
<trkpt lat="50.443702" lon="4.79341"><ele>82.67</ele><time>2025-05-24T17:35:50Z</time></trkpt>
<trkpt lat="50.443597" lon="4.793378"><ele>83.05</ele><time>2025-05-24T17:35:53Z</time></trkpt>
<trkpt lat="50.443545" lon="4.793401"><ele>83.24</ele><time>2025-05-24T17:35:56Z</time></trkpt>
<trkpt lat="50.443286" lon="4.793225"><ele>83.61</ele><time>2025-05-24T17:35:59Z</time></trkpt>
<trkpt lat="50.442667" lon="4.79271"><ele>81.15</ele><time>2025-05-24T17:36:02Z</time></trkpt>
<trkpt lat="50.441948" lon="4.792099"><ele>81.0</ele><time>2025-05-24T17:36:05Z</time></trkpt>
<trkpt lat="50.44149" lon="4.791488"><ele>81.59</ele><time>2025-05-24T17:36:08Z</time></trkpt>
<trkpt lat="50.441308" lon="4.791184"><ele>80.55</ele><time>2025-05-24T17:36:11Z</time></trkpt>
<trkpt lat="50.44107" lon="4.790685"><ele>81.15</ele><time>2025-05-24T17:36:14Z</time></trkpt>
<trkpt lat="50.440877" lon="4.790114"><ele>82.84</ele><time>2025-05-24T17:36:17Z</time></trkpt>
<trkpt lat="50.440721" lon="4.789417"><ele>81.91</ele><time>2025-05-24T17:36:21Z</time></trkpt>
<trkpt lat="50.440634" lon="4.788734"><ele>83.47</ele><time>2025-05-24T17:36:24Z</time></trkpt>
<trkpt lat="50.440607" lon="4.788289"><ele>82.89</ele><time>2025-05-24T17:36:27Z</time></trkpt>
<trkpt lat="50.440624" lon="4.787723"><ele>80.64</ele><time>2025-05-24T17:36:30Z</time></trkpt>
<trkpt lat="50.440674" lon="4.787672"><ele>81.07</ele><time>2025-05-24T17:36:36Z</time></trkpt>
<trkpt lat="50.440719" lon="4.787551"><ele>81.51</ele><time>2025-05-24T17:36:42Z</time></trkpt>
<trkpt lat="50.440704" lon="4.787416"><ele>81.54</ele><time>2025-05-24T17:36:48Z</time></trkpt>
<trkpt lat="50.440652" lon="4.787349"><ele>81.35</ele><time>2025-05-24T17:36:54Z</time></trkpt>
<trkpt lat="50.440668" lon="4.786986"><ele>82.42</ele><time>2025-05-24T17:37:01Z</time></trkpt>
<trkpt lat="50.441298" lon="4.783006"><ele>87.71</ele><time>2025-05-24T17:37:07Z</time></trkpt>
<trkpt lat="50.441367" lon="4.782653"><ele>87.69</ele><time>2025-05-24T17:37:13Z</time></trkpt>
<trkpt lat="50.441746" lon="4.781025"><ele>87.48</ele><time>2025-05-24T17:37:19Z</time></trkpt>
<trkpt lat="50.442099" lon="4.779657"><ele>86.44</ele><time>2025-05-24T17:37:25Z</time></trkpt>
<trkpt lat="50.442156" lon="4.779636"><ele>86.24</ele><time>2025-05-24T17:37:29Z</time></trkpt>
<trkpt lat="50.442216" lon="4.779517"><ele>86.02</ele><time>2025-05-24T17:37:32Z</time></trkpt>
<trkpt lat="50.442213" lon="4.77941"><ele>86.15</ele><time>2025-05-24T17:37:36Z</time></trkpt>
<trkpt lat="50.44218" lon="4.779321"><ele>86.6</ele><time>2025-05-24T17:37:39Z</time></trkpt>
<trkpt lat="50.442214" lon="4.779036"><ele>87.49</ele><time>2025-05-24T17:37:43Z</time></trkpt>
<trkpt lat="50.442825" lon="4.776463"><ele>88.73</ele><time>2025-05-24T17:37:46Z</time></trkpt>
<trkpt lat="50.442915" lon="4.77618"><ele>89.0</ele><time>2025-05-24T17:37:50Z</time></trkpt>
<trkpt lat="50.442983" lon="4.776146"><ele>89.0</ele><time>2025-05-24T17:37:54Z</time></trkpt>
<trkpt lat="50.443027" lon="4.776057"><ele>89.19</ele><time>2025-05-24T17:37:58Z</time></trkpt>
<trkpt lat="50.44303" lon="4.775947"><ele>89.59</ele><time>2025-05-24T17:38:03Z</time></trkpt>
<trkpt lat="50.442994" lon="4.775853"><ele>89.93</ele><time>2025-05-24T17:38:07Z</time></trkpt>
<trkpt lat="50.444298" lon="4.770281"><ele>99.08</ele><time>2025-05-24T17:38:11Z</time></trkpt>
<trkpt lat="50.44439" lon="4.769722"><ele>99.39</ele><time>2025-05-24T17:38:15Z</time></trkpt>
<trkpt lat="50.444423" lon="4.769203"><ele>97.4</ele><time>2025-05-24T17:38:20Z</time></trkpt>
<trkpt lat="50.444427" lon="4.768844"><ele>95.41</ele><time>2025-05-24T17:38:24Z</time></trkpt>
<trkpt lat="50.444406" lon="4.768374"><ele>96.68</ele><time>2025-05-24T17:38:28Z</time></trkpt>
<trkpt lat="50.444369" lon="4.76797"><ele>98.36</ele><time>2025-05-24T17:38:32Z</time></trkpt>
<trkpt lat="50.444226" lon="4.767338"><ele>98.69</ele><time>2025-05-24T17:38:37Z</time></trkpt>
<trkpt lat="50.444149" lon="4.767396"><ele>99.97</ele><time>2025-05-24T17:38:39Z</time></trkpt>
<trkpt lat="50.444275" lon="4.767991"><ele>100.05</ele><time>2025-05-24T17:38:41Z</time></trkpt>
<trkpt lat="50.444911" lon="4.767914"><ele>91.64</ele><time>2025-05-24T17:38:47Z</time></trkpt>
<trkpt lat="50.446204" lon="4.767727"><ele>83.46</ele><time>2025-05-24T17:38:53Z</time></trkpt>
<trkpt lat="50.447408" lon="4.767606"><ele>82.29</ele><time>2025-05-24T17:38:59Z</time></trkpt>
<trkpt lat="50.447714" lon="4.767607"><ele>83.21</ele><time>2025-05-24T17:39:05Z</time></trkpt>
<trkpt lat="50.447905" lon="4.767644"><ele>83.52</ele><time>2025-05-24T17:39:11Z</time></trkpt>
<trkpt lat="50.44813" lon="4.767731"><ele>83.92</ele><time>2025-05-24T17:39:17Z</time></trkpt>
<trkpt lat="50.448319" lon="4.767834"><ele>83.81</ele><time>2025-05-24T17:39:23Z</time></trkpt>
<trkpt lat="50.448932" lon="4.768279"><ele>80.36</ele><time>2025-05-24T17:39:29Z</time></trkpt>
<trkpt lat="50.449575" lon="4.768798"><ele>80.2</ele><time>2025-05-24T17:39:35Z</time></trkpt>
<trkpt lat="50.450019" lon="4.769049"><ele>80.74</ele><time>2025-05-24T17:39:41Z</time></trkpt>
<trkpt lat="50.450353" lon="4.769177"><ele>83.01</ele><time>2025-05-24T17:39:47Z</time></trkpt>
<trkpt lat="50.450757" lon="4.76916"><ele>84.41</ele><time>2025-05-24T17:39:53Z</time></trkpt>
<trkpt lat="50.451726" lon="4.768934"><ele>86.42</ele><time>2025-05-24T17:39:59Z</time></trkpt>
<trkpt lat="50.451576" lon="4.76865"><ele>85.14</ele><time>2025-05-24T17:40:02Z</time></trkpt>
<trkpt lat="50.451538" lon="4.768446"><ele>84.4</ele><time>2025-05-24T17:40:03Z</time></trkpt>
<trkpt lat="50.451654" lon="4.768257"><ele>84.28</ele><time>2025-05-24T17:40:07Z</time></trkpt>
<trkpt lat="50.451727" lon="4.768137"><ele>84.99</ele><time>2025-05-24T17:40:12Z</time></trkpt>
<trkpt lat="50.451907" lon="4.767707"><ele>86.37</ele><time>2025-05-24T17:40:16Z</time></trkpt>
<trkpt lat="50.451941" lon="4.767596"><ele>87.3</ele><time>2025-05-24T17:40:21Z</time></trkpt>
<trkpt lat="50.451974" lon="4.767369"><ele>88.68</ele><time>2025-05-24T17:40:25Z</time></trkpt>
<trkpt lat="50.451924" lon="4.766762"><ele>90.58</ele><time>2025-05-24T17:40:30Z</time></trkpt>
<trkpt lat="50.451851" lon="4.766241"><ele>92.02</ele><time>2025-05-24T17:40:34Z</time></trkpt>
<trkpt lat="50.451851" lon="4.76597"><ele>92.83</ele><time>2025-05-24T17:40:39Z</time></trkpt>
<trkpt lat="50.451881" lon="4.765846"><ele>93.5</ele><time>2025-05-24T17:40:44Z</time></trkpt>
<trkpt lat="50.45199" lon="4.765687"><ele>94.16</ele><time>2025-05-24T17:40:48Z</time></trkpt>
<trkpt lat="50.45224" lon="4.765541"><ele>95.14</ele><time>2025-05-24T17:40:53Z</time></trkpt>
<trkpt lat="50.4525" lon="4.765284"><ele>96.05</ele><time>2025-05-24T17:40:57Z</time></trkpt>
<trkpt lat="50.452637" lon="4.765113"><ele>96.1</ele><time>2025-05-24T17:41:02Z</time></trkpt>
<trkpt lat="50.452989" lon="4.76468"><ele>95.72</ele><time>2025-05-24T17:41:06Z</time></trkpt>
<trkpt lat="50.453119" lon="4.76446"><ele>96.23</ele><time>2025-05-24T17:41:11Z</time></trkpt>
<trkpt lat="50.453222" lon="4.764228"><ele>96.29</ele><time>2025-05-24T17:41:15Z</time></trkpt>
<trkpt lat="50.45329" lon="4.763999"><ele>96.59</ele><time>2025-05-24T17:41:20Z</time></trkpt>
<trkpt lat="50.453336" lon="4.763761"><ele>96.54</ele><time>2025-05-24T17:41:24Z</time></trkpt>
<trkpt lat="50.453521" lon="4.762234"><ele>96.32</ele><time>2025-05-24T17:41:29Z</time></trkpt>
<trkpt lat="50.453577" lon="4.762024"><ele>97.38</ele><time>2025-05-24T17:41:33Z</time></trkpt>
<trkpt lat="50.453609" lon="4.761958"><ele>97.93</ele><time>2025-05-24T17:41:38Z</time></trkpt>
<trkpt lat="50.453602" lon="4.761875"><ele>97.9</ele><time>2025-05-24T17:41:43Z</time></trkpt>
<trkpt lat="50.45356" lon="4.761825"><ele>97.44</ele><time>2025-05-24T17:41:48Z</time></trkpt>
<trkpt lat="50.453473" lon="4.761085"><ele>96.96</ele><time>2025-05-24T17:41:52Z</time></trkpt>
<trkpt lat="50.453363" lon="4.759112"><ele>95.89</ele><time>2025-05-24T17:41:57Z</time></trkpt>
<trkpt lat="50.45331" lon="4.758107"><ele>95.33</ele><time>2025-05-24T17:42:02Z</time></trkpt>
<trkpt lat="50.45331" lon="4.757777"><ele>95.17</ele><time>2025-05-24T17:42:07Z</time></trkpt>
<trkpt lat="50.453349" lon="4.757473"><ele>95.06</ele><time>2025-05-24T17:42:12Z</time></trkpt>
<trkpt lat="50.45344" lon="4.757204"><ele>95.45</ele><time>2025-05-24T17:42:17Z</time></trkpt>
<trkpt lat="50.453557" lon="4.756964"><ele>96.74</ele><time>2025-05-24T17:42:21Z</time></trkpt>
<trkpt lat="50.453788" lon="4.756586"><ele>98.0</ele><time>2025-05-24T17:42:26Z</time></trkpt>
<trkpt lat="50.453961" lon="4.756354"><ele>97.74</ele><time>2025-05-24T17:42:31Z</time></trkpt>
<trkpt lat="50.454147" lon="4.756156"><ele>97.07</ele><time>2025-05-24T17:42:36Z</time></trkpt>
<trkpt lat="50.454367" lon="4.755953"><ele>97.57</ele><time>2025-05-24T17:42:41Z</time></trkpt>
<trkpt lat="50.45597" lon="4.754943"><ele>104.81</ele><time>2025-05-24T17:42:45Z</time></trkpt>
<trkpt lat="50.456767" lon="4.754341"><ele>110.37</ele><time>2025-05-24T17:42:50Z</time></trkpt>
<trkpt lat="50.457465" lon="4.753679"><ele>111.0</ele><time>2025-05-24T17:42:55Z</time></trkpt>
<trkpt lat="50.4583" lon="4.752757"><ele>110.07</ele><time>2025-05-24T17:43:00Z</time></trkpt>
<trkpt lat="50.458848" lon="4.752082"><ele>112.5</ele><time>2025-05-24T17:43:05Z</time></trkpt>
<trkpt lat="50.459033" lon="4.751823"><ele>113.0</ele><time>2025-05-24T17:43:10Z</time></trkpt>
<trkpt lat="50.459252" lon="4.751402"><ele>112.05</ele><time>2025-05-24T17:43:14Z</time></trkpt>
<trkpt lat="50.459413" lon="4.75097"><ele>112.06</ele><time>2025-05-24T17:43:19Z</time></trkpt>
<trkpt lat="50.459553" lon="4.750405"><ele>112.39</ele><time>2025-05-24T17:43:24Z</time></trkpt>
<trkpt lat="50.459635" lon="4.749856"><ele>112.17</ele><time>2025-05-24T17:43:29Z</time></trkpt>
<trkpt lat="50.459664" lon="4.749471"><ele>111.79</ele><time>2025-05-24T17:43:34Z</time></trkpt>
<trkpt lat="50.459678" lon="4.748203"><ele>110.06</ele><time>2025-05-24T17:43:39Z</time></trkpt>
<trkpt lat="50.459592" lon="4.746937"><ele>108.53</ele><time>2025-05-24T17:43:43Z</time></trkpt>
<trkpt lat="50.459421" lon="4.74569"><ele>109.0</ele><time>2025-05-24T17:43:48Z</time></trkpt>
<trkpt lat="50.459238" lon="4.744853"><ele>108.79</ele><time>2025-05-24T17:43:53Z</time></trkpt>
<trkpt lat="50.458999" lon="4.744044"><ele>111.71</ele><time>2025-05-24T17:43:58Z</time></trkpt>
<trkpt lat="50.458521" lon="4.742277"><ele>111.35</ele><time>2025-05-24T17:44:03Z</time></trkpt>
<trkpt lat="50.458062" lon="4.74066"><ele>111.02</ele><time>2025-05-24T17:44:07Z</time></trkpt>
<trkpt lat="50.457807" lon="4.739864"><ele>112.6</ele><time>2025-05-24T17:44:12Z</time></trkpt>
<trkpt lat="50.457497" lon="4.739047"><ele>112.0</ele><time>2025-05-24T17:44:17Z</time></trkpt>
<trkpt lat="50.455969" lon="4.73527"><ele>111.5</ele><time>2025-05-24T17:44:22Z</time></trkpt>
<trkpt lat="50.456001" lon="4.734496"><ele>110.39</ele><time>2025-05-24T17:44:27Z</time></trkpt>
<trkpt lat="50.456004" lon="4.733935"><ele>110.0</ele><time>2025-05-24T17:44:32Z</time></trkpt>
<trkpt lat="50.455984" lon="4.733662"><ele>110.0</ele><time>2025-05-24T17:44:36Z</time></trkpt>
<trkpt lat="50.455967" lon="4.733428"><ele>110.0</ele><time>2025-05-24T17:44:41Z</time></trkpt>
<trkpt lat="50.456043" lon="4.733409"><ele>109.96</ele><time>2025-05-24T17:45:12Z</time></trkpt>
<trkpt lat="50.456043" lon="4.733409"><ele>109.96</ele><time>2025-05-24T17:45:12Z</time></trkpt>
<trkpt lat="50.455967" lon="4.733428"><ele>110.0</ele><time>2025-05-24T17:45:13Z</time></trkpt>
<trkpt lat="50.455759" lon="4.732627"><ele>109.06</ele><time>2025-05-24T17:45:23Z</time></trkpt>
<trkpt lat="50.455724" lon="4.732326"><ele>107.77</ele><time>2025-05-24T17:45:32Z</time></trkpt>
<trkpt lat="50.455733" lon="4.732024"><ele>106.65</ele><time>2025-05-24T17:45:41Z</time></trkpt>
<trkpt lat="50.45591" lon="4.730638"><ele>101.49</ele><time>2025-05-24T17:45:51Z</time></trkpt>
<trkpt lat="50.456416" lon="4.729778"><ele>98.28</ele><time>2025-05-24T17:46:00Z</time></trkpt>
<trkpt lat="50.456685" lon="4.729376"><ele>98.82</ele><time>2025-05-24T17:46:09Z</time></trkpt>
<trkpt lat="50.458616" lon="4.726372"><ele>106.01</ele><time>2025-05-24T17:46:19Z</time></trkpt>
<trkpt lat="50.458764" lon="4.726258"><ele>106.55</ele><time>2025-05-24T17:46:28Z</time></trkpt>
<trkpt lat="50.460159" lon="4.726524"><ele>110.07</ele><time>2025-05-24T17:46:37Z</time></trkpt>
<trkpt lat="50.462605" lon="4.727043"><ele>113.42</ele><time>2025-05-24T17:46:47Z</time></trkpt>
<trkpt lat="50.470407" lon="4.725439"><ele>134.26</ele><time>2025-05-24T17:46:56Z</time></trkpt>
<trkpt lat="50.470567" lon="4.725361"><ele>133.66</ele><time>2025-05-24T17:47:06Z</time></trkpt>
<trkpt lat="50.471452" lon="4.724597"><ele>137.68</ele><time>2025-05-24T17:47:15Z</time></trkpt>
<trkpt lat="50.47234" lon="4.723724"><ele>145.66</ele><time>2025-05-24T17:47:24Z</time></trkpt>
<trkpt lat="50.4725" lon="4.723517"><ele>146.34</ele><time>2025-05-24T17:47:34Z</time></trkpt>
<trkpt lat="50.472653" lon="4.72324"><ele>147.0</ele><time>2025-05-24T17:47:43Z</time></trkpt>
<trkpt lat="50.474065" lon="4.720193"><ele>163.38</ele><time>2025-05-24T17:47:52Z</time></trkpt>
<trkpt lat="50.474673" lon="4.718843"><ele>167.79</ele><time>2025-05-24T17:48:02Z</time></trkpt>
<trkpt lat="50.475071" lon="4.71803"><ele>169.77</ele><time>2025-05-24T17:48:11Z</time></trkpt>
<trkpt lat="50.475105" lon="4.718038"><ele>170.28</ele><time>2025-05-24T17:48:27Z</time></trkpt>
<trkpt lat="50.475105" lon="4.718038"><ele>170.28</ele><time>2025-05-24T17:48:27Z</time></trkpt>
<trkpt lat="50.475165" lon="4.718053"><ele>170.78</ele><time>2025-05-24T17:48:31Z</time></trkpt>
<trkpt lat="50.475269" lon="4.718138"><ele>171.62</ele><time>2025-05-24T17:48:36Z</time></trkpt>
<trkpt lat="50.475742" lon="4.719375"><ele>172.92</ele><time>2025-05-24T17:48:40Z</time></trkpt>
<trkpt lat="50.475791" lon="4.719549"><ele>172.85</ele><time>2025-05-24T17:48:45Z</time></trkpt>
<trkpt lat="50.475859" lon="4.72"><ele>174.09</ele><time>2025-05-24T17:48:50Z</time></trkpt>
<trkpt lat="50.476185" lon="4.719827"><ele>174.91</ele><time>2025-05-24T17:49:00Z</time></trkpt>
<trkpt lat="50.476376" lon="4.719667"><ele>175.91</ele><time>2025-05-24T17:49:11Z</time></trkpt>
<trkpt lat="50.476743" lon="4.719346"><ele>178.92</ele><time>2025-05-24T17:49:22Z</time></trkpt>
<trkpt lat="50.477612" lon="4.718437"><ele>188.4</ele><time>2025-05-24T17:49:32Z</time></trkpt>
<trkpt lat="50.478239" lon="4.717925"><ele>189.66</ele><time>2025-05-24T17:49:43Z</time></trkpt>
<trkpt lat="50.478426" lon="4.717835"><ele>190.33</ele><time>2025-05-24T17:49:54Z</time></trkpt>
<trkpt lat="50.479291" lon="4.71755"><ele>193.81</ele><time>2025-05-24T17:50:04Z</time></trkpt>
<trkpt lat="50.481253" lon="4.716817"><ele>191.49</ele><time>2025-05-24T17:50:15Z</time></trkpt>
<trkpt lat="50.481649" lon="4.716649"><ele>191.0</ele><time>2025-05-24T17:50:26Z</time></trkpt>
<trkpt lat="50.481695" lon="4.717184"><ele>190.03</ele><time>2025-05-24T17:50:39Z</time></trkpt>
<trkpt lat="50.481716" lon="4.720746"><ele>191.0</ele><time>2025-05-24T17:50:53Z</time></trkpt>
<trkpt lat="50.481748" lon="4.72154"><ele>192.09</ele><time>2025-05-24T17:51:06Z</time></trkpt>
<trkpt lat="50.481927" lon="4.723099"><ele>185.12</ele><time>2025-05-24T17:51:20Z</time></trkpt>
<trkpt lat="50.482478" lon="4.722966"><ele>185.0</ele><time>2025-05-24T17:51:39Z</time></trkpt>
<trkpt lat="50.48262" lon="4.722961"><ele>184.57</ele><time>2025-05-24T17:51:58Z</time></trkpt>
<trkpt lat="50.482791" lon="4.723004"><ele>184.0</ele><time>2025-05-24T17:52:17Z</time></trkpt>
<trkpt lat="50.482957" lon="4.723077"><ele>184.03</ele><time>2025-05-24T17:52:36Z</time></trkpt>
<trkpt lat="50.483382" lon="4.723445"><ele>182.83</ele><time>2025-05-24T17:52:55Z</time></trkpt>
<trkpt lat="50.484598" lon="4.723919"><ele>175.89</ele><time>2025-05-24T17:53:14Z</time></trkpt>
<trkpt lat="50.485889" lon="4.724659"><ele>172.8</ele><time>2025-05-24T17:53:33Z</time></trkpt>
<trkpt lat="50.486188" lon="4.724793"><ele>171.98</ele><time>2025-05-24T17:53:52Z</time></trkpt>
<trkpt lat="50.486507" lon="4.724881"><ele>171.33</ele><time>2025-05-24T17:54:11Z</time></trkpt>
<trkpt lat="50.48766" lon="4.725063"><ele>170.58</ele><time>2025-05-24T17:54:30Z</time></trkpt>
<trkpt lat="50.48825" lon="4.725258"><ele>171.0</ele><time>2025-05-24T17:54:50Z</time></trkpt>
<trkpt lat="50.488398" lon="4.725274"><ele>171.24</ele><time>2025-05-24T17:55:09Z</time></trkpt>
<trkpt lat="50.488793" lon="4.725247"><ele>172.69</ele><time>2025-05-24T17:55:28Z</time></trkpt>
<trkpt lat="50.489405" lon="4.725128"><ele>170.14</ele><time>2025-05-24T17:55:47Z</time></trkpt>
<trkpt lat="50.489413" lon="4.725032"><ele>169.62</ele><time>2025-05-24T17:55:49Z</time></trkpt>
<trkpt lat="50.489413" lon="4.725032"><ele>169.62</ele><time>2025-05-24T17:55:49Z</time></trkpt>
<trkpt lat="50.489471" lon="4.724337"><ele>169.1</ele><time>2025-05-24T17:56:10Z</time></trkpt>
<trkpt lat="50.489471" lon="4.723984"><ele>169.09</ele><time>2025-05-24T17:56:31Z</time></trkpt>
<trkpt lat="50.489395" lon="4.72307"><ele>170.18</ele><time>2025-05-24T17:56:52Z</time></trkpt>
<trkpt lat="50.489391" lon="4.722881"><ele>170.19</ele><time>2025-05-24T17:57:13Z</time></trkpt>
<trkpt lat="50.490077" lon="4.719067"><ele>166.72</ele><time>2025-05-24T17:57:34Z</time></trkpt>
<trkpt lat="50.490284" lon="4.718103"><ele>165.02</ele><time>2025-05-24T17:57:55Z</time></trkpt>
<trkpt lat="50.490351" lon="4.717361"><ele>165.26</ele><time>2025-05-24T17:58:16Z</time></trkpt>
<trkpt lat="50.490374" lon="4.716652"><ele>161.95</ele><time>2025-05-24T17:58:37Z</time></trkpt>
<trkpt lat="50.490348" lon="4.71106"><ele>154.05</ele><time>2025-05-24T17:59:06Z</time></trkpt>
<trkpt lat="50.490394" lon="4.707829"><ele>157.89</ele><time>2025-05-24T17:59:34Z</time></trkpt>
<trkpt lat="50.490617" lon="4.705775"><ele>158.0</ele><time>2025-05-24T18:00:03Z</time></trkpt>
<trkpt lat="50.490711" lon="4.704578"><ele>159.67</ele><time>2025-05-24T18:00:32Z</time></trkpt>
<trkpt lat="50.491231" lon="4.700396"><ele>158.24</ele><time>2025-05-24T18:01:01Z</time></trkpt>
<trkpt lat="50.491421" lon="4.698739"><ele>155.17</ele><time>2025-05-24T18:01:30Z</time></trkpt>
<trkpt lat="50.491576" lon="4.69697"><ele>151.65</ele><time>2025-05-24T18:01:59Z</time></trkpt>
<trkpt lat="50.491711" lon="4.693158"><ele>144.59</ele><time>2025-05-24T18:02:28Z</time></trkpt>
<trkpt lat="50.491401" lon="4.693116"><ele>144.24</ele><time>2025-05-24T18:02:32Z</time></trkpt>
<trkpt lat="50.491147" lon="4.693132"><ele>144.27</ele><time>2025-05-24T18:02:36Z</time></trkpt>
<trkpt lat="50.490575" lon="4.69315"><ele>143.34</ele><time>2025-05-24T18:02:43Z</time></trkpt>
<trkpt lat="50.490306" lon="4.693092"><ele>141.45</ele><time>2025-05-24T18:02:49Z</time></trkpt>
<trkpt lat="50.489914" lon="4.692895"><ele>135.33</ele><time>2025-05-24T18:02:56Z</time></trkpt>
<trkpt lat="50.489987" lon="4.692604"><ele>133.52</ele><time>2025-05-24T18:02:59Z</time></trkpt>
<trkpt lat="50.490003" lon="4.69229"><ele>133.03</ele><time>2025-05-24T18:03:01Z</time></trkpt>
<trkpt lat="50.489974" lon="4.69198"><ele>135.04</ele><time>2025-05-24T18:03:04Z</time></trkpt>
<trkpt lat="50.489872" lon="4.691259"><ele>134.24</ele><time>2025-05-24T18:03:07Z</time></trkpt>
<trkpt lat="50.489741" lon="4.689911"><ele>132.71</ele><time>2025-05-24T18:03:10Z</time></trkpt>
<trkpt lat="50.48962" lon="4.68904"><ele>132.09</ele><time>2025-05-24T18:03:13Z</time></trkpt>
<trkpt lat="50.489467" lon="4.688359"><ele>131.4</ele><time>2025-05-24T18:03:15Z</time></trkpt>
<trkpt lat="50.489072" lon="4.687603"><ele>127.94</ele><time>2025-05-24T18:03:18Z</time></trkpt>
<trkpt lat="50.488681" lon="4.686961"><ele>131.04</ele><time>2025-05-24T18:03:21Z</time></trkpt>
<trkpt lat="50.488366" lon="4.686595"><ele>133.92</ele><time>2025-05-24T18:03:24Z</time></trkpt>
<trkpt lat="50.487826" lon="4.686186"><ele>134.85</ele><time>2025-05-24T18:03:27Z</time></trkpt>
<trkpt lat="50.487609" lon="4.685935"><ele>132.82</ele><time>2025-05-24T18:03:29Z</time></trkpt>
<trkpt lat="50.487446" lon="4.685628"><ele>130.08</ele><time>2025-05-24T18:03:32Z</time></trkpt>
<trkpt lat="50.487148" lon="4.684814"><ele>127.51</ele><time>2025-05-24T18:03:35Z</time></trkpt>
<trkpt lat="50.487039" lon="4.684485"><ele>125.13</ele><time>2025-05-24T18:03:38Z</time></trkpt>
<trkpt lat="50.487001" lon="4.684305"><ele>123.91</ele><time>2025-05-24T18:03:41Z</time></trkpt>
<trkpt lat="50.486968" lon="4.683944"><ele>122.76</ele><time>2025-05-24T18:03:44Z</time></trkpt>
<trkpt lat="50.486972" lon="4.683739"><ele>122.35</ele><time>2025-05-24T18:03:46Z</time></trkpt>
<trkpt lat="50.487011" lon="4.683339"><ele>123.15</ele><time>2025-05-24T18:03:49Z</time></trkpt>
<trkpt lat="50.487033" lon="4.682956"><ele>125.12</ele><time>2025-05-24T18:03:52Z</time></trkpt>
<trkpt lat="50.487011" lon="4.682592"><ele>125.59</ele><time>2025-05-24T18:03:55Z</time></trkpt>
<trkpt lat="50.486945" lon="4.682242"><ele>124.01</ele><time>2025-05-24T18:03:58Z</time></trkpt>
<trkpt lat="50.486387" lon="4.680101"><ele>117.97</ele><time>2025-05-24T18:04:00Z</time></trkpt>
<trkpt lat="50.486351" lon="4.679838"><ele>118.03</ele><time>2025-05-24T18:04:03Z</time></trkpt>
<trkpt lat="50.486322" lon="4.678867"><ele>120.53</ele><time>2025-05-24T18:04:06Z</time></trkpt>
<trkpt lat="50.48629" lon="4.678625"><ele>119.51</ele><time>2025-05-24T18:04:09Z</time></trkpt>
<trkpt lat="50.486161" lon="4.678208"><ele>115.96</ele><time>2025-05-24T18:04:12Z</time></trkpt>
<trkpt lat="50.485865" lon="4.677611"><ele>110.07</ele><time>2025-05-24T18:04:15Z</time></trkpt>
<trkpt lat="50.485481" lon="4.676716"><ele>106.98</ele><time>2025-05-24T18:04:17Z</time></trkpt>
<trkpt lat="50.485208" lon="4.676026"><ele>105.21</ele><time>2025-05-24T18:04:20Z</time></trkpt>
<trkpt lat="50.485104" lon="4.675707"><ele>103.83</ele><time>2025-05-24T18:04:23Z</time></trkpt>
<trkpt lat="50.485032" lon="4.675417"><ele>102.95</ele><time>2025-05-24T18:04:26Z</time></trkpt>
<trkpt lat="50.48496" lon="4.674874"><ele>101.14</ele><time>2025-05-24T18:04:29Z</time></trkpt>
<trkpt lat="50.484837" lon="4.672195"><ele>99.73</ele><time>2025-05-24T18:04:31Z</time></trkpt>
<trkpt lat="50.486266" lon="4.67202"><ele>108.15</ele><time>2025-05-24T18:05:28Z</time></trkpt>
<trkpt lat="50.48629" lon="4.671874"><ele>108.41</ele><time>2025-05-24T18:05:32Z</time></trkpt>
<trkpt lat="50.486287" lon="4.671257"><ele>105.83</ele><time>2025-05-24T18:05:35Z</time></trkpt>
<trkpt lat="50.486333" lon="4.671108"><ele>106.02</ele><time>2025-05-24T18:05:39Z</time></trkpt>
<trkpt lat="50.486333" lon="4.671108"><ele>106.02</ele><time>2025-05-24T18:05:39Z</time></trkpt>
<trkpt lat="50.486415" lon="4.671003"><ele>106.33</ele><time>2025-05-24T18:05:44Z</time></trkpt>
<trkpt lat="50.486496" lon="4.670956"><ele>106.22</ele><time>2025-05-24T18:05:49Z</time></trkpt>
<trkpt lat="50.486578" lon="4.670947"><ele>106.38</ele><time>2025-05-24T18:05:54Z</time></trkpt>
<trkpt lat="50.486719" lon="4.670979"><ele>106.25</ele><time>2025-05-24T18:05:58Z</time></trkpt>
<trkpt lat="50.486851" lon="4.67105"><ele>104.95</ele><time>2025-05-24T18:06:03Z</time></trkpt>
<trkpt lat="50.487344" lon="4.671485"><ele>106.47</ele><time>2025-05-24T18:06:08Z</time></trkpt>
<trkpt lat="50.488091" lon="4.671985"><ele>109.58</ele><time>2025-05-24T18:06:13Z</time></trkpt>
<trkpt lat="50.488259" lon="4.672072"><ele>110.22</ele><time>2025-05-24T18:06:18Z</time></trkpt>
<trkpt lat="50.488379" lon="4.672104"><ele>110.32</ele><time>2025-05-24T18:06:23Z</time></trkpt>
<trkpt lat="50.488583" lon="4.672118"><ele>110.72</ele><time>2025-05-24T18:06:28Z</time></trkpt>
<trkpt lat="50.488808" lon="4.672057"><ele>110.14</ele><time>2025-05-24T18:06:33Z</time></trkpt>
<trkpt lat="50.489217" lon="4.671766"><ele>105.17</ele><time>2025-05-24T18:06:38Z</time></trkpt>
<trkpt lat="50.489347" lon="4.671653"><ele>105.23</ele><time>2025-05-24T18:06:43Z</time></trkpt>
<trkpt lat="50.489525" lon="4.671572"><ele>106.43</ele><time>2025-05-24T18:06:48Z</time></trkpt>
<trkpt lat="50.489757" lon="4.671511"><ele>108.88</ele><time>2025-05-24T18:06:52Z</time></trkpt>
<trkpt lat="50.489807" lon="4.671465"><ele>109.56</ele><time>2025-05-24T18:06:57Z</time></trkpt>
<trkpt lat="50.489849" lon="4.671356"><ele>110.42</ele><time>2025-05-24T18:07:02Z</time></trkpt>
<trkpt lat="50.489929" lon="4.670739"><ele>110.64</ele><time>2025-05-24T18:07:07Z</time></trkpt>
<trkpt lat="50.490098" lon="4.670487"><ele>110.88</ele><time>2025-05-24T18:07:12Z</time></trkpt>
<trkpt lat="50.490428" lon="4.670169"><ele>108.85</ele><time>2025-05-24T18:07:17Z</time></trkpt>
<trkpt lat="50.490766" lon="4.670171"><ele>109.6</ele><time>2025-05-24T18:07:22Z</time></trkpt>
<trkpt lat="50.491038" lon="4.670269"><ele>107.21</ele><time>2025-05-24T18:07:27Z</time></trkpt>
<trkpt lat="50.491613" lon="4.670136"><ele>101.39</ele><time>2025-05-24T18:07:32Z</time></trkpt>
<trkpt lat="50.491941" lon="4.669967"><ele>101.12</ele><time>2025-05-24T18:07:37Z</time></trkpt>
<trkpt lat="50.492187" lon="4.670318"><ele>100.87</ele><time>2025-05-24T18:07:41Z</time></trkpt>
<trkpt lat="50.492337" lon="4.670389"><ele>101.84</ele><time>2025-05-24T18:07:45Z</time></trkpt>
<trkpt lat="50.492496" lon="4.670378"><ele>103.6</ele><time>2025-05-24T18:07:50Z</time></trkpt>
<trkpt lat="50.493108" lon="4.670638"><ele>111.75</ele><time>2025-05-24T18:07:54Z</time></trkpt>
<trkpt lat="50.493292" lon="4.670654"><ele>114.4</ele><time>2025-05-24T18:07:58Z</time></trkpt>
<trkpt lat="50.493474" lon="4.670606"><ele>114.91</ele><time>2025-05-24T18:08:02Z</time></trkpt>
<trkpt lat="50.494048" lon="4.669915"><ele>117.18</ele><time>2025-05-24T18:08:07Z</time></trkpt>
<trkpt lat="50.494287" lon="4.669572"><ele>120.08</ele><time>2025-05-24T18:08:11Z</time></trkpt>
<trkpt lat="50.494514" lon="4.669375"><ele>120.88</ele><time>2025-05-24T18:08:15Z</time></trkpt>
<trkpt lat="50.494849" lon="4.669216"><ele>120.65</ele><time>2025-05-24T18:08:20Z</time></trkpt>
<trkpt lat="50.495446" lon="4.669017"><ele>122.04</ele><time>2025-05-24T18:08:24Z</time></trkpt>
<trkpt lat="50.495995" lon="4.66895"><ele>119.89</ele><time>2025-05-24T18:08:28Z</time></trkpt>
<trkpt lat="50.496555" lon="4.668978"><ele>119.63</ele><time>2025-05-24T18:08:33Z</time></trkpt>
<trkpt lat="50.497753" lon="4.669669"><ele>116.78</ele><time>2025-05-24T18:08:37Z</time></trkpt>
<trkpt lat="50.498002" lon="4.669796"><ele>114.4</ele><time>2025-05-24T18:08:41Z</time></trkpt>
<trkpt lat="50.498164" lon="4.669849"><ele>113.3</ele><time>2025-05-24T18:08:45Z</time></trkpt>
<trkpt lat="50.49835" lon="4.669828"><ele>114.06</ele><time>2025-05-24T18:08:50Z</time></trkpt>
<trkpt lat="50.49905" lon="4.669646"><ele>117.6</ele><time>2025-05-24T18:08:54Z</time></trkpt>
<trkpt lat="50.49931" lon="4.669557"><ele>114.11</ele><time>2025-05-24T18:08:58Z</time></trkpt>
<trkpt lat="50.499537" lon="4.669436"><ele>113.34</ele><time>2025-05-24T18:09:03Z</time></trkpt>
<trkpt lat="50.499828" lon="4.669231"><ele>119.63</ele><time>2025-05-24T18:09:07Z</time></trkpt>
<trkpt lat="50.500105" lon="4.668981"><ele>124.46</ele><time>2025-05-24T18:09:11Z</time></trkpt>
<trkpt lat="50.500309" lon="4.668875"><ele>125.27</ele><time>2025-05-24T18:09:16Z</time></trkpt>
<trkpt lat="50.500497" lon="4.668821"><ele>125.96</ele><time>2025-05-24T18:09:20Z</time></trkpt>
<trkpt lat="50.500689" lon="4.66883"><ele>123.57</ele><time>2025-05-24T18:09:24Z</time></trkpt>
<trkpt lat="50.501094" lon="4.668925"><ele>119.49</ele><time>2025-05-24T18:09:29Z</time></trkpt>
<trkpt lat="50.501259" lon="4.669073"><ele>119.65</ele><time>2025-05-24T18:09:33Z</time></trkpt>
<trkpt lat="50.501596" lon="4.669446"><ele>112.49</ele><time>2025-05-24T18:09:37Z</time></trkpt>
<trkpt lat="50.501798" lon="4.669528"><ele>110.6</ele><time>2025-05-24T18:09:41Z</time></trkpt>
<trkpt lat="50.501967" lon="4.669557"><ele>109.81</ele><time>2025-05-24T18:09:46Z</time></trkpt>
<trkpt lat="50.502174" lon="4.669489"><ele>112.18</ele><time>2025-05-24T18:09:50Z</time></trkpt>
<trkpt lat="50.502514" lon="4.669266"><ele>117.62</ele><time>2025-05-24T18:09:54Z</time></trkpt>
<trkpt lat="50.502665" lon="4.669198"><ele>119.14</ele><time>2025-05-24T18:09:59Z</time></trkpt>
<trkpt lat="50.502913" lon="4.669181"><ele>120.28</ele><time>2025-05-24T18:10:03Z</time></trkpt>
<trkpt lat="50.503637" lon="4.669276"><ele>117.04</ele><time>2025-05-24T18:10:07Z</time></trkpt>
<trkpt lat="50.504197" lon="4.669433"><ele>114.91</ele><time>2025-05-24T18:10:12Z</time></trkpt>
<trkpt lat="50.504215" lon="4.669403"><ele>115.39</ele><time>2025-05-24T18:10:12Z</time></trkpt>
<trkpt lat="50.504215" lon="4.669403"><ele>115.39</ele><time>2025-05-24T18:10:12Z</time></trkpt>
<trkpt lat="50.504364" lon="4.669165"><ele>115.88</ele><time>2025-05-24T18:10:17Z</time></trkpt>
<trkpt lat="50.504411" lon="4.66903"><ele>115.97</ele><time>2025-05-24T18:10:22Z</time></trkpt>
<trkpt lat="50.504442" lon="4.668725"><ele>117.22</ele><time>2025-05-24T18:10:27Z</time></trkpt>
<trkpt lat="50.504511" lon="4.668438"><ele>116.55</ele><time>2025-05-24T18:10:31Z</time></trkpt>
<trkpt lat="50.50456" lon="4.668133"><ele>114.42</ele><time>2025-05-24T18:10:36Z</time></trkpt>
<trkpt lat="50.504566" lon="4.667883"><ele>113.23</ele><time>2025-05-24T18:10:41Z</time></trkpt>
<trkpt lat="50.504522" lon="4.667405"><ele>111.92</ele><time>2025-05-24T18:10:46Z</time></trkpt>
<trkpt lat="50.504211" lon="4.665872"><ele>111.25</ele><time>2025-05-24T18:10:51Z</time></trkpt>
<trkpt lat="50.504021" lon="4.665098"><ele>114.26</ele><time>2025-05-24T18:10:56Z</time></trkpt>
<trkpt lat="50.503744" lon="4.664157"><ele>116.0</ele><time>2025-05-24T18:11:01Z</time></trkpt>
<trkpt lat="50.503502" lon="4.663354"><ele>114.28</ele><time>2025-05-24T18:11:06Z</time></trkpt>
<trkpt lat="50.503448" lon="4.663054"><ele>113.65</ele><time>2025-05-24T18:11:11Z</time></trkpt>
<trkpt lat="50.503369" lon="4.662002"><ele>116.51</ele><time>2025-05-24T18:11:15Z</time></trkpt>
<trkpt lat="50.503294" lon="4.660368"><ele>115.43</ele><time>2025-05-24T18:11:20Z</time></trkpt>
<trkpt lat="50.503159" lon="4.658508"><ele>117.0</ele><time>2025-05-24T18:11:25Z</time></trkpt>
<trkpt lat="50.503074" lon="4.657606"><ele>117.82</ele><time>2025-05-24T18:11:30Z</time></trkpt>
<trkpt lat="50.503073" lon="4.657217"><ele>117.43</ele><time>2025-05-24T18:11:35Z</time></trkpt>
<trkpt lat="50.5031" lon="4.656954"><ele>117.96</ele><time>2025-05-24T18:11:40Z</time></trkpt>
<trkpt lat="50.503151" lon="4.656745"><ele>118.82</ele><time>2025-05-24T18:11:45Z</time></trkpt>
<trkpt lat="50.503219" lon="4.656574"><ele>119.21</ele><time>2025-05-24T18:11:50Z</time></trkpt>
<trkpt lat="50.503402" lon="4.656312"><ele>118.17</ele><time>2025-05-24T18:11:54Z</time></trkpt>
<trkpt lat="50.503559" lon="4.656185"><ele>116.8</ele><time>2025-05-24T18:11:59Z</time></trkpt>
<trkpt lat="50.503748" lon="4.656077"><ele>115.38</ele><time>2025-05-24T18:12:04Z</time></trkpt>
<trkpt lat="50.504026" lon="4.655994"><ele>117.12</ele><time>2025-05-24T18:12:09Z</time></trkpt>
<trkpt lat="50.50448" lon="4.655898"><ele>120.69</ele><time>2025-05-24T18:12:14Z</time></trkpt>
<trkpt lat="50.505892" lon="4.655532"><ele>110.02</ele><time>2025-05-24T18:12:19Z</time></trkpt>
<trkpt lat="50.506882" lon="4.655216"><ele>116.22</ele><time>2025-05-24T18:12:24Z</time></trkpt>
<trkpt lat="50.507132" lon="4.655068"><ele>116.75</ele><time>2025-05-24T18:12:29Z</time></trkpt>
<trkpt lat="50.507269" lon="4.654811"><ele>116.1</ele><time>2025-05-24T18:12:34Z</time></trkpt>
<trkpt lat="50.507326" lon="4.654493"><ele>115.63</ele><time>2025-05-24T18:12:38Z</time></trkpt>
<trkpt lat="50.507305" lon="4.654211"><ele>116.54</ele><time>2025-05-24T18:12:43Z</time></trkpt>
<trkpt lat="50.507009" lon="4.653304"><ele>117.3</ele><time>2025-05-24T18:12:48Z</time></trkpt>
<trkpt lat="50.506949" lon="4.653076"><ele>116.1</ele><time>2025-05-24T18:12:53Z</time></trkpt>
<trkpt lat="50.507286" lon="4.653154"><ele>115.35</ele><time>2025-05-24T18:12:57Z</time></trkpt>
<trkpt lat="50.507286" lon="4.653154"><ele>115.35</ele><time>2025-05-24T18:12:57Z</time></trkpt>
<trkpt lat="50.507757" lon="4.65316"><ele>118.38</ele><time>2025-05-24T18:13:02Z</time></trkpt>
<trkpt lat="50.507859" lon="4.653198"><ele>120.09</ele><time>2025-05-24T18:13:07Z</time></trkpt>
<trkpt lat="50.508191" lon="4.653441"><ele>122.13</ele><time>2025-05-24T18:13:12Z</time></trkpt>
<trkpt lat="50.508564" lon="4.654002"><ele>121.75</ele><time>2025-05-24T18:13:17Z</time></trkpt>
<trkpt lat="50.509187" lon="4.65531"><ele>128.24</ele><time>2025-05-24T18:13:22Z</time></trkpt>
<trkpt lat="50.509454" lon="4.655765"><ele>131.21</ele><time>2025-05-24T18:13:27Z</time></trkpt>
<trkpt lat="50.50958" lon="4.655937"><ele>133.93</ele><time>2025-05-24T18:13:32Z</time></trkpt>
<trkpt lat="50.509765" lon="4.65598"><ele>136.63</ele><time>2025-05-24T18:13:37Z</time></trkpt>
<trkpt lat="50.511157" lon="4.655996"><ele>140.68</ele><time>2025-05-24T18:13:42Z</time></trkpt>
<trkpt lat="50.51246" lon="4.65596"><ele>141.77</ele><time>2025-05-24T18:13:47Z</time></trkpt>
<trkpt lat="50.514895" lon="4.65599"><ele>146.43</ele><time>2025-05-24T18:13:52Z</time></trkpt>
<trkpt lat="50.517083" lon="4.656137"><ele>151.55</ele><time>2025-05-24T18:13:57Z</time></trkpt>
<trkpt lat="50.517526" lon="4.656193"><ele>151.39</ele><time>2025-05-24T18:14:03Z</time></trkpt>
<trkpt lat="50.518363" lon="4.656471"><ele>152.08</ele><time>2025-05-24T18:14:08Z</time></trkpt>
<trkpt lat="50.516138" lon="4.666541"><ele>156.04</ele><time>2025-05-24T18:14:24Z</time></trkpt>
<trkpt lat="50.515258" lon="4.670515"><ele>143.0</ele><time>2025-05-24T18:14:40Z</time></trkpt>
<trkpt lat="50.515176" lon="4.670781"><ele>142.27</ele><time>2025-05-24T18:14:56Z</time></trkpt>
<trkpt lat="50.515052" lon="4.671066"><ele>140.54</ele><time>2025-05-24T18:15:12Z</time></trkpt>
<trkpt lat="50.51412" lon="4.672822"><ele>132.67</ele><time>2025-05-24T18:15:28Z</time></trkpt>
<trkpt lat="50.514422" lon="4.673435"><ele>132.92</ele><time>2025-05-24T18:15:33Z</time></trkpt>
<trkpt lat="50.515273" lon="4.674984"><ele>135.04</ele><time>2025-05-24T18:15:38Z</time></trkpt>
<trkpt lat="50.515425" lon="4.675223"><ele>136.87</ele><time>2025-05-24T18:15:44Z</time></trkpt>
<trkpt lat="50.515687" lon="4.675455"><ele>138.51</ele><time>2025-05-24T18:15:49Z</time></trkpt>
<trkpt lat="50.516194" lon="4.67576"><ele>138.08</ele><time>2025-05-24T18:15:55Z</time></trkpt>
<trkpt lat="50.516833" lon="4.676013"><ele>137.11</ele><time>2025-05-24T18:16:00Z</time></trkpt>
<trkpt lat="50.518274" lon="4.676476"><ele>134.62</ele><time>2025-05-24T18:16:05Z</time></trkpt>
<trkpt lat="50.518792" lon="4.676668"><ele>134.99</ele><time>2025-05-24T18:16:11Z</time></trkpt>
<trkpt lat="50.519267" lon="4.677051"><ele>133.61</ele><time>2025-05-24T18:16:16Z</time></trkpt>
<trkpt lat="50.519628" lon="4.677292"><ele>130.69</ele><time>2025-05-24T18:16:21Z</time></trkpt>
<trkpt lat="50.519786" lon="4.677352"><ele>129.41</ele><time>2025-05-24T18:16:27Z</time></trkpt>
<trkpt lat="50.519928" lon="4.677326"><ele>129.16</ele><time>2025-05-24T18:16:32Z</time></trkpt>
<trkpt lat="50.520294" lon="4.677127"><ele>129.4</ele><time>2025-05-24T18:16:38Z</time></trkpt>
<trkpt lat="50.520377" lon="4.677117"><ele>129.74</ele><time>2025-05-24T18:16:43Z</time></trkpt>
<trkpt lat="50.520468" lon="4.677154"><ele>129.93</ele><time>2025-05-24T18:16:48Z</time></trkpt>
<trkpt lat="50.520626" lon="4.6773"><ele>128.65</ele><time>2025-05-24T18:16:54Z</time></trkpt>
<trkpt lat="50.52103" lon="4.678279"><ele>119.33</ele><time>2025-05-24T18:16:59Z</time></trkpt>
<trkpt lat="50.521096" lon="4.678373"><ele>118.86</ele><time>2025-05-24T18:17:05Z</time></trkpt>
<trkpt lat="50.522418" lon="4.678924"><ele>120.9</ele><time>2025-05-24T18:17:10Z</time></trkpt>
<trkpt lat="50.523417" lon="4.679381"><ele>118.83</ele><time>2025-05-24T18:17:15Z</time></trkpt>
<trkpt lat="50.523607" lon="4.679549"><ele>122.9</ele><time>2025-05-24T18:17:21Z</time></trkpt>
<trkpt lat="50.523673" lon="4.679738"><ele>124.28</ele><time>2025-05-24T18:17:26Z</time></trkpt>
<trkpt lat="50.52376" lon="4.680426"><ele>122.33</ele><time>2025-05-24T18:17:32Z</time></trkpt>
<trkpt lat="50.523905" lon="4.680917"><ele>121.97</ele><time>2025-05-24T18:17:37Z</time></trkpt>
<trkpt lat="50.524541" lon="4.682309"><ele>126.04</ele><time>2025-05-24T18:17:42Z</time></trkpt>
<trkpt lat="50.524726" lon="4.68251"><ele>127.99</ele><time>2025-05-24T18:17:48Z</time></trkpt>
<trkpt lat="50.525048" lon="4.682663"><ele>129.93</ele><time>2025-05-24T18:17:53Z</time></trkpt>
<trkpt lat="50.52541" lon="4.682639"><ele>133.45</ele><time>2025-05-24T18:17:59Z</time></trkpt>
<trkpt lat="50.525893" lon="4.68255"><ele>136.03</ele><time>2025-05-24T18:18:04Z</time></trkpt>
<trkpt lat="50.526094" lon="4.682575"><ele>136.67</ele><time>2025-05-24T18:18:09Z</time></trkpt>
<trkpt lat="50.529474" lon="4.683307"><ele>146.1</ele><time>2025-05-24T18:18:15Z</time></trkpt>
<trkpt lat="50.534067" lon="4.683224"><ele>145.03</ele><time>2025-05-24T18:18:20Z</time></trkpt>
<trkpt lat="50.534236" lon="4.683377"><ele>144.23</ele><time>2025-05-24T18:18:26Z</time></trkpt>
<trkpt lat="50.534855" lon="4.685188"><ele>133.88</ele><time>2025-05-24T18:18:31Z</time></trkpt>
<trkpt lat="50.535805" lon="4.687329"><ele>122.97</ele><time>2025-05-24T18:18:36Z</time></trkpt>
<trkpt lat="50.536079" lon="4.687723"><ele>123.98</ele><time>2025-05-24T18:18:42Z</time></trkpt>
<trkpt lat="50.536253" lon="4.687861"><ele>124.0</ele><time>2025-05-24T18:18:47Z</time></trkpt>
<trkpt lat="50.536338" lon="4.686763"><ele>123.0</ele><time>2025-05-24T18:19:04Z</time></trkpt>
<trkpt lat="50.53634" lon="4.686572"><ele>123.0</ele><time>2025-05-24T18:19:21Z</time></trkpt>
<trkpt lat="50.536324" lon="4.68648"><ele>123.0</ele><time>2025-05-24T18:19:39Z</time></trkpt>
<trkpt lat="50.535713" lon="4.684467"><ele>132.35</ele><time>2025-05-24T18:19:56Z</time></trkpt>
<trkpt lat="50.53562" lon="4.683829"><ele>136.05</ele><time>2025-05-24T18:20:13Z</time></trkpt>
<trkpt lat="50.537044" lon="4.682906"><ele>139.89</ele><time>2025-05-24T18:20:30Z</time></trkpt>
<trkpt lat="50.538627" lon="4.681932"><ele>144.88</ele><time>2025-05-24T18:20:47Z</time></trkpt>
<trkpt lat="50.541469" lon="4.680088"><ele>148.69</ele><time>2025-05-24T18:21:04Z</time></trkpt>
<trkpt lat="50.541469" lon="4.680088"><ele>148.69</ele><time>2025-05-24T18:21:04Z</time></trkpt>
<trkpt lat="50.541484" lon="4.680078"><ele>152.51</ele><time>2025-05-24T18:21:05Z</time></trkpt>
<trkpt lat="50.540972" lon="4.67178"><ele>158.0</ele><time>2025-05-24T18:21:45Z</time></trkpt>
<trkpt lat="50.540786" lon="4.667668"><ele>163.29</ele><time>2025-05-24T18:22:26Z</time></trkpt>
<trkpt lat="50.540784" lon="4.665926"><ele>163.88</ele><time>2025-05-24T18:23:06Z</time></trkpt>
<trkpt lat="50.540668" lon="4.665706"><ele>163.4</ele><time>2025-05-24T18:23:11Z</time></trkpt>
<trkpt lat="50.540524" lon="4.665487"><ele>162.64</ele><time>2025-05-24T18:23:16Z</time></trkpt>
<trkpt lat="50.540467" lon="4.665444"><ele>162.28</ele><time>2025-05-24T18:23:21Z</time></trkpt>
<trkpt lat="50.540073" lon="4.665404"><ele>161.86</ele><time>2025-05-24T18:23:26Z</time></trkpt>
<trkpt lat="50.540001" lon="4.665374"><ele>162.0</ele><time>2025-05-24T18:23:31Z</time></trkpt>
<trkpt lat="50.539921" lon="4.66528"><ele>162.0</ele><time>2025-05-24T18:23:36Z</time></trkpt>
<trkpt lat="50.539726" lon="4.664886"><ele>162.01</ele><time>2025-05-24T18:23:41Z</time></trkpt>
<trkpt lat="50.539563" lon="4.66444"><ele>160.84</ele><time>2025-05-24T18:23:45Z</time></trkpt>
<trkpt lat="50.539517" lon="4.663424"><ele>160.28</ele><time>2025-05-24T18:23:50Z</time></trkpt>
<trkpt lat="50.539426" lon="4.663281"><ele>160.19</ele><time>2025-05-24T18:23:55Z</time></trkpt>
<trkpt lat="50.538832" lon="4.66289"><ele>163.6</ele><time>2025-05-24T18:24:00Z</time></trkpt>
<trkpt lat="50.538731" lon="4.662777"><ele>164.0</ele><time>2025-05-24T18:24:05Z</time></trkpt>
<trkpt lat="50.539152" lon="4.662777"><ele>162.11</ele><time>2025-05-24T18:24:15Z</time></trkpt>
<trkpt lat="50.539269" lon="4.662751"><ele>162.16</ele><time>2025-05-24T18:24:24Z</time></trkpt>
<trkpt lat="50.539383" lon="4.662665"><ele>162.5</ele><time>2025-05-24T18:24:34Z</time></trkpt>
<trkpt lat="50.539763" lon="4.662222"><ele>165.15</ele><time>2025-05-24T18:24:43Z</time></trkpt>
<trkpt lat="50.540903" lon="4.660808"><ele>167.5</ele><time>2025-05-24T18:24:53Z</time></trkpt>
<trkpt lat="50.541109" lon="4.66051"><ele>165.69</ele><time>2025-05-24T18:25:02Z</time></trkpt>
<trkpt lat="50.541323" lon="4.660114"><ele>161.88</ele><time>2025-05-24T18:25:12Z</time></trkpt>
<trkpt lat="50.541634" lon="4.65942"><ele>161.21</ele><time>2025-05-24T18:25:21Z</time></trkpt>
<trkpt lat="50.543608" lon="4.653352"><ele>162.84</ele><time>2025-05-24T18:25:31Z</time></trkpt>
<trkpt lat="50.543732" lon="4.653099"><ele>165.12</ele><time>2025-05-24T18:25:40Z</time></trkpt>
<trkpt lat="50.543817" lon="4.65297"><ele>166.05</ele><time>2025-05-24T18:25:50Z</time></trkpt>
<trkpt lat="50.542752" lon="4.651158"><ele>163.09</ele><time>2025-05-24T18:25:59Z</time></trkpt>
<trkpt lat="50.543243" lon="4.650454"><ele>167.24</ele><time>2025-05-24T18:26:06Z</time></trkpt>
<trkpt lat="50.543727" lon="4.649831"><ele>170.64</ele><time>2025-05-24T18:26:13Z</time></trkpt>
<trkpt lat="50.544049" lon="4.649509"><ele>170.42</ele><time>2025-05-24T18:26:20Z</time></trkpt>
<trkpt lat="50.544226" lon="4.649468"><ele>169.79</ele><time>2025-05-24T18:26:27Z</time></trkpt>
<trkpt lat="50.544508" lon="4.649565"><ele>168.54</ele><time>2025-05-24T18:26:34Z</time></trkpt>
<trkpt lat="50.544621" lon="4.649493"><ele>167.73</ele><time>2025-05-24T18:26:42Z</time></trkpt>
<trkpt lat="50.545747" lon="4.647939"><ele>166.6</ele><time>2025-05-24T18:26:49Z</time></trkpt>
<trkpt lat="50.546496" lon="4.646571"><ele>166.83</ele><time>2025-05-24T18:26:56Z</time></trkpt>
<trkpt lat="50.547437" lon="4.644438"><ele>160.02</ele><time>2025-05-24T18:27:03Z</time></trkpt>
<trkpt lat="50.548263" lon="4.643236"><ele>161.35</ele><time>2025-05-24T18:27:10Z</time></trkpt>
<trkpt lat="50.549688" lon="4.640628"><ele>156.0</ele><time>2025-05-24T18:27:17Z</time></trkpt>
<trkpt lat="50.552199" lon="4.636715"><ele>153.09</ele><time>2025-05-24T18:27:24Z</time></trkpt>
<trkpt lat="50.552398" lon="4.636447"><ele>152.87</ele><time>2025-05-24T18:27:31Z</time></trkpt>
<trkpt lat="50.553023" lon="4.635883"><ele>154.74</ele><time>2025-05-24T18:27:39Z</time></trkpt>
<trkpt lat="50.556639" lon="4.632275"><ele>158.91</ele><time>2025-05-24T18:27:46Z</time></trkpt>
<trkpt lat="50.556766" lon="4.632109"><ele>158.69</ele><time>2025-05-24T18:27:53Z</time></trkpt>
<trkpt lat="50.555896" lon="4.628793"><ele>157.92</ele><time>2025-05-24T18:28:12Z</time></trkpt>
<trkpt lat="50.555539" lon="4.627701"><ele>157.96</ele><time>2025-05-24T18:28:32Z</time></trkpt>
<trkpt lat="50.554893" lon="4.625254"><ele>162.38</ele><time>2025-05-24T18:28:51Z</time></trkpt>
<trkpt lat="50.554485" lon="4.623492"><ele>159.65</ele><time>2025-05-24T18:29:10Z</time></trkpt>
<trkpt lat="50.553881" lon="4.621294"><ele>162.93</ele><time>2025-05-24T18:29:30Z</time></trkpt>
<trkpt lat="50.552795" lon="4.617182"><ele>159.99</ele><time>2025-05-24T18:29:49Z</time></trkpt>
<trkpt lat="50.552151" lon="4.614574"><ele>162.14</ele><time>2025-05-24T18:30:09Z</time></trkpt>
<trkpt lat="50.551318" lon="4.612047"><ele>162.0</ele><time>2025-05-24T18:30:28Z</time></trkpt>
<trkpt lat="50.549338" lon="4.604007"><ele>158.57</ele><time>2025-05-24T18:30:47Z</time></trkpt>
<trkpt lat="50.549149" lon="4.603327"><ele>157.98</ele><time>2025-05-24T18:31:07Z</time></trkpt>
<trkpt lat="50.548775" lon="4.601818"><ele>155.96</ele><time>2025-05-24T18:31:26Z</time></trkpt>
<trkpt lat="50.54875" lon="4.601005"><ele>154.31</ele><time>2025-05-24T18:31:45Z</time></trkpt>
<trkpt lat="50.548557" lon="4.600313"><ele>152.32</ele><time>2025-05-24T18:32:05Z</time></trkpt>
<trkpt lat="50.548203" lon="4.599741"><ele>152.5</ele><time>2025-05-24T18:32:24Z</time></trkpt>
<trkpt lat="50.546738" lon="4.594349"><ele>152.91</ele><time>2025-05-24T18:32:44Z</time></trkpt>
<trkpt lat="50.5462" lon="4.592234"><ele>156.28</ele><time>2025-05-24T18:33:03Z</time></trkpt>
<trkpt lat="50.547206" lon="4.591461"><ele>155.94</ele><time>2025-05-24T18:33:13Z</time></trkpt>
<trkpt lat="50.549805" lon="4.590061"><ele>158.83</ele><time>2025-05-24T18:33:23Z</time></trkpt>
<trkpt lat="50.55015" lon="4.589736"><ele>160.38</ele><time>2025-05-24T18:33:32Z</time></trkpt>
<trkpt lat="50.550714" lon="4.589124"><ele>159.15</ele><time>2025-05-24T18:33:42Z</time></trkpt>
<trkpt lat="50.551526" lon="4.587756"><ele>151.92</ele><time>2025-05-24T18:33:51Z</time></trkpt>
<trkpt lat="50.552798" lon="4.585454"><ele>147.54</ele><time>2025-05-24T18:34:01Z</time></trkpt>
<trkpt lat="50.55312" lon="4.584964"><ele>146.93</ele><time>2025-05-24T18:34:10Z</time></trkpt>
<trkpt lat="50.553643" lon="4.58428"><ele>148.59</ele><time>2025-05-24T18:34:20Z</time></trkpt>
<trkpt lat="50.554553" lon="4.583024"><ele>147.07</ele><time>2025-05-24T18:34:29Z</time></trkpt>
<trkpt lat="50.555341" lon="4.581841"><ele>146.23</ele><time>2025-05-24T18:34:39Z</time></trkpt>
<trkpt lat="50.555631" lon="4.581551"><ele>146.43</ele><time>2025-05-24T18:34:48Z</time></trkpt>
<trkpt lat="50.555856" lon="4.581455"><ele>146.06</ele><time>2025-05-24T18:34:58Z</time></trkpt>
<trkpt lat="50.556227" lon="4.581511"><ele>146.56</ele><time>2025-05-24T18:35:07Z</time></trkpt>
<trkpt lat="50.556565" lon="4.581615"><ele>146.82</ele><time>2025-05-24T18:35:17Z</time></trkpt>
<trkpt lat="50.557015" lon="4.581632"><ele>148.13</ele><time>2025-05-24T18:35:26Z</time></trkpt>
<trkpt lat="50.557482" lon="4.581567"><ele>149.63</ele><time>2025-05-24T18:35:36Z</time></trkpt>
<trkpt lat="50.558593" lon="4.58135"><ele>145.35</ele><time>2025-05-24T18:35:45Z</time></trkpt>
<trkpt lat="50.559929" lon="4.58131"><ele>146.23</ele><time>2025-05-24T18:35:55Z</time></trkpt>
<trkpt lat="50.560653" lon="4.581253"><ele>149.84</ele><time>2025-05-24T18:36:04Z</time></trkpt>
<trkpt lat="50.561173" lon="4.581185"><ele>151.77</ele><time>2025-05-24T18:36:14Z</time></trkpt>
<trkpt lat="50.561194" lon="4.581272"><ele>151.71</ele><time>2025-05-24T18:36:15Z</time></trkpt>
<trkpt lat="50.561194" lon="4.581272"><ele>151.71</ele><time>2025-05-24T18:36:15Z</time></trkpt>
<trkpt lat="50.561173" lon="4.581185"><ele>151.77</ele><time>2025-05-24T18:36:16Z</time></trkpt>
<trkpt lat="50.561972" lon="4.580779"><ele>150.9</ele><time>2025-05-24T18:36:33Z</time></trkpt>
<trkpt lat="50.562286" lon="4.580642"><ele>149.54</ele><time>2025-05-24T18:36:51Z</time></trkpt>
<trkpt lat="50.563429" lon="4.580014"><ele>145.0</ele><time>2025-05-24T18:37:08Z</time></trkpt>
<trkpt lat="50.563582" lon="4.580022"><ele>145.0</ele><time>2025-05-24T18:37:25Z</time></trkpt>
<trkpt lat="50.564081" lon="4.580223"><ele>146.38</ele><time>2025-05-24T18:37:43Z</time></trkpt>
<trkpt lat="50.564499" lon="4.58036"><ele>147.1</ele><time>2025-05-24T18:38:00Z</time></trkpt>
<trkpt lat="50.566591" lon="4.58094"><ele>149.17</ele><time>2025-05-24T18:38:18Z</time></trkpt>
<trkpt lat="50.567877" lon="4.581336"><ele>147.28</ele><time>2025-05-24T18:38:35Z</time></trkpt>
<trkpt lat="50.568177" lon="4.581335"><ele>145.13</ele><time>2025-05-24T18:38:52Z</time></trkpt>
<trkpt lat="50.571034" lon="4.579934"><ele>146.51</ele><time>2025-05-24T18:39:24Z</time></trkpt>
<trkpt lat="50.572762" lon="4.579086"><ele>152.87</ele><time>2025-05-24T18:39:55Z</time></trkpt>
<trkpt lat="50.573312" lon="4.57864"><ele>154.9</ele><time>2025-05-24T18:40:27Z</time></trkpt>
<trkpt lat="50.574037" lon="4.577919"><ele>155.23</ele><time>2025-05-24T18:40:59Z</time></trkpt>
<trkpt lat="50.574491" lon="4.57733"><ele>154.66</ele><time>2025-05-24T18:41:30Z</time></trkpt>
<trkpt lat="50.575206" lon="4.578539"><ele>154.0</ele><time>2025-05-24T18:41:37Z</time></trkpt>
<trkpt lat="50.575334" lon="4.578684"><ele>154.5</ele><time>2025-05-24T18:41:44Z</time></trkpt>
<trkpt lat="50.575954" lon="4.579225"><ele>156.0</ele><time>2025-05-24T18:41:51Z</time></trkpt>
<trkpt lat="50.57639" lon="4.579397"><ele>157.0</ele><time>2025-05-24T18:41:58Z</time></trkpt>
<trkpt lat="50.57671" lon="4.579439"><ele>157.98</ele><time>2025-05-24T18:42:05Z</time></trkpt>
<trkpt lat="50.577026" lon="4.57939"><ele>157.57</ele><time>2025-05-24T18:42:12Z</time></trkpt>
<trkpt lat="50.577685" lon="4.579156"><ele>157.34</ele><time>2025-05-24T18:42:19Z</time></trkpt>
<trkpt lat="50.578064" lon="4.579054"><ele>155.0</ele><time>2025-05-24T18:42:26Z</time></trkpt>
<trkpt lat="50.578485" lon="4.578994"><ele>155.55</ele><time>2025-05-24T18:42:33Z</time></trkpt>
<trkpt lat="50.579061" lon="4.578993"><ele>157.62</ele><time>2025-05-24T18:42:39Z</time></trkpt>
<trkpt lat="50.579615" lon="4.578916"><ele>159.61</ele><time>2025-05-24T18:42:46Z</time></trkpt>
<trkpt lat="50.58189" lon="4.578266"><ele>156.76</ele><time>2025-05-24T18:42:53Z</time></trkpt>
<trkpt lat="50.582229" lon="4.578219"><ele>156.62</ele><time>2025-05-24T18:43:00Z</time></trkpt>
<trkpt lat="50.584512" lon="4.578203"><ele>152.4</ele><time>2025-05-24T18:43:07Z</time></trkpt>
<trkpt lat="50.584702" lon="4.578219"><ele>152.04</ele><time>2025-05-24T18:43:14Z</time></trkpt>
<trkpt lat="50.585182" lon="4.578459"><ele>152.65</ele><time>2025-05-24T18:43:21Z</time></trkpt>
<trkpt lat="50.585738" lon="4.578691"><ele>153.71</ele><time>2025-05-24T18:43:28Z</time></trkpt>
<trkpt lat="50.586353" lon="4.578905"><ele>153.87</ele><time>2025-05-24T18:43:35Z</time></trkpt>
<trkpt lat="50.586844" lon="4.578974"><ele>153.69</ele><time>2025-05-24T18:43:42Z</time></trkpt>
<trkpt lat="50.587133" lon="4.578991"><ele>153.63</ele><time>2025-05-24T18:43:48Z</time></trkpt>
<trkpt lat="50.587415" lon="4.578865"><ele>153.25</ele><time>2025-05-24T18:43:55Z</time></trkpt>
<trkpt lat="50.587572" lon="4.578739"><ele>152.2</ele><time>2025-05-24T18:44:02Z</time></trkpt>
<trkpt lat="50.587647" lon="4.578637"><ele>151.56</ele><time>2025-05-24T18:44:09Z</time></trkpt>
<trkpt lat="50.587592" lon="4.578474"><ele>151.67</ele><time>2025-05-24T18:44:14Z</time></trkpt>
<trkpt lat="50.587427" lon="4.578179"><ele>151.82</ele><time>2025-05-24T18:44:19Z</time></trkpt>
<trkpt lat="50.585839" lon="4.576288"><ele>149.0</ele><time>2025-05-24T18:44:24Z</time></trkpt>
<trkpt lat="50.58558" lon="4.575885"><ele>149.17</ele><time>2025-05-24T18:44:29Z</time></trkpt>
<trkpt lat="50.585337" lon="4.575462"><ele>147.88</ele><time>2025-05-24T18:44:34Z</time></trkpt>
<trkpt lat="50.585146" lon="4.575075"><ele>147.0</ele><time>2025-05-24T18:44:39Z</time></trkpt>
<trkpt lat="50.584925" lon="4.574497"><ele>147.27</ele><time>2025-05-24T18:44:44Z</time></trkpt>
<trkpt lat="50.584789" lon="4.574202"><ele>147.3</ele><time>2025-05-24T18:44:49Z</time></trkpt>
<trkpt lat="50.584105" lon="4.573078"><ele>145.3</ele><time>2025-05-24T18:44:54Z</time></trkpt>
<trkpt lat="50.583893" lon="4.572789"><ele>145.04</ele><time>2025-05-24T18:44:59Z</time></trkpt>
<trkpt lat="50.582965" lon="4.571715"><ele>138.67</ele><time>2025-05-24T18:45:03Z</time></trkpt>
<trkpt lat="50.582229" lon="4.570772"><ele>139.02</ele><time>2025-05-24T18:45:08Z</time></trkpt>
<trkpt lat="50.582073" lon="4.570538"><ele>138.43</ele><time>2025-05-24T18:45:13Z</time></trkpt>
<trkpt lat="50.582017" lon="4.570405"><ele>137.86</ele><time>2025-05-24T18:45:18Z</time></trkpt>
<trkpt lat="50.581688" lon="4.569383"><ele>134.87</ele><time>2025-05-24T18:45:23Z</time></trkpt>
<trkpt lat="50.581655" lon="4.569189"><ele>134.08</ele><time>2025-05-24T18:45:28Z</time></trkpt>
<trkpt lat="50.581668" lon="4.568988"><ele>134.01</ele><time>2025-05-24T18:45:33Z</time></trkpt>
<trkpt lat="50.581731" lon="4.568789"><ele>134.66</ele><time>2025-05-24T18:45:38Z</time></trkpt>
<trkpt lat="50.581742" lon="4.568745"><ele>134.81</ele><time>2025-05-24T18:45:43Z</time></trkpt>
<trkpt lat="50.581742" lon="4.568745"><ele>134.81</ele><time>2025-05-24T18:45:43Z</time></trkpt>
<trkpt lat="50.581731" lon="4.568789"><ele>134.66</ele><time>2025-05-24T18:45:43Z</time></trkpt>
<trkpt lat="50.581577" lon="4.568754"><ele>134.17</ele><time>2025-05-24T18:45:50Z</time></trkpt>
<trkpt lat="50.581345" lon="4.568795"><ele>133.5</ele><time>2025-05-24T18:45:57Z</time></trkpt>
<trkpt lat="50.581156" lon="4.568903"><ele>133.2</ele><time>2025-05-24T18:46:03Z</time></trkpt>
<trkpt lat="50.580915" lon="4.569081"><ele>133.91</ele><time>2025-05-24T18:46:10Z</time></trkpt>
<trkpt lat="50.580681" lon="4.569177"><ele>134.57</ele><time>2025-05-24T18:46:17Z</time></trkpt>
<trkpt lat="50.580568" lon="4.569133"><ele>134.95</ele><time>2025-05-24T18:46:23Z</time></trkpt>
<trkpt lat="50.579992" lon="4.568708"><ele>134.73</ele><time>2025-05-24T18:46:30Z</time></trkpt>
<trkpt lat="50.579653" lon="4.568358"><ele>134.59</ele><time>2025-05-24T18:46:37Z</time></trkpt>
<trkpt lat="50.579008" lon="4.567647"><ele>135.63</ele><time>2025-05-24T18:46:43Z</time></trkpt>
<trkpt lat="50.578507" lon="4.567013"><ele>135.09</ele><time>2025-05-24T18:46:50Z</time></trkpt>
<trkpt lat="50.577294" lon="4.564923"><ele>130.46</ele><time>2025-05-24T18:46:57Z</time></trkpt>
<trkpt lat="50.577098" lon="4.564748"><ele>131.03</ele><time>2025-05-24T18:47:03Z</time></trkpt>
<trkpt lat="50.57671" lon="4.564516"><ele>133.79</ele><time>2025-05-24T18:47:10Z</time></trkpt>
<trkpt lat="50.576353" lon="4.5642"><ele>136.48</ele><time>2025-05-24T18:47:17Z</time></trkpt>
<trkpt lat="50.576195" lon="4.563914"><ele>136.21</ele><time>2025-05-24T18:47:23Z</time></trkpt>
<trkpt lat="50.575472" lon="4.562144"><ele>130.94</ele><time>2025-05-24T18:47:30Z</time></trkpt>
<trkpt lat="50.575672" lon="4.561924"><ele>127.98</ele><time>2025-05-24T18:47:38Z</time></trkpt>
<trkpt lat="50.576392" lon="4.561341"><ele>123.01</ele><time>2025-05-24T18:47:46Z</time></trkpt>
<trkpt lat="50.576785" lon="4.560851"><ele>125.78</ele><time>2025-05-24T18:47:55Z</time></trkpt>
<trkpt lat="50.577029" lon="4.560505"><ele>127.61</ele><time>2025-05-24T18:48:03Z</time></trkpt>
<trkpt lat="50.577297" lon="4.560046"><ele>129.88</ele><time>2025-05-24T18:48:11Z</time></trkpt>
<trkpt lat="50.577827" lon="4.559041"><ele>134.8</ele><time>2025-05-24T18:48:19Z</time></trkpt>
<trkpt lat="50.577849" lon="4.558935"><ele>135.35</ele><time>2025-05-24T18:48:27Z</time></trkpt>
<trkpt lat="50.577842" lon="4.55883"><ele>135.88</ele><time>2025-05-24T18:48:35Z</time></trkpt>
<trkpt lat="50.5774" lon="4.557894"><ele>136.0</ele><time>2025-05-24T18:48:44Z</time></trkpt>
<trkpt lat="50.577062" lon="4.556878"><ele>135.42</ele><time>2025-05-24T18:48:52Z</time></trkpt>
<trkpt lat="50.576906" lon="4.556663"><ele>135.03</ele><time>2025-05-24T18:49:00Z</time></trkpt>
<trkpt lat="50.576749" lon="4.556522"><ele>136.04</ele><time>2025-05-24T18:49:08Z</time></trkpt>
<trkpt lat="50.576374" lon="4.556437"><ele>135.61</ele><time>2025-05-24T18:49:16Z</time></trkpt>
<trkpt lat="50.576227" lon="4.55636"><ele>135.46</ele><time>2025-05-24T18:49:24Z</time></trkpt>
<trkpt lat="50.575809" lon="4.555822"><ele>132.91</ele><time>2025-05-24T18:49:33Z</time></trkpt>
<trkpt lat="50.575558" lon="4.555558"><ele>132.01</ele><time>2025-05-24T18:49:41Z</time></trkpt>
<trkpt lat="50.575249" lon="4.555431"><ele>130.65</ele><time>2025-05-24T18:49:49Z</time></trkpt>
<trkpt lat="50.574321" lon="4.554655"><ele>123.8</ele><time>2025-05-24T18:49:57Z</time></trkpt>
<trkpt lat="50.573915" lon="4.554172"><ele>118.57</ele><time>2025-05-24T18:50:05Z</time></trkpt>
<trkpt lat="50.573532" lon="4.553417"><ele>116.72</ele><time>2025-05-24T18:50:13Z</time></trkpt>
<trkpt lat="50.573364" lon="4.552789"><ele>117.22</ele><time>2025-05-24T18:50:22Z</time></trkpt>
<trkpt lat="50.573296" lon="4.552697"><ele>116.69</ele><time>2025-05-24T18:50:30Z</time></trkpt>
<trkpt lat="50.573175" lon="4.552593"><ele>115.48</ele><time>2025-05-24T18:50:38Z</time></trkpt>
<trkpt lat="50.572891" lon="4.552508"><ele>112.86</ele><time>2025-05-24T18:50:46Z</time></trkpt>
</trkseg>
</trk>
</gpx>